# Wetter Temperatur Luftdruck Luftfeuchtigkeit Sichtweite Windgeschwindigkeit Windrichtung Zeit
1 Clouds 21 1015 73 10000 2.6 340 07:19 14.07.2020
2 Clouds 21 1014 73 10000 3.1 340 06:58 14.07.2020
3 Clouds 21 1014 73 10000 3.1 340 06:27 14.07.2020
4 Clouds 22 1014 73 10000 2.6 330 05:50 14.07.2020
5 Clouds 22 1015 78 10000 3.6 340 04:54 14.07.2020
6 Clouds 22 1015 78 10000 4.1 340 04:33 14.07.2020
7 Clouds 21 1015 78 10000 3.6 340 03:31 14.07.2020
8 Clouds 22 1015 78 10000 3.1 340 02:30 14.07.2020
9 Clouds 22 1015 83 10000 5.1 330 01:45 14.07.2020
10 Clouds 22 1015 83 10000 4.6 320 01:23 14.07.2020
11 Clouds 22 1016 83 10000 3.6 330 00:43 14.07.2020
12 Clouds 22 1016 83 10000 3.1 330 00:25 14.07.2020
13 Clouds 22 1016 83 10000 3.6 330 23:39 13.07.2020
14 Clouds 22 1016 83 10000 3.6 330 23:20 13.07.2020
15 Rain 22 1016 83 10000 2.6 320 22:58 13.07.2020
16 Rain 22 1016 73 10000 4.6 330 22:39 13.07.2020
17 Rain 22 1016 73 10000 4.6 330 22:20 13.07.2020
18 Clouds 24 1015 69 10000 4.1 320 21:55 13.07.2020
19 Clouds 23 1015 65 10000 3.6 320 21:37 13.07.2020
20 Clouds 23 1015 65 10000 3.6 320 21:19 13.07.2020
21 Clouds 24 1015 69 10000 4.6 320 20:56 13.07.2020
22 Clouds 24 1015 65 10000 3.6 330 20:37 13.07.2020
23 Clouds 24 1015 65 10000 3.6 330 20:19 13.07.2020
24 Clouds 24 1016 61 10000 2.6 230 19:43 13.07.2020
25 Clouds 24 1016 61 10000 2.6 230 19:25 13.07.2020
26 Clouds 25 1016 57 10000 2.6 60 18:57 13.07.2020
27 Clouds 25 1016 57 10000 2.6 60 18:39 13.07.2020
28 Clouds 25 1016 57 10000 2.6 60 18:20 13.07.2020
29 Clouds 25 1016 61 10000 3.6 60 17:56 13.07.2020
30 Clouds 24 1017 61 10000 3.1 30 17:37 13.07.2020
31 Clouds 24 1017 61 10000 3.1 30 17:19 13.07.2020
32 Rain 25 1017 61 10000 2.6 360 16:55 13.07.2020
33 Rain 24 1018 69 10000 3.1 320 16:36 13.07.2020
34 Rain 24 1018 69 10000 3.1 320 16:18 13.07.2020
35 Clouds 23 1018 60 10000 2.1 310 15:55 13.07.2020
36 Clouds 23 1018 61 10000 2.1 320 15:37 13.07.2020
37 Clouds 24 1018 61 10000 2.1 320 15:18 13.07.2020
38 Rain 25 1018 60 10000 1.5 100 14:55 13.07.2020
39 Rain 24 1018 57 10000 3.1 70 14:36 13.07.2020
40 Rain 24 1018 57 10000 3.1 70 14:18 13.07.2020
41 Clouds 24 1019 61 10000 2.6 80 13:41 13.07.2020
42 Rain 23 1019 61 10000 4.6 70 13:21 13.07.2020
43 Rain 24 1018 57 10000 5.1 100 12:54 13.07.2020
44 Clouds 24 1018 61 10000 7.2 110 12:36 13.07.2020
45 Clouds 24 1018 61 10000 7.2 110 12:18 13.07.2020
46 Clouds 25 1018 54 10000 6.7 110 11:40 13.07.2020
47 Clouds 25 1018 54 10000 6.7 110 11:22 13.07.2020
48 Clouds 25 1018 54 10000 6.7 110 11:22 13.07.2020
49 Clouds 25 1018 61 10000 3.1 110 10:43 13.07.2020
50 Clouds 26 1018 61 10000 3.1 110 10:21 13.07.2020
51 Clouds 25 1018 65 10000 2.1 140 09:57 13.07.2020
52 Clouds 24 1018 61 10000 1 0 09:38 13.07.2020
53 Clouds 26 1018 61 10000 1 0 09:20 13.07.2020
54 Clouds 25 1018 57 10000 2.6 330 08:47 13.07.2020
55 Rain 25 1018 61 10000 2.6 330 08:28 13.07.2020
56 Clouds 24 1018 60 10000 4.1 320 07:25 13.07.2020
57 Clouds 24 1017 60 10000 4.1 320 06:53 13.07.2020
58 Clouds 23 1017 60 10000 4.6 320 06:35 13.07.2020
59 Clouds 23 1017 60 10000 4.6 320 05:35 13.07.2020
60 Clouds 24 1017 57 10000 1.5 310 04:25 13.07.2020
61 Clouds 25 1018 54 10000 2.6 340 01:46 13.07.2020
62 Clouds 25 1018 54 10000 4.1 350 01:24 13.07.2020
63 Clouds 25 1018 50 10000 4.6 10 00:46 13.07.2020
64 Clouds 25 1017 50 10000 3.6 340 00:24 13.07.2020
65 Clouds 26 1017 47 10000 2.6 340 23:46 12.07.2020
66 Clouds 26 1017 51 10000 3.1 340 23:23 12.07.2020
67 Clouds 26 1017 51 10000 4.1 330 22:59 12.07.2020
68 Clouds 26 1017 48 10000 3.6 320 22:37 12.07.2020
69 Clouds 26 1017 48 10000 3.6 320 22:19 12.07.2020
70 Clouds 27 1017 48 10000 2.6 330 21:57 12.07.2020
71 Clouds 26 1017 48 10000 2.6 330 21:57 12.07.2020
72 Clouds 26 1017 54 10000 2.6 250 21:39 12.07.2020
73 Clouds 26 1017 54 10000 2.6 250 21:20 12.07.2020
74 Clouds 26 1017 54 10000 1.5 0 20:58 12.07.2020
75 Clouds 26 1017 57 10000 1.5 200 20:39 12.07.2020
76 Clouds 26 1017 57 10000 1.5 200 20:19 12.07.2020
77 Clouds 27 1017 51 10000 2.1 210 19:54 12.07.2020
78 Clouds 27 1017 54 10000 1.5 180 19:36 12.07.2020
79 Clouds 28 1017 54 10000 1.5 180 19:18 12.07.2020
80 Clouds 27 1017 48 10000 1 0 18:40 12.07.2020
81 Clouds 28 1017 45 10000 1.5 0 18:19 12.07.2020
82 Clouds 28 1018 54 10000 1 0 17:57 12.07.2020
83 Clouds 27 1018 61 10000 2.6 220 17:36 12.07.2020
84 Clouds 27 1018 61 10000 2.6 220 17:18 12.07.2020
85 Clouds 28 1018 58 10000 3.1 200 16:42 12.07.2020
86 Clouds 28 1018 58 10000 3.6 200 16:20 12.07.2020
87 Clouds 28 1018 58 10000 3.6 190 15:43 12.07.2020
88 Clouds 28 1017 58 10000 2.1 180 15:24 12.07.2020
89 Clouds 28 1017 61 10000 3.1 150 14:45 12.07.2020
90 Clouds 28 1018 61 10000 3.1 170 14:27 12.07.2020
91 Clouds 27 1017 65 10000 3.6 180 13:57 12.07.2020
92 Clouds 27 1017 69 10000 4.1 200 13:39 12.07.2020
93 Clouds 27 1017 69 10000 4.1 200 13:20 12.07.2020
94 Clouds 27 1017 74 10000 5.1 200 12:54 12.07.2020
95 Clouds 26 1017 74 10000 5.7 190 12:36 12.07.2020
96 Clouds 26 1017 74 10000 5.7 190 12:18 12.07.2020
97 Clouds 27 1017 78 10000 5.1 190 11:42 12.07.2020
98 Clouds 27 1017 69 10000 4.1 200 11:19 12.07.2020
99 Clouds 26 1017 69 10000 1.5 0 10:42 12.07.2020
100 Clouds 26 1017 69 10000 1.5 0 10:42 12.07.2020
101 Clouds 26 1017 69 10000 1.5 0 10:22 12.07.2020
102 Clouds 26 1017 69 10000 1 0 09:55 12.07.2020
103 Clouds 25 1017 69 10000 1 0 09:37 12.07.2020
104 Clouds 25 1017 69 10000 1 0 09:18 12.07.2020
105 Clouds 25 1016 69 10000 1.5 40 08:42 12.07.2020
106 Clouds 24 1016 73 10000 1 0 08:23 12.07.2020
107 Clouds 23 1016 78 10000 2.1 330 07:57 12.07.2020
108 Clouds 23 1016 78 10000 1.5 310 07:37 12.07.2020
109 Clouds 22 1016 78 10000 1.5 310 07:18 12.07.2020
110 Clouds 22 1015 83 10000 1 0 06:49 12.07.2020
111 Clouds 22 1015 83 10000 1.5 340 06:20 12.07.2020
112 Clouds 22 1015 83 10000 1.5 340 06:20 12.07.2020
113 Clouds 23 1015 78 10000 3.1 80 05:23 12.07.2020
114 Clouds 23 1015 78 10000 3.6 90 04:44 12.07.2020
115 Clouds 23 1015 83 10000 5.1 90 04:24 12.07.2020
116 Clouds 24 1015 78 10000 6.2 90 03:34 12.07.2020
117 Clouds 24 1015 83 10000 6.7 90 02:47 12.07.2020
118 Clouds 23 1015 83 10000 6.7 90 01:44 12.07.2020
119 Clouds 23 1015 83 10000 5.7 90 00:49 12.07.2020
120 Clouds 23 1015 83 10000 6.7 90 00:23 12.07.2020
121 Clouds 23 1015 83 10000 6.7 90 23:57 11.07.2020
122 Clouds 23 1015 83 10000 6.7 90 23:57 11.07.2020
123 Clouds 23 1014 83 10000 7.2 90 23:38 11.07.2020
124 Clouds 23 1014 83 10000 7.2 90 23:19 11.07.2020
125 Clouds 24 1014 78 10000 7.7 90 22:46 11.07.2020
126 Clouds 24 1014 78 10000 7.2 100 22:26 11.07.2020
127 Clouds 24 1013 78 10000 8.2 90 21:59 11.07.2020
128 Clouds 24 1013 78 10000 7.7 90 21:40 11.07.2020
129 Clouds 24 1013 78 10000 7.7 90 21:22 11.07.2020
130 Clouds 24 1013 83 10000 8.2 90 20:56 11.07.2020
131 Clouds 24 1013 78 10000 9.3 90 20:38 11.07.2020
132 Clouds 24 1013 78 10000 9.3 90 20:20 11.07.2020
133 Clouds 24 1012 78 10000 7.2 90 19:57 11.07.2020
134 Clouds 24 1012 78 10000 7.2 90 19:39 11.07.2020
135 Clouds 24 1012 78 10000 7.2 90 19:20 11.07.2020
136 Clouds 25 1012 69 10000 6.7 90 18:55 11.07.2020
137 Clouds 25 1013 69 10000 6.2 100 18:37 11.07.2020
138 Clouds 25 1013 69 10000 6.2 100 18:18 11.07.2020
139 Clouds 25 1013 69 10000 5.7 100 17:42 11.07.2020
140 Clouds 25 1013 69 10000 5.7 100 17:42 11.07.2020
141 Clouds 25 1013 69 10000 5.7 100 17:21 11.07.2020
142 Clouds 25 1013 65 10000 4.6 100 16:59 11.07.2020
143 Clouds 25 1013 69 10000 4.1 110 16:38 11.07.2020
144 Clouds 25 1013 69 10000 4.1 110 16:19 11.07.2020
145 Clouds 25 1013 69 10000 4.1 120 15:57 11.07.2020
146 Clouds 25 1013 69 10000 3.6 120 15:37 11.07.2020
147 Clouds 25 1013 69 10000 3.6 120 15:18 11.07.2020
148 Clouds 26 1013 69 10000 3.6 110 14:44 11.07.2020
149 Clouds 25 1014 69 10000 3.1 130 14:23 11.07.2020
150 Clouds 25 1014 69 10000 3.1 130 14:23 11.07.2020
151 Clouds 25 1014 74 10000 3.1 120 13:57 11.07.2020
152 Clouds 25 1014 74 10000 3.1 130 13:38 11.07.2020
153 Clouds 25 1014 74 10000 3.1 130 13:20 11.07.2020
154 Clouds 25 1014 74 10000 3.1 130 12:44 11.07.2020
155 Clouds 25 1014 74 10000 3.1 130 12:23 11.07.2020
156 Clouds 25 1014 74 10000 2.6 130 11:59 11.07.2020
157 Clouds 24 1014 69 10000 2.6 120 11:41 11.07.2020
158 Clouds 24 1014 69 10000 2.6 120 11:19 11.07.2020
159 Clouds 24 1014 74 10000 2.6 120 10:46 11.07.2020
160 Clouds 24 1014 69 10000 2.1 120 10:28 11.07.2020
161 Clouds 25 1014 69 10000 2.1 120 09:59 11.07.2020
162 Clouds 24 1014 69 10000 1 0 09:37 11.07.2020
163 Clouds 25 1014 69 10000 1 0 09:19 11.07.2020
164 Clouds 24 1013 69 10000 1.5 0 08:43 11.07.2020
165 Clouds 24 1014 73 10000 1.5 0 08:25 11.07.2020
166 Clouds 23 1014 73 10000 2.1 330 07:55 11.07.2020
167 Clouds 22 1014 78 10000 3.1 330 07:36 11.07.2020
168 Clouds 22 1014 78 10000 3.1 330 07:18 11.07.2020
169 Clouds 21 1013 78 10000 2.6 330 06:25 11.07.2020
170 Clouds 21 1013 78 10000 1.5 330 05:54 11.07.2020
171 Clouds 21 1013 83 10000 2.6 330 05:19 11.07.2020
172 Clouds 22 1013 78 10000 2.1 330 04:44 11.07.2020
173 Clouds 22 1014 83 10000 1.5 40 04:19 11.07.2020
174 Clear 22 1014 78 10000 1.5 120 02:54 11.07.2020
175 Clouds 22 1014 78 10000 2.6 110 02:25 11.07.2020
176 Clouds 23 1014 78 10000 3.6 90 01:24 11.07.2020
177 Clouds 23 1014 78 10000 3.6 70 00:57 11.07.2020
178 Clouds 22 1014 73 10000 2.1 80 00:37 11.07.2020
179 Clouds 22 1014 73 10000 2.1 80 00:18 11.07.2020
180 Clouds 23 1014 73 10000 1.5 100 23:45 10.07.2020
181 Clouds 23 1014 73 10000 1.5 120 23:26 10.07.2020
182 Clouds 23 1014 73 10000 0.5 0 22:57 10.07.2020
183 Clouds 23 1014 73 10000 0.5 0 22:38 10.07.2020
184 Clouds 23 1014 73 10000 0.5 0 22:19 10.07.2020
185 Clouds 23 1014 69 10000 2.1 190 21:40 10.07.2020
186 Clouds 23 1014 69 10000 2.1 190 21:21 10.07.2020
187 Clouds 24 1014 69 10000 3.6 180 20:58 10.07.2020
188 Clouds 24 1014 65 10000 1.5 160 20:40 10.07.2020
189 Clouds 25 1014 65 10000 1.5 160 20:20 10.07.2020
190 Clouds 24 1014 65 10000 1.5 150 19:57 10.07.2020
191 Clouds 25 1014 69 10000 2.1 170 19:39 10.07.2020
192 Clouds 25 1014 69 10000 2.1 170 19:19 10.07.2020
193 Clouds 26 1014 69 10000 1.5 180 18:41 10.07.2020
194 Clouds 25 1014 69 10000 2.1 170 18:20 10.07.2020
195 Clouds 25 1015 74 10000 2.1 160 17:57 10.07.2020
196 Clouds 25 1015 74 10000 2.1 160 17:57 10.07.2020
197 Clouds 25 1015 74 10000 3.1 160 17:38 10.07.2020
198 Clouds 25 1015 74 10000 3.1 160 17:20 10.07.2020
199 Clouds 26 1014 69 10000 3.6 130 16:42 10.07.2020
200 Clouds 26 1014 69 10000 3.6 130 16:20 10.07.2020
201 Clouds 25 1014 74 10000 3.6 130 15:48 10.07.2020
202 Clouds 26 1014 69 10000 3.1 110 15:26 10.07.2020
203 Clouds 25 1015 69 10000 2.6 130 14:59 10.07.2020
204 Clouds 25 1015 74 10000 2.6 150 14:40 10.07.2020
205 Clouds 25 1015 74 10000 2.6 150 14:20 10.07.2020
206 Clouds 25 1015 69 10000 2.6 150 13:57 10.07.2020
207 Clouds 26 1015 74 10000 2.6 150 13:38 10.07.2020
208 Clouds 25 1015 74 10000 2.6 150 13:20 10.07.2020
209 Clouds 25 1016 69 10000 2.6 140 12:56 10.07.2020
210 Clouds 25 1016 69 10000 2.6 140 12:37 10.07.2020
211 Clouds 25 1016 69 10000 2.6 140 12:19 10.07.2020
212 Clear 26 1016 74 10000 2.1 150 11:42 10.07.2020
213 Clear 25 1016 74 10000 2.1 150 11:21 10.07.2020
214 Clear 25 1016 74 10000 2.1 140 10:58 10.07.2020
215 Clouds 25 1016 69 10000 1.5 100 10:39 10.07.2020
216 Clouds 25 1016 69 10000 1.5 100 10:20 10.07.2020
217 Clouds 25 1016 69 10000 1 0 09:41 10.07.2020
218 Clouds 24 1016 69 10000 1 0 09:23 10.07.2020
219 Clouds 23 1016 61 10000 1 0 08:59 10.07.2020
220 Clouds 25 1016 61 10000 1 0 08:41 10.07.2020
221 Clouds 24 1016 64 10000 2.6 340 08:22 10.07.2020
222 Clouds 23 1016 64 10000 2.6 330 07:47 10.07.2020
223 Clouds 22 1015 68 10000 1.5 0 07:24 10.07.2020
224 Clouds 21 1015 68 10000 2.6 330 06:57 10.07.2020
225 Clear 21 1015 68 10000 3.1 330 06:39 10.07.2020
226 Clear 21 1015 68 10000 3.1 330 05:28 10.07.2020
227 Clear 20 1015 68 10000 2.6 330 03:55 10.07.2020
228 Clear 21 1016 69 10000 2.6 330 02:55 10.07.2020
229 Clear 22 1016 69 10000 2.6 320 02:21 10.07.2020
230 Clear 22 1016 64 10000 2.1 320 00:56 10.07.2020
231 Clear 22 1016 69 10000 2.1 310 00:38 10.07.2020
232 Clear 22 1016 69 10000 2.1 310 00:18 10.07.2020
233 Clear 23 1016 69 10000 1.5 200 23:38 09.07.2020
234 Clear 23 1016 69 10000 1.5 200 23:19 09.07.2020
235 Clear 23 1016 73 10000 1.5 200 22:56 09.07.2020
236 Clear 23 1016 69 10000 1.5 200 22:38 09.07.2020
237 Clear 24 1016 69 10000 1.5 200 22:20 09.07.2020
238 Clear 24 1016 69 10000 1.5 180 21:55 09.07.2020
239 Clear 24 1016 65 10000 1.5 180 21:36 09.07.2020
240 Clear 24 1016 65 10000 1.5 180 21:18 09.07.2020
241 Clear 24 1016 69 10000 2.1 180 20:41 09.07.2020
242 Clear 25 1016 61 10000 1.5 180 20:23 09.07.2020
243 Clear 25 1016 61 10000 2.6 180 19:56 09.07.2020
244 Clear 26 1016 61 10000 3.1 180 19:38 09.07.2020
245 Clear 26 1016 61 10000 3.1 180 19:19 09.07.2020
246 Clear 27 1016 61 10000 3.1 170 18:41 09.07.2020
247 Clear 27 1016 57 10000 2.6 170 18:20 09.07.2020
248 Clear 27 1016 61 10000 3.1 170 17:55 09.07.2020
249 Clear 26 1017 61 10000 3.1 170 17:37 09.07.2020
250 Clear 27 1017 61 10000 3.1 170 17:18 09.07.2020
251 Clear 27 1017 61 10000 3.1 170 16:54 09.07.2020
252 Clear 27 1017 61 10000 3.1 160 16:36 09.07.2020
253 Clear 26 1017 61 10000 3.1 160 16:18 09.07.2020
254 Clear 26 1017 61 10000 2.6 170 15:45 09.07.2020
255 Clear 26 1017 61 10000 2.6 160 15:27 09.07.2020
256 Clear 26 1017 61 10000 3.1 170 14:59 09.07.2020
257 Clear 27 1017 57 10000 2.6 160 14:40 09.07.2020
258 Clear 27 1017 57 10000 2.6 160 14:22 09.07.2020
259 Clear 27 1017 57 10000 2.6 160 13:58 09.07.2020
260 Clear 27 1017 54 10000 2.1 140 13:39 09.07.2020
261 Clear 27 1017 54 10000 2.1 140 13:20 09.07.2020
262 Clear 27 1018 57 10000 1.5 130 12:43 09.07.2020
263 Clear 26 1018 65 10000 2.1 160 12:24 09.07.2020
264 Clear 26 1018 69 10000 1.5 150 11:59 09.07.2020
265 Clear 26 1018 69 10000 1.5 0 11:41 09.07.2020
266 Clear 26 1018 69 10000 1.5 0 11:23 09.07.2020
267 Clear 26 1017 65 10000 2.1 100 10:58 09.07.2020
268 Clear 26 1017 69 10000 2.6 110 10:40 09.07.2020
269 Clear 26 1017 69 10000 2.6 110 10:40 09.07.2020
270 Clear 25 1017 69 10000 2.6 110 10:22 09.07.2020
271 Clear 25 1017 65 10000 2.6 100 09:58 09.07.2020
272 Clear 25 1016 65 10000 2.6 80 09:39 09.07.2020
273 Clear 25 1016 65 10000 2.6 80 09:21 09.07.2020
274 Clear 25 1016 61 10000 2.1 60 08:43 09.07.2020
275 Clear 24 1016 61 10000 1.5 10 08:24 09.07.2020
276 Clear 23 1016 64 10000 2.1 340 07:47 09.07.2020
277 Clear 23 1016 64 10000 2.6 340 07:22 09.07.2020
278 Clear 22 1016 68 10000 3.1 330 06:53 09.07.2020
279 Clear 22 1016 68 10000 3.6 320 06:19 09.07.2020
280 Clear 22 1016 64 10000 3.6 330 04:29 09.07.2020
281 Clear 22 1016 64 10000 3.6 330 03:48 09.07.2020
282 Clear 22 1016 60 10000 2.6 330 02:21 09.07.2020
283 Clear 22 1017 60 10000 3.6 320 01:37 09.07.2020
284 Clear 22 1017 60 10000 3.6 320 00:53 09.07.2020
285 Clear 22 1017 64 10000 2.6 310 00:25 09.07.2020
286 Clear 23 1017 60 10000 2.6 310 23:47 08.07.2020
287 Clear 23 1016 60 10000 1.5 290 23:28 08.07.2020
288 Clear 23 1016 60 10000 1.08 227 22:58 08.07.2020
289 Clear 23 1016 60 10000 1.08 227 22:40 08.07.2020
290 Clear 23 1016 60 10000 0.98 213 22:22 08.07.2020
291 Clear 23 1016 57 10000 1 200 21:58 08.07.2020
292 Clouds 24 1016 57 10000 1.5 200 21:39 08.07.2020
293 Clouds 24 1016 57 10000 1.5 200 21:21 08.07.2020
294 Clouds 24 1016 61 10000 2.1 190 20:56 08.07.2020
295 Clouds 25 1016 61 10000 2.1 180 20:38 08.07.2020
296 Clouds 25 1016 61 10000 2.1 180 20:20 08.07.2020
297 Clouds 24 1016 61 10000 1.5 180 19:43 08.07.2020
298 Clouds 26 1016 61 10000 1.5 180 19:24 08.07.2020
299 Clouds 25 1016 61 10000 2.1 180 18:58 08.07.2020
300 Clouds 25 1016 61 10000 2.1 180 18:40 08.07.2020
301 Clouds 26 1016 61 10000 2.1 180 18:20 08.07.2020
302 Clouds 26 1016 61 10000 2.1 170 17:56 08.07.2020
303 Clouds 26 1016 61 10000 2.1 150 17:37 08.07.2020
304 Clouds 26 1016 61 10000 2.1 150 17:19 08.07.2020
305 Clouds 26 1017 65 10000 2.6 150 16:54 08.07.2020
306 Clouds 26 1017 65 10000 3.1 150 16:36 08.07.2020
307 Clouds 25 1017 65 10000 3.1 150 16:18 08.07.2020
308 Clouds 26 1017 69 10000 3.1 150 15:56 08.07.2020
309 Clouds 26 1017 69 10000 3.1 150 15:37 08.07.2020
310 Clouds 26 1017 69 10000 3.1 150 15:18 08.07.2020
311 Clouds 26 1017 61 10000 4.1 160 14:42 08.07.2020
312 Clouds 26 1017 61 10000 4.1 160 14:20 08.07.2020
313 Clouds 27 1017 61 10000 4.1 160 13:45 08.07.2020
314 Clouds 26 1017 65 10000 4.1 160 13:27 08.07.2020
315 Clouds 26 1017 65 10000 3.6 160 12:58 08.07.2020
316 Clouds 26 1016 69 10000 3.1 130 12:40 08.07.2020
317 Clouds 26 1016 69 10000 3.1 130 12:19 08.07.2020
318 Clouds 25 1016 74 10000 3.1 140 11:39 08.07.2020
319 Clouds 25 1016 74 10000 3.1 140 11:21 08.07.2020
320 Clouds 24 1016 78 10000 2.1 130 10:59 08.07.2020
321 Clouds 24 1016 78 10000 2.1 130 10:41 08.07.2020
322 Clouds 24 1016 73 10000 3.1 70 10:22 08.07.2020
323 Clouds 24 1016 65 10000 1.5 0 09:44 08.07.2020
324 Clouds 24 1016 65 10000 1.5 0 09:24 08.07.2020
325 Clouds 24 1016 57 10000 1 0 08:44 08.07.2020
326 Clouds 23 1015 57 10000 2.1 340 08:25 08.07.2020
327 Clouds 23 1015 60 10000 3.6 330 07:50 08.07.2020
328 Clouds 23 1015 60 10000 3.1 330 07:25 08.07.2020
329 Clouds 22 1015 64 10000 3.6 330 06:59 08.07.2020
330 Clear 22 1015 64 10000 3.6 330 06:39 08.07.2020
331 Clear 22 1015 64 10000 3.6 330 06:20 08.07.2020
332 Clear 22 1015 64 10000 3.1 340 05:44 08.07.2020
333 Clear 22 1015 64 10000 3.6 330 04:39 08.07.2020
334 Clear 23 1015 64 10000 3.6 330 03:30 08.07.2020
335 Clear 23 1015 60 10000 1.5 310 01:59 08.07.2020
336 Clear 23 1015 60 10000 2.1 300 01:37 08.07.2020
337 Clear 23 1015 64 10000 3.1 280 00:50 08.07.2020
338 Clear 24 1014 65 10000 3.1 260 00:19 08.07.2020
339 Clear 24 1014 69 10000 4.1 230 23:43 07.07.2020
340 Clear 24 1014 69 10000 4.1 230 23:21 07.07.2020
341 Clear 24 1014 65 10000 5.1 220 22:55 07.07.2020
342 Clear 25 1014 65 10000 5.1 220 22:55 07.07.2020
343 Clear 24 1014 65 10000 6.2 230 22:37 07.07.2020
344 Clear 24 1014 65 10000 6.2 230 22:18 07.07.2020
345 Clouds 25 1013 69 10000 4.6 220 21:41 07.07.2020
346 Clouds 25 1013 69 10000 4.6 220 21:22 07.07.2020
347 Clouds 26 1013 65 10000 4.6 220 20:59 07.07.2020
348 Clouds 26 1013 61 10000 5.1 230 20:41 07.07.2020
349 Clouds 26 1013 61 10000 5.1 230 20:23 07.07.2020
350 Clouds 26 1013 65 10000 4.6 210 19:55 07.07.2020
351 Clouds 26 1013 65 10000 6.2 210 19:37 07.07.2020
352 Clouds 27 1013 65 10000 6.2 210 19:19 07.07.2020
353 Clouds 27 1012 69 10000 5.7 210 18:55 07.07.2020
354 Clouds 27 1012 65 10000 5.1 200 18:37 07.07.2020
355 Clouds 27 1012 65 10000 5.1 200 18:18 07.07.2020
356 Clouds 27 1013 69 10000 5.1 200 17:44 07.07.2020
357 Clouds 28 1013 58 10000 4.1 200 17:23 07.07.2020
358 Clouds 27 1013 61 10000 5.1 190 16:59 07.07.2020
359 Clouds 28 1012 61 10000 6.7 190 16:40 07.07.2020
360 Clouds 28 1012 61 10000 6.7 190 16:22 07.07.2020
361 Clouds 28 1012 54 10000 5.7 190 15:55 07.07.2020
362 Clouds 28 1012 54 10000 6.2 160 15:37 07.07.2020
363 Clouds 28 1012 58 10000 5.7 190 15:18 07.07.2020
364 Clouds 28 1012 58 10000 5.7 190 14:42 07.07.2020
365 Clouds 28 1012 58 10000 5.7 190 14:24 07.07.2020
366 Clouds 28 1012 58 10000 4.6 200 13:43 07.07.2020
367 Clouds 28 1012 54 10000 5.1 200 13:21 07.07.2020
368 Clouds 27 1011 61 10000 4.1 190 12:57 07.07.2020
369 Clouds 27 1011 61 10000 5.1 190 12:38 07.07.2020
370 Clouds 27 1011 61 10000 5.1 190 12:20 07.07.2020
371 Clear 27 1010 65 10000 5.7 190 11:44 07.07.2020
372 Clear 27 1010 65 10000 5.7 190 11:22 07.07.2020
373 Clear 27 1010 65 10000 5.7 200 10:58 07.07.2020
374 Clear 27 1009 69 10000 5.1 210 10:40 07.07.2020
375 Clear 27 1009 69 10000 5.1 210 10:21 07.07.2020
376 Clear 26 1009 69 10000 3.1 230 09:54 07.07.2020
377 Clear 26 1009 61 10000 4.6 280 09:36 07.07.2020
378 Clear 25 1009 61 10000 4.6 280 09:18 07.07.2020
379 Clear 25 1008 60 10000 5.1 320 08:39 07.07.2020
380 Clear 25 1008 60 10000 5.1 320 08:19 07.07.2020
381 Clear 24 1008 69 10000 2.6 320 07:38 07.07.2020
382 Clear 23 1008 69 10000 2.6 320 07:20 07.07.2020
383 Clear 22 1008 73 10000 2.6 320 06:48 07.07.2020
384 Clear 22 1008 78 10000 3.1 320 06:27 07.07.2020
385 Clear 22 1007 78 10000 3.1 320 05:47 07.07.2020
386 Clouds 22 1007 78 10000 2.6 320 04:58 07.07.2020
387 Clouds 22 1007 78 10000 2.6 320 04:25 07.07.2020
388 Clouds 22 1007 83 10000 1.5 50 03:34 07.07.2020
389 Clouds 22 1007 88 10000 3.6 90 01:58 07.07.2020
390 Clouds 22 1007 88 10000 4.1 80 01:21 07.07.2020
391 Clouds 23 1007 88 10000 3.6 80 00:42 07.07.2020
392 Clouds 23 1007 88 10000 3.6 80 00:22 07.07.2020
393 Clouds 23 1007 88 10000 4.1 90 23:44 06.07.2020
394 Clouds 23 1007 88 10000 3.6 80 23:26 06.07.2020
395 Clouds 23 1006 83 10000 2.6 110 22:59 06.07.2020
396 Clouds 23 1006 83 10000 2.6 110 22:40 06.07.2020
397 Clouds 24 1006 83 10000 2.6 110 22:19 06.07.2020
398 Clouds 24 1006 78 10000 3.6 120 21:57 06.07.2020
399 Clouds 24 1006 78 10000 4.1 130 21:37 06.07.2020
400 Clouds 24 1006 78 10000 4.1 130 21:19 06.07.2020
401 Clouds 24 1006 78 10000 4.1 130 21:19 06.07.2020
402 Clouds 25 1006 69 10000 3.1 130 20:55 06.07.2020
403 Clear 25 1006 69 10000 2.6 120 20:36 06.07.2020
404 Clear 26 1006 69 10000 2.6 120 20:18 06.07.2020
405 Clear 25 1007 74 10000 2.1 90 19:42 06.07.2020
406 Clear 26 1007 74 10000 2.1 90 19:23 06.07.2020
407 Clear 26 1007 74 10000 1.5 120 18:59 06.07.2020
408 Clear 25 1007 74 10000 1.5 120 18:41 06.07.2020
409 Clouds 25 1008 74 10000 2.1 170 18:23 06.07.2020
410 Clouds 26 1008 74 10000 2.6 170 17:58 06.07.2020
411 Clouds 26 1008 74 10000 3.1 190 17:39 06.07.2020
412 Clouds 26 1008 74 10000 3.1 190 17:20 06.07.2020
413 Clouds 27 1009 65 10000 3.1 190 16:43 06.07.2020
414 Clouds 27 1009 61 10000 2.6 160 16:24 06.07.2020
415 Clouds 27 1009 65 10000 3.1 170 15:57 06.07.2020
416 Clouds 27 1009 65 10000 2.6 150 15:39 06.07.2020
417 Clouds 27 1009 65 10000 2.6 150 15:21 06.07.2020
418 Clouds 27 1010 65 10000 2.6 170 14:55 06.07.2020
419 Clouds 27 1010 69 10000 2.6 150 14:37 06.07.2020
420 Clouds 27 1010 69 10000 2.6 150 14:37 06.07.2020
421 Clear 27 1010 69 10000 2.6 150 14:18 06.07.2020
422 Clear 27 1010 69 10000 2.1 150 13:44 06.07.2020
423 Clear 27 1010 69 10000 2.1 150 13:24 06.07.2020
424 Clear 27 1010 69 10000 2.1 150 12:56 06.07.2020
425 Clear 27 1011 69 10000 2.1 140 12:38 06.07.2020
426 Clear 27 1011 69 10000 2.1 140 12:18 06.07.2020
427 Clear 27 1011 74 10000 2.1 150 11:42 06.07.2020
428 Clear 26 1011 74 10000 2.1 150 11:24 06.07.2020
429 Clear 26 1011 74 10000 2.1 130 10:59 06.07.2020
430 Clear 26 1011 69 10000 2.1 140 10:41 06.07.2020
431 Clear 26 1011 69 10000 2.1 140 10:21 06.07.2020
432 Clear 26 1011 69 10000 1.5 110 09:55 06.07.2020
433 Clear 25 1011 73 10000 1.5 90 09:37 06.07.2020
434 Clear 25 1011 73 10000 1.5 90 09:19 06.07.2020
435 Clear 25 1011 73 10000 1.5 90 09:19 06.07.2020
436 Clear 25 1011 69 10000 1 0 08:41 06.07.2020
437 Clear 25 1011 69 10000 1 0 08:22 06.07.2020
438 Clear 24 1011 57 10000 1.5 340 07:54 06.07.2020
439 Clear 23 1011 57 10000 2.1 330 07:35 06.07.2020
440 Clear 23 1011 69 10000 2.1 360 06:57 06.07.2020
441 Clear 23 1011 69 10000 2.6 40 06:38 06.07.2020
442 Clear 22 1011 64 10000 2.6 40 05:56 06.07.2020
443 Clear 21 1011 73 10000 2.6 50 05:29 06.07.2020
444 Clear 22 1012 60 10000 1.5 10 04:36 06.07.2020
445 Clear 22 1013 68 10000 2.1 320 02:50 06.07.2020
446 Clear 23 1013 73 10000 2.1 320 02:19 06.07.2020
447 Clear 23 1014 60 10000 2.6 320 00:59 06.07.2020
448 Clear 23 1014 60 10000 2.1 310 00:32 06.07.2020
449 Clear 23 1014 64 10000 1.5 280 23:59 05.07.2020
450 Clear 23 1014 78 10000 2.1 220 23:40 05.07.2020
451 Clear 24 1014 78 10000 2.1 220 23:22 05.07.2020
452 Clear 24 1014 78 10000 2.1 210 22:58 05.07.2020
453 Clear 24 1014 73 10000 2.6 220 22:39 05.07.2020
454 Clear 24 1014 69 10000 2.1 220 22:19 05.07.2020
455 Clear 25 1014 69 10000 2.1 220 21:57 05.07.2020
456 Clear 24 1014 73 10000 2.6 200 21:37 05.07.2020
457 Clear 25 1014 73 10000 2.6 200 21:18 05.07.2020
458 Clear 25 1014 69 10000 2.6 200 20:56 05.07.2020
459 Clear 26 1014 65 10000 2.6 180 20:38 05.07.2020
460 Clear 26 1014 65 10000 2.6 180 20:19 05.07.2020
461 Clear 27 1014 61 10000 2.6 180 19:42 05.07.2020
462 Clear 27 1014 61 10000 2.6 180 19:21 05.07.2020
463 Clear 27 1014 61 10000 2.1 170 18:56 05.07.2020
464 Clear 27 1015 61 10000 2.6 170 18:37 05.07.2020
465 Clear 27 1015 61 10000 2.6 170 18:19 05.07.2020
466 Clear 27 1015 65 10000 2.1 170 17:43 05.07.2020
467 Clear 27 1015 65 10000 2.1 170 17:20 05.07.2020
468 Clear 27 1016 65 10000 2.1 160 16:59 05.07.2020
469 Clear 27 1016 69 10000 2.1 150 16:40 05.07.2020
470 Clear 27 1016 69 10000 2.1 150 16:21 05.07.2020
471 Clear 26 1016 74 10000 3.1 140 15:41 05.07.2020
472 Clear 26 1016 74 10000 3.1 140 15:20 05.07.2020
473 Clear 27 1016 74 10000 3.1 140 14:59 05.07.2020
474 Clear 27 1017 74 10000 2.6 140 14:40 05.07.2020
475 Clear 27 1017 74 10000 2.6 140 14:20 05.07.2020
476 Clear 26 1017 74 10000 3.1 110 13:41 05.07.2020
477 Clear 26 1017 74 10000 3.1 110 13:23 05.07.2020
478 Clear 26 1017 74 10000 3.6 130 12:46 05.07.2020
479 Clear 26 1017 74 10000 3.6 100 12:25 05.07.2020
480 Clear 25 1017 69 10000 5.1 110 11:58 05.07.2020
481 Clear 26 1017 69 10000 5.1 90 11:39 05.07.2020
482 Clear 25 1017 69 10000 5.1 90 11:21 05.07.2020
483 Clear 25 1017 65 10000 5.1 80 10:58 05.07.2020
484 Clear 26 1017 65 10000 4.1 80 10:39 05.07.2020
485 Clear 26 1017 65 10000 4.1 80 10:19 05.07.2020
486 Clear 25 1016 61 10000 4.1 90 09:55 05.07.2020
487 Clear 25 1016 73 10000 4.1 80 09:37 05.07.2020
488 Clear 25 1016 73 10000 4.1 80 09:18 05.07.2020
489 Clear 25 1016 65 10000 1.5 50 08:43 05.07.2020
490 Clouds 25 1016 65 10000 1.5 50 08:25 05.07.2020
491 Clouds 24 1016 50 10000 1.5 20 07:46 05.07.2020
492 Clouds 24 1016 53 10000 2.1 10 07:27 05.07.2020
493 Clouds 23 1016 56 10000 1.5 350 06:50 05.07.2020
494 Clouds 23 1015 56 10000 2.6 30 05:29 05.07.2020
495 Clouds 22 1016 53 10000 3.6 340 03:24 05.07.2020
496 Clouds 23 1016 50 10000 2.1 340 02:41 05.07.2020
497 Clouds 23 1016 50 10000 2.1 340 02:18 05.07.2020
498 Clouds 23 1016 50 10000 2.1 350 01:33 05.07.2020
499 Clear 23 1016 50 10000 3.1 20 00:58 05.07.2020
500 Clear 23 1016 53 10000 2.6 20 00:38 05.07.2020
501 Clear 23 1016 53 10000 2.6 20 00:20 05.07.2020
502 Clear 24 1016 53 10000 2.6 30 23:46 04.07.2020
503 Clear 24 1016 47 10000 2.1 40 23:28 04.07.2020
504 Clear 24 1016 50 10000 1.5 60 22:57 04.07.2020
505 Clear 24 1016 73 10000 3.6 90 22:37 04.07.2020
506 Clear 24 1016 73 10000 3.6 90 22:19 04.07.2020
507 Clear 24 1016 69 10000 4.1 90 21:42 04.07.2020
508 Clear 25 1016 69 10000 4.1 80 21:23 04.07.2020
509 Clouds 25 1016 65 10000 2.6 90 20:58 04.07.2020
510 Clouds 25 1016 65 10000 3.1 100 20:40 04.07.2020
511 Clear 25 1016 65 10000 3.1 100 20:20 04.07.2020
512 Clear 25 1016 61 10000 2.6 170 19:45 04.07.2020
513 Clear 26 1016 61 10000 2.6 170 19:22 04.07.2020
514 Clear 27 1015 65 10000 3.1 170 18:59 04.07.2020
515 Clear 27 1016 65 10000 3.1 180 18:41 04.07.2020
516 Clear 27 1016 65 10000 3.1 180 18:21 04.07.2020
517 Clear 27 1016 65 10000 3.6 190 17:44 04.07.2020
518 Clear 27 1016 65 10000 4.1 190 17:26 04.07.2020
519 Clear 27 1016 61 10000 3.6 200 16:58 04.07.2020
520 Clear 27 1016 65 10000 4.1 190 16:39 04.07.2020
521 Clear 26 1016 65 10000 4.1 190 16:20 04.07.2020
522 Clear 27 1017 65 10000 4.6 190 15:56 04.07.2020
523 Clear 26 1017 69 10000 4.1 190 15:37 04.07.2020
524 Clear 26 1017 69 10000 4.1 190 15:19 04.07.2020
525 Clear 27 1017 61 10000 4.1 180 14:55 04.07.2020
526 Clear 26 1017 61 10000 3.6 160 14:36 04.07.2020
527 Clear 26 1017 61 10000 3.6 160 14:18 04.07.2020
528 Clear 27 1017 61 10000 3.1 150 13:41 04.07.2020
529 Clear 26 1017 61 10000 3.1 150 13:18 04.07.2020
530 Clear 25 1017 61 10000 3.6 130 12:43 04.07.2020
531 Clear 25 1017 61 10000 3.1 150 12:23 04.07.2020
532 Clear 25 1017 65 10000 3.1 180 11:59 04.07.2020
533 Clear 26 1016 61 10000 4.1 190 11:40 04.07.2020
534 Clear 26 1016 61 10000 4.1 190 11:21 04.07.2020
535 Clear 25 1016 53 10000 3.6 200 10:54 04.07.2020
536 Clear 26 1016 53 10000 2.1 320 10:36 04.07.2020
537 Clear 26 1016 53 10000 2.1 320 10:18 04.07.2020
538 Clear 25 1016 44 10000 4.6 320 09:40 04.07.2020
539 Clear 24 1016 46 10000 5.1 320 09:20 04.07.2020
540 Clear 23 1016 46 10000 5.1 320 08:50 04.07.2020
541 Clear 23 1016 46 10000 5.1 320 08:32 04.07.2020
542 Clear 22 1016 52 10000 5.7 320 07:56 04.07.2020
543 Clear 21 1016 56 10000 5.1 320 07:38 04.07.2020
544 Clear 20 1015 56 10000 4.1 320 06:57 04.07.2020
545 Clear 20 1015 56 10000 4.6 320 06:23 04.07.2020
546 Clear 20 1015 56 10000 4.1 330 05:41 04.07.2020
547 Clear 20 1015 56 10000 4.1 330 05:19 04.07.2020
548 Clear 21 1014 56 10000 5.1 320 03:49 04.07.2020
549 Clear 21 1014 60 10000 5.1 320 02:40 04.07.2020
550 Clouds 20 1014 64 10000 4.1 320 01:39 04.07.2020
551 Clouds 21 1014 60 10000 2.1 290 00:48 04.07.2020
552 Thunderstorm 22 1014 73 10000 2.6 110 00:30 04.07.2020
553 Rain 22 1014 73 10000 6.2 90 23:57 03.07.2020
554 Clouds 22 1014 73 10000 6.2 80 23:38 03.07.2020
555 Clouds 23 1014 73 10000 6.2 80 23:18 03.07.2020
556 Clouds 23 1012 65 10000 6.7 60 22:41 03.07.2020
557 Clouds 23 1012 65 10000 6.7 60 22:23 03.07.2020
558 Rain 23 1011 64 10000 6.7 90 21:58 03.07.2020
559 Rain 23 1010 61 10000 8.7 90 21:37 03.07.2020
560 Clear 24 1010 61 10000 8.7 90 21:19 03.07.2020
561 Rain 24 1010 61 10000 8.7 90 21:19 03.07.2020
562 Rain 24 1009 78 10000 9.3 80 20:42 03.07.2020
563 Rain 23 1009 78 10000 9.3 80 20:24 03.07.2020
564 Rain 24 1010 74 10000 6.7 70 19:55 03.07.2020
565 Rain 25 1010 65 10000 4.1 90 19:37 03.07.2020
566 Rain 25 1010 65 10000 4.1 90 19:18 03.07.2020
567 Rain 26 1010 61 10000 2.6 70 18:42 03.07.2020
568 Rain 26 1010 61 10000 2.6 70 18:23 03.07.2020
569 Rain 26 1010 69 10000 1.5 0 17:56 03.07.2020
570 Rain 25 1010 69 10000 2.1 130 17:37 03.07.2020
571 Rain 25 1010 69 10000 2.1 130 17:19 03.07.2020
572 Rain 25 1011 69 10000 1 0 16:40 03.07.2020
573 Clear 25 1011 69 10000 1 0 16:20 03.07.2020
574 Clear 25 1011 74 10000 2.1 130 15:44 03.07.2020
575 Clear 25 1011 74 10000 2.1 130 15:23 03.07.2020
576 Clear 25 1011 74 10000 3.1 130 14:56 03.07.2020
577 Clear 25 1012 74 10000 3.1 120 14:38 03.07.2020
578 Clear 25 1012 74 10000 3.1 120 14:19 03.07.2020
579 Clouds 25 1012 74 10000 3.6 120 13:43 03.07.2020
580 Clouds 24 1012 74 10000 3.6 120 13:25 03.07.2020
581 Clouds 24 1012 74 10000 3.6 120 12:45 03.07.2020
582 Clear 24 1012 74 10000 3.6 130 12:24 03.07.2020
583 Clouds 24 1012 74 10000 3.6 130 11:58 03.07.2020
584 Clouds 24 1011 74 10000 3.6 120 11:40 03.07.2020
585 Clouds 24 1011 74 10000 3.6 120 11:21 03.07.2020
586 Clouds 24 1011 73 10000 1.5 0 10:55 03.07.2020
587 Clouds 24 1011 69 10000 1 0 10:37 03.07.2020
588 Clouds 23 1011 69 10000 1 0 10:18 03.07.2020
589 Clouds 24 1011 57 10000 1.5 0 09:54 03.07.2020
590 Clear 23 1011 50 10000 3.1 340 09:36 03.07.2020
591 Clear 23 1011 50 10000 3.1 340 09:18 03.07.2020
592 Clouds 22 1011 56 10000 3.6 330 08:39 03.07.2020
593 Clouds 22 1011 56 10000 3.6 330 08:18 03.07.2020
594 Clouds 21 1011 64 10000 3.1 350 07:48 03.07.2020
595 Clouds 21 1011 64 10000 3.1 350 07:26 03.07.2020
596 Clouds 19 1011 68 10000 4.1 330 06:49 03.07.2020
597 Clouds 19 1011 64 10000 3.6 330 06:18 03.07.2020
598 Clouds 20 1010 68 10000 3.6 320 04:53 03.07.2020
599 Clouds 20 1010 73 10000 2.1 320 03:28 03.07.2020
600 Clouds 20 1010 78 10000 1.5 340 02:47 03.07.2020
601 Clouds 21 1010 78 10000 1.5 330 02:25 03.07.2020
602 Clear 21 1010 83 10000 2.6 330 01:28 03.07.2020
603 Clear 22 1010 83 10000 2.1 340 00:49 03.07.2020
604 Clear 21 1010 83 10000 1.5 320 00:28 03.07.2020
605 Clear 23 1010 83 10000 2.6 320 23:47 02.07.2020
606 Clear 23 1010 83 10000 2.6 300 23:20 02.07.2020
607 Clear 23 1010 83 10000 2.1 340 22:58 02.07.2020
608 Clear 23 1010 83 10000 1 0 22:40 02.07.2020
609 Clear 23 1010 83 10000 1 0 22:20 02.07.2020
610 Clear 23 1010 83 10000 1.5 0 21:57 02.07.2020
611 Clear 23 1010 83 10000 2.1 230 21:39 02.07.2020
612 Clear 23 1010 83 10000 2.1 230 21:19 02.07.2020
613 Clear 23 1010 78 10000 2.6 210 20:57 02.07.2020
614 Clouds 24 1010 78 10000 2.1 200 20:39 02.07.2020
615 Clouds 24 1010 78 10000 2.1 200 20:18 02.07.2020
616 Clouds 24 1010 78 10000 3.6 200 19:42 02.07.2020
617 Clouds 24 1010 78 10000 2.6 160 19:23 02.07.2020
618 Clouds 24 1010 78 10000 2.6 160 19:23 02.07.2020
619 Clouds 24 1011 78 10000 2.1 170 18:58 02.07.2020
620 Clouds 24 1011 78 10000 2.1 170 18:40 02.07.2020
621 Clouds 24 1011 78 10000 2.1 170 18:21 02.07.2020
622 Clouds 23 1011 78 10000 3.1 170 17:55 02.07.2020
623 Clouds 23 1011 78 10000 3.6 170 17:36 02.07.2020
624 Clouds 23 1011 78 10000 3.6 170 17:18 02.07.2020
625 Clouds 24 1012 78 10000 5.1 190 16:41 02.07.2020
626 Clouds 24 1012 78 10000 5.1 190 16:20 02.07.2020
627 Clouds 24 1012 78 10000 3.6 190 15:57 02.07.2020
628 Clouds 24 1011 78 10000 3.1 170 15:38 02.07.2020
629 Clouds 25 1011 78 10000 3.1 170 15:19 02.07.2020
630 Clouds 25 1012 74 10000 2.6 140 14:45 02.07.2020
631 Clouds 25 1012 74 10000 2.6 140 14:23 02.07.2020
632 Clouds 25 1012 74 10000 3.1 130 13:57 02.07.2020
633 Clouds 25 1012 74 10000 3.1 140 13:38 02.07.2020
634 Clear 25 1012 74 10000 3.1 140 13:18 02.07.2020
635 Clear 25 1012 74 10000 3.6 140 12:42 02.07.2020
636 Clear 25 1012 74 10000 3.6 130 12:22 02.07.2020
637 Clear 25 1012 74 10000 2.6 130 11:59 02.07.2020
638 Clear 25 1012 74 10000 2.6 160 11:40 02.07.2020
639 Clear 25 1012 74 10000 2.6 160 11:22 02.07.2020
640 Clear 24 1012 78 10000 3.6 190 10:44 02.07.2020
641 Clear 24 1012 78 10000 3.6 190 10:26 02.07.2020
642 Clear 24 1011 78 10000 2.6 200 09:56 02.07.2020
643 Clear 24 1011 73 10000 1.5 0 09:37 02.07.2020
644 Clear 23 1011 73 10000 1.5 0 09:19 02.07.2020
645 Clear 24 1011 73 10000 2.1 310 08:42 02.07.2020
646 Clear 23 1011 73 10000 2.1 310 08:22 02.07.2020
647 Clear 23 1011 73 10000 2.1 320 07:45 02.07.2020
648 Clear 23 1011 83 10000 2.6 320 07:27 02.07.2020
649 Clouds 22 1011 83 10000 2.1 320 06:58 02.07.2020
650 Clouds 22 1011 83 10000 1 0 06:39 02.07.2020
651 Clouds 22 1011 83 10000 1 0 06:19 02.07.2020
652 Clouds 22 1011 83 10000 1.5 270 05:42 02.07.2020
653 Clouds 23 1011 78 10000 2.6 110 03:35 02.07.2020
654 Clouds 22 1012 78 10000 3.1 100 02:59 02.07.2020
655 Clouds 23 1012 78 10000 3.1 100 00:47 02.07.2020
656 Clouds 22 1012 83 10000 1.5 110 00:23 02.07.2020
657 Clouds 22 1012 83 10000 0.5 170 23:46 01.07.2020
658 Clouds 23 1012 78 10000 1.5 160 23:27 01.07.2020
659 Clouds 23 1012 78 10000 1.5 120 22:57 01.07.2020
660 Clouds 23 1011 78 10000 0.33 170 22:38 01.07.2020
661 Clouds 23 1011 78 10000 0.81 188 22:19 01.07.2020
662 Clouds 23 1011 78 10000 1.5 160 21:58 01.07.2020
663 Clouds 23 1011 78 10000 0.5 120 21:40 01.07.2020
664 Clouds 23 1011 78 10000 0.5 120 21:21 01.07.2020
665 Clouds 23 1011 78 10000 1.5 120 20:56 01.07.2020
666 Clouds 23 1011 78 10000 1.5 140 20:38 01.07.2020
667 Clouds 23 1011 78 10000 1.5 140 20:38 01.07.2020
668 Clouds 23 1011 78 10000 1.5 140 20:19 01.07.2020
669 Clouds 23 1011 78 10000 1.5 0 19:43 01.07.2020
670 Clouds 23 1011 78 10000 1.5 0 19:24 01.07.2020
671 Clouds 24 1011 73 10000 1 0 18:59 01.07.2020
672 Clouds 24 1011 73 10000 1 0 18:40 01.07.2020
673 Clouds 24 1012 73 10000 1 0 18:21 01.07.2020
674 Clouds 24 1012 73 10000 1.5 120 17:57 01.07.2020
675 Clouds 24 1012 73 10000 2.1 110 17:38 01.07.2020
676 Clouds 24 1012 73 10000 2.1 110 17:19 01.07.2020
677 Clouds 24 1013 73 10000 2.1 100 16:46 01.07.2020
678 Clouds 23 1013 73 10000 2.6 110 16:26 01.07.2020
679 Clouds 23 1013 73 10000 2.6 110 15:55 01.07.2020
680 Clouds 23 1013 73 10000 2.6 130 15:37 01.07.2020
681 Clouds 23 1013 73 10000 2.6 130 15:18 01.07.2020
682 Clouds 24 1013 73 10000 3.1 130 14:42 01.07.2020
683 Clouds 24 1013 73 10000 3.1 130 14:21 01.07.2020
684 Clouds 24 1013 73 10000 2.6 130 13:57 01.07.2020
685 Clouds 24 1013 69 10000 3.1 120 13:38 01.07.2020
686 Clouds 24 1013 69 10000 3.1 120 13:20 01.07.2020
687 Clouds 24 1013 78 10000 3.1 120 12:57 01.07.2020
688 Clouds 24 1013 74 10000 3.6 110 12:38 01.07.2020
689 Clouds 24 1013 74 10000 3.6 110 12:20 01.07.2020
690 Clouds 24 1013 74 10000 4.1 110 11:42 01.07.2020
691 Clouds 24 1013 74 10000 4.1 110 11:23 01.07.2020
692 Clouds 23 1013 73 10000 4.6 110 10:58 01.07.2020
693 Clouds 23 1013 78 10000 3.6 110 10:40 01.07.2020
694 Clouds 23 1013 78 10000 3.6 110 10:21 01.07.2020
695 Clouds 23 1013 78 10000 1.5 110 09:54 01.07.2020
696 Clouds 23 1013 78 10000 1.5 0 09:36 01.07.2020
697 Clouds 23 1013 78 10000 1.5 0 09:18 01.07.2020
698 Clouds 22 1012 78 10000 1.5 0 08:41 01.07.2020
699 Clouds 22 1012 78 10000 1.5 0 08:21 01.07.2020
700 Clouds 23 1012 78 10000 1.5 0 08:21 01.07.2020
701 Clouds 22 1013 83 10000 1.01 102 07:54 01.07.2020
702 Clouds 22 1013 83 10000 1 270 07:36 01.07.2020
703 Clouds 22 1013 83 10000 1 270 07:18 01.07.2020
704 Clouds 22 1013 83 10000 1 270 06:48 01.07.2020
705 Clouds 22 1013 83 10000 1.5 230 06:25 01.07.2020
706 Clouds 22 1012 88 10000 2.6 130 04:31 01.07.2020
707 Clouds 22 1012 83 10000 4.1 110 03:46 01.07.2020
708 Clouds 22 1012 83 10000 3.6 110 03:26 01.07.2020
709 Clouds 22 1013 88 10000 3.1 110 02:36 01.07.2020
710 Clouds 22 1013 88 10000 3.6 100 01:47 01.07.2020
711 Clouds 23 1013 88 10000 3.6 90 00:42 01.07.2020
712 Clear 23 1013 83 10000 2.6 100 00:23 01.07.2020
713 Clear 23 1013 83 10000 2.1 90 23:41 30.06.2020
714 Clear 23 1013 83 10000 2.1 90 23:22 30.06.2020
715 Clear 23 1013 83 10000 2.1 90 23:22 30.06.2020
716 Clear 23 1013 78 10000 2.1 70 22:57 30.06.2020
717 Clear 23 1013 78 10000 2.1 70 22:39 30.06.2020
718 Clouds 23 1012 78 10000 1.5 80 22:18 30.06.2020
719 Clouds 23 1012 78 10000 1.5 80 21:41 30.06.2020
720 Clouds 24 1012 78 10000 1.5 80 21:19 30.06.2020
721 Clouds 24 1012 78 10000 1.47 109 20:44 30.06.2020
722 Clouds 24 1012 78 10000 1.24 125 20:21 30.06.2020
723 Clouds 24 1012 78 10000 1 0 20:00 30.06.2020
724 Clouds 24 1012 74 10000 1.5 0 19:41 30.06.2020
725 Clouds 24 1012 74 10000 1.5 0 19:19 30.06.2020
726 Clouds 25 1012 74 10000 2.1 170 18:43 30.06.2020
727 Clouds 24 1012 74 10000 2.1 170 18:21 30.06.2020
728 Clouds 25 1012 74 10000 3.1 160 17:58 30.06.2020
729 Clouds 25 1012 74 10000 2.6 150 17:37 30.06.2020
730 Clouds 25 1012 74 10000 2.6 150 17:18 30.06.2020
731 Clouds 25 1012 74 10000 2.6 150 17:18 30.06.2020
732 Clouds 25 1012 74 10000 2.6 140 16:43 30.06.2020
733 Clouds 26 1012 74 10000 2.6 140 16:23 30.06.2020
734 Clouds 25 1012 74 10000 2.6 140 15:57 30.06.2020
735 Clouds 26 1013 74 10000 2.6 140 15:39 30.06.2020
736 Clouds 26 1013 74 10000 2.6 140 15:21 30.06.2020
737 Clouds 26 1013 69 10000 2.6 140 14:47 30.06.2020
738 Clear 25 1013 74 10000 2.6 140 14:23 30.06.2020
739 Clear 26 1013 74 10000 2.6 130 13:59 30.06.2020
740 Clear 26 1013 69 10000 2.6 150 13:39 30.06.2020
741 Clear 25 1013 69 10000 2.6 150 13:20 30.06.2020
742 Clear 25 1013 74 10000 2.6 150 12:57 30.06.2020
743 Clear 25 1013 74 10000 3.1 140 12:39 30.06.2020
744 Clear 25 1013 74 10000 3.1 140 12:20 30.06.2020
745 Clear 25 1012 78 10000 3.1 150 11:57 30.06.2020
746 Clouds 25 1012 78 10000 2.1 160 11:38 30.06.2020
747 Clouds 25 1012 78 10000 2.1 160 11:19 30.06.2020
748 Clouds 25 1012 78 10000 1 0 10:56 30.06.2020
749 Clear 26 1016 61 10000 3.1 180 16:38 28.06.2020
750 Clear 26 1016 61 10000 3.1 180 16:20 28.06.2020
751 Clear 25 1016 69 10000 3.1 170 15:56 28.06.2020
752 Clear 26 1016 69 10000 3.6 150 15:37 28.06.2020
753 Clear 25 1016 69 10000 3.6 150 15:18 28.06.2020
754 Clear 25 1016 65 10000 3.1 130 14:44 28.06.2020
755 Clear 25 1016 65 10000 3.1 130 14:25 28.06.2020
756 Clear 25 1017 69 10000 3.1 130 13:55 28.06.2020
757 Clear 25 1017 65 10000 3.1 140 13:37 28.06.2020
758 Clear 25 1017 65 10000 3.1 140 13:18 28.06.2020
759 Clear 25 1017 69 10000 3.1 140 12:55 28.06.2020
760 Clear 25 1017 69 10000 2.1 150 12:36 28.06.2020
761 Clear 26 1017 69 10000 2.1 150 12:18 28.06.2020
762 Clear 26 1017 69 10000 2.1 130 11:55 28.06.2020
763 Clear 26 1017 69 10000 2.6 130 11:37 28.06.2020
764 Clear 26 1017 69 10000 2.6 130 11:37 28.06.2020
765 Clear 25 1017 69 10000 2.6 130 11:19 28.06.2020
766 Clear 25 1016 73 10000 2.6 110 10:41 28.06.2020
767 Clear 25 1016 73 10000 2.6 110 10:23 28.06.2020
768 Clear 25 1017 65 10000 2.1 110 09:57 28.06.2020
769 Clear 25 1016 65 10000 2.1 90 09:39 28.06.2020
770 Clear 24 1016 65 10000 2.1 90 09:20 28.06.2020
771 Clear 24 1016 57 10000 2.1 20 08:42 28.06.2020
772 Clear 24 1016 60 10000 3.1 350 08:22 28.06.2020
773 Clear 23 1016 64 10000 3.6 340 07:40 28.06.2020
774 Clear 22 1016 64 10000 3.6 340 07:20 28.06.2020
775 Clear 21 1016 73 10000 2.6 360 06:34 28.06.2020
776 Clear 21 1016 73 10000 3.6 340 05:54 28.06.2020
777 Clear 21 1016 68 10000 2.1 350 05:24 28.06.2020
778 Clear 22 1016 64 10000 1.5 330 03:23 28.06.2020
779 Clear 22 1016 64 10000 3.1 350 02:28 28.06.2020
780 Clear 22 1016 69 10000 1.5 340 01:46 28.06.2020
781 Clear 22 1016 73 10000 2.1 330 01:25 28.06.2020
782 Clear 22 1016 78 10000 2.1 310 00:43 28.06.2020
783 Clear 22 1016 78 10000 1.5 300 00:22 28.06.2020
784 Clear 22 1016 73 10000 1.5 310 23:40 27.06.2020
785 Clear 22 1016 73 10000 2.1 260 23:22 27.06.2020
786 Clear 22 1016 73 10000 1.5 0 22:58 27.06.2020
787 Clear 23 1016 60 10000 1.23 95 22:39 27.06.2020
788 Clear 23 1016 64 10000 1.5 0 22:19 27.06.2020
789 Clear 23 1016 64 10000 1.5 0 21:42 27.06.2020
790 Clouds 23 1016 69 10000 2.1 100 21:20 27.06.2020
791 Clouds 24 1016 61 10000 3.6 100 20:57 27.06.2020
792 Clouds 24 1016 61 10000 2.6 80 20:37 27.06.2020
793 Clouds 24 1016 61 10000 2.6 80 20:18 27.06.2020
794 Clouds 25 1016 61 10000 2.6 70 19:54 27.06.2020
795 Clouds 25 1016 69 10000 2.6 90 19:36 27.06.2020
796 Rain 24 1016 69 10000 2.6 90 19:18 27.06.2020
797 Rain 24 1016 73 10000 1.5 0 18:42 27.06.2020
798 Rain 24 1016 73 10000 1.5 0 18:21 27.06.2020
799 Rain 24 1016 69 10000 2.6 100 17:54 27.06.2020
800 Rain 25 1016 69 10000 2.1 90 17:36 27.06.2020
801 Clear 25 1016 69 10000 2.1 90 17:18 27.06.2020
802 Clear 25 1016 65 10000 2.1 110 16:41 27.06.2020
803 Clear 25 1016 73 10000 2.1 120 16:23 27.06.2020
804 Clear 25 1016 65 10000 2.6 120 15:46 27.06.2020
805 Clear 25 1016 69 10000 3.1 130 15:25 27.06.2020
806 Clear 25 1016 69 10000 2.6 110 14:59 27.06.2020
807 Clear 24 1016 73 10000 5.1 100 14:41 27.06.2020
808 Rain 24 1016 73 10000 5.1 100 14:22 27.06.2020
809 Clear 24 1016 69 10000 4.6 110 13:57 27.06.2020
810 Clear 25 1016 65 10000 3.6 100 13:37 27.06.2020
811 Clear 25 1016 65 10000 3.6 100 13:19 27.06.2020
812 Clear 25 1016 57 10000 3.6 120 12:43 27.06.2020
813 Clear 25 1016 57 10000 3.6 120 12:22 27.06.2020
814 Clear 25 1016 54 10000 3.6 100 11:59 27.06.2020
815 Clear 25 1016 54 10000 3.6 100 11:40 27.06.2020
816 Clear 25 1016 54 10000 2.1 120 11:22 27.06.2020
817 Clear 26 1016 57 10000 1.5 150 10:55 27.06.2020
818 Clear 26 1016 57 10000 1 0 10:37 27.06.2020
819 Clear 25 1016 57 10000 1 0 10:18 27.06.2020
820 Clear 25 1016 61 10000 1.5 0 09:40 27.06.2020
821 Clear 24 1016 61 10000 1.5 0 09:21 27.06.2020
822 Clear 24 1016 61 10000 2.6 40 08:46 27.06.2020
823 Clear 23 1016 64 10000 2.6 320 08:23 27.06.2020
824 Clear 22 1016 68 10000 3.1 340 07:55 27.06.2020
825 Clear 22 1016 68 10000 2.6 330 07:37 27.06.2020
826 Clear 21 1016 68 10000 2.6 330 07:18 27.06.2020
827 Clear 20 1016 77 10000 3.1 320 06:35 27.06.2020
828 Clear 20 1016 73 10000 1.5 0 05:46 27.06.2020
829 Rain 20 1016 73 10000 2.1 330 04:21 27.06.2020
830 Rain 20 1016 73 10000 3.1 320 03:51 27.06.2020
831 Clear 20 1016 77 10000 3.1 330 02:48 27.06.2020
832 Clear 20 1016 73 10000 3.6 310 02:27 27.06.2020
833 Clouds 20 1016 83 10000 1 0 01:41 27.06.2020
834 Clear 21 1016 83 10000 2.1 50 00:54 27.06.2020
835 Clear 21 1016 83 10000 3.1 80 00:18 27.06.2020
836 Clear 21 1016 83 10000 4.1 80 23:41 26.06.2020
837 Clear 22 1016 83 10000 4.1 80 23:21 26.06.2020
838 Clear 22 1016 83 10000 3.1 90 22:56 26.06.2020
839 Clear 22 1016 83 10000 2.6 90 22:37 26.06.2020
840 Clear 22 1016 83 10000 2.6 90 22:18 26.06.2020
841 Clear 22 1015 83 10000 1.5 80 21:56 26.06.2020
842 Clear 22 1015 78 10000 1.5 100 21:37 26.06.2020
843 Clear 22 1015 78 10000 1.5 100 21:18 26.06.2020
844 Clear 23 1015 78 10000 1 100 20:42 26.06.2020
845 Clear 23 1015 73 10000 1 110 20:19 26.06.2020
846 Clear 23 1016 78 10000 1.5 100 19:43 26.06.2020
847 Clear 23 1016 78 10000 1.5 100 19:23 26.06.2020
848 Clear 24 1016 73 10000 2.1 100 18:55 26.06.2020
849 Clear 24 1016 73 10000 2.6 130 18:37 26.06.2020
850 Clear 24 1016 73 10000 2.6 130 18:18 26.06.2020
851 Clear 24 1016 73 10000 3.6 110 17:43 26.06.2020
852 Clear 24 1016 73 10000 3.6 110 17:24 26.06.2020
853 Clear 24 1017 73 10000 3.6 110 16:48 26.06.2020
854 Clouds 24 1017 73 10000 4.1 110 16:26 26.06.2020
855 Clear 24 1017 73 10000 4.1 110 15:55 26.06.2020
856 Clear 24 1017 69 10000 4.6 120 15:37 26.06.2020
857 Clear 24 1017 69 10000 4.6 120 15:18 26.06.2020
858 Clear 24 1017 69 10000 4.6 120 14:56 26.06.2020
859 Clear 24 1017 69 10000 4.1 110 14:37 26.06.2020
860 Clear 24 1017 69 10000 4.1 110 14:19 26.06.2020
861 Clear 24 1017 73 10000 4.6 100 13:43 26.06.2020
862 Clear 25 1017 69 10000 3.6 120 13:19 26.06.2020
863 Clear 24 1017 69 10000 3.1 120 12:42 26.06.2020
864 Clear 24 1017 69 10000 3.1 120 12:24 26.06.2020
865 Clear 24 1017 69 10000 2.6 130 11:59 26.06.2020
866 Clear 25 1017 69 10000 1.5 130 11:41 26.06.2020
867 Clear 25 1017 69 10000 1.5 130 11:22 26.06.2020
868 Clear 25 1017 69 10000 1.5 0 10:59 26.06.2020
869 Clear 25 1017 69 10000 1.5 0 10:40 26.06.2020
870 Clear 25 1017 69 10000 1 0 10:19 26.06.2020
871 Clouds 25 1017 65 10000 1 0 09:56 26.06.2020
872 Clear 24 1017 64 10000 1.5 0 09:38 26.06.2020
873 Clear 22 1017 64 10000 1.5 0 09:18 26.06.2020
874 Clear 23 1017 64 10000 2.6 330 08:44 26.06.2020
875 Clear 23 1017 68 10000 3.1 330 08:25 26.06.2020
876 Clear 22 1017 68 10000 3.1 320 07:47 26.06.2020
877 Clear 21 1017 73 10000 3.6 320 07:23 26.06.2020
878 Clear 20 1017 77 10000 3.1 320 06:49 26.06.2020
879 Clear 19 1017 77 10000 3.1 330 06:30 26.06.2020
880 Clear 19 1017 73 10000 2.1 340 05:52 26.06.2020
881 Clear 19 1017 73 10000 2.6 340 04:55 26.06.2020
882 Clear 20 1017 77 10000 2.1 320 02:32 26.06.2020
883 Clouds 21 1017 83 10000 1.5 30 01:34 26.06.2020
884 Clouds 21 1017 83 10000 1.5 40 00:50 26.06.2020
885 Clouds 21 1017 83 10000 2.1 60 00:30 26.06.2020
886 Clear 21 1017 83 10000 2.6 90 23:47 25.06.2020
887 Clear 21 1017 83 10000 2.1 100 23:22 25.06.2020
888 Clear 21 1017 83 10000 2.1 100 23:22 25.06.2020
889 Clear 22 1017 78 10000 1.5 80 22:58 25.06.2020
890 Clear 22 1017 78 10000 1.5 90 22:39 25.06.2020
891 Clear 22 1017 78 10000 1.5 90 22:20 25.06.2020
892 Clear 22 1017 78 10000 1.5 110 21:57 25.06.2020
893 Clear 22 1016 73 10000 2.1 110 21:39 25.06.2020
894 Clear 23 1016 73 10000 2.1 110 21:20 25.06.2020
895 Clear 23 1016 73 10000 1.5 100 20:57 25.06.2020
896 Clear 23 1016 73 10000 1.5 100 20:37 25.06.2020
897 Clear 23 1016 73 10000 1.5 100 20:19 25.06.2020
898 Clear 24 1016 69 10000 1.5 120 19:41 25.06.2020
899 Clear 24 1016 73 10000 2.1 120 19:20 25.06.2020
900 Clear 24 1016 73 10000 2.6 120 18:59 25.06.2020
901 Clear 24 1016 78 10000 2.6 110 18:39 25.06.2020
902 Clear 24 1016 78 10000 2.6 110 18:20 25.06.2020
903 Clear 24 1017 73 10000 3.6 100 17:45 25.06.2020
904 Clear 24 1017 78 10000 3.1 110 17:20 25.06.2020
905 Clear 24 1017 73 10000 3.1 110 16:59 25.06.2020
906 Clear 25 1017 69 10000 3.1 110 16:40 25.06.2020
907 Clear 25 1017 69 10000 3.1 110 16:19 25.06.2020
908 Clear 25 1017 73 10000 3.6 100 15:44 25.06.2020
909 Clear 25 1017 78 10000 4.1 110 15:26 25.06.2020
910 Clear 24 1017 78 10000 5.1 100 14:56 25.06.2020
911 Clear 24 1017 73 10000 5.7 110 14:37 25.06.2020
912 Clear 24 1017 73 10000 5.7 110 14:19 25.06.2020
913 Clouds 24 1017 78 10000 5.7 100 13:55 25.06.2020
914 Clear 24 1017 78 10000 5.1 100 13:36 25.06.2020
915 Clear 24 1017 78 10000 5.1 100 13:18 25.06.2020
916 Clear 24 1017 73 10000 5.1 110 12:42 25.06.2020
917 Clear 24 1017 73 10000 4.6 110 12:20 25.06.2020
918 Clear 24 1017 73 10000 3.6 110 11:43 25.06.2020
919 Clear 24 1017 73 10000 3.6 110 11:25 25.06.2020
920 Clear 24 1017 73 10000 4.1 100 10:57 25.06.2020
921 Clear 24 1017 78 10000 3.6 90 10:38 25.06.2020
922 Clear 24 1017 78 10000 3.6 90 10:20 25.06.2020
923 Clear 24 1017 73 10000 2.1 90 09:41 25.06.2020
924 Clear 24 1017 64 10000 1.5 70 09:22 25.06.2020
925 Clear 23 1017 64 10000 1.5 0 08:47 25.06.2020
926 Clear 23 1017 60 10000 2.1 330 08:20 25.06.2020
927 Clear 22 1017 60 10000 2.6 330 07:46 25.06.2020
928 Clear 21 1017 60 10000 2.1 330 07:27 25.06.2020
929 Clear 20 1017 60 10000 2.1 340 06:53 25.06.2020
930 Clear 20 1017 64 10000 1.5 340 06:27 25.06.2020
931 Clear 21 1017 64 10000 2.1 330 05:51 25.06.2020
932 Clear 22 1017 60 10000 3.6 340 04:29 25.06.2020
933 Clear 22 1017 60 10000 3.6 340 03:35 25.06.2020
934 Clear 22 1017 64 10000 3.6 320 02:43 25.06.2020
935 Clouds 23 1017 64 10000 2.6 330 02:18 25.06.2020
936 Clouds 23 1017 60 10000 2.6 340 01:29 25.06.2020
937 Clouds 22 1017 68 10000 2.1 330 00:47 25.06.2020
938 Clouds 22 1017 64 10000 2.6 310 00:22 25.06.2020
939 Clouds 23 1017 64 10000 2.1 20 23:45 24.06.2020
940 Clouds 23 1017 78 10000 2.1 40 23:26 24.06.2020
941 Clouds 23 1018 78 10000 0.5 0 22:59 24.06.2020
942 Clouds 23 1018 78 10000 0.5 0 22:59 24.06.2020
943 Clouds 23 1017 78 10000 1.5 230 22:41 24.06.2020
944 Clouds 23 1017 78 10000 1.5 230 22:20 24.06.2020
945 Clouds 23 1017 78 10000 0.5 0 21:56 24.06.2020
946 Clouds 23 1017 78 10000 1 0 21:37 24.06.2020
947 Clouds 24 1017 78 10000 1 0 21:19 24.06.2020
948 Clouds 24 1017 69 10000 1.5 190 20:58 24.06.2020
949 Clouds 25 1017 73 10000 3.1 190 20:39 24.06.2020
950 Clouds 25 1017 73 10000 3.1 190 20:20 24.06.2020
951 Clouds 25 1017 65 10000 3.1 190 19:57 24.06.2020
952 Clouds 25 1017 65 10000 2.1 180 19:38 24.06.2020
953 Clouds 26 1017 65 10000 2.1 180 19:19 24.06.2020
954 Clouds 26 1017 69 10000 2.6 180 18:58 24.06.2020
955 Clouds 26 1017 69 10000 2.1 170 18:39 24.06.2020
956 Clear 26 1017 69 10000 2.1 170 18:20 24.06.2020
957 Clear 26 1017 69 10000 2.1 170 18:20 24.06.2020
958 Clear 26 1018 78 10000 2.1 150 17:55 24.06.2020
959 Clear 26 1018 83 10000 2.1 140 17:36 24.06.2020
960 Clear 26 1018 83 10000 2.1 140 17:18 24.06.2020
961 Clear 25 1018 78 10000 2.1 120 16:55 24.06.2020
962 Clear 25 1018 78 10000 2.1 120 16:37 24.06.2020
963 Clear 25 1018 78 10000 2.1 120 16:19 24.06.2020
964 Clear 25 1018 78 10000 2.6 130 15:54 24.06.2020
965 Clear 26 1018 78 10000 2.6 130 15:36 24.06.2020
966 Clear 26 1018 78 10000 2.6 130 15:18 24.06.2020
967 Clear 26 1018 78 10000 2.1 120 14:40 24.06.2020
968 Clear 26 1018 78 10000 2.6 120 14:22 24.06.2020
969 Clear 26 1018 78 10000 3.1 120 13:42 24.06.2020
970 Clear 25 1018 78 10000 3.1 120 13:21 24.06.2020
971 Clear 26 1018 73 10000 3.1 130 12:45 24.06.2020
972 Clear 25 1018 73 10000 3.1 120 12:22 24.06.2020
973 Clear 25 1018 73 10000 3.1 110 11:59 24.06.2020
974 Clear 25 1018 73 10000 2.6 100 11:41 24.06.2020
975 Clear 25 1018 73 10000 2.6 100 11:23 24.06.2020
976 Clear 25 1018 73 10000 2.6 110 10:54 24.06.2020
977 Clear 25 1018 73 10000 3.1 100 10:36 24.06.2020
978 Clear 25 1018 73 10000 3.1 100 10:18 24.06.2020
979 Clear 25 1018 69 10000 1.5 0 09:42 24.06.2020
980 Clear 25 1018 69 10000 1.5 0 09:20 24.06.2020
981 Clear 25 1018 64 10000 2.1 60 08:41 24.06.2020
982 Clear 23 1018 60 10000 2.6 40 08:20 24.06.2020
983 Clear 23 1018 50 10000 3.1 360 07:50 24.06.2020
984 Clear 22 1018 53 10000 3.1 340 07:26 24.06.2020
985 Clear 23 1018 56 10000 4.1 330 06:49 24.06.2020
986 Clear 22 1018 56 10000 1 0 06:25 24.06.2020
987 Clear 21 1018 64 10000 1.5 20 05:48 24.06.2020
988 Clear 22 1018 56 10000 1 0 04:41 24.06.2020
989 Clear 23 1018 53 10000 1.5 350 03:51 24.06.2020
990 Clear 23 1017 53 10000 1.5 0 03:33 24.06.2020
991 Clear 23 1018 53 10000 2.6 340 02:41 24.06.2020
992 Clear 23 1018 56 10000 3.6 330 01:29 24.06.2020
993 Clear 23 1018 56 10000 4.1 330 00:47 24.06.2020
994 Clear 23 1018 60 10000 3.1 330 00:27 24.06.2020
995 Clear 23 1018 60 10000 2.6 330 23:44 23.06.2020
996 Clear 23 1018 78 10000 2.1 300 23:19 23.06.2020
997 Clear 23 1017 83 10000 0.5 150 22:42 23.06.2020
998 Clear 23 1017 83 10000 0.5 150 22:19 23.06.2020
999 Clear 24 1017 73 10000 1.01 257 21:59 23.06.2020
1000 Clear 24 1017 78 10000 1.01 257 21:39 23.06.2020
1001 Clouds 24 1017 78 10000 1.7 211 21:19 23.06.2020
1002 Clouds 25 1017 78 10000 1 130 20:55 23.06.2020
1003 Clouds 25 1017 69 10000 1.5 160 20:37 23.06.2020
1004 Clouds 26 1017 69 10000 1.5 160 20:18 23.06.2020
1005 Clouds 27 1017 73 10000 1.5 0 19:44 23.06.2020
1006 Clear 27 1017 69 10000 1.5 160 19:26 23.06.2020
1007 Clear 27 1017 74 10000 2.1 180 18:42 23.06.2020
1008 Clear 27 1017 74 10000 2.1 180 18:19 23.06.2020
1009 Clear 27 1017 69 10000 2.1 160 17:57 23.06.2020
1010 Clear 27 1017 69 10000 2.1 150 17:38 23.06.2020
1011 Clear 27 1017 69 10000 2.1 150 17:20 23.06.2020
1012 Clear 27 1017 69 10000 2.1 160 16:55 23.06.2020
1013 Clear 27 1017 65 10000 2.1 150 16:36 23.06.2020
1014 Clear 26 1017 65 10000 2.1 150 16:18 23.06.2020
1015 Clear 26 1018 65 10000 2.6 160 15:43 23.06.2020
1016 Clear 27 1018 65 10000 2.6 160 15:24 23.06.2020
1017 Clear 27 1018 65 10000 2.1 170 14:56 23.06.2020
1018 Clear 27 1018 65 10000 2.1 170 14:38 23.06.2020
1019 Clear 27 1018 65 10000 2.1 170 14:18 23.06.2020
1020 Clear 27 1019 69 10000 1.5 160 13:46 23.06.2020
1021 Clear 27 1019 65 10000 2.1 180 13:26 23.06.2020
1022 Clear 27 1019 65 10000 1.5 170 12:59 23.06.2020
1023 Clear 27 1019 65 10000 1.5 170 12:59 23.06.2020
1024 Clear 27 1019 65 10000 2.1 190 12:40 23.06.2020
1025 Clear 27 1019 65 10000 2.1 190 12:20 23.06.2020
1026 Clear 27 1018 61 10000 1.5 160 11:43 23.06.2020
1027 Clear 27 1018 57 10000 1.5 0 11:23 23.06.2020
1028 Clear 26 1018 53 10000 1.5 80 10:59 23.06.2020
1029 Clear 26 1018 53 10000 1.5 80 10:41 23.06.2020
1030 Clear 27 1018 57 10000 2.1 100 10:22 23.06.2020
1031 Clear 26 1018 53 10000 2.1 100 09:57 23.06.2020
1032 Clear 26 1018 57 10000 2.6 70 09:38 23.06.2020
1033 Clear 25 1018 57 10000 2.6 70 09:20 23.06.2020
1034 Clear 25 1018 57 10000 2.6 70 09:20 23.06.2020
1035 Clear 25 1018 41 10000 2.6 50 08:46 23.06.2020
1036 Clear 24 1018 44 10000 3.1 340 08:26 23.06.2020
1037 Clear 23 1018 47 10000 3.1 340 07:49 23.06.2020
1038 Clear 24 1018 49 10000 3.6 340 07:24 23.06.2020
1039 Clear 24 1017 46 10000 3.6 350 06:53 23.06.2020
1040 Clear 23 1017 49 10000 2.6 360 06:32 23.06.2020
1041 Clear 23 1017 46 10000 3.6 340 05:59 23.06.2020
1042 Clear 23 1017 46 10000 3.6 340 05:26 23.06.2020
1043 Clear 24 1017 44 10000 4.6 340 03:23 23.06.2020
1044 Clear 24 1017 47 10000 5.1 330 02:52 23.06.2020
1045 Clear 24 1017 44 10000 5.7 330 02:33 23.06.2020
1046 Clear 24 1017 47 10000 5.1 340 01:46 23.06.2020
1047 Clear 24 1017 44 10000 2.6 340 01:24 23.06.2020
1048 Clear 24 1017 44 10000 4.6 340 00:46 23.06.2020
1049 Clear 24 1017 50 10000 3.6 330 00:21 23.06.2020
1050 Clear 24 1017 47 10000 3.1 330 23:55 22.06.2020
1051 Clear 24 1017 47 10000 3.1 330 23:55 22.06.2020
1052 Clear 24 1017 50 10000 2.6 340 23:36 22.06.2020
1053 Clear 24 1017 50 10000 2.6 340 23:18 22.06.2020
1054 Clouds 24 1017 64 10000 1.5 340 22:54 22.06.2020
1055 Clouds 24 1017 73 10000 1.5 260 22:36 22.06.2020
1056 Clouds 24 1017 73 10000 1.5 260 22:18 22.06.2020
1057 Clouds 24 1017 78 10000 1.5 0 21:54 22.06.2020
1058 Clear 24 1017 73 10000 0.5 0 21:36 22.06.2020
1059 Clear 24 1017 73 10000 0.5 0 21:18 22.06.2020
1060 Clear 25 1017 69 10000 0.5 0 20:41 22.06.2020
1061 Clear 26 1017 69 10000 0.5 0 20:21 22.06.2020
1062 Clear 25 1017 73 10000 1 0 19:44 22.06.2020
1063 Clear 25 1017 73 10000 2.1 160 19:20 22.06.2020
1064 Clear 26 1016 73 10000 2.1 120 18:59 22.06.2020
1065 Clear 26 1016 74 10000 2.1 140 18:39 22.06.2020
1066 Clear 26 1016 74 10000 2.1 140 18:21 22.06.2020
1067 Clear 27 1016 74 10000 2.6 180 17:56 22.06.2020
1068 Clear 26 1016 74 10000 3.1 190 17:37 22.06.2020
1069 Clear 27 1016 74 10000 3.1 190 17:19 22.06.2020
1070 Clear 27 1017 69 10000 3.1 190 16:55 22.06.2020
1071 Clear 27 1017 69 10000 3.1 190 16:37 22.06.2020
1072 Clear 27 1017 69 10000 3.1 190 16:18 22.06.2020
1073 Clouds 28 1017 65 10000 3.6 200 15:42 22.06.2020
1074 Clear 28 1017 69 10000 3.1 190 15:23 22.06.2020
1075 Clear 28 1017 57 10000 3.6 200 14:56 22.06.2020
1076 Clear 27 1017 65 10000 3.1 190 14:36 22.06.2020
1077 Clear 27 1017 65 10000 3.1 190 14:18 22.06.2020
1078 Clear 28 1017 61 10000 4.1 200 13:39 22.06.2020
1079 Clear 28 1017 61 10000 4.1 200 13:39 22.06.2020
1080 Clear 28 1017 61 10000 4.1 200 13:21 22.06.2020
1081 Clear 27 1017 65 10000 3.6 200 12:57 22.06.2020
1082 Clear 27 1017 61 10000 3.6 200 12:39 22.06.2020
1083 Clear 27 1017 61 10000 3.6 200 12:39 22.06.2020
1084 Clear 27 1017 61 10000 3.6 200 12:21 22.06.2020
1085 Clear 26 1017 61 10000 3.1 200 11:37 22.06.2020
1086 Clear 26 1017 61 10000 3.1 200 11:19 22.06.2020
1087 Clear 26 1017 73 10000 2.6 190 10:57 22.06.2020
1088 Clear 26 1017 69 10000 2.6 180 10:38 22.06.2020
1089 Clear 26 1017 69 10000 2.6 180 10:19 22.06.2020
1090 Clear 26 1017 61 10000 2.6 130 09:57 22.06.2020
1091 Clear 26 1017 47 10000 3.6 350 09:38 22.06.2020
1092 Clear 25 1017 47 10000 3.6 350 09:19 22.06.2020
1093 Clear 23 1017 47 10000 3.6 350 08:56 22.06.2020
1094 Clear 24 1017 50 10000 4.6 350 08:38 22.06.2020
1095 Clear 23 1017 50 10000 4.6 350 08:18 22.06.2020
1096 Clear 22 1016 53 10000 4.1 350 07:46 22.06.2020
1097 Clear 22 1016 53 10000 4.6 340 07:25 22.06.2020
1098 Clear 22 1016 56 10000 4.6 340 06:39 22.06.2020
1099 Clear 22 1016 56 10000 4.6 340 06:20 22.06.2020
1100 Clear 22 1016 56 10000 3.6 340 05:42 22.06.2020
1101 Clear 23 1016 49 10000 2.6 340 03:47 22.06.2020
1102 Clouds 23 1016 49 10000 4.1 330 02:19 22.06.2020
1103 Clouds 23 1016 49 10000 5.7 320 00:59 22.06.2020
1104 Clouds 23 1016 49 10000 5.7 330 00:38 22.06.2020
1105 Clouds 22 1016 53 10000 4.1 330 23:57 21.06.2020
1106 Clouds 22 1016 56 10000 2.6 330 23:38 21.06.2020
1107 Clouds 22 1016 56 10000 2.6 330 23:20 21.06.2020
1108 Clouds 22 1016 69 10000 1 0 22:56 21.06.2020
1109 Clouds 22 1015 78 10000 1.5 70 22:36 21.06.2020
1110 Clouds 22 1015 78 10000 1.5 70 22:18 21.06.2020
1111 Clouds 22 1015 78 10000 1.5 80 21:56 21.06.2020
1112 Clear 23 1015 73 10000 1.5 70 21:37 21.06.2020
1113 Clear 23 1015 73 10000 1.5 70 21:19 21.06.2020
1114 Clear 23 1015 73 10000 2.1 70 20:57 21.06.2020
1115 Clear 23 1015 73 10000 2.1 70 20:57 21.06.2020
1116 Clear 24 1015 69 10000 2.6 210 20:36 21.06.2020
1117 Clear 24 1015 69 10000 2.6 210 20:18 21.06.2020
1118 Clear 24 1015 78 10000 3.1 200 19:41 21.06.2020
1119 Clear 24 1014 73 10000 2.6 190 19:23 21.06.2020
1120 Clear 24 1014 78 10000 2.6 190 18:59 21.06.2020
1121 Clear 25 1014 78 10000 2.1 160 18:40 21.06.2020
1122 Clear 25 1014 78 10000 2.1 160 18:21 21.06.2020
1123 Clear 25 1014 78 10000 1.5 170 17:58 21.06.2020
1124 Clear 24 1015 73 10000 2.1 150 17:38 21.06.2020
1125 Clear 24 1015 73 10000 2.1 150 17:19 21.06.2020
1126 Clear 24 1015 73 10000 2.1 150 17:19 21.06.2020
1127 Clear 24 1015 73 10000 3.1 170 16:41 21.06.2020
1128 Clear 24 1015 73 10000 3.1 170 16:23 21.06.2020
1129 Clear 25 1015 73 10000 3.1 170 15:57 21.06.2020
1130 Clear 24 1015 69 10000 3.1 170 15:37 21.06.2020
1131 Clouds 24 1015 69 10000 3.1 170 15:19 21.06.2020
1132 Clouds 24 1015 69 10000 2.6 160 14:39 21.06.2020
1133 Clouds 25 1015 69 10000 2.6 160 14:20 21.06.2020
1134 Clouds 24 1015 69 10000 3.1 150 13:58 21.06.2020
1135 Clouds 24 1015 69 10000 3.1 150 13:40 21.06.2020
1136 Clouds 24 1015 69 10000 2.1 150 13:19 21.06.2020
1137 Clouds 24 1015 69 10000 2.1 160 12:45 21.06.2020
1138 Clouds 23 1015 69 10000 2.6 140 12:26 21.06.2020
1139 Clouds 23 1015 69 10000 2.6 140 11:59 21.06.2020
1140 Clouds 23 1015 69 10000 2.6 140 11:41 21.06.2020
1141 Clear 23 1015 69 10000 3.1 140 11:23 21.06.2020
1142 Clear 22 1015 69 10000 2.6 140 10:58 21.06.2020
1143 Clear 23 1015 69 10000 1.5 160 10:39 21.06.2020
1144 Clear 23 1015 69 10000 1.5 160 10:20 21.06.2020
1145 Clear 23 1015 68 10000 1 0 09:44 21.06.2020
1146 Clear 23 1015 64 10000 0.5 0 09:23 21.06.2020
1147 Clear 20 1015 64 10000 1.5 0 08:57 21.06.2020
1148 Clear 21 1015 56 10000 3.1 350 08:39 21.06.2020
1149 Clear 21 1015 56 10000 3.1 350 08:20 21.06.2020
1150 Clear 20 1015 60 10000 2.1 320 07:42 21.06.2020
1151 Clear 20 1015 60 10000 3.6 360 07:24 21.06.2020
1152 Clear 19 1015 63 10000 3.1 320 06:51 21.06.2020
1153 Clear 18 1015 63 10000 2.1 330 06:31 21.06.2020
1154 Clear 18 1015 63 10000 1.5 0 05:57 21.06.2020
1155 Clear 19 1015 64 10000 3.1 30 04:42 21.06.2020
1156 Clear 19 1015 60 10000 2.1 360 03:19 21.06.2020
1157 Clear 19 1015 56 10000 2.1 340 02:38 21.06.2020
1158 Clouds 20 1015 56 10000 2.6 340 01:47 21.06.2020
1159 Clear 20 1015 60 10000 2.6 320 01:20 21.06.2020
1160 Clear 20 1016 60 10000 3.1 330 00:46 21.06.2020
1161 Clear 19 1016 60 10000 2.6 330 00:26 21.06.2020
1162 Clear 20 1016 60 10000 2.1 320 23:57 20.06.2020
1163 Clear 20 1016 77 10000 1.5 220 23:37 20.06.2020
1164 Clear 20 1016 77 10000 1.5 220 23:18 20.06.2020
1165 Clear 20 1016 77 10000 0.5 210 22:54 20.06.2020
1166 Clear 20 1016 78 10000 1.5 210 22:36 20.06.2020
1167 Clear 21 1016 78 10000 1.5 210 22:18 20.06.2020
1168 Clear 21 1016 73 10000 1.5 180 21:54 20.06.2020
1169 Clear 21 1016 73 10000 1.5 190 21:36 20.06.2020
1170 Clear 21 1016 73 10000 1.5 190 21:18 20.06.2020
1171 Clear 22 1016 73 10000 2.1 210 20:54 20.06.2020
1172 Clear 23 1016 73 10000 3.1 210 20:36 20.06.2020
1173 Clear 23 1016 73 10000 3.1 210 20:18 20.06.2020
1174 Clear 23 1016 78 10000 4.1 200 19:41 20.06.2020
1175 Clear 24 1016 73 10000 3.1 190 19:21 20.06.2020
1176 Clouds 24 1016 69 10000 2.6 190 18:43 20.06.2020
1177 Clouds 24 1016 73 10000 3.1 190 18:21 20.06.2020
1178 Clouds 24 1016 64 10000 3.1 180 17:58 20.06.2020
1179 Clouds 24 1016 64 10000 3.1 180 17:40 20.06.2020
1180 Clear 23 1016 69 10000 4.1 190 17:20 20.06.2020
1181 Clear 24 1017 69 10000 3.6 190 16:56 20.06.2020
1182 Clear 24 1017 73 10000 3.6 180 16:37 20.06.2020
1183 Clear 23 1017 73 10000 3.6 180 16:18 20.06.2020
1184 Clear 23 1017 73 10000 4.1 180 15:42 20.06.2020
1185 Clear 23 1017 73 10000 4.1 190 15:18 20.06.2020
1186 Clear 23 1017 73 10000 4.6 190 14:43 20.06.2020
1187 Clear 23 1017 73 10000 4.6 190 14:22 20.06.2020
1188 Clear 23 1017 73 10000 4.6 180 13:55 20.06.2020
1189 Clear 23 1017 73 10000 4.6 180 13:37 20.06.2020
1190 Clear 23 1017 73 10000 4.6 180 13:19 20.06.2020
1191 Clouds 23 1017 78 10000 4.1 180 12:42 20.06.2020
1192 Clear 23 1017 69 10000 3.6 180 12:21 20.06.2020
1193 Clear 22 1017 73 10000 3.1 180 11:58 20.06.2020
1194 Clear 22 1017 73 10000 3.6 170 11:38 20.06.2020
1195 Clear 22 1017 73 10000 3.6 170 11:20 20.06.2020
1196 Clear 22 1017 73 10000 3.1 180 10:55 20.06.2020
1197 Clear 22 1017 77 10000 2.6 190 10:37 20.06.2020
1198 Clear 22 1017 77 10000 2.6 190 10:18 20.06.2020
1199 Clear 22 1017 73 10000 2.1 210 09:40 20.06.2020
1200 Clear 20 1017 64 10000 1.5 290 09:22 20.06.2020
1201 Clear 20 1016 60 10000 2.6 330 08:56 20.06.2020
1202 Clear 20 1016 64 10000 3.1 320 08:38 20.06.2020
1203 Clear 20 1016 64 10000 3.1 320 08:20 20.06.2020
1204 Clouds 19 1016 68 10000 2.6 330 07:44 20.06.2020
1205 Clouds 18 1016 68 10000 3.1 340 07:25 20.06.2020
1206 Clouds 16 1016 77 10000 3.1 330 06:24 20.06.2020
1207 Clear 16 1016 77 10000 2.6 340 05:59 20.06.2020
1208 Clear 16 1016 72 10000 3.1 330 05:40 20.06.2020
1209 Clouds 17 1016 77 10000 2.6 330 03:21 20.06.2020
1210 Clouds 17 1016 77 10000 3.1 320 01:53 20.06.2020
1211 Clouds 17 1016 77 10000 2.1 320 01:35 20.06.2020
1212 Clouds 19 1016 83 10000 5.1 80 00:42 20.06.2020
1213 Clouds 19 1016 83 10000 5.1 80 00:19 20.06.2020
1214 Clouds 19 1016 83 10000 6.2 90 23:40 19.06.2020
1215 Clouds 19 1016 83 10000 6.2 90 23:19 19.06.2020
1216 Clouds 20 1016 83 10000 6.2 90 22:55 19.06.2020
1217 Clouds 20 1015 77 10000 6.7 90 22:37 19.06.2020
1218 Clouds 20 1015 77 10000 6.7 90 22:19 19.06.2020
1219 Clouds 20 1015 77 10000 6.2 90 21:55 19.06.2020
1220 Clouds 20 1014 77 10000 5.1 90 21:37 19.06.2020
1221 Clouds 20 1014 77 10000 5.1 90 21:18 19.06.2020
1222 Clouds 21 1014 73 10000 6.2 90 20:56 19.06.2020
1223 Clouds 21 1014 73 10000 8.2 90 20:38 19.06.2020
1224 Clouds 21 1014 73 10000 8.2 90 20:20 19.06.2020
1225 Clouds 21 1014 73 10000 7.7 80 19:42 19.06.2020
1226 Clear 21 1014 73 10000 8.2 90 19:23 19.06.2020
1227 Clear 21 1014 73 10000 8.7 90 18:59 19.06.2020
1228 Clear 21 1013 69 10000 8.7 90 18:39 19.06.2020
1229 Clear 21 1013 69 10000 8.7 90 18:21 19.06.2020
1230 Clear 22 1013 69 10000 7.7 90 17:42 19.06.2020
1231 Clear 22 1013 69 10000 7.7 90 17:23 19.06.2020
1232 Clear 22 1014 69 10000 7.7 90 16:59 19.06.2020
1233 Clear 21 1014 69 10000 7.7 90 16:41 19.06.2020
1234 Clouds 21 1014 69 10000 7.7 90 16:22 19.06.2020
1235 Clouds 21 1014 69 10000 7.2 90 15:49 19.06.2020
1236 Clear 21 1014 69 10000 6.7 90 15:27 19.06.2020
1237 Clear 21 1014 69 10000 6.2 100 14:59 19.06.2020
1238 Clear 21 1014 69 10000 6.2 100 14:41 19.06.2020
1239 Clear 21 1014 73 10000 5.7 110 14:22 19.06.2020
1240 Clear 21 1014 69 10000 5.7 110 13:59 19.06.2020
1241 Clear 21 1014 69 10000 5.7 110 13:41 19.06.2020
1242 Clear 21 1014 69 10000 5.7 110 13:23 19.06.2020
1243 Clear 21 1014 73 10000 5.1 110 12:46 19.06.2020
1244 Clear 21 1014 69 10000 4.6 120 12:22 19.06.2020
1245 Clear 21 1014 69 10000 4.1 120 11:57 19.06.2020
1246 Clear 21 1014 73 10000 3.1 130 11:37 19.06.2020
1247 Clear 21 1014 73 10000 3.1 130 11:37 19.06.2020
1248 Clear 21 1014 73 10000 3.1 130 11:18 19.06.2020
1249 Clear 22 1014 68 10000 2.6 140 10:45 19.06.2020
1250 Clear 22 1014 68 10000 2.1 120 10:26 19.06.2020
1251 Clear 22 1014 68 10000 2.1 120 10:26 19.06.2020
1252 Clouds 21 1015 68 10000 1 0 09:57 19.06.2020
1253 Clear 22 1015 52 10000 2.6 320 09:39 19.06.2020
1254 Clear 21 1015 52 10000 2.6 320 09:19 19.06.2020
1255 Clear 20 1014 56 10000 3.6 330 08:42 19.06.2020
1256 Clear 20 1014 56 10000 3.6 330 08:42 19.06.2020
1257 Clouds 20 1014 56 10000 3.6 330 08:23 19.06.2020
1258 Clear 19 1014 59 10000 4.6 330 07:55 19.06.2020
1259 Clear 18 1014 63 10000 4.1 330 07:36 19.06.2020
1260 Clear 18 1014 63 10000 4.1 330 07:18 19.06.2020
1261 Clear 16 1014 67 10000 2.6 330 06:23 19.06.2020
1262 Clear 16 1014 67 10000 3.1 330 05:43 19.06.2020
1263 Clear 18 1014 68 10000 2.1 330 04:23 19.06.2020
1264 Clear 19 1013 68 10000 3.1 310 02:50 19.06.2020
1265 Clear 18 1013 68 10000 2.6 320 00:49 19.06.2020
1266 Clear 19 1013 60 10000 2.1 310 00:22 19.06.2020
1267 Clear 19 1013 56 10000 3.1 260 23:59 18.06.2020
1268 Clear 20 1013 56 10000 3.1 260 23:41 18.06.2020
1269 Clear 20 1013 60 10000 4.1 250 23:23 18.06.2020
1270 Clear 21 1013 56 10000 3.1 250 22:58 18.06.2020
1271 Clear 21 1012 60 10000 5.1 230 22:37 18.06.2020
1272 Clear 21 1012 60 10000 5.1 230 22:18 18.06.2020
1273 Clear 21 1012 60 10000 5.1 230 22:18 18.06.2020
1274 Clear 21 1011 68 10000 8.7 220 21:39 18.06.2020
1275 Clear 21 1011 68 10000 8.7 220 21:20 18.06.2020
1276 Clear 21 1011 68 10000 9.3 220 20:57 18.06.2020
1277 Clear 21 1011 64 10000 8.7 220 20:38 18.06.2020
1278 Clouds 22 1011 64 10000 8.7 220 20:19 18.06.2020
1279 Clouds 22 1011 73 10000 9.8 210 19:42 18.06.2020
1280 Clouds 22 1011 69 10000 9.8 210 19:22 18.06.2020
1281 Clouds 22 1011 64 10000 9.3 210 18:57 18.06.2020
1282 Clouds 22 1011 64 10000 10.3 220 18:37 18.06.2020
1283 Clouds 23 1011 64 10000 10.3 220 18:19 18.06.2020
1284 Clouds 23 1011 69 10000 8.7 210 17:45 18.06.2020
1285 Clouds 24 1011 60 10000 9.3 210 17:25 18.06.2020
1286 Clouds 24 1011 47 10000 6.7 220 16:56 18.06.2020
1287 Clouds 25 1012 41 10000 6.7 230 16:37 18.06.2020
1288 Clouds 24 1012 41 10000 6.7 230 16:18 18.06.2020
1289 Clouds 24 1012 38 10000 7.2 220 15:55 18.06.2020
1290 Clouds 23 1012 57 10000 2.6 260 15:37 18.06.2020
1291 Clouds 23 1012 57 10000 2.6 260 15:18 18.06.2020
1292 Clouds 22 1012 60 10000 6.7 220 14:41 18.06.2020
1293 Clouds 21 1013 64 10000 5.1 100 14:23 18.06.2020
1294 Clouds 22 1013 60 10000 3.6 90 13:59 18.06.2020
1295 Clouds 22 1013 60 10000 3.1 120 13:41 18.06.2020
1296 Clouds 22 1013 60 10000 3.1 120 13:20 18.06.2020
1297 Clouds 21 1013 60 10000 2.6 160 12:55 18.06.2020
1298 Clouds 21 1013 60 10000 4.1 170 12:37 18.06.2020
1299 Clouds 21 1013 60 10000 4.1 170 12:19 18.06.2020
1300 Clouds 22 1013 68 10000 5.1 180 11:46 18.06.2020
1301 Clouds 22 1012 64 10000 3.1 180 11:21 18.06.2020
1302 Clouds 22 1012 60 10000 2.6 180 10:56 18.06.2020
1303 Clouds 22 1012 64 10000 3.1 200 10:38 18.06.2020
1304 Clouds 22 1012 64 10000 3.1 200 10:18 18.06.2020
1305 Clouds 22 1012 60 10000 1.5 310 09:42 18.06.2020
1306 Clouds 21 1012 56 10000 2.6 320 09:23 18.06.2020
1307 Clouds 20 1012 60 10000 3.6 320 08:42 18.06.2020
1308 Clouds 19 1012 68 10000 4.1 330 08:24 18.06.2020
1309 Clouds 18 1012 68 10000 3.6 330 08:00 18.06.2020
1310 Clouds 18 1011 72 10000 3.6 330 07:41 18.06.2020
1311 Clouds 17 1011 72 10000 3.6 330 07:23 18.06.2020
1312 Clouds 16 1011 72 10000 3.1 340 06:29 18.06.2020
1313 Clear 16 1011 77 10000 3.1 330 04:27 18.06.2020
1314 Clear 17 1011 77 10000 3.1 330 03:26 18.06.2020
1315 Clear 18 1012 77 10000 3.1 310 01:42 18.06.2020
1316 Clear 18 1011 77 10000 2.1 320 01:18 18.06.2020
1317 Clear 18 1011 77 10000 1.5 0 00:49 18.06.2020
1318 Clear 19 1011 73 10000 2.6 40 00:25 18.06.2020
1319 Clear 19 1011 77 10000 5.1 70 23:49 17.06.2020
1320 Clear 20 1011 77 10000 6.2 80 23:23 17.06.2020
1321 Clear 20 1011 77 10000 7.7 90 22:59 17.06.2020
1322 Clear 21 1010 73 10000 8.7 90 22:40 17.06.2020
1323 Clear 21 1010 73 10000 8.7 90 22:21 17.06.2020
1324 Clear 21 1010 78 10000 8.7 80 21:58 17.06.2020
1325 Clear 21 1009 73 10000 9.8 90 21:39 17.06.2020
1326 Clear 21 1009 73 10000 9.8 90 21:20 17.06.2020
1327 Clear 21 1009 73 10000 9.8 90 20:55 17.06.2020
1328 Clear 21 1009 69 10000 9.8 80 20:37 17.06.2020
1329 Clear 21 1009 69 10000 9.8 80 20:18 17.06.2020
1330 Clear 22 1008 78 10000 10.3 80 19:42 17.06.2020
1331 Clear 22 1008 78 10000 8.7 80 19:19 17.06.2020
1332 Clear 22 1008 73 10000 9.3 80 18:56 17.06.2020
1333 Clear 22 1008 69 10000 8.7 80 18:37 17.06.2020
1334 Rain 22 1008 69 10000 8.7 80 18:19 17.06.2020
1335 Rain 23 1008 69 10000 7.7 90 17:40 17.06.2020
1336 Clouds 23 1008 69 10000 7.7 90 17:21 17.06.2020
1337 Clouds 23 1008 73 10000 6.2 80 16:56 17.06.2020
1338 Clouds 23 1009 69 10000 7.7 70 16:37 17.06.2020
1339 Clouds 23 1009 69 10000 7.7 70 16:19 17.06.2020
1340 Clouds 22 1009 64 10000 5.7 110 15:40 17.06.2020
1341 Clouds 23 1009 64 10000 5.7 110 15:21 17.06.2020
1342 Clouds 22 1010 69 10000 5.1 130 14:58 17.06.2020
1343 Clouds 22 1010 64 10000 5.1 160 14:40 17.06.2020
1344 Clear 22 1010 64 10000 5.1 160 14:20 17.06.2020
1345 Clear 22 1010 64 10000 4.6 170 13:58 17.06.2020
1346 Clear 22 1010 69 10000 4.1 150 13:40 17.06.2020
1347 Clear 22 1010 69 10000 4.1 150 13:21 17.06.2020
1348 Clear 23 1011 73 10000 4.6 180 12:55 17.06.2020
1349 Clouds 22 1011 73 10000 5.1 180 12:36 17.06.2020
1350 Clouds 22 1011 73 10000 4.1 180 12:18 17.06.2020
1351 Clouds 23 1010 64 10000 3.1 180 11:44 17.06.2020
1352 Clouds 22 1010 64 10000 3.1 180 11:24 17.06.2020
1353 Clear 22 1010 60 10000 2.1 200 10:39 17.06.2020
1354 Clear 21 1010 60 10000 2.1 200 10:20 17.06.2020
1355 Clear 21 1010 60 10000 2.1 200 10:20 17.06.2020
1356 Clear 22 1010 60 10000 1.5 310 10:00 17.06.2020
1357 Clear 22 1010 56 10000 2.6 340 09:41 17.06.2020
1358 Clear 21 1010 56 10000 2.6 340 09:21 17.06.2020
1359 Clear 20 1010 64 10000 3.6 330 08:57 17.06.2020
1360 Clouds 19 1010 72 10000 3.6 330 08:39 17.06.2020
1361 Clouds 19 1010 72 10000 3.6 330 08:19 17.06.2020
1362 Clouds 18 1010 77 10000 3.1 330 07:43 17.06.2020
1363 Clouds 18 1010 77 10000 3.1 330 07:22 17.06.2020
1364 Clouds 18 1010 77 10000 3.6 330 06:56 17.06.2020
1365 Clouds 18 1010 77 10000 3.1 330 06:38 17.06.2020
1366 Clouds 17 1010 77 10000 3.1 330 06:20 17.06.2020
1367 Clouds 17 1010 77 10000 3.6 320 05:29 17.06.2020
1368 Clouds 19 1010 77 10000 1.5 0 03:30 17.06.2020
1369 Clouds 19 1011 72 10000 2.6 340 01:54 17.06.2020
1370 Clouds 19 1011 68 10000 2.1 310 00:47 17.06.2020
1371 Clouds 20 1011 68 10000 2.1 310 00:25 17.06.2020
1372 Clouds 20 1011 68 10000 2.6 360 23:56 16.06.2020
1373 Clouds 20 1011 68 10000 2.1 350 23:38 16.06.2020
1374 Clouds 20 1011 68 10000 2.1 350 23:19 16.06.2020
1375 Clouds 20 1011 68 10000 3.6 320 22:56 16.06.2020
1376 Clouds 20 1011 68 10000 2.6 340 22:37 16.06.2020
1377 Clouds 20 1011 68 10000 1.5 30 22:18 16.06.2020
1378 Clouds 20 1011 68 10000 1.5 30 21:47 16.06.2020
1379 Clouds 20 1011 73 10000 1 0 21:24 16.06.2020
1380 Clouds 20 1011 77 10000 1.5 200 20:58 16.06.2020
1381 Clouds 20 1011 77 10000 1.5 200 20:40 16.06.2020
1382 Clouds 20 1011 77 10000 1.5 190 20:19 16.06.2020
1383 Clouds 20 1011 77 10000 2.6 210 19:58 16.06.2020
1384 Clouds 20 1011 77 10000 1 200 19:39 16.06.2020
1385 Rain 20 1011 77 10000 1 200 19:21 16.06.2020
1386 Rain 21 1011 73 10000 1.5 220 18:55 16.06.2020
1387 Rain 21 1011 78 10000 3.6 210 18:37 16.06.2020
1388 Rain 21 1011 78 10000 3.6 210 18:19 16.06.2020
1389 Rain 21 1011 78 10000 3.1 200 17:55 16.06.2020
1390 Rain 21 1012 78 10000 4.1 200 17:36 16.06.2020
1391 Rain 21 1012 78 10000 4.1 200 17:18 16.06.2020
1392 Rain 23 1012 73 10000 4.1 190 16:42 16.06.2020
1393 Rain 23 1012 73 10000 4.1 190 16:20 16.06.2020
1394 Rain 23 1012 78 10000 3.6 150 15:58 16.06.2020
1395 Rain 23 1012 73 10000 3.6 150 15:40 16.06.2020
1396 Rain 23 1012 73 10000 3.6 150 15:22 16.06.2020
1397 Rain 22 1012 73 10000 3.1 150 14:59 16.06.2020
1398 Rain 22 1012 73 10000 3.1 170 14:41 16.06.2020
1399 Rain 23 1012 73 10000 3.1 170 14:22 16.06.2020
1400 Rain 22 1012 73 10000 3.6 170 13:48 16.06.2020
1401 Rain 22 1012 73 10000 3.6 160 13:26 16.06.2020
1402 Rain 22 1013 73 10000 4.1 170 12:57 16.06.2020
1403 Rain 22 1013 78 10000 4.1 170 12:38 16.06.2020
1404 Rain 22 1013 78 10000 4.1 170 12:38 16.06.2020
1405 Rain 22 1013 78 10000 4.1 170 12:20 16.06.2020
1406 Rain 22 1013 78 10000 4.6 170 11:55 16.06.2020
1407 Rain 22 1013 73 10000 4.6 180 11:37 16.06.2020
1408 Rain 22 1013 73 10000 4.6 180 11:37 16.06.2020
1409 Clouds 22 1013 73 10000 3.6 190 11:19 16.06.2020
1410 Clouds 22 1013 73 10000 3.6 190 10:42 16.06.2020
1411 Clear 21 1013 73 10000 3.1 190 10:21 16.06.2020
1412 Clear 22 1013 77 10000 3.1 220 09:58 16.06.2020
1413 Clear 21 1013 68 10000 1.5 320 09:40 16.06.2020
1414 Clouds 20 1013 68 10000 1.5 320 09:21 16.06.2020
1415 Clouds 21 1013 64 10000 3.6 320 08:44 16.06.2020
1416 Clouds 20 1013 68 10000 3.6 340 08:25 16.06.2020
1417 Clouds 19 1013 72 10000 3.6 330 07:50 16.06.2020
1418 Clouds 18 1013 77 10000 3.6 330 07:27 16.06.2020
1419 Clouds 18 1013 77 10000 4.6 330 06:48 16.06.2020
1420 Clouds 17 1013 77 10000 3.6 330 06:27 16.06.2020
1421 Clouds 17 1013 77 10000 2.6 330 05:38 16.06.2020
1422 Clouds 17 1013 82 10000 3.6 330 04:31 16.06.2020
1423 Clear 17 1013 77 10000 3.1 330 02:59 16.06.2020
1424 Clear 18 1013 77 10000 2.6 330 01:59 16.06.2020
1425 Clear 18 1013 82 10000 3.1 330 01:27 16.06.2020
1426 Clear 18 1013 82 10000 2.1 320 00:43 16.06.2020
1427 Clear 18 1013 82 10000 1.5 0 00:19 16.06.2020
1428 Clear 19 1014 82 10000 2.1 30 23:42 15.06.2020
1429 Clear 19 1013 83 10000 2.1 60 23:22 15.06.2020
1430 Clear 19 1013 83 10000 2.1 70 22:55 15.06.2020
1431 Clear 19 1013 77 10000 1.5 70 22:37 15.06.2020
1432 Clear 19 1013 77 10000 1.5 70 22:18 15.06.2020
1433 Clear 19 1013 77 10000 1 90 21:55 15.06.2020
1434 Clear 20 1013 73 10000 2.6 90 21:37 15.06.2020
1435 Clear 20 1013 73 10000 2.6 90 21:19 15.06.2020
1436 Clear 20 1013 73 10000 3.1 90 20:55 15.06.2020
1437 Clouds 20 1012 73 10000 2.1 120 20:37 15.06.2020
1438 Clouds 21 1012 73 10000 2.1 120 20:18 15.06.2020
1439 Rain 21 1012 73 10000 2.1 180 19:55 15.06.2020
1440 Rain 21 1012 73 10000 1 0 19:36 15.06.2020
1441 Rain 21 1012 73 10000 1 0 19:18 15.06.2020
1442 Thunderstorm 21 1012 73 10000 1 0 18:44 15.06.2020
1443 Clear 21 1012 69 10000 2.1 150 18:22 15.06.2020
1444 Clear 21 1012 73 10000 2.6 170 17:59 15.06.2020
1445 Clear 21 1012 73 10000 2.6 170 17:41 15.06.2020
1446 Thunderstorm 22 1012 69 10000 2.6 170 17:20 15.06.2020
1447 Clear 22 1012 69 10000 3.1 180 16:58 15.06.2020
1448 Clear 22 1013 73 10000 2.1 160 16:39 15.06.2020
1449 Clear 22 1013 73 10000 2.1 160 16:18 15.06.2020
1450 Clear 22 1013 78 10000 2.6 160 15:56 15.06.2020
1451 Clear 23 1013 73 10000 3.1 160 15:36 15.06.2020
1452 Clear 23 1013 73 10000 3.1 160 15:18 15.06.2020
1453 Clear 21 1013 73 10000 3.1 140 14:41 15.06.2020
1454 Clear 21 1013 73 10000 3.1 140 14:20 15.06.2020
1455 Clear 22 1013 73 10000 3.1 150 13:59 15.06.2020
1456 Clear 22 1014 73 10000 3.6 170 13:39 15.06.2020
1457 Rain 22 1014 73 10000 3.6 170 13:20 15.06.2020
1458 Rain 21 1014 73 10000 3.6 170 12:56 15.06.2020
1459 Rain 21 1013 77 10000 3.6 180 12:38 15.06.2020
1460 Rain 21 1013 77 10000 3.6 180 12:19 15.06.2020
1461 Rain 21 1013 77 10000 3.6 190 11:43 15.06.2020
1462 Clouds 21 1013 68 10000 2.1 150 11:24 15.06.2020
1463 Clouds 21 1013 68 10000 2.1 150 10:44 15.06.2020
1464 Clear 20 1013 68 10000 1.5 0 10:22 15.06.2020
1465 Clear 21 1013 68 10000 1.5 0 09:56 15.06.2020
1466 Clear 21 1013 64 10000 2.1 330 09:38 15.06.2020
1467 Clear 19 1013 64 10000 2.1 330 09:19 15.06.2020
1468 Clear 19 1013 68 10000 3.6 330 08:39 15.06.2020
1469 Clear 19 1013 68 10000 3.6 330 08:21 15.06.2020
1470 Clear 18 1013 72 10000 4.1 330 07:46 15.06.2020
1471 Clear 17 1012 72 10000 3.1 340 07:28 15.06.2020
1472 Clear 16 1012 77 10000 3.1 350 06:49 15.06.2020
1473 Clouds 16 1012 77 10000 3.1 340 06:25 15.06.2020
1474 Clouds 17 1012 72 10000 1.5 340 05:46 15.06.2020
1475 Clouds 17 1012 72 10000 1.5 340 05:26 15.06.2020
1476 Clouds 17 1012 72 10000 2.1 320 04:20 15.06.2020
1477 Clear 17 1012 77 10000 2.1 340 03:41 15.06.2020
1478 Clear 17 1012 77 10000 3.1 330 02:54 15.06.2020
1479 Clear 17 1012 72 10000 2.6 340 01:58 15.06.2020
1480 Clear 18 1012 77 10000 2.1 30 01:35 15.06.2020
1481 Clear 19 1012 82 10000 2.6 50 00:59 15.06.2020
1482 Clear 18 1012 82 10000 4.6 80 00:39 15.06.2020
1483 Clear 18 1012 82 10000 4.6 80 00:20 15.06.2020
1484 Clear 19 1012 83 10000 4.1 80 23:47 14.06.2020
1485 Clear 19 1012 77 10000 3.1 80 23:25 14.06.2020
1486 Clear 20 1012 68 10000 2.6 330 22:58 14.06.2020
1487 Clear 20 1011 64 10000 4.1 320 22:39 14.06.2020
1488 Clear 20 1011 64 10000 4.1 320 22:20 14.06.2020
1489 Clear 20 1011 64 10000 5.1 320 21:58 14.06.2020
1490 Clear 20 1011 60 10000 3.1 340 21:40 14.06.2020
1491 Clear 20 1011 60 10000 3.1 340 21:19 14.06.2020
1492 Clear 20 1011 77 10000 2.6 240 20:59 14.06.2020
1493 Clear 21 1011 77 10000 2.6 210 20:40 14.06.2020
1494 Clear 21 1011 77 10000 2.6 210 20:21 14.06.2020
1495 Clear 21 1011 73 10000 1.5 0 19:59 14.06.2020
1496 Clear 21 1011 73 10000 1.5 0 19:40 14.06.2020
1497 Clear 21 1011 73 10000 1.5 0 19:40 14.06.2020
1498 Clear 21 1011 73 10000 1.5 0 19:20 14.06.2020
1499 Clear 21 1012 68 10000 1 0 18:58 14.06.2020
1500 Clear 21 1011 68 10000 2.1 140 18:40 14.06.2020
1501 Clear 21 1011 68 10000 2.1 140 18:21 14.06.2020
1502 Clear 21 1011 73 10000 2.6 140 17:58 14.06.2020
1503 Clear 21 1011 73 10000 2.6 130 17:40 14.06.2020
1504 Clear 22 1011 73 10000 2.6 130 17:20 14.06.2020
1505 Clear 21 1011 73 10000 2.6 130 17:20 14.06.2020
1506 Clear 22 1011 68 10000 3.1 120 16:58 14.06.2020
1507 Clear 22 1012 64 10000 2.6 110 16:39 14.06.2020
1508 Clear 22 1012 64 10000 2.6 110 16:19 14.06.2020
1509 Clear 21 1012 64 10000 2.6 110 15:55 14.06.2020
1510 Clear 21 1012 64 10000 2.6 120 15:36 14.06.2020
1511 Clear 21 1012 64 10000 2.6 120 15:18 14.06.2020
1512 Clear 21 1012 64 10000 3.1 120 14:41 14.06.2020
1513 Clear 21 1012 68 10000 3.1 110 14:22 14.06.2020
1514 Clear 21 1012 68 10000 2.6 120 13:58 14.06.2020
1515 Clear 21 1012 68 10000 2.6 140 13:40 14.06.2020
1516 Clear 21 1012 68 10000 2.6 140 13:40 14.06.2020
1517 Clear 21 1012 68 10000 2.6 140 13:21 14.06.2020
1518 Clear 21 1012 68 10000 3.1 160 12:57 14.06.2020
1519 Clear 21 1012 68 10000 3.1 160 12:57 14.06.2020
1520 Clear 21 1011 73 10000 2.6 150 12:39 14.06.2020
1521 Clear 21 1011 73 10000 2.6 150 12:21 14.06.2020
1522 Clear 21 1011 68 10000 2.1 170 11:57 14.06.2020
1523 Clear 21 1011 73 10000 3.6 190 11:38 14.06.2020
1524 Clear 21 1011 73 10000 3.6 190 11:20 14.06.2020
1525 Clear 21 1011 72 10000 3.1 170 10:42 14.06.2020
1526 Clear 20 1011 64 10000 2.1 230 10:20 14.06.2020
1527 Clear 20 1011 60 10000 3.1 300 09:56 14.06.2020
1528 Clear 20 1011 56 10000 1 0 09:38 14.06.2020
1529 Clear 20 1011 56 10000 1 0 09:20 14.06.2020
1530 Clear 19 1011 59 10000 3.1 330 08:41 14.06.2020
1531 Clear 18 1011 63 10000 3.6 330 08:19 14.06.2020
1532 Clear 18 1011 67 10000 2.6 10 07:52 14.06.2020
1533 Clear 17 1011 72 10000 5.1 330 07:34 14.06.2020
1534 Clear 15 1011 72 10000 4.1 320 06:39 14.06.2020
1535 Clear 15 1011 72 10000 3.1 340 05:47 14.06.2020
1536 Clear 15 1010 77 10000 2.6 350 05:18 14.06.2020
1537 Clear 15 1011 77 10000 4.1 330 04:35 14.06.2020
1538 Clear 15 1011 82 10000 2.1 330 03:36 14.06.2020
1539 Clouds 16 1011 82 10000 3.1 320 02:32 14.06.2020
1540 Clouds 16 1011 82 10000 3.6 330 01:49 14.06.2020
1541 Clouds 16 1011 82 10000 2.6 320 01:26 14.06.2020
1542 Clouds 16 1011 88 10000 2.1 20 00:42 14.06.2020
1543 Clouds 17 1011 82 10000 2.1 320 00:20 14.06.2020
1544 Clouds 17 1011 88 10000 2.6 360 23:44 13.06.2020
1545 Clouds 17 1011 88 10000 1 0 23:25 13.06.2020
1546 Clouds 17 1011 88 10000 1 0 23:25 13.06.2020
1547 Clouds 17 1011 82 10000 2.6 330 22:58 13.06.2020
1548 Clouds 18 1011 82 10000 2.68 281 22:38 13.06.2020
1549 Clouds 18 1011 82 10000 2.54 290 22:18 13.06.2020
1550 Clouds 18 1011 82 10000 2.6 240 21:57 13.06.2020
1551 Clouds 18 1010 77 10000 3.1 250 21:38 13.06.2020
1552 Clouds 18 1010 77 10000 3.1 250 21:20 13.06.2020
1553 Clouds 19 1010 77 10000 2.6 220 20:44 13.06.2020
1554 Clouds 19 1010 77 10000 3.1 220 20:20 13.06.2020
1555 Clouds 19 1010 72 10000 2.6 190 19:58 13.06.2020
1556 Clouds 19 1011 68 10000 2.1 310 19:37 13.06.2020
1557 Clouds 19 1011 68 10000 2.1 310 19:19 13.06.2020
1558 Clouds 18 1011 68 10000 3.1 290 18:57 13.06.2020
1559 Clouds 18 1011 68 10000 3.1 290 18:57 13.06.2020
1560 Clouds 18 1011 72 10000 2.6 300 18:38 13.06.2020
1561 Rain 19 1011 72 10000 2.6 300 18:19 13.06.2020
1562 Rain 19 1010 72 10000 4.6 340 17:55 13.06.2020
1563 Rain 20 1010 64 10000 3.6 330 17:37 13.06.2020
1564 Clouds 20 1010 64 10000 3.6 330 17:19 13.06.2020
1565 Rain 20 1010 64 10000 4.1 350 16:41 13.06.2020
1566 Rain 19 1010 60 10000 3.6 310 16:20 13.06.2020
1567 Rain 20 1011 68 10000 6.7 230 15:59 13.06.2020
1568 Rain 20 1011 68 10000 6.7 230 15:41 13.06.2020
1569 Rain 20 1010 94 10000 6.2 200 15:21 13.06.2020
1570 Rain 20 1011 88 10000 5.7 190 14:44 13.06.2020
1571 Rain 20 1011 88 10000 6.2 190 14:23 13.06.2020
1572 Rain 20 1011 88 10000 7.2 180 13:57 13.06.2020
1573 Rain 19 1011 94 5000 6.2 190 13:37 13.06.2020
1574 Rain 19 1011 94 5000 6.2 190 13:18 13.06.2020
1575 Rain 20 1011 88 9000 5.7 160 12:43 13.06.2020
1576 Rain 19 1010 88 6000 8.2 90 12:25 13.06.2020
1577 Rain 19 1011 88 4900 10.3 100 11:57 13.06.2020
1578 Rain 18 1011 93 3100 8.7 90 11:37 13.06.2020
1579 Rain 18 1011 93 3100 8.7 90 11:19 13.06.2020
1580 Rain 19 1011 88 10000 9.8 100 10:54 13.06.2020
1581 Rain 21 1011 73 10000 6.7 90 10:28 13.06.2020
1582 Rain 21 1011 68 10000 7.7 80 09:57 13.06.2020
1583 Rain 20 1011 73 10000 7.7 90 09:39 13.06.2020
1584 Clouds 20 1011 73 10000 7.7 90 09:20 13.06.2020
1585 Clouds 20 1011 68 10000 6.7 80 08:46 13.06.2020
1586 Clouds 21 1011 64 10000 3.6 50 08:27 13.06.2020
1587 Clouds 20 1011 64 10000 4.1 50 07:45 13.06.2020
1588 Clouds 19 1012 68 10000 7.2 60 07:27 13.06.2020
1589 Clouds 19 1012 68 10000 7.2 70 06:47 13.06.2020
1590 Clouds 19 1012 68 10000 7.2 70 06:27 13.06.2020
1591 Clouds 19 1011 73 10000 8.2 80 05:36 13.06.2020
1592 Clouds 19 1011 73 10000 7.2 80 04:55 13.06.2020
1593 Clouds 19 1011 68 10000 7.2 80 03:46 13.06.2020
1594 Clouds 19 1012 68 10000 6.2 90 02:53 13.06.2020
1595 Clouds 19 1011 68 10000 4.1 80 02:25 13.06.2020
1596 Clouds 19 1012 73 10000 7.7 80 01:37 13.06.2020
1597 Clouds 19 1012 73 10000 7.7 80 01:18 13.06.2020
1598 Clouds 20 1012 77 10000 8.2 70 00:39 13.06.2020
1599 Clouds 20 1012 77 10000 8.2 70 00:21 13.06.2020
1600 Clouds 20 1012 73 10000 8.7 80 23:41 12.06.2020
1601 Clouds 20 1012 77 10000 9.8 80 23:19 12.06.2020
1602 Clouds 20 1012 77 10000 9.3 90 22:56 12.06.2020
1603 Clouds 20 1011 73 10000 9.8 90 22:38 12.06.2020
1604 Clouds 20 1011 73 10000 9.8 90 22:18 12.06.2020
1605 Clouds 20 1011 77 10000 9.3 80 21:44 12.06.2020
1606 Clouds 20 1010 77 10000 9.8 80 21:24 12.06.2020
1607 Clouds 20 1010 77 10000 10.3 80 20:58 12.06.2020
1608 Clouds 20 1010 77 10000 10.3 90 20:39 12.06.2020
1609 Clouds 20 1010 77 10000 10.3 90 20:21 12.06.2020
1610 Clouds 20 1010 77 10000 10.3 80 19:54 12.06.2020
1611 Clouds 20 1010 77 10000 10.8 80 19:36 12.06.2020
1612 Clouds 20 1010 77 10000 10.8 80 19:18 12.06.2020
1613 Clouds 20 1010 73 10000 11.8 80 18:37 12.06.2020
1614 Clouds 20 1010 73 10000 11.8 80 18:18 12.06.2020
1615 Clear 20 1011 78 10000 11.3 80 17:46 12.06.2020
1616 Clear 20 1011 73 10000 11.8 80 17:27 12.06.2020
1617 Clear 20 1011 73 10000 11.8 80 17:27 12.06.2020
1618 Clear 21 1011 78 10000 10.8 80 16:59 12.06.2020
1619 Clear 20 1011 78 10000 10.8 80 16:40 12.06.2020
1620 Clear 20 1011 78 10000 10.8 80 16:19 12.06.2020
1621 Clouds 20 1011 73 10000 11.8 80 15:45 12.06.2020
1622 Clouds 21 1011 73 10000 11.8 80 15:25 12.06.2020
1623 Clear 21 1011 73 10000 11.3 90 14:56 12.06.2020
1624 Clear 20 1011 73 10000 11.8 80 14:38 12.06.2020
1625 Clouds 20 1011 73 10000 11.8 80 14:19 12.06.2020
1626 Clouds 20 1011 73 10000 11.3 80 13:41 12.06.2020
1627 Clouds 20 1011 77 10000 10.8 90 13:21 12.06.2020
1628 Clouds 20 1011 68 10000 10.8 90 12:41 12.06.2020
1629 Clouds 21 1011 68 10000 10.8 90 12:20 12.06.2020
1630 Clouds 21 1011 64 10000 10.3 90 11:58 12.06.2020
1631 Clouds 21 1011 60 10000 10.8 80 11:38 12.06.2020
1632 Clouds 20 1011 60 10000 10.8 80 11:19 12.06.2020
1633 Clouds 20 1011 60 10000 10.8 90 10:45 12.06.2020
1634 Clouds 20 1011 60 10000 10.3 80 10:24 12.06.2020
1635 Clouds 19 1011 68 10000 8.7 80 09:46 12.06.2020
1636 Clouds 19 1011 68 10000 9.3 80 09:21 12.06.2020
1637 Clouds 19 1011 64 10000 8.7 80 08:45 12.06.2020
1638 Clouds 19 1011 64 10000 5.1 60 08:25 12.06.2020
1639 Clouds 18 1011 56 10000 4.1 40 07:44 12.06.2020
1640 Clouds 18 1011 59 10000 4.1 40 07:26 12.06.2020
1641 Clouds 17 1011 63 10000 4.1 30 06:56 12.06.2020
1642 Clouds 17 1011 68 10000 3.6 40 06:30 12.06.2020
1643 Clouds 17 1011 68 10000 4.1 30 05:55 12.06.2020
1644 Clouds 17 1011 72 10000 4.1 30 05:37 12.06.2020
1645 Clouds 17 1011 72 10000 4.1 30 05:19 12.06.2020
1646 Clouds 16 1011 77 10000 2.6 340 03:33 12.06.2020
1647 Clouds 16 1011 72 10000 3.1 330 01:57 12.06.2020
1648 Clouds 16 1011 77 10000 2.6 330 01:30 12.06.2020
1649 Clouds 16 1011 77 10000 2.6 320 00:55 12.06.2020
1650 Clouds 16 1011 72 10000 2.1 330 00:37 12.06.2020
1651 Clouds 16 1011 72 10000 2.1 330 00:18 12.06.2020
1652 Clouds 16 1011 72 10000 2.1 340 23:41 11.06.2020
1653 Clouds 16 1011 72 10000 2.1 340 23:22 11.06.2020
1654 Clouds 17 1011 68 10000 2.1 320 22:59 11.06.2020
1655 Clouds 17 1011 68 10000 1 210 22:39 11.06.2020
1656 Clouds 17 1011 68 10000 1 210 22:20 11.06.2020
1657 Clouds 17 1011 68 10000 1 220 21:57 11.06.2020
1658 Clouds 18 1010 68 10000 3.1 200 21:38 11.06.2020
1659 Clouds 18 1010 68 10000 3.1 200 21:20 11.06.2020
1660 Clouds 18 1010 68 10000 3.6 200 20:45 11.06.2020
1661 Clouds 19 1010 64 10000 5.1 200 20:22 11.06.2020
1662 Clouds 19 1010 60 10000 5.1 200 19:58 11.06.2020
1663 Clouds 20 1010 60 10000 5.7 210 19:40 11.06.2020
1664 Clouds 20 1010 60 10000 5.7 210 19:22 11.06.2020
1665 Clouds 19 1010 64 10000 5.7 200 18:42 11.06.2020
1666 Clouds 20 1010 64 10000 5.7 200 18:24 11.06.2020
1667 Clouds 20 1010 64 10000 5.1 200 17:57 11.06.2020
1668 Clouds 20 1010 64 10000 2.1 170 17:38 11.06.2020
1669 Clouds 20 1010 64 10000 2.1 170 17:20 11.06.2020
1670 Clouds 20 1010 64 10000 2.1 170 17:20 11.06.2020
1671 Clouds 20 1010 64 10000 2.6 150 16:58 11.06.2020
1672 Rain 20 1010 68 10000 3.1 160 16:40 11.06.2020
1673 Rain 20 1010 68 10000 3.1 160 16:22 11.06.2020
1674 Rain 19 1010 64 10000 2.6 160 15:56 11.06.2020
1675 Rain 20 1009 64 10000 2.6 170 15:38 11.06.2020
1676 Rain 20 1009 64 10000 2.6 170 15:19 11.06.2020
1677 Thunderstorm 20 1009 68 10000 4.1 190 14:42 11.06.2020
1678 Thunderstorm 20 1009 68 10000 4.1 190 14:21 11.06.2020
1679 Rain 21 1009 64 10000 4.1 160 13:56 11.06.2020
1680 Rain 20 1009 64 10000 3.6 130 13:38 11.06.2020
1681 Rain 20 1009 64 10000 3.6 130 13:19 11.06.2020
1682 Clouds 20 1009 68 10000 4.1 120 12:55 11.06.2020
1683 Clouds 20 1009 68 10000 4.1 120 12:37 11.06.2020
1684 Clouds 19 1009 68 10000 4.1 120 12:19 11.06.2020
1685 Clouds 19 1009 64 10000 3.6 120 11:57 11.06.2020
1686 Rain 19 1009 64 10000 3.1 120 11:38 11.06.2020
1687 Rain 19 1009 64 10000 3.1 120 11:19 11.06.2020
1688 Rain 19 1009 68 10000 2.1 110 10:54 11.06.2020
1689 Rain 20 1009 64 10000 1.5 0 10:36 11.06.2020
1690 Rain 20 1009 64 10000 1.5 0 10:18 11.06.2020
1691 Rain 18 1009 63 10000 3.6 320 09:40 11.06.2020
1692 Clouds 18 1009 63 10000 3.6 320 09:22 11.06.2020
1693 Rain 18 1009 63 10000 3.6 320 09:22 11.06.2020
1694 Rain 17 1009 67 10000 3.6 330 08:43 11.06.2020
1695 Clouds 17 1009 67 10000 3.6 340 08:19 11.06.2020
1696 Clouds 16 1009 77 10000 4.1 330 07:42 11.06.2020
1697 Clouds 14 1009 77 10000 4.1 330 07:24 11.06.2020
1698 Clouds 14 1009 77 10000 3.6 340 06:40 11.06.2020
1699 Clouds 14 1009 77 10000 3.6 340 06:21 11.06.2020
1700 Clouds 14 1009 82 10000 3.6 330 05:28 11.06.2020
1701 Clouds 14 1009 82 10000 3.6 340 03:28 11.06.2020
1702 Clouds 14 1009 82 10000 3.6 340 02:50 11.06.2020
1703 Clouds 14 1009 82 10000 3.1 330 02:32 11.06.2020
1704 Clouds 14 1010 82 10000 3.1 330 01:46 11.06.2020
1705 Clouds 14 1010 82 10000 3.6 330 01:22 11.06.2020
1706 Clouds 15 1010 82 10000 2.6 330 00:45 11.06.2020
1707 Clouds 15 1010 82 10000 2.6 330 00:26 11.06.2020
1708 Clouds 15 1010 82 10000 3.1 330 23:44 10.06.2020
1709 Clouds 15 1010 77 10000 2.6 330 23:25 10.06.2020
1710 Clouds 15 1010 82 10000 2.1 330 22:56 10.06.2020
1711 Clouds 16 1009 77 10000 1.5 320 22:38 10.06.2020
1712 Clouds 16 1009 77 10000 1.5 320 22:19 10.06.2020
1713 Clouds 16 1009 72 10000 2.6 330 21:56 10.06.2020
1714 Clouds 17 1009 68 10000 2.1 310 21:38 10.06.2020
1715 Clouds 17 1009 68 10000 2.1 310 21:18 10.06.2020
1716 Clouds 17 1009 72 10000 2.1 50 20:56 10.06.2020
1717 Clouds 18 1009 64 10000 2.6 50 20:38 10.06.2020
1718 Clouds 18 1009 64 10000 2.6 50 20:20 10.06.2020
1719 Clouds 18 1009 64 10000 2.6 310 19:41 10.06.2020
1720 Clouds 18 1009 68 10000 3.1 10 19:20 10.06.2020
1721 Rain 18 1010 72 10000 3.1 20 18:58 10.06.2020
1722 Rain 18 1010 72 10000 3.1 20 18:58 10.06.2020
1723 Rain 17 1010 82 10000 2.6 360 18:40 10.06.2020
1724 Rain 17 1010 82 10000 2.6 360 18:19 10.06.2020
1725 Rain 17 1010 68 10000 1 0 17:56 10.06.2020
1726 Rain 18 1010 68 10000 0.5 0 17:37 10.06.2020
1727 Rain 18 1010 68 10000 0.5 0 17:19 10.06.2020
1728 Rain 18 1010 64 10000 3.1 230 16:57 10.06.2020
1729 Thunderstorm 19 1010 68 10000 2.6 190 16:39 10.06.2020
1730 Thunderstorm 19 1010 68 10000 2.6 190 16:19 10.06.2020
1731 Rain 20 1010 68 10000 3.1 170 15:41 10.06.2020
1732 Rain 20 1010 68 10000 3.1 170 15:22 10.06.2020
1733 Rain 20 1010 68 10000 4.1 180 14:58 10.06.2020
1734 Rain 20 1010 68 10000 4.6 180 14:39 10.06.2020
1735 Rain 19 1010 68 10000 4.6 180 14:20 10.06.2020
1736 Rain 20 1010 64 10000 5.1 180 13:41 10.06.2020
1737 Rain 19 1010 64 10000 5.1 180 13:21 10.06.2020
1738 Rain 20 1010 68 10000 5.7 180 12:45 10.06.2020
1739 Clouds 20 1010 68 10000 4.1 180 12:23 10.06.2020
1740 Clouds 20 1010 68 10000 4.6 180 11:59 10.06.2020
1741 Clouds 21 1010 68 10000 4.1 180 11:40 10.06.2020
1742 Clouds 20 1010 68 10000 4.1 180 11:20 10.06.2020
1743 Clouds 21 1010 64 10000 3.1 180 10:58 10.06.2020
1744 Clouds 21 1010 64 10000 3.1 180 10:58 10.06.2020
1745 Clouds 20 1010 64 10000 2.6 250 10:39 10.06.2020
1746 Clouds 20 1010 64 10000 2.6 250 10:39 10.06.2020
1747 Clouds 20 1010 64 10000 2.6 250 10:21 10.06.2020
1748 Clouds 20 1010 60 10000 2.1 270 09:42 10.06.2020
1749 Clouds 19 1010 56 10000 2.1 320 09:23 10.06.2020
1750 Clouds 18 1010 59 10000 3.1 330 08:57 10.06.2020
1751 Clouds 18 1009 67 10000 3.1 350 08:39 10.06.2020
1752 Clouds 17 1009 67 10000 3.1 350 08:20 10.06.2020
1753 Clouds 16 1009 72 10000 4.6 330 07:39 10.06.2020
1754 Clouds 16 1009 72 10000 4.6 330 07:21 10.06.2020
1755 Clouds 15 1010 72 10000 4.1 340 06:47 10.06.2020
1756 Clouds 15 1010 77 10000 3.6 330 06:24 10.06.2020
1757 Clouds 14 1010 77 10000 2.6 340 05:58 10.06.2020
1758 Clouds 14 1009 72 10000 3.1 340 05:28 10.06.2020
1759 Rain 15 1010 77 10000 3.6 330 04:37 10.06.2020
1760 Thunderstorm 15 1010 77 10000 2.6 330 03:33 10.06.2020
1761 Rain 15 1011 77 10000 3.1 330 02:23 10.06.2020
1762 Rain 15 1011 72 10000 4.1 50 01:38 10.06.2020
1763 Thunderstorm 16 1010 72 10000 3.1 320 00:40 10.06.2020
1764 Thunderstorm 16 1010 72 10000 3.1 320 00:22 10.06.2020
1765 Thunderstorm 16 1010 77 10000 3.6 320 23:57 09.06.2020
1766 Rain 16 1010 72 10000 3.6 320 23:39 09.06.2020
1767 Rain 16 1010 72 10000 3.6 320 23:21 09.06.2020
1768 Rain 16 1010 72 10000 3.1 320 22:56 09.06.2020
1769 Rain 16 1010 68 10000 2.6 320 22:38 09.06.2020
1770 Rain 16 1010 68 10000 2.6 320 22:20 09.06.2020
1771 Rain 17 1010 68 10000 1 0 21:56 09.06.2020
1772 Clouds 17 1010 59 10000 1.48 78 21:38 09.06.2020
1773 Clouds 17 1010 59 10000 1.62 54 21:38 09.06.2020
1774 Clouds 17 1010 59 10000 1.27 80 21:20 09.06.2020
1775 Clouds 17 1010 59 10000 1.27 80 21:20 09.06.2020
1776 Rain 18 1010 56 10000 1.5 0 20:57 09.06.2020
1777 Clouds 18 1009 60 10000 2.1 320 20:38 09.06.2020
1778 Clouds 18 1009 60 10000 2.1 320 20:20 09.06.2020
1779 Clouds 18 1009 60 10000 2.1 320 20:20 09.06.2020
1780 Rain 18 1009 60 10000 1.5 320 19:57 09.06.2020
1781 Rain 19 1009 60 10000 3.6 340 19:38 09.06.2020
1782 Rain 19 1009 60 10000 3.6 340 19:20 09.06.2020
1783 Rain 19 1009 60 10000 3.6 340 19:20 09.06.2020
1784 Clouds 19 1009 60 10000 3.6 340 18:56 09.06.2020
1785 Rain 19 1009 56 10000 3.6 350 18:38 09.06.2020
1786 Rain 19 1009 56 10000 3.6 350 18:18 09.06.2020
1787 Rain 19 1009 60 10000 3.6 350 17:55 09.06.2020
1788 Rain 20 1009 46 10000 4.1 30 17:36 09.06.2020
1789 Rain 20 1009 46 10000 4.1 30 17:18 09.06.2020
1790 Rain 18 1009 56 10000 4.6 330 16:42 09.06.2020
1791 Rain 19 1009 56 10000 5.1 40 16:22 09.06.2020
1792 Rain 19 1009 60 10000 3.6 70 15:55 09.06.2020
1793 Thunderstorm 19 1009 60 10000 2.6 80 15:37 09.06.2020
1794 Thunderstorm 19 1009 60 10000 2.6 80 15:19 09.06.2020
1795 Thunderstorm 19 1009 60 10000 1 0 14:41 09.06.2020
1796 Rain 19 1009 60 10000 1.5 0 14:21 09.06.2020
1797 Rain 20 1009 60 10000 1.5 130 13:59 09.06.2020
1798 Rain 19 1009 64 10000 2.1 200 13:41 09.06.2020
1799 Rain 19 1009 64 10000 2.1 200 13:21 09.06.2020
1800 Thunderstorm 19 1009 64 10000 2.1 170 12:55 09.06.2020
1801 Thunderstorm 19 1008 60 10000 3.6 130 12:37 09.06.2020
1802 Thunderstorm 20 1008 60 10000 3.6 130 12:18 09.06.2020
1803 Rain 19 1008 64 10000 4.6 120 11:54 09.06.2020
1804 Rain 19 1007 68 10000 6.7 110 11:36 09.06.2020
1805 Rain 19 1007 68 10000 6.7 110 11:18 09.06.2020
1806 Rain 19 1008 68 10000 5.7 80 10:42 09.06.2020
1807 Rain 19 1008 68 10000 5.7 80 10:24 09.06.2020
1808 Clouds 20 1008 64 10000 4.6 70 09:44 09.06.2020
1809 Clear 20 1008 60 10000 2.6 40 09:25 09.06.2020
1810 Clouds 18 1008 63 10000 2.1 340 08:57 09.06.2020
1811 Clouds 19 1007 68 10000 2.1 330 08:38 09.06.2020
1812 Clouds 18 1007 68 10000 2.1 330 08:20 09.06.2020
1813 Clear 16 1007 77 10000 4.1 330 07:38 09.06.2020
1814 Clear 17 1007 77 10000 4.1 330 07:20 09.06.2020
1815 Clouds 16 1007 77 10000 3.6 330 06:54 09.06.2020
1816 Clouds 16 1007 77 10000 5.1 330 06:35 09.06.2020
1817 Clouds 15 1007 77 10000 4.6 330 05:36 09.06.2020
1818 Clear 15 1007 82 10000 4.6 330 03:47 09.06.2020
1819 Clouds 17 1007 82 10000 1 0 01:44 09.06.2020
1820 Clouds 17 1007 72 10000 4.1 50 01:20 09.06.2020
1821 Clouds 18 1007 72 10000 6.2 60 00:58 09.06.2020
1822 Clouds 17 1007 77 10000 7.2 60 00:38 09.06.2020
1823 Clouds 17 1007 77 10000 7.2 60 00:18 09.06.2020
1824 Clouds 17 1007 82 10000 6.7 70 23:40 08.06.2020
1825 Clouds 18 1007 82 10000 6.7 70 23:20 08.06.2020
1826 Clouds 18 1006 82 10000 6.2 70 22:55 08.06.2020
1827 Clouds 18 1006 82 10000 5.7 70 22:37 08.06.2020
1828 Clouds 18 1006 82 10000 5.7 70 22:19 08.06.2020
1829 Clear 18 1006 82 10000 6.2 80 21:55 08.06.2020
1830 Clear 19 1005 77 10000 5.1 100 21:36 08.06.2020
1831 Rain 19 1005 77 10000 5.1 100 21:18 08.06.2020
1832 Clear 20 1005 77 10000 4.6 100 20:54 08.06.2020
1833 Clear 20 1005 77 10000 4.1 90 20:36 08.06.2020
1834 Rain 20 1005 77 10000 4.1 90 20:18 08.06.2020
1835 Rain 21 1005 68 10000 2.6 100 19:41 08.06.2020
1836 Rain 21 1005 68 10000 2.6 100 19:20 08.06.2020
1837 Rain 21 1005 68 10000 2.6 70 18:42 08.06.2020
1838 Rain 21 1005 68 10000 2.1 70 18:20 08.06.2020
1839 Rain 21 1005 68 10000 2.1 70 18:20 08.06.2020
1840 Clouds 21 1006 73 10000 1.5 0 17:57 08.06.2020
1841 Rain 21 1006 73 10000 2.1 160 17:39 08.06.2020
1842 Rain 21 1006 73 10000 2.1 160 17:21 08.06.2020
1843 Clouds 21 1006 64 10000 1 0 16:56 08.06.2020
1844 Rain 21 1006 73 10000 1 0 16:38 08.06.2020
1845 Rain 21 1006 73 10000 1 0 16:20 08.06.2020
1846 Thunderstorm 21 1006 68 10000 2.1 90 15:42 08.06.2020
1847 Thunderstorm 21 1007 68 10000 1.5 0 15:21 08.06.2020
1848 Thunderstorm 21 1006 68 10000 2.1 120 14:57 08.06.2020
1849 Rain 21 1006 73 10000 3.1 120 14:38 08.06.2020
1850 Rain 21 1006 73 10000 3.1 120 14:18 08.06.2020
1851 Clouds 20 1006 73 10000 6.2 90 13:42 08.06.2020
1852 Clouds 20 1006 73 10000 6.2 90 13:23 08.06.2020
1853 Clouds 20 1007 77 10000 4.6 90 12:42 08.06.2020
1854 Clouds 20 1007 77 10000 4.6 90 12:20 08.06.2020
1855 Clouds 20 1007 77 10000 4.6 90 12:20 08.06.2020
1856 Clouds 20 1007 77 10000 5.1 80 11:59 08.06.2020
1857 Rain 20 1006 77 10000 4.6 80 11:40 08.06.2020
1858 Rain 20 1006 77 10000 4.6 80 11:21 08.06.2020
1859 Clouds 20 1007 73 10000 3.6 70 10:57 08.06.2020
1860 Rain 19 1007 72 10000 2.1 40 10:38 08.06.2020
1861 Rain 19 1007 72 10000 2.1 40 10:20 08.06.2020
1862 Clouds 19 1007 72 10000 3.1 330 09:57 08.06.2020
1863 Clouds 18 1006 77 10000 3.6 330 09:39 08.06.2020
1864 Clouds 18 1006 77 10000 3.6 330 09:20 08.06.2020
1865 Clouds 17 1006 77 10000 4.6 320 08:41 08.06.2020
1866 Clouds 17 1006 77 10000 4.6 320 08:20 08.06.2020
1867 Clouds 17 1006 77 10000 3.6 330 07:42 08.06.2020
1868 Clouds 17 1006 77 10000 3.6 330 07:21 08.06.2020
1869 Clouds 16 1006 77 10000 4.1 330 06:43 08.06.2020
1870 Clouds 15 1005 87 10000 3.6 330 06:25 08.06.2020
1871 Clouds 15 1005 87 10000 2.6 330 05:42 08.06.2020
1872 Clouds 16 1005 82 10000 4.1 320 03:43 08.06.2020
1873 Clear 16 1005 82 10000 2.6 320 02:32 08.06.2020
1874 Clear 17 1006 88 10000 2.1 330 01:45 08.06.2020
1875 Clear 17 1006 88 10000 2.1 340 01:25 08.06.2020
1876 Clear 17 1006 82 10000 3.6 330 00:29 08.06.2020
1877 Clear 17 1006 82 10000 3.6 330 00:28 08.06.2020
1878 Clear 17 1006 88 10000 2.6 330 23:41 07.06.2020
1879 Clear 17 1006 88 10000 2.6 330 23:20 07.06.2020
1880 Clear 18 1006 88 10000 2.6 320 22:59 07.06.2020
1881 Clear 17 1005 88 10000 2.1 300 22:39 07.06.2020
1882 Clear 18 1005 88 10000 2.1 300 22:19 07.06.2020
1883 Clouds 18 1005 88 10000 1.5 60 21:58 07.06.2020
1884 Clouds 18 1005 82 10000 1.5 0 21:38 07.06.2020
1885 Clouds 19 1005 82 10000 1.5 0 21:19 07.06.2020
1886 Clouds 18 1005 82 10000 1 170 20:55 07.06.2020
1887 Clouds 19 1006 88 10000 2.1 210 20:37 07.06.2020
1888 Thunderstorm 19 1006 88 10000 3.1 150 20:18 07.06.2020
1889 Thunderstorm 19 1006 88 10000 3.1 150 19:55 07.06.2020
1890 Thunderstorm 19 1006 82 10000 4.6 150 19:37 07.06.2020
1891 Thunderstorm 19 1006 82 10000 4.6 150 19:18 07.06.2020
1892 Rain 20 1005 77 10000 4.1 160 18:42 07.06.2020
1893 Clouds 20 1005 77 10000 4.1 160 18:23 07.06.2020
1894 Rain 20 1005 77 10000 2.6 170 17:59 07.06.2020
1895 Rain 21 1005 73 10000 1.5 150 17:40 07.06.2020
1896 Rain 22 1005 73 10000 1.5 150 17:22 07.06.2020
1897 Rain 21 1005 77 10000 1.5 120 16:45 07.06.2020
1898 Rain 21 1006 77 10000 2.6 80 16:23 07.06.2020
1899 Rain 21 1006 77 10000 2.1 110 15:45 07.06.2020
1900 Rain 21 1006 77 10000 3.6 130 15:24 07.06.2020
1901 Rain 20 1006 77 10000 2.6 140 15:00 07.06.2020
1902 Rain 20 1006 73 10000 1.5 160 14:38 07.06.2020
1903 Rain 20 1006 73 10000 1.5 160 14:19 07.06.2020
1904 Clouds 20 1006 77 10000 3.1 160 13:45 07.06.2020
1905 Clouds 20 1006 77 10000 3.1 160 13:45 07.06.2020
1906 Clouds 20 1006 77 10000 3.1 160 13:45 07.06.2020
1907 Clouds 20 1006 77 10000 3.1 160 13:45 07.06.2020
1908 Clouds 20 1006 77 10000 2.6 160 13:20 07.06.2020
1909 Clouds 19 1006 82 10000 2.6 170 12:45 07.06.2020
1910 Clouds 19 1007 77 10000 2.6 160 12:26 07.06.2020
1911 Clouds 19 1007 77 10000 2.6 160 12:26 07.06.2020
1912 Rain 20 1006 77 10000 1.5 180 11:56 07.06.2020
1913 Rain 20 1006 88 10000 2.1 190 11:38 07.06.2020
1914 Rain 19 1006 88 10000 2.1 190 11:20 07.06.2020
1915 Rain 18 1006 93 10000 2.1 200 10:59 07.06.2020
1916 Rain 18 1006 93 10000 2.1 200 10:40 07.06.2020
1917 Clouds 18 1006 93 10000 1 0 10:19 07.06.2020
1918 Clouds 18 1006 93 10000 1 0 09:57 07.06.2020
1919 Thunderstorm 17 1006 88 10000 0.69 178 09:38 07.06.2020
1920 Rain 17 1006 88 10000 0.32 289 09:19 07.06.2020
1921 Rain 17 1006 88 5000 1.5 320 08:48 07.06.2020
1922 Rain 17 1006 88 5000 1.5 320 08:48 07.06.2020
1923 Rain 17 1006 88 10000 2.1 320 08:23 07.06.2020
1924 Rain 17 1006 88 10000 1.5 0 07:49 07.06.2020
1925 Rain 17 1006 93 10000 1 20 07:29 07.06.2020
1926 Rain 17 1006 88 10000 1.5 0 06:48 07.06.2020
1927 Clouds 17 1006 82 10000 0.63 244 05:41 07.06.2020
1928 Clouds 17 1006 82 10000 1.5 290 04:20 07.06.2020
1929 Clouds 17 1006 82 10000 2.6 310 02:36 07.06.2020
1930 Clouds 17 1006 82 10000 2.1 310 01:55 07.06.2020
1931 Clouds 17 1007 82 10000 2.6 310 01:25 07.06.2020
1932 Clouds 17 1007 82 10000 2.1 330 00:46 07.06.2020
1933 Clouds 18 1007 82 10000 2.6 40 00:19 07.06.2020
1934 Clouds 18 1007 77 10000 4.1 60 23:58 06.06.2020
1935 Clouds 18 1007 82 10000 4.6 70 23:37 06.06.2020
1936 Clouds 18 1007 82 10000 4.6 70 23:19 06.06.2020
1937 Clouds 19 1006 82 10000 5.1 80 22:56 06.06.2020
1938 Clouds 19 1006 82 10000 5.1 80 22:38 06.06.2020
1939 Clouds 19 1006 82 10000 5.1 80 22:19 06.06.2020
1940 Clouds 19 1006 82 10000 5.1 80 22:19 06.06.2020
1941 Clouds 19 1006 82 10000 5.7 80 21:46 06.06.2020
1942 Clouds 19 1006 82 10000 6.2 90 21:22 06.06.2020
1943 Clouds 20 1006 77 10000 6.2 90 20:58 06.06.2020
1944 Clouds 20 1006 77 10000 7.2 90 20:39 06.06.2020
1945 Clouds 20 1006 77 10000 7.2 90 20:18 06.06.2020
1946 Clouds 20 1006 77 10000 8.2 80 19:57 06.06.2020
1947 Clouds 20 1006 77 10000 7.2 90 19:38 06.06.2020
1948 Clouds 20 1006 77 10000 7.2 90 19:20 06.06.2020
1949 Clouds 20 1005 73 10000 7.2 80 18:54 06.06.2020
1950 Clouds 20 1005 73 10000 6.7 90 18:36 06.06.2020
1951 Clouds 20 1005 73 10000 6.7 90 18:18 06.06.2020
1952 Clouds 21 1006 73 10000 6.2 100 17:41 06.06.2020
1953 Clouds 21 1006 73 10000 6.2 100 17:19 06.06.2020
1954 Clouds 21 1006 73 10000 5.1 90 16:55 06.06.2020
1955 Clouds 21 1007 73 10000 5.7 80 16:37 06.06.2020
1956 Clouds 21 1007 73 10000 5.7 80 16:19 06.06.2020
1957 Clouds 21 1007 68 10000 4.6 110 15:44 06.06.2020
1958 Clouds 21 1007 68 10000 4.6 110 15:20 06.06.2020
1959 Clouds 21 1007 68 10000 5.1 110 14:57 06.06.2020
1960 Clouds 21 1007 68 10000 5.1 100 14:37 06.06.2020
1961 Clear 21 1007 68 10000 5.1 100 14:19 06.06.2020
1962 Clear 21 1007 68 10000 5.1 90 13:46 06.06.2020
1963 Clear 21 1007 73 10000 4.6 90 13:19 06.06.2020
1964 Clear 21 1007 73 10000 4.1 90 12:57 06.06.2020
1965 Clear 21 1007 78 10000 3.1 100 12:38 06.06.2020
1966 Clear 21 1007 78 10000 3.1 100 12:18 06.06.2020
1967 Clear 20 1007 73 10000 3.1 100 11:54 06.06.2020
1968 Clear 20 1007 73 10000 2.6 130 11:36 06.06.2020
1969 Clear 20 1007 73 10000 2.6 130 11:36 06.06.2020
1970 Clear 20 1007 73 10000 2.6 130 11:18 06.06.2020
1971 Clear 21 1007 68 10000 2.6 130 10:55 06.06.2020
1972 Clear 21 1007 64 10000 1.5 110 10:36 06.06.2020
1973 Clear 21 1007 64 10000 1.5 110 10:18 06.06.2020
1974 Clear 21 1007 64 10000 1.5 90 09:41 06.06.2020
1975 Clear 20 1007 56 10000 2.1 340 09:22 06.06.2020
1976 Clear 20 1007 56 10000 2.6 330 08:47 06.06.2020
1977 Clear 19 1006 63 10000 4.1 330 08:24 06.06.2020
1978 Clear 18 1006 63 10000 4.6 330 07:56 06.06.2020
1979 Clear 18 1006 63 10000 5.1 330 07:38 06.06.2020
1980 Clear 17 1006 63 10000 5.1 330 07:19 06.06.2020
1981 Clear 16 1006 67 10000 4.6 320 06:43 06.06.2020
1982 Clear 16 1006 67 10000 4.6 320 06:43 06.06.2020
1983 Clear 15 1006 72 10000 4.6 320 06:25 06.06.2020
1984 Clear 16 1006 72 10000 3.6 320 05:33 06.06.2020
1985 Clear 16 1005 72 10000 2.1 310 04:51 06.06.2020
1986 Clear 16 1005 72 10000 4.6 320 03:45 06.06.2020
1987 Clear 16 1005 68 10000 3.6 310 02:35 06.06.2020
1988 Clear 16 1005 72 10000 3.1 280 01:23 06.06.2020
1989 Clear 17 1004 68 10000 2.21 327 00:58 06.06.2020
1990 Clear 18 1004 68 10000 2.6 310 00:40 06.06.2020
1991 Clear 18 1004 68 10000 2.6 310 00:21 06.06.2020
1992 Clear 18 1004 72 10000 3.1 320 23:40 05.06.2020
1993 Clear 18 1004 72 10000 3.1 320 23:20 05.06.2020
1994 Clear 18 1004 72 10000 3.1 320 23:20 05.06.2020
1995 Clear 18 1004 72 10000 2.6 310 22:57 05.06.2020
1996 Clear 19 1003 73 10000 3.6 80 22:38 05.06.2020
1997 Clear 19 1003 73 10000 3.6 80 22:20 05.06.2020
1998 Clear 19 1002 77 10000 2.1 90 21:54 05.06.2020
1999 Clear 20 1002 73 10000 2.6 60 21:36 05.06.2020
2000 Clear 20 1002 73 10000 2.6 60 21:18 05.06.2020
2001 Clear 20 1002 73 10000 3.6 70 20:44 05.06.2020
2002 Clear 20 1002 73 10000 5.7 80 20:22 05.06.2020
2003 Clear 21 1001 68 10000 6.2 90 19:57 05.06.2020
2004 Clear 21 1001 73 10000 7.7 90 19:39 05.06.2020
2005 Clear 21 1001 73 10000 7.7 90 19:20 05.06.2020
2006 Clear 21 1000 68 10000 7.2 90 18:40 05.06.2020
2007 Clear 21 1000 68 10000 7.2 90 18:21 05.06.2020
2008 Clear 22 1000 73 10000 6.7 90 17:59 05.06.2020
2009 Clear 22 1000 73 10000 6.7 90 17:40 05.06.2020
2010 Clear 22 1000 68 10000 6.7 100 17:20 05.06.2020
2011 Clear 22 1000 73 10000 6.7 100 16:45 05.06.2020
2012 Clear 22 1000 68 10000 5.7 90 16:26 05.06.2020
2013 Clear 22 1000 68 10000 5.1 80 15:59 05.06.2020
2014 Clear 22 1000 68 10000 5.1 90 15:38 05.06.2020
2015 Clear 22 1000 68 10000 5.1 90 15:20 05.06.2020
2016 Clear 22 1000 68 10000 4.6 90 14:57 05.06.2020
2017 Clear 22 1000 68 10000 4.6 90 14:39 05.06.2020
2018 Clear 21 1000 68 10000 4.1 120 14:21 05.06.2020
2019 Clear 22 999 64 10000 3.1 100 13:46 05.06.2020
2020 Clear 22 999 64 10000 3.1 100 13:27 05.06.2020
2021 Clear 21 999 68 10000 3.1 80 12:56 05.06.2020
2022 Clear 21 999 68 10000 1.5 100 12:37 05.06.2020
2023 Clear 21 999 68 10000 1.5 100 12:18 05.06.2020
2024 Clear 21 999 68 10000 2.1 180 11:42 05.06.2020
2025 Clear 21 999 68 10000 2.1 180 11:23 05.06.2020
2026 Clear 20 998 72 10000 1.5 190 10:58 05.06.2020
2027 Clear 20 998 72 10000 1.5 190 10:39 05.06.2020
2028 Clear 20 998 72 10000 1.5 190 10:39 05.06.2020
2029 Clear 20 998 68 10000 2.1 200 10:19 05.06.2020
2030 Clear 19 998 72 10000 2.1 180 09:57 05.06.2020
2031 Clear 20 998 72 10000 1.5 320 09:37 05.06.2020
2032 Clouds 20 998 72 10000 1.5 320 09:19 05.06.2020
2033 Clouds 19 997 77 10000 3.1 310 08:57 05.06.2020
2034 Clouds 18 997 72 10000 3.1 320 08:38 05.06.2020
2035 Clouds 18 997 72 10000 3.1 320 08:18 05.06.2020
2036 Clouds 17 996 77 10000 2.6 310 07:49 05.06.2020
2037 Clouds 17 996 77 10000 4.6 320 07:31 05.06.2020
2038 Clouds 15 996 77 10000 3.6 320 06:48 05.06.2020
2039 Clouds 14 995 87 10000 2.6 340 05:23 05.06.2020
2040 Clouds 14 995 87 10000 3.6 330 04:27 05.06.2020
2041 Clouds 14 995 93 10000 3.1 300 03:29 05.06.2020
2042 Clouds 15 995 87 10000 2.6 320 02:29 05.06.2020
2043 -273 0 0 0 0 0 01:58 05.06.2020
2044 Clouds 15 996 93 10000 2.6 310 01:31 05.06.2020
2045 Clouds 15 996 93 10000 4.1 320 00:44 05.06.2020
2046 Clouds 15 996 88 10000 2.6 310 00:22 05.06.2020
2047 Clouds 16 996 82 10000 2.6 300 23:55 04.06.2020
2048 Clouds 16 996 77 10000 2.6 270 23:36 04.06.2020
2049 Clouds 16 996 77 10000 2.6 270 23:18 04.06.2020
2050 Clouds 16 996 82 10000 3.1 290 22:42 04.06.2020
2051 Clouds 17 996 82 10000 2.6 280 22:21 04.06.2020
2052 Clouds 17 996 82 10000 3.1 290 21:58 04.06.2020
2053 Clouds 17 996 88 10000 1.5 0 21:38 04.06.2020
2054 Clouds 18 996 88 10000 1.5 0 21:20 04.06.2020
2055 Clouds 18 996 88 10000 1.5 0 20:57 04.06.2020
2056 Clouds 18 996 88 10000 2.6 250 20:39 04.06.2020
2057 Clouds 18 996 88 10000 2.6 250 20:20 04.06.2020
2058 Clouds 18 996 88 10000 4.1 220 19:55 04.06.2020
2059 Clouds 18 997 88 10000 4.1 220 19:37 04.06.2020
2060 Clouds 18 997 88 10000 4.1 220 19:18 04.06.2020
2061 Clouds 18 997 88 10000 3.6 240 18:39 04.06.2020
2062 Clouds 18 997 88 10000 3.6 240 18:20 04.06.2020
2063 Clouds 18 997 82 10000 2.1 260 17:58 04.06.2020
2064 Clouds 19 997 82 10000 2.1 260 17:40 04.06.2020
2065 Clouds 18 998 88 10000 1.5 0 17:19 04.06.2020
2066 Rain 16 998 93 10000 2.6 350 16:41 04.06.2020
2067 Rain 17 998 93 10000 2.6 350 16:20 04.06.2020
2068 Rain 16 999 93 2600 2.1 360 15:47 04.06.2020
2069 Rain 16 999 93 4400 2.6 40 15:27 04.06.2020
2070 Rain 16 999 93 7000 3.6 60 14:58 04.06.2020
2071 Rain 16 1000 93 7000 2.6 40 14:38 04.06.2020
2072 Rain 16 1000 93 7000 2.6 40 14:19 04.06.2020
2073 Rain 16 1000 100 10000 3.1 340 13:43 04.06.2020
2074 Rain 15 1000 93 5000 3.6 340 13:21 04.06.2020
2075 Rain 15 1001 93 4900 2.6 330 12:59 04.06.2020
2076 Mist 15 1001 93 3200 2.6 340 12:41 04.06.2020
2077 Rain 15 1001 93 3200 2.6 340 12:23 04.06.2020
2078 Rain 15 1001 93 2000 4.6 340 11:59 04.06.2020
2079 Rain 15 1001 87 2600 3.1 40 11:38 04.06.2020
2080 Rain 15 1001 87 2600 3.1 40 11:20 04.06.2020
2081 Rain 15 1001 87 9000 2.1 360 10:57 04.06.2020
2082 Rain 15 1001 93 9000 4.6 350 10:38 04.06.2020
2083 Thunderstorm 15 1001 93 9000 4.6 350 10:19 04.06.2020
2084 Rain 14 1001 93 2400 6.7 340 09:45 04.06.2020
2085 Rain 15 1002 93 8000 4.6 340 09:27 04.06.2020
2086 Rain 14 1002 93 3200 4.6 340 08:46 04.06.2020
2087 Mist 15 1002 87 3400 5.1 350 08:27 04.06.2020
2088 Rain 15 1002 93 4400 4.1 10 07:52 04.06.2020
2089 Rain 15 1002 93 5000 4.6 360 07:29 04.06.2020
2090 Rain 16 1002 93 8000 4.1 340 06:44 04.06.2020
2091 Rain 16 1002 88 7000 3.6 10 06:26 04.06.2020
2092 Rain 17 1003 93 10000 1.5 20 05:39 04.06.2020
2093 Rain 17 1003 93 10000 1.5 20 05:20 04.06.2020
2094 Clouds 18 1005 82 10000 0.5 360 03:28 04.06.2020
2095 Clouds 19 1006 72 10000 2.6 260 01:57 04.06.2020
2096 Clouds 19 1006 77 10000 1.5 0 01:20 04.06.2020
2097 Clouds 19 1006 77 10000 1 0 00:50 04.06.2020
2098 Clouds 19 1006 82 10000 2.1 290 23:55 03.06.2020
2099 Clouds 19 1007 82 10000 2.1 320 23:36 03.06.2020
2100 Clouds 19 1007 82 10000 2.1 320 23:36 03.06.2020
2101 Clouds 19 1007 82 10000 2.1 320 23:18 03.06.2020
2102 Clouds 19 1006 88 10000 3.6 220 22:40 03.06.2020
2103 Clouds 19 1006 88 10000 3.6 220 22:19 03.06.2020
2104 Clouds 19 1006 88 10000 3.6 220 22:19 03.06.2020
2105 Clouds 19 1006 88 10000 4.1 220 21:58 03.06.2020
2106 Clouds 19 1006 88 10000 4.1 220 21:40 03.06.2020
2107 Clouds 19 1006 88 10000 3.6 230 21:21 03.06.2020
2108 Clouds 19 1006 88 10000 3.6 230 21:21 03.06.2020
2109 Clouds 20 1006 83 10000 5.1 230 20:57 03.06.2020
2110 Clouds 20 1007 83 10000 4.1 210 20:38 03.06.2020
2111 Clouds 20 1007 83 10000 4.1 210 20:20 03.06.2020
2112 Clouds 20 1007 83 10000 4.6 200 19:56 03.06.2020
2113 Rain 20 1007 83 10000 5.1 190 19:37 03.06.2020
2114 Rain 20 1007 83 10000 5.1 190 19:37 03.06.2020
2115 Rain 20 1007 83 10000 5.1 190 19:19 03.06.2020
2116 Clouds 20 1007 77 10000 5.7 200 18:55 03.06.2020
2117 Clouds 20 1007 73 10000 4.1 200 18:37 03.06.2020
2118 Clouds 21 1007 73 10000 4.1 200 18:18 03.06.2020
2119 Rain 20 1008 83 10000 6.2 220 17:42 03.06.2020
2120 Rain 20 1008 83 10000 6.2 220 17:21 03.06.2020
2121 Rain 20 1008 83 10000 6.2 220 16:56 03.06.2020
2122 Rain 20 1008 83 10000 7.2 210 16:38 03.06.2020
2123 Rain 20 1008 83 10000 7.2 210 16:18 03.06.2020
2124 Rain 20 1008 83 10000 7.2 210 16:18 03.06.2020
2125 Rain 21 1008 78 10000 9.3 200 15:41 03.06.2020
2126 Rain 21 1008 78 10000 9.3 200 15:21 03.06.2020
2127 Clouds 21 1009 78 10000 8.2 200 14:59 03.06.2020
2128 Rain 21 1009 78 10000 7.2 200 14:40 03.06.2020
2129 Rain 21 1009 78 10000 7.2 200 14:21 03.06.2020
2130 Rain 21 1010 78 10000 6.2 200 13:39 03.06.2020
2131 Clouds 21 1010 78 10000 6.2 200 13:20 03.06.2020
2132 Clouds 21 1010 78 10000 4.6 190 12:43 03.06.2020
2133 Clear 21 1010 77 10000 5.7 200 12:23 03.06.2020
2134 Clouds 21 1010 77 10000 5.7 190 11:59 03.06.2020
2135 Clouds 20 1010 77 10000 5.7 190 11:40 03.06.2020
2136 Clouds 21 1010 73 10000 4.1 180 11:22 03.06.2020
2137 Clouds 21 1010 68 10000 1.5 160 10:42 03.06.2020
2138 Clear 21 1010 68 10000 2.1 180 10:24 03.06.2020
2139 Clear 20 1010 68 10000 2.6 220 09:47 03.06.2020
2140 Clear 20 1010 68 10000 2.6 220 09:47 03.06.2020
2141 Clear 20 1010 60 10000 1.5 310 09:23 03.06.2020
2142 Clear 21 1010 60 10000 3.6 320 08:59 03.06.2020
2143 Clear 20 1010 60 10000 3.6 320 08:41 03.06.2020
2144 Clear 19 1010 63 10000 4.1 320 08:21 03.06.2020
2145 Clouds 18 1010 68 10000 5.1 330 07:44 03.06.2020
2146 Clouds 18 1010 68 10000 5.1 330 07:23 03.06.2020
2147 Clouds 17 1010 72 10000 4.6 320 06:54 03.06.2020
2148 Clouds 16 1010 72 10000 3.6 330 06:33 03.06.2020
2149 Clouds 16 1010 72 10000 3.6 330 06:33 03.06.2020
2150 Clear 16 1010 72 10000 3.6 330 05:49 03.06.2020
2151 Clear 17 1010 72 10000 3.6 330 05:23 03.06.2020
2152 Clear 17 1011 68 10000 3.1 330 03:52 03.06.2020
2153 Clear 17 1011 72 10000 3.1 330 03:24 03.06.2020
2154 Clear 17 1011 68 10000 4.1 10 02:24 03.06.2020
2155 Clear 19 1011 82 10000 8.7 60 01:26 03.06.2020
2156 Clear 19 1011 64 10000 2.6 350 00:37 03.06.2020
2157 Clear 19 1011 64 10000 2.6 350 00:18 03.06.2020
2158 Clear 20 1011 64 10000 2.1 340 23:39 02.06.2020
2159 Clear 20 1011 60 10000 2.6 330 23:21 02.06.2020
2160 Clear 20 1011 64 10000 1.5 340 22:39 02.06.2020
2161 Clear 20 1011 64 10000 1.5 340 22:19 02.06.2020
2162 Clear 20 1011 82 10000 2.1 260 21:57 02.06.2020
2163 Clear 20 1011 77 10000 2.6 220 21:39 02.06.2020
2164 Clear 20 1011 77 10000 2.6 220 21:21 02.06.2020
2165 Clear 21 1011 77 10000 1 180 20:59 02.06.2020
2166 Clear 21 1011 77 10000 1 170 20:40 02.06.2020
2167 Clouds 21 1011 77 10000 1 170 20:22 02.06.2020
2168 Clouds 21 1011 77 10000 1.5 160 19:45 02.06.2020
2169 Clouds 21 1011 73 10000 2.1 130 19:26 02.06.2020
2170 Clouds 22 1012 73 10000 2.6 120 18:59 02.06.2020
2171 Clouds 22 1012 68 10000 2.1 80 18:40 02.06.2020
2172 Clouds 22 1012 68 10000 2.1 80 18:40 02.06.2020
2173 Clouds 22 1012 68 10000 2.1 80 18:21 02.06.2020
2174 Clouds 22 1013 68 10000 2.1 100 17:59 02.06.2020
2175 Clouds 22 1013 64 10000 2.1 140 17:40 02.06.2020
2176 Clouds 22 1013 64 10000 2.1 140 17:40 02.06.2020
2177 Clouds 22 1013 64 10000 2.1 140 17:21 02.06.2020
2178 Clouds 22 1014 64 10000 2.1 180 16:56 02.06.2020
2179 Clouds 22 1014 68 10000 4.6 200 16:38 02.06.2020
2180 Clouds 22 1014 68 10000 4.6 200 16:19 02.06.2020
2181 Clouds 22 1014 73 10000 5.1 180 15:41 02.06.2020
2182 Clouds 23 1014 73 10000 5.1 180 15:22 02.06.2020
2183 Clouds 23 1014 73 10000 5.7 190 14:49 02.06.2020
2184 Clouds 23 1014 69 10000 5.7 180 14:30 02.06.2020
2185 Clouds 23 1014 73 10000 4.6 180 13:57 02.06.2020
2186 Clouds 23 1015 78 10000 4.6 180 13:38 02.06.2020
2187 Clouds 23 1015 78 10000 4.6 180 13:19 02.06.2020
2188 Clouds 23 1015 73 10000 4.1 180 12:58 02.06.2020
2189 Clouds 22 1015 68 10000 3.1 200 12:39 02.06.2020
2190 Clouds 22 1015 68 10000 3.1 200 12:20 02.06.2020
2191 Clouds 22 1015 73 10000 3.6 220 11:55 02.06.2020
2192 Clouds 22 1015 60 10000 2.6 230 11:37 02.06.2020
2193 Clouds 22 1015 60 10000 2.6 230 11:18 02.06.2020
2194 Clouds 23 1015 60 10000 2.6 190 10:47 02.06.2020
2195 Clouds 21 1015 60 10000 2.1 180 10:28 02.06.2020
2196 Clouds 21 1016 64 10000 1.5 260 09:56 02.06.2020
2197 Clouds 20 1016 68 10000 1.07 135 09:37 02.06.2020
2198 Clouds 21 1016 68 10000 0.97 79 09:19 02.06.2020
2199 Clouds 20 1016 68 10000 1 0 08:47 02.06.2020
2200 Clouds 19 1016 68 10000 1 0 08:20 02.06.2020
2201 Clouds 19 1015 68 10000 1.5 340 07:46 02.06.2020
2202 Rain 18 1016 72 10000 1 340 07:25 02.06.2020
2203 Rain 18 1016 68 10000 1 0 06:43 02.06.2020
2204 Rain 18 1016 68 10000 2.1 350 05:57 02.06.2020
2205 Rain 18 1016 68 10000 1.5 320 05:19 02.06.2020
2206 Rain 19 1016 68 10000 3.1 40 03:25 02.06.2020
2207 Clouds 19 1016 64 10000 1.5 0 02:26 02.06.2020
2208 Clouds 20 1016 64 10000 1.5 320 01:22 02.06.2020
2209 Clouds 19 1016 64 10000 3.1 320 00:25 02.06.2020
2210 Clouds 19 1016 68 10000 1 0 23:57 01.06.2020
2211 Clouds 20 1016 68 10000 0.5 70 23:37 01.06.2020
2212 Clouds 20 1016 68 10000 0.5 70 23:18 01.06.2020
2213 Clouds 20 1016 72 10000 0.9 309 22:42 01.06.2020
2214 Clouds 20 1016 72 10000 1.5 0 22:21 01.06.2020
2215 Clouds 20 1016 73 10000 1.5 0 21:58 01.06.2020
2216 Clouds 20 1016 73 10000 1.5 0 21:40 01.06.2020
2217 Clouds 20 1016 73 10000 2.1 190 21:20 01.06.2020
2218 Clouds 20 1016 73 10000 2.6 190 20:56 01.06.2020
2219 Clouds 20 1016 68 10000 2.6 180 20:38 01.06.2020
2220 Clouds 20 1016 68 10000 2.6 180 20:19 01.06.2020
2221 Clouds 21 1016 68 10000 2.1 190 19:55 01.06.2020
2222 Clouds 21 1016 56 10000 2.1 180 19:37 01.06.2020
2223 Clouds 21 1016 56 10000 2.1 180 19:19 01.06.2020
2224 Clouds 22 1016 56 10000 1.5 160 18:55 01.06.2020
2225 Clouds 22 1017 56 10000 1.5 0 18:37 01.06.2020
2226 Clouds 23 1017 56 10000 1.5 0 18:18 01.06.2020
2227 Clouds 23 1017 56 10000 1.5 140 17:40 01.06.2020
2228 Clouds 23 1017 56 10000 1.5 140 17:19 01.06.2020
2229 Clouds 23 1017 56 10000 2.1 130 16:42 01.06.2020
2230 Clouds 22 1017 60 10000 1.5 160 16:22 01.06.2020
2231 Clouds 22 1017 60 10000 2.1 170 15:59 01.06.2020
2232 Clouds 22 1017 64 10000 2.6 180 15:39 01.06.2020
2233 Clouds 22 1017 64 10000 2.6 180 15:20 01.06.2020
2234 Clouds 22 1018 64 10000 2.1 150 14:58 01.06.2020
2235 Clouds 22 1018 64 10000 2.1 150 14:40 01.06.2020
2236 Clouds 22 1018 68 10000 2.6 160 14:21 01.06.2020
2237 Clouds 22 1018 68 10000 2.1 160 13:55 01.06.2020
2238 Clouds 22 1018 68 10000 2.1 120 13:37 01.06.2020
2239 Clouds 22 1018 68 10000 2.1 120 13:18 01.06.2020
2240 Clouds 22 1018 73 10000 2.1 120 12:54 01.06.2020
2241 Clouds 22 1018 73 10000 2.6 100 12:36 01.06.2020
2242 Clouds 21 1018 73 10000 2.6 100 12:18 01.06.2020
2243 Clouds 20 1018 68 10000 3.1 90 11:39 01.06.2020
2244 Clouds 21 1018 68 10000 3.1 90 11:21 01.06.2020
2245 Clouds 21 1018 68 10000 2.1 80 10:57 01.06.2020
2246 Clouds 20 1018 73 10000 3.1 80 10:37 01.06.2020
2247 Clouds 20 1018 73 10000 3.1 80 10:19 01.06.2020
2248 Clouds 19 1018 72 10000 3.1 90 09:55 01.06.2020
2249 Clouds 19 1017 72 10000 2.1 90 09:37 01.06.2020
2250 Clear 20 1017 72 10000 2.1 90 09:19 01.06.2020
2251 Clear 19 1017 68 10000 2.6 330 08:41 01.06.2020
2252 Clear 19 1017 68 10000 2.6 330 08:22 01.06.2020
2253 Clear 18 1017 72 10000 3.1 340 07:44 01.06.2020
2254 Clear 17 1017 77 10000 3.6 330 07:25 01.06.2020
2255 Clear 16 1016 77 10000 3.6 330 06:52 01.06.2020
2256 Clear 16 1016 82 10000 3.1 330 06:20 01.06.2020
2257 Clear 16 1016 77 10000 3.1 340 05:49 01.06.2020
2258 Clear 16 1016 77 10000 2.1 330 04:18 01.06.2020
2259 Clear 16 1016 77 10000 2.1 330 03:44 01.06.2020
2260 Clear 16 1016 77 10000 2.6 330 02:59 01.06.2020
2261 Clear 16 1015 77 10000 2.6 340 01:47 01.06.2020
2262 Clear 16 1016 77 10000 3.1 320 01:27 01.06.2020
2263 Clear 17 1016 72 10000 2.1 320 00:57 01.06.2020
2264 Clear 17 1016 72 10000 2.1 320 00:57 01.06.2020
2265 Clear 16 1016 72 10000 1.5 0 00:38 01.06.2020
2266 Clear 16 1016 72 10000 1.5 0 00:20 01.06.2020
2267 Clear 16 1016 77 10000 2.6 320 23:54 31.05.2020
2268 Clear 17 1016 72 10000 0.57 330 23:36 31.05.2020
2269 Clear 17 1016 72 10000 0.57 330 23:18 31.05.2020
2270 Clear 18 1015 77 10000 2.1 240 22:42 31.05.2020
2271 Clear 18 1015 77 10000 2.1 240 22:42 31.05.2020
2272 Clear 18 1015 72 10000 2.6 220 22:24 31.05.2020
2273 Clear 18 1015 77 10000 1 190 21:58 31.05.2020
2274 Clear 18 1015 77 10000 0.5 190 21:39 31.05.2020
2275 Clear 18 1015 77 10000 0.5 190 21:21 31.05.2020
2276 Clear 19 1015 72 10000 0.5 180 20:48 31.05.2020
2277 Clear 20 1015 72 10000 1 160 20:25 31.05.2020
2278 Clear 19 1015 68 10000 2.1 150 19:57 31.05.2020
2279 Clear 20 1015 68 10000 2.1 150 19:39 31.05.2020
2280 Clear 20 1014 64 10000 2.6 170 19:21 31.05.2020
2281 -273 0 0 0 0 0 18:58 31.05.2020
2282 Clouds 21 1015 64 10000 3.1 200 18:40 31.05.2020
2283 Clouds 21 1015 64 10000 3.1 200 18:21 31.05.2020
2284 Clouds 20 1015 68 10000 2.6 190 17:43 31.05.2020
2285 Clear 20 1015 68 10000 2.6 190 17:24 31.05.2020
2286 Clear 21 1015 68 10000 2.6 180 16:42 31.05.2020
2287 Clear 21 1016 68 10000 2.6 180 16:22 31.05.2020
2288 Clear 20 1016 68 10000 2.1 150 15:59 31.05.2020
2289 Clear 20 1016 68 10000 2.1 150 15:38 31.05.2020
2290 Clear 20 1016 68 10000 2.1 150 15:20 31.05.2020
2291 Clear 20 1016 68 10000 2.1 140 14:45 31.05.2020
2292 Rain 20 1016 68 10000 3.1 150 14:20 31.05.2020
2293 Rain 21 1016 64 10000 3.1 120 13:56 31.05.2020
2294 Rain 20 1016 68 10000 3.1 130 13:37 31.05.2020
2295 Clouds 20 1016 68 10000 3.1 130 13:19 31.05.2020
2296 Clouds 21 1016 64 10000 3.6 110 12:55 31.05.2020
2297 Clouds 20 1016 64 10000 4.6 100 12:37 31.05.2020
2298 Clouds 20 1016 64 10000 4.6 100 12:18 31.05.2020
2299 Clouds 20 1016 64 10000 5.1 100 11:47 31.05.2020
2300 Clouds 20 1016 68 10000 5.7 90 11:23 31.05.2020
2301 Clouds 19 1016 68 10000 5.1 80 10:56 31.05.2020
2302 Clouds 19 1016 68 10000 4.1 90 10:38 31.05.2020
2303 Clouds 19 1016 68 10000 4.1 90 10:18 31.05.2020
2304 Clouds 19 1016 68 10000 3.6 70 09:42 31.05.2020
2305 Clouds 20 1016 64 10000 1.5 60 09:22 31.05.2020
2306 Clear 19 1015 56 10000 1 0 08:57 31.05.2020
2307 Clear 19 1015 59 10000 2.1 330 08:37 31.05.2020
2308 Rain 18 1015 59 10000 2.1 330 08:19 31.05.2020
2309 Rain 17 1015 67 10000 2.6 340 07:42 31.05.2020
2310 Clouds 17 1015 72 10000 3.1 350 07:20 31.05.2020
2311 Clouds 16 1015 72 10000 3.6 330 06:53 31.05.2020
2312 Clouds 15 1015 72 10000 3.1 340 06:31 31.05.2020
2313 Clouds 15 1015 72 10000 3.6 330 05:43 31.05.2020
2314 Clouds 15 1015 72 10000 4.1 320 04:29 31.05.2020
2315 Clouds 15 1015 67 10000 3.6 330 03:48 31.05.2020
2316 Clouds 17 1015 67 10000 4.6 320 02:59 31.05.2020
2317 Clouds 16 1015 77 10000 2.1 310 01:49 31.05.2020
2318 Clouds 16 1015 77 10000 2.6 290 01:27 31.05.2020
2319 Clouds 17 1015 68 10000 1.5 310 00:31 31.05.2020
2320 Clouds 16 1015 77 10000 2.6 300 23:57 30.05.2020
2321 Clouds 16 1015 72 10000 2.1 300 23:39 30.05.2020
2322 Clouds 16 1015 72 10000 2.1 300 23:19 30.05.2020
2323 Clouds 16 1015 72 10000 2.1 320 22:41 30.05.2020
2324 Clouds 16 1015 77 10000 3.6 330 22:23 30.05.2020
2325 Clouds 16 1015 77 10000 3.6 330 21:56 30.05.2020
2326 Clouds 16 1015 77 10000 2.6 340 21:38 30.05.2020
2327 Clouds 16 1015 77 10000 2.6 340 21:20 30.05.2020
2328 Clouds 16 1015 68 10000 2.6 270 20:56 30.05.2020
2329 Rain 16 1015 77 10000 5.1 340 20:38 30.05.2020
2330 Rain 16 1015 77 10000 5.1 340 20:20 30.05.2020
2331 Thunderstorm 18 1015 59 10000 3.6 270 19:43 30.05.2020
2332 Rain 17 1015 68 10000 5.7 330 19:22 30.05.2020
2333 Rain 18 1015 56 10000 3.6 230 18:54 30.05.2020
2334 Clouds 19 1015 52 10000 2.6 210 18:36 30.05.2020
2335 Clouds 19 1015 52 10000 2.6 210 18:18 30.05.2020
2336 Clouds 20 1016 52 10000 2.6 210 17:38 30.05.2020
2337 Clouds 20 1016 52 10000 2.6 210 17:19 30.05.2020
2338 Clouds 20 1016 60 10000 2.1 190 16:44 30.05.2020
2339 Clouds 20 1016 60 10000 2.1 170 16:23 30.05.2020
2340 Clear 21 1016 56 10000 2.6 180 15:58 30.05.2020
2341 Clear 21 1016 56 10000 2.6 180 15:39 30.05.2020
2342 Clear 21 1016 60 10000 2.6 180 15:21 30.05.2020
2343 Clear 21 1016 60 10000 2.6 170 14:42 30.05.2020
2344 Clear 21 1016 64 10000 2.6 170 14:22 30.05.2020
2345 Clear 20 1017 60 10000 2.6 160 13:42 30.05.2020
2346 Clear 20 1017 60 10000 3.1 140 13:20 30.05.2020
2347 Clear 20 1017 56 10000 2.6 140 12:42 30.05.2020
2348 Clear 20 1017 56 10000 2.6 140 12:20 30.05.2020
2349 Clear 20 1017 52 10000 2.6 130 11:57 30.05.2020
2350 Clear 20 1017 49 10000 1.5 0 11:39 30.05.2020
2351 Clear 20 1017 49 10000 1.5 0 11:20 30.05.2020
2352 Clear 20 1017 46 10000 1.5 0 10:40 30.05.2020
2353 Clear 20 1017 46 10000 1.5 0 10:21 30.05.2020
2354 Clear 20 1017 52 10000 1.5 310 09:49 30.05.2020
2355 Clear 19 1017 59 10000 4.1 330 09:31 30.05.2020
2356 Clear 18 1018 63 10000 3.1 340 08:51 30.05.2020
2357 Clear 18 1018 67 10000 3.1 340 08:32 30.05.2020
2358 Clear 16 1018 72 10000 3.1 330 07:49 30.05.2020
2359 Clear 15 1018 72 10000 3.1 330 07:25 30.05.2020
2360 Clear 15 1017 72 10000 3.1 330 06:58 30.05.2020
2361 Clear 15 1018 77 10000 2.6 330 06:24 30.05.2020
2362 Clear 15 1018 77 10000 3.1 340 05:49 30.05.2020
2363 Clear 16 1018 67 10000 2.6 340 03:57 30.05.2020
2364 Clear 17 1018 72 10000 3.6 310 02:31 30.05.2020
2365 Clouds 16 1018 72 10000 4.1 320 01:52 30.05.2020
2366 Clouds 16 1018 77 10000 2.6 330 00:42 30.05.2020
2367 Clouds 16 1019 77 10000 3.6 330 00:21 30.05.2020
2368 Clouds 16 1019 77 10000 3.6 330 23:58 29.05.2020
2369 Clouds 16 1019 77 10000 2.6 320 23:38 29.05.2020
2370 Clouds 16 1019 77 10000 2.6 320 23:19 29.05.2020
2371 Clouds 16 1019 72 10000 2.1 340 22:42 29.05.2020
2372 Clouds 16 1018 82 10000 2.1 320 22:21 29.05.2020
2373 Clouds 16 1018 82 10000 2.6 330 21:59 29.05.2020
2374 Clouds 16 1019 77 10000 3.1 330 21:39 29.05.2020
2375 Clouds 16 1019 77 10000 3.1 330 21:20 29.05.2020
2376 Clouds 17 1019 72 10000 2.1 330 20:56 29.05.2020
2377 Clouds 17 1019 77 10000 2.1 320 20:37 29.05.2020
2378 Clouds 17 1019 77 10000 2.1 320 20:18 29.05.2020
2379 Rain 17 1019 77 10000 1.5 340 19:42 29.05.2020
2380 Clouds 17 1019 72 10000 2.6 280 19:24 29.05.2020
2381 Clouds 17 1019 68 10000 2.99 94 18:48 29.05.2020
2382 Clouds 17 1019 68 10000 0.5 0 18:22 29.05.2020
2383 Clouds 17 1019 72 10000 2.1 160 17:58 29.05.2020
2384 Clouds 17 1019 68 10000 4.6 120 17:39 29.05.2020
2385 Rain 17 1019 68 10000 4.6 120 17:20 29.05.2020
2386 Rain 17 1019 72 10000 6.2 120 16:46 29.05.2020
2387 Clouds 17 1019 72 10000 7.7 120 16:28 29.05.2020
2388 Clouds 18 1019 68 10000 9.3 110 15:59 29.05.2020
2389 Clouds 18 1019 68 10000 9.3 110 15:40 29.05.2020
2390 Clouds 18 1019 68 10000 9.3 110 15:21 29.05.2020
2391 Clouds 17 1019 72 10000 9.8 110 14:57 29.05.2020
2392 Rain 17 1019 72 10000 11.3 110 14:38 29.05.2020
2393 Rain 17 1019 72 10000 11.3 110 14:19 29.05.2020
2394 Rain 17 1019 77 10000 10.8 110 13:41 29.05.2020
2395 Rain 17 1019 77 10000 10.8 110 13:21 29.05.2020
2396 Rain 18 1019 77 10000 11.3 110 12:55 29.05.2020
2397 Clouds 18 1019 77 10000 10.8 100 12:37 29.05.2020
2398 Clouds 18 1019 77 10000 10.8 100 12:18 29.05.2020
2399 Clouds 18 1019 82 10000 9.3 100 11:42 29.05.2020
2400 Clouds 18 1018 68 10000 5.7 70 11:24 29.05.2020
2401 Clouds 18 1018 72 10000 8.7 80 10:43 29.05.2020
2402 Clouds 19 1018 68 10000 6.7 90 10:24 29.05.2020
2403 Clouds 18 1018 72 10000 1.5 320 09:58 29.05.2020
2404 Clouds 18 1018 72 10000 1.5 320 09:40 29.05.2020
2405 Clouds 17 1018 77 10000 1.5 0 09:19 29.05.2020
2406 Clouds 17 1018 77 10000 2.6 50 08:47 29.05.2020
2407 Clouds 17 1018 77 10000 3.1 330 08:23 29.05.2020
2408 Clouds 16 1018 77 10000 2.6 330 07:48 29.05.2020
2409 Clouds 16 1017 82 10000 3.1 330 07:29 29.05.2020
2410 Clouds 15 1017 82 10000 2.6 330 06:56 29.05.2020
2411 Clouds 15 1017 82 10000 3.1 330 06:37 29.05.2020
2412 Clear 15 1017 82 10000 3.1 330 06:18 29.05.2020
2413 Clear 15 1017 87 10000 3.1 330 05:40 29.05.2020
2414 Clouds 17 1019 88 10000 2.6 310 01:53 29.05.2020
2415 Clouds 17 1019 82 10000 2.1 320 01:27 29.05.2020
2416 Clouds 17 1019 82 10000 1 0 00:51 29.05.2020
2417 Clouds 17 1019 82 10000 1.5 10 00:29 29.05.2020
2418 Clouds 17 1020 82 10000 2.1 310 23:57 28.05.2020
2419 Clouds 17 1020 77 10000 2.1 30 23:38 28.05.2020
2420 Rain 17 1020 77 10000 2.1 30 23:18 28.05.2020
2421 Clouds 18 1020 77 10000 2.6 330 22:42 28.05.2020
2422 Clouds 18 1020 77 10000 2.6 330 22:23 28.05.2020
2423 Rain 17 1020 82 10000 2.6 310 21:56 28.05.2020
2424 Rain 18 1020 77 10000 2.1 40 21:37 28.05.2020
2425 Rain 18 1020 77 10000 2.1 40 21:19 28.05.2020
2426 Clouds 18 1020 82 10000 2.6 350 20:56 28.05.2020
2427 Rain 18 1021 77 10000 1 0 20:37 28.05.2020
2428 Rain 18 1021 77 10000 1 0 20:18 28.05.2020
2429 Rain 18 1021 77 10000 1.94 67 19:43 28.05.2020
2430 Rain 19 1021 77 10000 3.1 60 19:21 28.05.2020
2431 Rain 19 1021 72 10000 2.1 50 18:57 28.05.2020
2432 Rain 19 1021 72 10000 2.1 50 18:39 28.05.2020
2433 Rain 19 1021 72 10000 2.6 70 18:21 28.05.2020
2434 Clouds 19 1021 60 10000 3.1 110 17:41 28.05.2020
2435 Clouds 19 1021 60 10000 3.1 110 17:22 28.05.2020
2436 Clouds 20 1022 56 10000 3.1 100 16:56 28.05.2020
2437 Clouds 20 1022 56 10000 3.1 120 16:37 28.05.2020
2438 Clouds 20 1022 56 10000 3.1 120 16:18 28.05.2020
2439 Clouds 21 1022 56 10000 2.1 130 15:42 28.05.2020
2440 Clear 21 1023 56 10000 2.6 150 15:23 28.05.2020
2441 Clear 20 1023 64 10000 2.6 120 14:44 28.05.2020
2442 Clear 20 1023 64 10000 2.6 120 14:25 28.05.2020
2443 Clear 20 1023 60 10000 3.1 100 13:58 28.05.2020
2444 Clear 20 1024 60 10000 3.6 120 13:39 28.05.2020
2445 Clear 20 1024 60 10000 3.6 120 13:20 28.05.2020
2446 Clear 20 1024 60 10000 3.1 130 12:42 28.05.2020
2447 Clear 20 1024 60 10000 3.1 130 12:19 28.05.2020
2448 Clear 20 1024 64 10000 2.6 130 11:43 28.05.2020
2449 Clear 20 1024 64 10000 2.6 130 11:43 28.05.2020
2450 Clear 20 1024 64 10000 3.6 100 11:24 28.05.2020
2451 Clear 20 1025 60 10000 4.1 100 10:57 28.05.2020
2452 Clear 20 1025 60 10000 4.1 100 10:57 28.05.2020
2453 Clear 20 1025 64 10000 3.6 100 10:39 28.05.2020
2454 Clear 20 1025 64 10000 3.6 100 10:19 28.05.2020
2455 Clear 20 1025 60 10000 2.1 60 09:39 28.05.2020
2456 Clear 20 1025 60 10000 2.1 60 09:20 28.05.2020
2457 Clear 20 1026 56 10000 1.5 50 08:50 28.05.2020
2458 Clear 19 1026 52 10000 2.1 40 08:26 28.05.2020
2459 Clear 18 1026 59 10000 2.6 340 07:45 28.05.2020
2460 Clear 18 1026 55 10000 2.6 340 07:26 28.05.2020
2461 Clear 18 1026 55 10000 2.6 340 07:26 28.05.2020
2462 Clear 17 1026 59 10000 2.6 350 06:59 28.05.2020
2463 Clear 16 1026 59 10000 4.1 330 06:37 28.05.2020
2464 Clear 16 1026 59 10000 3.1 340 05:58 28.05.2020
2465 Clear 17 1026 59 10000 3.1 330 05:36 28.05.2020
2466 Clear 17 1026 59 10000 3.1 330 04:29 28.05.2020
2467 Clear 17 1026 59 10000 3.1 340 03:46 28.05.2020
2468 Clear 17 1026 59 10000 3.1 330 02:45 28.05.2020
2469 Clouds 18 1027 55 10000 4.6 330 01:52 28.05.2020
2470 Clouds 18 1027 55 10000 2.6 330 00:55 28.05.2020
2471 Clouds 18 1027 55 10000 3.6 330 00:28 28.05.2020
2472 Clouds 18 1027 55 10000 3.1 320 23:58 27.05.2020
2473 Clouds 17 1027 55 10000 2.1 320 23:39 27.05.2020
2474 Clouds 17 1027 55 10000 2.1 320 23:21 27.05.2020
2475 Clouds 17 1027 55 10000 2.1 320 23:21 27.05.2020
2476 Clouds 18 1027 55 10000 2.1 300 22:58 27.05.2020
2477 Clouds 18 1027 49 10000 2.1 230 22:40 27.05.2020
2478 Clear 18 1027 49 10000 2.1 230 22:21 27.05.2020
2479 Clouds 18 1027 49 10000 3.6 210 21:42 27.05.2020
2480 Clear 19 1027 49 10000 3.6 210 21:24 27.05.2020
2481 Clouds 19 1027 52 10000 3.1 190 20:59 27.05.2020
2482 Clouds 20 1027 49 10000 2.6 200 20:41 27.05.2020
2483 Clouds 20 1027 49 10000 2.6 200 20:41 27.05.2020
2484 Clouds 20 1027 49 10000 2.6 200 20:21 27.05.2020
2485 Clouds 21 1027 46 10000 3.1 200 19:57 27.05.2020
2486 Clouds 21 1027 46 10000 3.1 200 19:39 27.05.2020
2487 Clouds 20 1027 52 10000 3.1 190 19:19 27.05.2020
2488 Clouds 21 1027 43 10000 2.6 180 18:40 27.05.2020
2489 Clouds 22 1027 43 10000 2.6 180 18:20 27.05.2020
2490 Clouds 22 1028 49 10000 2.1 160 17:56 27.05.2020
2491 Clouds 22 1028 46 10000 1.5 130 17:37 27.05.2020
2492 Clouds 22 1028 46 10000 1.5 130 17:19 27.05.2020
2493 Clouds 22 1028 40 10000 2.1 130 16:55 27.05.2020
2494 Clouds 21 1028 43 10000 2.6 110 16:36 27.05.2020
2495 Clouds 21 1028 43 10000 2.6 110 16:18 27.05.2020
2496 Clouds 21 1029 40 10000 3.1 110 15:40 27.05.2020
2497 Clouds 21 1029 49 10000 3.6 110 15:21 27.05.2020
2498 Clouds 21 1029 53 10000 3.6 100 14:44 27.05.2020
2499 Clouds 21 1029 53 10000 4.1 90 14:22 27.05.2020
2500 Clouds 21 1029 49 10000 4.1 80 13:55 27.05.2020
2501 Clouds 21 1030 49 10000 5.1 80 13:37 27.05.2020
2502 Clouds 21 1030 49 10000 5.1 80 13:19 27.05.2020
2503 Clouds 20 1030 56 10000 4.6 80 12:40 27.05.2020
2504 Clouds 20 1030 56 10000 4.6 80 12:40 27.05.2020
2505 Clouds 20 1029 53 10000 4.6 70 12:22 27.05.2020
2506 Clouds 20 1029 49 10000 4.1 70 11:40 27.05.2020
2507 Clouds 20 1029 49 10000 4.1 70 11:22 27.05.2020
2508 Clouds 20 1029 60 10000 5.7 80 10:59 27.05.2020
2509 Clouds 20 1029 60 10000 5.7 80 10:40 27.05.2020
2510 Clouds 20 1029 60 10000 6.2 80 10:22 27.05.2020
2511 Clouds 20 1029 60 10000 7.2 90 09:55 27.05.2020
2512 Clouds 20 1028 60 10000 8.7 80 09:37 27.05.2020
2513 Clouds 20 1028 60 10000 8.7 80 09:18 27.05.2020
2514 Clouds 20 1028 60 10000 8.7 80 08:40 27.05.2020
2515 Clouds 20 1028 60 10000 8.7 80 08:22 27.05.2020
2516 Clouds 20 1028 60 10000 8.7 80 08:22 27.05.2020
2517 Clouds 20 1028 60 10000 7.7 80 07:51 27.05.2020
2518 Clouds 20 1027 60 10000 6.7 80 07:33 27.05.2020
2519 Clouds 20 1027 64 10000 6.2 80 06:55 27.05.2020
2520 Clouds 20 1027 64 10000 6.7 70 06:24 27.05.2020
2521 Clouds 20 1027 64 10000 7.2 70 05:50 27.05.2020
2522 Clouds 20 1026 68 10000 8.2 70 05:23 27.05.2020
2523 Clouds 20 1026 68 10000 4.6 70 02:51 27.05.2020
2524 Clouds 20 1026 73 10000 5.7 70 02:25 27.05.2020
2525 Clouds 21 1026 60 10000 1 60 01:31 27.05.2020
2526 Clouds 21 1025 68 10000 2.1 60 00:47 27.05.2020
2527 Clouds 21 1025 64 10000 1.5 70 00:21 27.05.2020
2528 Clouds 21 1025 56 10000 1 100 23:58 26.05.2020
2529 Clouds 21 1025 60 10000 1 70 23:39 26.05.2020
2530 Clouds 21 1025 60 10000 1 70 23:21 26.05.2020
2531 Clouds 21 1024 60 10000 1 60 22:57 26.05.2020
2532 Clouds 21 1024 64 10000 1.5 40 22:37 26.05.2020
2533 Clouds 21 1024 64 10000 1.5 40 22:19 26.05.2020
2534 Clouds 21 1024 60 10000 0.71 49 21:55 26.05.2020
2535 Clouds 21 1024 64 10000 0.5 100 21:36 26.05.2020
2536 Clouds 21 1024 64 10000 0.5 100 21:18 26.05.2020
2537 Clouds 22 1023 64 10000 1.24 83 20:41 26.05.2020
2538 Clouds 22 1024 60 10000 1.47 94 20:20 26.05.2020
2539 Clouds 23 1023 56 10000 0.5 0 19:41 26.05.2020
2540 Clouds 23 1024 57 10000 1.5 0 19:22 26.05.2020
2541 Clouds 24 1024 53 10000 1 0 18:59 26.05.2020
2542 Clouds 24 1024 53 10000 1.5 0 18:39 26.05.2020
2543 Clouds 24 1024 53 10000 1.5 0 18:21 26.05.2020
2544 Clouds 24 1024 50 10000 1.5 0 17:42 26.05.2020
2545 Clear 24 1024 53 10000 1.5 0 17:24 26.05.2020
2546 Clear 24 1024 53 10000 1.5 0 17:24 26.05.2020
2547 Clear 25 1024 47 10000 1.5 0 16:57 26.05.2020
2548 Clear 25 1024 53 10000 1.5 0 16:39 26.05.2020
2549 Clear 25 1024 53 10000 1.5 0 16:18 26.05.2020
2550 Clear 24 1024 53 10000 2.1 150 15:42 26.05.2020
2551 Clear 24 1025 53 10000 2.1 160 15:20 26.05.2020
2552 Clear 24 1025 50 10000 2.6 170 14:56 26.05.2020
2553 Clear 24 1025 57 10000 2.1 170 14:37 26.05.2020
2554 Clear 24 1025 57 10000 2.1 170 14:19 26.05.2020
2555 Clear 24 1025 57 10000 1.5 0 13:41 26.05.2020
2556 Clear 24 1025 57 10000 1.5 0 13:23 26.05.2020
2557 Clouds 24 1025 60 10000 1.5 110 12:57 26.05.2020
2558 Clear 23 1025 60 10000 1.5 160 12:38 26.05.2020
2559 Clear 23 1025 60 10000 1.5 160 12:19 26.05.2020
2560 Clouds 23 1025 64 10000 1.5 0 11:41 26.05.2020
2561 Clear 23 1025 56 10000 2.1 130 11:21 26.05.2020
2562 Clear 23 1025 56 10000 2.6 150 10:57 26.05.2020
2563 Clear 23 1024 53 10000 3.1 150 10:38 26.05.2020
2564 Clear 23 1024 53 10000 3.1 150 10:18 26.05.2020
2565 Clear 23 1024 49 10000 1.5 0 09:39 26.05.2020
2566 Clear 22 1024 49 10000 1.5 0 09:19 26.05.2020
2567 Clear 22 1024 56 10000 3.1 330 08:42 26.05.2020
2568 Clear 21 1024 56 10000 3.1 330 08:22 26.05.2020
2569 Clear 20 1023 56 10000 3.1 330 07:44 26.05.2020
2570 Clear 20 1023 59 10000 3.6 340 07:24 26.05.2020
2571 Clear 19 1023 59 10000 3.1 350 06:54 26.05.2020
2572 Clear 19 1023 59 10000 2.6 350 06:35 26.05.2020
2573 Clear 18 1023 55 10000 2.6 330 05:48 26.05.2020
2574 Clouds 18 1023 59 10000 1.5 10 05:28 26.05.2020
2575 Clouds 19 1023 63 10000 2.1 20 04:50 26.05.2020
2576 Clear 19 1023 52 10000 2.1 350 04:31 26.05.2020
2577 Clear 19 1023 52 10000 3.1 30 03:55 26.05.2020
2578 Clear 20 1023 52 10000 5.1 330 02:44 26.05.2020
2579 Clear 20 1023 52 10000 4.1 330 01:48 26.05.2020
2580 Clear 20 1023 52 10000 3.6 330 01:27 26.05.2020
2581 Clear 20 1023 52 10000 3.6 330 00:37 26.05.2020
2582 Clear 20 1023 52 10000 3.6 330 00:19 26.05.2020
2583 Clear 20 1023 52 10000 4.1 320 23:55 25.05.2020
2584 Clear 20 1023 52 10000 3.6 320 23:36 25.05.2020
2585 Clear 20 1023 52 10000 3.6 320 23:18 25.05.2020
2586 Clear 20 1023 60 10000 2.1 360 22:54 25.05.2020
2587 Clear 20 1023 64 10000 2.6 250 22:36 25.05.2020
2588 Clear 20 1023 64 10000 2.6 250 22:18 25.05.2020
2589 Clear 20 1023 64 10000 2.6 230 21:54 25.05.2020
2590 Clear 21 1023 49 10000 2.1 220 21:36 25.05.2020
2591 Clear 21 1023 49 10000 2.1 220 21:18 25.05.2020
2592 Clear 22 1023 68 10000 2.1 210 20:42 25.05.2020
2593 Clear 23 1023 64 10000 1.5 190 20:21 25.05.2020
2594 Clear 23 1023 56 10000 1.5 200 19:59 25.05.2020
2595 Clear 23 1023 56 10000 1.5 170 19:39 25.05.2020
2596 Clear 23 1023 56 10000 1.5 170 19:18 25.05.2020
2597 Clear 24 1023 53 10000 1.5 170 18:54 25.05.2020
2598 Clear 23 1024 53 10000 1.5 170 18:36 25.05.2020
2599 Clear 24 1024 53 10000 1.5 170 18:18 25.05.2020
2600 Clear 24 1024 49 10000 1.5 160 17:41 25.05.2020
2601 Clear 24 1024 50 10000 1.5 150 17:23 25.05.2020
2602 Clear 23 1024 49 10000 2.1 150 16:56 25.05.2020
2603 Clear 24 1024 47 10000 2.1 150 16:38 25.05.2020
2604 Clear 23 1024 47 10000 2.1 150 16:19 25.05.2020
2605 Clear 23 1024 47 10000 2.1 150 16:19 25.05.2020
2606 Clear 23 1025 49 10000 1.5 140 15:44 25.05.2020
2607 Clear 23 1025 49 10000 2.1 130 15:19 25.05.2020
2608 Clear 24 1025 53 10000 1.5 120 14:58 25.05.2020
2609 Clear 24 1025 47 10000 2.1 110 14:38 25.05.2020
2610 Clear 23 1025 47 10000 2.1 110 14:19 25.05.2020
2611 Clouds 23 1025 56 10000 2.6 100 13:40 25.05.2020
2612 Clouds 23 1025 56 10000 3.1 90 13:21 25.05.2020
2613 Clouds 23 1026 60 10000 3.1 100 12:58 25.05.2020
2614 Clouds 23 1026 57 10000 3.6 100 12:39 25.05.2020
2615 Clouds 23 1026 57 10000 3.6 100 12:20 25.05.2020
2616 Clouds 23 1026 57 10000 3.6 100 12:20 25.05.2020
2617 Clear 23 1025 50 10000 2.1 90 11:40 25.05.2020
2618 Clear 23 1025 50 10000 2.1 90 11:21 25.05.2020
2619 Clear 23 1025 53 10000 2.6 90 10:59 25.05.2020
2620 Clear 23 1025 53 10000 2.6 90 10:41 25.05.2020
2621 Clear 23 1025 47 10000 1.5 0 10:20 25.05.2020
2622 Clear 22 1025 60 10000 1 0 09:55 25.05.2020
2623 Clear 21 1025 64 10000 1 0 09:36 25.05.2020
2624 Clear 21 1025 64 10000 1 0 09:18 25.05.2020
2625 Clear 21 1025 56 10000 1.36 171 09:18 25.05.2020
2626 Clear 22 1025 60 10000 1.5 0 08:40 25.05.2020
2627 Clouds 21 1025 60 10000 1.5 0 08:21 25.05.2020
2628 Clouds 21 1025 64 10000 1.5 340 07:58 25.05.2020
2629 Clouds 20 1024 64 10000 3.1 330 07:39 25.05.2020
2630 Clouds 20 1024 64 10000 3.1 330 07:19 25.05.2020
2631 Clouds 19 1024 63 10000 2.6 330 06:41 25.05.2020
2632 Clouds 19 1024 63 10000 3.1 330 06:21 25.05.2020
2633 Clouds 20 1024 68 10000 3.1 330 03:32 25.05.2020
2634 Clouds 20 1024 68 10000 3.6 330 02:57 25.05.2020
2635 Clouds 20 1024 68 10000 2.6 320 02:36 25.05.2020
2636 Clouds 20 1024 68 10000 1.5 350 01:42 25.05.2020
2637 Clouds 20 1024 68 10000 3.1 320 00:57 25.05.2020
2638 Clouds 20 1024 72 10000 2.6 320 00:32 25.05.2020
2639 Clouds 20 1024 68 10000 2.1 320 23:59 24.05.2020
2640 Clouds 19 1024 77 10000 1.5 300 23:39 24.05.2020
2641 Clear 19 1024 77 10000 1.5 300 23:21 24.05.2020
2642 Clear 20 1024 77 10000 1.5 240 22:58 24.05.2020
2643 Clear 20 1024 77 10000 1.5 240 22:40 24.05.2020
2644 Clouds 19 1024 82 10000 1.5 0 22:18 24.05.2020
2645 Clouds 20 1023 77 10000 1 170 21:55 24.05.2020
2646 Clouds 20 1023 77 10000 1 150 21:37 24.05.2020
2647 Clouds 20 1023 77 10000 1 150 21:18 24.05.2020
2648 Clouds 21 1023 68 10000 1 100 20:43 24.05.2020
2649 Clouds 21 1023 68 10000 1 100 20:43 24.05.2020
2650 Clouds 21 1023 68 10000 1 100 20:21 24.05.2020
2651 Clear 22 1023 64 10000 1 0 19:58 24.05.2020
2652 Clear 22 1023 64 10000 1 0 19:40 24.05.2020
2653 Clear 22 1023 64 10000 1 0 19:19 24.05.2020
2654 Clear 22 1023 60 10000 1.5 0 18:54 24.05.2020
2655 Clear 23 1023 57 10000 1.5 110 18:36 24.05.2020
2656 Clear 23 1023 57 10000 1.5 110 18:18 24.05.2020
2657 Clear 23 1023 57 10000 1.5 100 17:40 24.05.2020
2658 Clear 23 1023 69 10000 1.5 0 17:21 24.05.2020
2659 Clear 23 1023 73 10000 2.1 130 16:57 24.05.2020
2660 Clear 23 1023 73 10000 2.1 140 16:38 24.05.2020
2661 Clear 23 1023 73 10000 2.1 140 16:38 24.05.2020
2662 Clear 23 1023 73 10000 2.1 140 16:20 24.05.2020
2663 Clear 22 1023 73 10000 2.6 150 15:57 24.05.2020
2664 Clear 23 1023 69 10000 2.1 160 15:38 24.05.2020
2665 Clear 23 1023 69 10000 2.1 160 15:19 24.05.2020
2666 Clear 23 1023 73 10000 2.1 160 14:46 24.05.2020
2667 Clouds 23 1023 69 10000 2.1 150 14:24 24.05.2020
2668 Clouds 22 1023 73 10000 2.1 160 13:59 24.05.2020
2669 Clouds 22 1023 73 10000 2.1 160 13:41 24.05.2020
2670 Clear 22 1024 73 10000 3.1 150 13:22 24.05.2020
2671 Clear 22 1024 73 10000 3.1 160 12:59 24.05.2020
2672 Clear 22 1024 73 10000 3.1 160 12:40 24.05.2020
2673 Clear 22 1024 73 10000 4.6 170 12:22 24.05.2020
2674 Clear 22 1023 73 10000 4.1 180 11:59 24.05.2020
2675 Clear 22 1023 73 10000 4.1 180 11:41 24.05.2020
2676 Clear 22 1023 68 10000 4.1 180 11:41 24.05.2020
2677 Clear 22 1023 68 10000 4.1 180 11:41 24.05.2020
2678 Clear 22 1023 73 10000 4.1 180 11:41 24.05.2020
2679 Clear 22 1023 68 10000 4.1 180 11:22 24.05.2020
2680 Clear 22 1023 64 10000 3.1 180 10:58 24.05.2020
2681 Clear 22 1023 64 10000 3.1 180 10:39 24.05.2020
2682 Clear 22 1023 60 10000 1.5 160 10:21 24.05.2020
2683 Clear 22 1023 68 10000 1 0 09:41 24.05.2020
2684 Clear 20 1023 56 10000 1.5 0 09:19 24.05.2020
2685 Clear 20 1022 56 10000 2.6 330 08:58 24.05.2020
2686 Clear 19 1022 63 10000 3.1 320 08:40 24.05.2020
2687 Clear 19 1022 63 10000 3.1 320 08:22 24.05.2020
2688 Clear 18 1022 72 10000 2.6 340 07:51 24.05.2020
2689 Clear 18 1022 77 10000 4.1 330 07:26 24.05.2020
2690 Clear 18 1021 77 10000 5.1 320 06:58 24.05.2020
2691 Clear 18 1021 82 10000 5.1 320 06:37 24.05.2020
2692 Clear 18 1021 82 10000 5.1 320 06:37 24.05.2020
2693 Clouds 17 1021 88 10000 4.1 320 05:24 24.05.2020
2694 Clouds 18 1021 88 10000 1 230 03:42 24.05.2020
2695 Clouds 19 1021 88 10000 1.5 0 02:48 24.05.2020
2696 Clouds 19 1021 88 10000 1.5 90 01:59 24.05.2020
2697 Clouds 19 1021 88 10000 4.1 90 00:43 24.05.2020
2698 Clouds 19 1021 88 10000 5.1 100 00:25 24.05.2020
2699 Clouds 19 1021 88 10000 5.1 100 00:25 24.05.2020
2700 Clouds 20 1021 88 10000 6.2 90 23:59 23.05.2020
2701 Clouds 20 1021 88 10000 8.7 90 23:36 23.05.2020
2702 Clouds 20 1021 88 10000 8.7 90 23:18 23.05.2020
2703 Clouds 21 1020 83 10000 9.8 80 22:55 23.05.2020
2704 Clouds 21 1020 88 10000 7.7 80 22:37 23.05.2020
2705 Clear 21 1020 88 10000 7.7 80 22:18 23.05.2020
2706 Clear 21 1020 83 10000 5.7 80 21:42 23.05.2020
2707 Clouds 21 1020 83 10000 5.7 80 21:21 23.05.2020
2708 Clouds 21 1020 83 10000 4.1 60 20:59 23.05.2020
2709 Clouds 20 1020 83 10000 4.1 60 20:39 23.05.2020
2710 Clouds 20 1020 78 10000 3.6 40 20:20 23.05.2020
2711 Clouds 20 1019 78 10000 2.1 0 19:58 23.05.2020
2712 Clouds 20 1020 83 10000 5.1 210 19:40 23.05.2020
2713 Clouds 20 1020 83 10000 5.1 210 19:19 23.05.2020
2714 Clouds 21 1020 83 10000 8.2 200 18:41 23.05.2020
2715 Clouds 21 1020 83 10000 8.2 200 18:23 23.05.2020
2716 Clouds 22 1021 83 10000 8.2 210 17:58 23.05.2020
2717 Clouds 22 1021 83 10000 8.2 200 17:40 23.05.2020
2718 Clouds 22 1021 83 10000 8.2 200 17:21 23.05.2020
2719 Clouds 22 1022 78 10000 3.6 100 16:59 23.05.2020
2720 Clouds 22 1022 78 10000 3.6 100 16:41 23.05.2020
2721 Clouds 22 1022 78 10000 3.6 100 16:41 23.05.2020
2722 Clouds 22 1022 78 10000 4.1 90 16:21 23.05.2020
2723 Clouds 22 1023 83 10000 4.1 100 15:58 23.05.2020
2724 Clouds 22 1023 78 10000 3.6 100 15:39 23.05.2020
2725 Clouds 21 1023 78 10000 3.6 100 15:21 23.05.2020
2726 Clouds 22 1024 78 10000 3.1 100 14:42 23.05.2020
2727 Clouds 21 1024 83 10000 3.1 120 14:24 23.05.2020
2728 Clouds 21 1024 78 10000 2.6 140 13:56 23.05.2020
2729 Clouds 21 1024 78 10000 2.6 130 13:37 23.05.2020
2730 Clouds 21 1024 78 10000 2.6 130 13:18 23.05.2020
2731 Clouds 21 1024 78 10000 3.1 120 12:41 23.05.2020
2732 Clouds 21 1024 78 10000 3.6 120 12:20 23.05.2020
2733 Clouds 21 1024 78 10000 3.6 110 11:57 23.05.2020
2734 Clouds 20 1024 78 10000 3.1 110 11:39 23.05.2020
2735 Clouds 21 1024 78 10000 3.1 110 11:19 23.05.2020
2736 Clouds 20 1024 77 10000 2.6 110 10:55 23.05.2020
2737 Clouds 20 1024 77 10000 1.5 120 10:37 23.05.2020
2738 Clouds 20 1024 77 10000 1.5 120 10:18 23.05.2020
2739 Clouds 21 1024 77 10000 1.5 0 09:43 23.05.2020
2740 Clouds 19 1024 77 10000 1 0 09:24 23.05.2020
2741 Clouds 20 1024 77 10000 0.5 0 08:58 23.05.2020
2742 Clouds 20 1024 77 10000 2.1 320 08:38 23.05.2020
2743 Clouds 19 1024 77 10000 2.1 320 08:19 23.05.2020
2744 Clouds 18 1024 82 10000 2.1 320 07:45 23.05.2020
2745 Clouds 18 1024 82 10000 2.1 320 07:27 23.05.2020
2746 Clouds 17 1024 82 10000 2.1 330 06:43 23.05.2020
2747 Clouds 16 1023 82 10000 2.1 320 05:59 23.05.2020
2748 Clouds 18 1023 77 10000 3.1 330 04:25 23.05.2020
2749 Clouds 18 1024 82 10000 1.5 340 03:26 23.05.2020
2750 Clouds 18 1024 82 10000 1.5 340 03:26 23.05.2020
2751 Clouds 18 1024 77 10000 2.1 320 02:40 23.05.2020
2752 Clouds 18 1024 77 10000 2.1 320 01:50 23.05.2020
2753 Clouds 18 1024 82 10000 2.1 310 01:18 23.05.2020
2754 Clouds 19 1024 88 10000 1.5 50 00:42 23.05.2020
2755 Clouds 19 1024 88 10000 1.5 50 00:21 23.05.2020
2756 Clouds 18 1024 88 10000 2.6 70 23:45 22.05.2020
2757 Clouds 19 1024 94 10000 2.1 70 23:22 22.05.2020
2758 Clouds 19 1024 94 10000 2.1 100 22:59 22.05.2020
2759 Clouds 19 1024 94 10000 2.1 100 22:41 22.05.2020
2760 Clouds 19 1024 83 10000 2.1 110 22:21 22.05.2020
2761 Clouds 20 1024 83 10000 2.1 110 21:55 22.05.2020
2762 Clouds 20 1024 83 10000 2.1 120 21:37 22.05.2020
2763 Clouds 20 1024 83 10000 2.1 120 21:19 22.05.2020
2764 Clouds 20 1024 83 10000 2.6 100 20:45 22.05.2020
2765 Clouds 21 1024 73 10000 3.1 100 20:20 22.05.2020
2766 Clouds 21 1023 73 10000 2.6 100 19:45 22.05.2020
2767 Clouds 22 1023 73 10000 2.6 90 19:26 22.05.2020
2768 Clouds 22 1023 78 10000 2.6 90 18:58 22.05.2020
2769 Clouds 22 1024 73 10000 2.6 90 18:39 22.05.2020
2770 Clouds 22 1024 73 10000 2.6 90 18:19 22.05.2020
2771 Clouds 22 1024 78 10000 2.6 90 17:41 22.05.2020
2772 Clouds 22 1024 78 10000 3.1 90 17:20 22.05.2020
2773 Clouds 22 1024 78 10000 2.6 100 16:58 22.05.2020
2774 Clouds 22 1024 78 10000 3.1 100 16:39 22.05.2020
2775 Clouds 22 1024 78 10000 3.1 100 16:20 22.05.2020
2776 Clouds 22 1024 78 10000 3.6 100 15:57 22.05.2020
2777 Clouds 22 1024 78 10000 3.6 110 15:38 22.05.2020
2778 Clouds 22 1024 78 10000 3.6 110 15:18 22.05.2020
2779 Clouds 21 1024 78 10000 4.1 100 14:41 22.05.2020
2780 Clouds 22 1024 78 10000 3.6 100 14:23 22.05.2020
2781 Clouds 22 1024 78 10000 3.1 110 13:45 22.05.2020
2782 Clouds 22 1024 73 10000 2.6 130 13:20 22.05.2020
2783 Clouds 22 1024 73 10000 2.1 130 12:44 22.05.2020
2784 Clouds 22 1024 73 10000 2.6 120 12:25 22.05.2020
2785 Clouds 22 1024 73 10000 2.6 120 12:25 22.05.2020
2786 Clouds 22 1024 73 10000 2.1 120 11:58 22.05.2020
2787 Clouds 22 1024 73 10000 2.1 130 11:40 22.05.2020
2788 Clouds 22 1024 73 10000 2.1 130 11:19 22.05.2020
2789 Clouds 22 1024 73 10000 2.6 120 10:41 22.05.2020
2790 Clear 22 1024 73 10000 2.6 120 10:22 22.05.2020
2791 Clear 22 1023 77 10000 2.1 110 09:59 22.05.2020
2792 Clear 22 1023 68 10000 2.1 100 09:40 22.05.2020
2793 Clear 21 1023 68 10000 2.1 100 09:19 22.05.2020
2794 Clear 21 1023 60 10000 1 0 08:43 22.05.2020
2795 Clear 21 1023 60 10000 1 0 08:43 22.05.2020
2796 Clear 20 1023 68 10000 1.5 20 08:21 22.05.2020
2797 Clear 20 1022 72 10000 3.6 340 07:56 22.05.2020
2798 Clear 19 1022 68 10000 2.6 330 07:27 22.05.2020
2799 Clear 18 1022 72 10000 2.6 330 06:57 22.05.2020
2800 Clear 18 1022 72 10000 2.1 330 06:36 22.05.2020
2801 Clear 18 1022 72 10000 2.1 330 05:39 22.05.2020
2802 Clear 18 1021 72 10000 1.5 330 04:51 22.05.2020
2803 Clear 18 1021 68 10000 1.5 0 04:28 22.05.2020
2804 Clear 19 1021 77 10000 2.1 360 03:47 22.05.2020
2805 Clear 19 1021 68 10000 3.6 20 02:59 22.05.2020
2806 Clouds 20 1020 64 10000 2.1 340 01:56 22.05.2020
2807 Clouds 20 1020 64 10000 3.1 330 01:28 22.05.2020
2808 Clouds 20 1020 60 10000 3.6 340 00:49 22.05.2020
2809 Clouds 20 1020 64 10000 4.6 330 00:28 22.05.2020
2810 Clouds 20 1020 60 10000 3.6 330 23:45 21.05.2020
2811 Rain 21 1020 60 10000 3.1 320 23:25 21.05.2020
2812 Rain 20 1019 68 10000 3.1 280 22:58 21.05.2020
2813 Rain 20 1019 68 10000 3.1 280 22:58 21.05.2020
2814 Rain 20 1019 64 10000 1 200 22:40 21.05.2020
2815 Rain 20 1019 64 10000 1 200 22:21 21.05.2020
2816 Rain 20 1019 64 10000 1 200 21:59 21.05.2020
2817 Rain 21 1018 56 10000 1.13 297 21:40 21.05.2020
2818 Clouds 21 1018 56 10000 0.77 203 21:22 21.05.2020
2819 Clouds 22 1018 60 10000 0.77 203 20:45 21.05.2020
2820 Clouds 22 1018 53 10000 0.5 190 20:22 21.05.2020
2821 Clouds 22 1018 53 10000 0.5 190 20:22 21.05.2020
2822 Rain 22 1018 49 10000 0.5 0 19:55 21.05.2020
2823 Rain 23 1018 44 10000 0.5 0 19:36 21.05.2020
2824 Rain 23 1018 44 10000 0.5 0 19:18 21.05.2020
2825 Rain 23 1018 53 10000 1 140 18:39 21.05.2020
2826 Rain 23 1018 53 10000 1 140 18:19 21.05.2020
2827 Rain 23 1018 50 10000 1.5 0 17:58 21.05.2020
2828 Rain 23 1018 49 10000 1.5 0 17:40 21.05.2020
2829 Rain 23 1018 49 10000 1.5 0 17:22 21.05.2020
2830 Rain 24 1018 53 10000 1.5 160 16:46 21.05.2020
2831 Clouds 23 1018 49 10000 1.5 170 16:24 21.05.2020
2832 Clouds 24 1018 50 10000 1.5 170 15:47 21.05.2020
2833 Clear 24 1018 50 10000 2.1 180 15:24 21.05.2020
2834 Clear 23 1018 47 10000 2.1 170 14:57 21.05.2020
2835 Clear 23 1018 57 10000 2.1 180 14:38 21.05.2020
2836 Clear 23 1018 57 10000 2.1 180 14:18 21.05.2020
2837 Clear 24 1019 53 10000 2.1 180 13:41 21.05.2020
2838 Clear 24 1019 53 10000 2.1 180 13:22 21.05.2020
2839 Clear 24 1019 57 10000 2.1 180 12:57 21.05.2020
2840 Clear 23 1019 56 10000 2.1 190 12:37 21.05.2020
2841 Clear 23 1019 56 10000 2.1 190 12:19 21.05.2020
2842 Clear 24 1018 53 10000 2.6 190 11:42 21.05.2020
2843 Clear 23 1018 53 10000 2.1 200 11:23 21.05.2020
2844 Clear 23 1018 53 10000 2.1 200 11:23 21.05.2020
2845 Clear 24 1018 47 10000 2.1 190 10:58 21.05.2020
2846 Clear 23 1018 50 10000 1 0 10:39 21.05.2020
2847 Clear 23 1018 50 10000 1 0 10:19 21.05.2020
2848 Clear 23 1018 53 10000 2.6 320 09:54 21.05.2020
2849 Clear 22 1018 56 10000 3.1 330 09:36 21.05.2020
2850 Clear 21 1018 56 10000 3.1 330 09:18 21.05.2020
2851 Clear 21 1018 60 10000 4.1 330 08:44 21.05.2020
2852 Clear 20 1017 68 10000 4.6 320 08:26 21.05.2020
2853 Clear 20 1017 68 10000 4.6 330 07:46 21.05.2020
2854 Clear 19 1017 72 10000 4.1 330 07:27 21.05.2020
2855 Clear 18 1016 72 10000 3.6 330 06:52 21.05.2020
2856 Clear 17 1016 72 10000 2.6 330 05:54 21.05.2020
2857 Clear 18 1016 68 10000 2.1 30 04:58 21.05.2020
2858 Clear 19 1015 72 10000 4.1 60 03:22 21.05.2020
2859 Clear 19 1015 72 10000 4.1 60 03:22 21.05.2020
2860 Clear 20 1015 77 10000 4.1 60 02:45 21.05.2020
2861 Clear 20 1015 60 10000 1.5 0 02:25 21.05.2020
2862 Clear 20 1015 60 10000 4.1 340 01:45 21.05.2020
2863 Clear 21 1015 56 10000 3.6 350 01:19 21.05.2020
2864 Clear 21 1015 56 10000 4.1 330 00:51 21.05.2020
2865 Clear 21 1014 56 10000 3.6 330 00:23 21.05.2020
2866 Clear 21 1014 56 10000 3.1 340 23:43 20.05.2020
2867 Clear 21 1014 60 10000 3.6 320 23:20 20.05.2020
2868 Clouds 21 1014 60 10000 2.1 320 22:58 20.05.2020
2869 Clouds 21 1013 56 10000 1.5 0 22:39 20.05.2020
2870 Clouds 21 1013 56 10000 1.5 0 22:21 20.05.2020
2871 Clouds 21 1013 56 10000 1.5 0 22:21 20.05.2020
2872 Clear 21 1013 64 10000 2.1 270 21:40 20.05.2020
2873 Clear 22 1013 64 10000 3.6 230 21:22 20.05.2020
2874 Clear 22 1013 56 10000 4.1 220 20:45 20.05.2020
2875 Clear 22 1013 56 10000 4.1 220 20:45 20.05.2020
2876 Clouds 23 1012 56 10000 2.6 230 20:26 20.05.2020
2877 Clouds 24 1012 53 10000 3.6 240 19:59 20.05.2020
2878 Clear 24 1012 57 10000 4.1 230 19:38 20.05.2020
2879 Clear 24 1012 57 10000 4.1 230 19:20 20.05.2020
2880 Clear 25 1012 57 10000 4.6 210 18:50 20.05.2020
2881 Clear 25 1012 60 10000 4.1 210 18:31 20.05.2020
2882 Clear 25 1012 69 10000 3.1 210 17:58 20.05.2020
2883 Clear 25 1012 73 10000 3.1 200 17:37 20.05.2020
2884 Clear 25 1012 73 10000 3.1 200 17:19 20.05.2020
2885 Clear 25 1012 69 10000 4.1 210 16:41 20.05.2020
2886 Clear 25 1012 69 10000 4.1 210 16:22 20.05.2020
2887 Clear 25 1012 64 10000 4.1 200 15:57 20.05.2020
2888 Clear 25 1012 69 10000 4.1 190 15:39 20.05.2020
2889 Clouds 24 1012 69 10000 4.1 190 15:20 20.05.2020
2890 Clouds 24 1012 73 10000 4.6 190 14:42 20.05.2020
2891 Clear 23 1012 73 10000 3.6 170 14:20 20.05.2020
2892 Clear 24 1012 73 10000 4.1 180 13:41 20.05.2020
2893 Clear 24 1013 68 10000 3.6 180 13:19 20.05.2020
2894 Clear 24 1013 68 10000 2.6 190 12:57 20.05.2020
2895 Clear 25 1013 60 10000 2.1 250 12:37 20.05.2020
2896 Clear 24 1013 60 10000 2.1 250 12:19 20.05.2020
2897 Clear 22 1013 72 10000 2.1 250 11:36 20.05.2020
2898 Clear 22 1013 72 10000 2.1 250 11:18 20.05.2020
2899 Clear 22 1013 72 10000 2.1 250 11:18 20.05.2020
2900 Clear 21 1013 72 10000 0.5 0 10:42 20.05.2020
2901 Clear 21 1013 72 10000 0.5 0 10:20 20.05.2020
2902 Clear 20 1012 82 10000 1.5 100 09:45 20.05.2020
2903 Clear 20 1012 60 10000 3.1 60 09:21 20.05.2020
2904 Clear 20 1012 60 10000 3.1 60 09:21 20.05.2020
2905 Clear 21 1012 56 10000 3.1 350 08:57 20.05.2020
2906 Clear 19 1011 63 10000 4.1 330 08:39 20.05.2020
2907 Clear 20 1011 63 10000 4.1 330 08:18 20.05.2020
2908 Clear 19 1011 63 10000 4.1 330 07:46 20.05.2020
2909 Clear 19 1011 63 10000 5.1 340 07:21 20.05.2020
2910 Clear 19 1011 59 10000 3.6 340 06:42 20.05.2020
2911 Clouds 18 1012 68 10000 3.1 350 05:24 20.05.2020
2912 Clouds 19 1012 63 10000 2.1 330 04:33 20.05.2020
2913 Clouds 19 1012 68 10000 3.1 330 03:51 20.05.2020
2914 Rain 18 1013 82 10000 3.1 310 02:31 20.05.2020
2915 Clouds 18 1014 88 10000 1.5 80 01:30 20.05.2020
2916 Clouds 18 1014 88 10000 1.5 60 00:45 20.05.2020
2917 Clouds 18 1014 82 10000 1.5 50 00:24 20.05.2020
2918 Clouds 18 1014 82 10000 2.6 60 23:43 19.05.2020
2919 Clouds 18 1014 82 10000 1.04 63 23:20 19.05.2020
2920 Clouds 18 1014 88 10000 1.5 160 22:56 19.05.2020
2921 Clouds 18 1013 77 10000 3.6 210 22:38 19.05.2020
2922 Clouds 19 1013 77 10000 3.6 210 22:20 19.05.2020
2923 Clouds 19 1013 77 10000 3.6 210 22:20 19.05.2020
2924 Clouds 19 1013 77 10000 3.6 210 22:20 19.05.2020
2925 Clouds 19 1013 77 10000 1 0 21:58 19.05.2020
2926 Clouds 20 1013 77 10000 1 0 21:38 19.05.2020
2927 Clouds 20 1013 77 10000 1 0 21:20 19.05.2020
2928 Clouds 20 1012 77 10000 2.1 290 20:58 19.05.2020
2929 Clouds 20 1012 77 10000 2.1 290 20:58 19.05.2020
2930 Clouds 20 1012 77 10000 4.1 260 20:40 19.05.2020
2931 Clouds 20 1012 77 10000 4.1 260 20:22 19.05.2020
2932 Clouds 20 1013 77 10000 4.1 260 19:56 19.05.2020
2933 Clouds 20 1012 77 10000 1.5 70 19:37 19.05.2020
2934 Clouds 20 1012 77 10000 1.5 70 19:19 19.05.2020
2935 Clouds 20 1012 73 10000 3.6 110 18:43 19.05.2020
2936 Clouds 20 1012 73 10000 5.1 110 18:21 19.05.2020
2937 Clouds 21 1012 68 10000 3.6 170 17:56 19.05.2020
2938 Clouds 21 1012 64 10000 2.6 210 17:38 19.05.2020
2939 Clouds 22 1012 64 10000 2.6 210 17:18 19.05.2020
2940 Clouds 22 1012 73 10000 3.6 170 16:40 19.05.2020
2941 Clouds 23 1012 69 10000 5.1 160 16:21 19.05.2020
2942 Clouds 24 1011 57 10000 2.1 210 15:56 19.05.2020
2943 Clouds 24 1012 60 10000 2.1 240 15:37 19.05.2020
2944 Clouds 24 1012 60 10000 2.1 240 15:19 19.05.2020
2945 Clouds 23 1012 60 10000 2.6 240 14:43 19.05.2020
2946 Clouds 23 1012 60 10000 2.6 250 14:21 19.05.2020
2947 Clouds 22 1012 68 10000 2.6 150 13:59 19.05.2020
2948 Clouds 23 1012 47 10000 2.1 160 13:40 19.05.2020
2949 Clouds 23 1012 47 10000 2.1 160 13:22 19.05.2020
2950 Clouds 25 1012 47 10000 1.5 0 12:59 19.05.2020
2951 Clouds 25 1012 47 10000 1.5 0 12:59 19.05.2020
2952 Clouds 24 1012 47 10000 1.5 0 12:40 19.05.2020
2953 Rain 24 1012 47 10000 3.1 340 12:22 19.05.2020
2954 Clouds 24 1012 50 10000 2.6 330 11:58 19.05.2020
2955 Clouds 24 1012 47 10000 4.6 360 11:40 19.05.2020
2956 Clouds 23 1012 60 10000 4.1 340 11:21 19.05.2020
2957 Clouds 22 1012 60 10000 4.1 340 10:48 19.05.2020
2958 Clouds 21 1012 72 10000 2.6 340 10:29 19.05.2020
2959 Clouds 19 1012 77 10000 5.1 320 09:58 19.05.2020
2960 Rain 19 1013 82 10000 2.6 320 09:40 19.05.2020
2961 Rain 18 1013 82 10000 2.6 320 09:22 19.05.2020
2962 Rain 17 1013 82 10000 3.1 330 08:43 19.05.2020
2963 Rain 17 1013 77 10000 4.1 340 08:24 19.05.2020
2964 Clouds 18 1012 68 10000 4.6 330 07:44 19.05.2020
2965 Clouds 18 1012 68 10000 4.6 330 07:26 19.05.2020
2966 Clouds 18 1012 68 10000 2.6 330 06:51 19.05.2020
2967 Clouds 18 1012 77 10000 3.6 320 06:25 19.05.2020
2968 Clouds 18 1012 72 10000 3.6 310 05:41 19.05.2020
2969 Clouds 18 1012 68 10000 3.1 330 04:56 19.05.2020
2970 Clouds 18 1012 77 10000 3.1 310 04:32 19.05.2020
2971 Clouds 18 1014 77 10000 2.6 320 01:51 19.05.2020
2972 Clouds 19 1014 77 10000 2.1 60 00:47 19.05.2020
2973 Clouds 19 1014 77 10000 3.6 120 00:25 19.05.2020
2974 Clouds 19 1015 77 10000 4.1 120 23:58 18.05.2020
2975 Clouds 20 1015 77 10000 5.1 80 23:40 18.05.2020
2976 Clouds 20 1015 77 10000 5.1 80 23:20 18.05.2020
2977 Clouds 21 1014 60 10000 0.11 332 22:41 18.05.2020
2978 Clouds 21 1014 60 10000 1.03 192 22:22 18.05.2020
2979 Clouds 21 1014 60 10000 2.1 220 21:58 18.05.2020
2980 Clouds 21 1014 60 10000 3.6 230 21:40 18.05.2020
2981 Clouds 22 1014 60 10000 3.6 230 21:19 18.05.2020
2982 Clouds 22 1014 64 10000 3.6 220 20:56 18.05.2020
2983 Clouds 24 1014 56 10000 3.6 240 20:36 18.05.2020
2984 Clouds 24 1014 56 10000 3.6 240 20:18 18.05.2020
2985 Clouds 24 1014 56 10000 4.1 210 19:41 18.05.2020
2986 Clouds 24 1014 56 10000 4.1 210 19:19 18.05.2020
2987 Clouds 25 1014 57 10000 4.1 200 18:55 18.05.2020
2988 Clouds 25 1014 64 10000 4.1 190 18:36 18.05.2020
2989 Clouds 25 1014 64 10000 4.1 190 18:18 18.05.2020
2990 Clouds 26 1014 53 10000 3.6 230 17:37 18.05.2020
2991 Clouds 26 1014 53 10000 3.6 230 17:18 18.05.2020
2992 Clouds 26 1014 53 10000 3.6 230 17:18 18.05.2020
2993 Rain 26 1015 60 10000 3.6 210 16:55 18.05.2020
2994 Clouds 25 1015 57 10000 3.6 230 16:36 18.05.2020
2995 Clouds 25 1015 57 10000 3.6 230 16:18 18.05.2020
2996 Clouds 24 1016 69 10000 3.6 210 15:42 18.05.2020
2997 Clouds 23 1016 77 10000 3.1 190 15:23 18.05.2020
2998 Clouds 23 1016 73 10000 2.6 190 14:59 18.05.2020
2999 Clouds 24 1016 73 10000 2.1 170 14:39 18.05.2020
3000 Clouds 24 1016 73 10000 2.1 170 14:21 18.05.2020
3001 Clouds 23 1017 77 10000 1 0 13:42 18.05.2020
3002 Clouds 23 1017 77 10000 1 0 13:22 18.05.2020
3003 Clouds 23 1017 77 10000 1.5 150 12:58 18.05.2020
3004 Clouds 23 1017 77 10000 1.5 150 12:40 18.05.2020
3005 Clouds 23 1017 77 10000 3.1 170 12:20 18.05.2020
3006 Clouds 22 1017 77 10000 2.1 170 11:59 18.05.2020
3007 Clouds 23 1017 77 10000 2.1 170 11:41 18.05.2020
3008 Clouds 22 1017 77 10000 1.5 150 11:22 18.05.2020
3009 Clouds 23 1017 77 10000 1.5 150 10:47 18.05.2020
3010 Clouds 22 1018 73 10000 1 130 10:25 18.05.2020
3011 Clouds 21 1018 77 10000 1.5 70 09:46 18.05.2020
3012 Clear 20 1017 72 10000 2.1 60 09:28 18.05.2020
3013 Clear 20 1017 63 10000 3.6 350 08:59 18.05.2020
3014 Clear 19 1017 63 10000 5.7 350 08:40 18.05.2020
3015 Clear 18 1017 63 10000 5.7 350 08:21 18.05.2020
3016 Clear 18 1017 67 10000 5.7 350 07:45 18.05.2020
3017 Clear 17 1017 72 10000 5.1 340 07:24 18.05.2020
3018 Clear 16 1017 77 10000 6.2 330 06:48 18.05.2020
3019 Clear 16 1017 77 10000 6.7 330 06:23 18.05.2020
3020 Clear 16 1017 82 10000 6.7 320 05:44 18.05.2020
3021 Clear 16 1017 77 10000 5.1 340 03:58 18.05.2020
3022 Clear 16 1018 77 10000 4.1 340 03:28 18.05.2020
3023 Clouds 16 1018 82 10000 3.6 340 01:56 18.05.2020
3024 Clouds 16 1018 87 10000 3.6 340 00:49 18.05.2020
3025 Clouds 15 1018 87 10000 4.1 340 00:19 18.05.2020
3026 Clouds 16 1018 82 10000 3.6 350 23:56 17.05.2020
3027 Clouds 16 1018 87 10000 2.6 360 23:38 17.05.2020
3028 Clouds 16 1018 87 10000 2.6 360 23:19 17.05.2020
3029 Clouds 16 1018 88 10000 4.6 330 22:54 17.05.2020
3030 Clouds 16 1018 88 10000 4.1 320 22:36 17.05.2020
3031 Clouds 16 1018 88 10000 4.1 320 22:18 17.05.2020
3032 Clouds 16 1017 88 10000 2.6 300 21:41 17.05.2020
3033 Clouds 17 1017 82 10000 1.5 280 21:20 17.05.2020
3034 Clouds 17 1017 77 10000 2.6 320 20:57 17.05.2020
3035 Clouds 18 1017 82 10000 3.1 310 20:39 17.05.2020
3036 Clouds 18 1017 82 10000 3.1 310 20:19 17.05.2020
3037 Clouds 18 1017 82 10000 2.6 300 19:47 17.05.2020
3038 Clouds 18 1016 82 10000 3.1 320 19:28 17.05.2020
3039 Clouds 18 1016 82 10000 3.6 340 18:58 17.05.2020
3040 Clouds 18 1017 88 10000 4.1 340 18:38 17.05.2020
3041 Clouds 18 1017 88 10000 4.1 340 18:20 17.05.2020
3042 Rain 17 1017 88 10000 4.6 330 17:41 17.05.2020
3043 Rain 17 1017 88 10000 4.1 330 17:23 17.05.2020
3044 Rain 17 1017 88 10000 3.1 330 16:57 17.05.2020
3045 Rain 17 1017 88 10000 3.1 330 16:39 17.05.2020
3046 Rain 17 1017 88 10000 3.6 20 16:20 17.05.2020
3047 Rain 17 1017 88 10000 3.6 20 16:20 17.05.2020
3048 Rain 17 1017 88 10000 4.1 30 15:47 17.05.2020
3049 Rain 17 1017 82 10000 2.6 30 15:25 17.05.2020
3050 Rain 17 1017 82 10000 2.6 360 14:58 17.05.2020
3051 Rain 17 1017 82 10000 2.6 360 14:58 17.05.2020
3052 Rain 17 1017 88 10000 3.1 30 14:40 17.05.2020
3053 Rain 17 1017 88 10000 3.1 30 14:22 17.05.2020
3054 Rain 17 1017 77 10000 1 0 13:43 17.05.2020
3055 Rain 17 1017 82 10000 1.5 270 13:21 17.05.2020
3056 Rain 18 1015 77 10000 3.6 330 10:50 17.05.2020
3057 Clouds 16 1013 87 10000 3.6 320 04:19 17.05.2020
3058 Clouds 16 1013 93 10000 1.5 260 02:29 17.05.2020
3059 Rain 16 1013 93 10000 3.1 320 01:55 17.05.2020
3060 Rain 16 1014 88 10000 5.1 310 00:57 17.05.2020
3061 Rain 16 1014 88 10000 3.1 340 00:38 17.05.2020
3062 Rain 16 1014 93 9000 2.1 360 23:57 16.05.2020
3063 Rain 16 1014 93 9000 2.1 360 23:39 16.05.2020
3064 Rain 16 1015 93 10000 4.1 320 23:20 16.05.2020
3065 Rain 16 1015 93 6000 3.6 310 22:58 16.05.2020
3066 Rain 16 1015 93 7000 2.1 310 22:39 16.05.2020
3067 Rain 16 1015 93 7000 2.1 310 22:19 16.05.2020
3068 Rain 16 1015 93 10000 2.6 290 21:45 16.05.2020
3069 Rain 16 1015 93 8000 3.6 260 21:25 16.05.2020
3070 Rain 16 1014 93 9000 3.6 270 20:57 16.05.2020
3071 Rain 17 1014 88 10000 1 320 20:39 16.05.2020
3072 Rain 17 1014 88 10000 1 320 20:20 16.05.2020
3073 Rain 17 1014 88 5000 3.6 50 19:57 16.05.2020
3074 Rain 17 1014 88 8000 4.1 70 19:39 16.05.2020
3075 Rain 17 1014 88 8000 4.1 70 19:21 16.05.2020
3076 Rain 17 1015 88 10000 7.2 80 18:42 16.05.2020
3077 Rain 17 1015 88 10000 7.2 80 18:23 16.05.2020
3078 Rain 18 1015 82 10000 6.2 80 17:56 16.05.2020
3079 Rain 18 1015 82 10000 4.6 100 17:38 16.05.2020
3080 Rain 18 1015 82 10000 4.6 100 17:19 16.05.2020
3081 Rain 19 1015 77 10000 2.6 80 16:40 16.05.2020
3082 Rain 19 1015 77 10000 2.6 80 16:22 16.05.2020
3083 Rain 19 1016 72 10000 3.1 60 15:58 16.05.2020
3084 Rain 19 1016 72 10000 3.1 50 15:39 16.05.2020
3085 Rain 19 1016 72 10000 3.1 50 15:19 16.05.2020
3086 Rain 19 1016 68 10000 3.1 30 14:46 16.05.2020
3087 Clouds 19 1017 68 10000 3.6 80 14:20 16.05.2020
3088 Clouds 19 1017 72 10000 3.6 40 13:58 16.05.2020
3089 Clouds 18 1017 72 10000 3.6 40 13:40 16.05.2020
3090 Rain 18 1017 72 10000 1.5 0 13:22 16.05.2020
3091 Clouds 18 1017 77 10000 2.6 170 12:45 16.05.2020
3092 Clouds 19 1016 72 10000 3.6 120 12:22 16.05.2020
3093 Clouds 19 1016 72 10000 3.6 80 11:59 16.05.2020
3094 Clouds 18 1016 72 10000 3.6 100 11:38 16.05.2020
3095 Clouds 18 1016 72 10000 3.6 100 11:20 16.05.2020
3096 Clouds 18 1016 77 10000 3.1 60 10:56 16.05.2020
3097 Clouds 18 1016 77 10000 4.6 80 10:37 16.05.2020
3098 Clouds 17 1016 77 10000 4.6 80 10:18 16.05.2020
3099 Clouds 18 1016 77 10000 4.6 80 09:44 16.05.2020
3100 Clouds 18 1016 77 10000 2.1 50 09:26 16.05.2020
3101 Clouds 17 1016 82 10000 2.6 40 08:43 16.05.2020
3102 Clouds 16 1016 82 10000 2.6 40 08:22 16.05.2020
3103 Clouds 16 1016 87 10000 3.6 30 07:55 16.05.2020
3104 Clouds 15 1016 82 10000 2.1 20 07:37 16.05.2020
3105 Clouds 14 1016 82 10000 2.1 20 07:18 16.05.2020
3106 Clouds 14 1016 87 10000 3.6 30 06:43 16.05.2020
3107 Clouds 14 1016 87 10000 3.6 30 06:18 16.05.2020
3108 Clouds 15 1016 82 10000 3.1 20 05:39 16.05.2020
3109 Clouds 15 1016 88 10000 5.1 70 04:31 16.05.2020
3110 Clouds 16 1016 88 10000 5.7 80 03:21 16.05.2020
3111 Clouds 16 1016 88 10000 5.1 90 02:27 16.05.2020
3112 Clouds 16 1016 82 10000 4.6 80 01:56 16.05.2020
3113 Clouds 16 1016 88 10000 3.1 90 01:35 16.05.2020
3114 Clouds 16 1016 88 10000 3.6 110 00:55 16.05.2020
3115 Clouds 16 1016 82 10000 4.1 90 00:37 16.05.2020
3116 Clouds 16 1016 82 10000 4.1 90 00:18 16.05.2020
3117 Clouds 17 1015 82 10000 4.6 90 23:37 15.05.2020
3118 Clouds 17 1015 82 10000 4.6 90 23:18 15.05.2020
3119 Clouds 16 1014 88 10000 3.1 90 22:40 15.05.2020
3120 Clouds 16 1014 88 10000 3.1 90 22:20 15.05.2020
3121 Clouds 16 1014 88 10000 3.1 90 22:20 15.05.2020
3122 Clouds 16 1014 82 10000 2.6 80 21:56 15.05.2020
3123 Clouds 17 1014 82 10000 3.6 120 21:38 15.05.2020
3124 Clouds 16 1014 82 10000 3.6 120 21:20 15.05.2020
3125 Clouds 16 1014 82 10000 4.1 120 20:54 15.05.2020
3126 Clouds 16 1014 82 10000 4.1 120 20:54 15.05.2020
3127 Clear 16 1013 82 10000 4.6 100 20:36 15.05.2020
3128 Clouds 17 1013 82 10000 4.6 100 20:18 15.05.2020
3129 Clouds 17 1013 77 10000 4.1 90 19:42 15.05.2020
3130 Clouds 18 1013 77 10000 4.6 110 19:23 15.05.2020
3131 Clouds 18 1013 77 10000 3.1 90 18:48 15.05.2020
3132 Clouds 18 1013 77 10000 2.6 120 18:28 15.05.2020
3133 Clouds 18 1012 77 10000 4.1 160 17:59 15.05.2020
3134 Clouds 18 1012 77 10000 3.6 190 17:37 15.05.2020
3135 Clouds 19 1012 77 10000 3.6 190 17:18 15.05.2020
3136 Clouds 19 1012 82 10000 4.6 200 16:55 15.05.2020
3137 Clouds 19 1012 82 10000 4.6 200 16:37 15.05.2020
3138 Clouds 18 1012 82 10000 4.6 200 16:18 15.05.2020
3139 Clouds 19 1012 82 10000 4.6 200 15:40 15.05.2020
3140 Clouds 19 1012 82 10000 4.1 200 15:20 15.05.2020
3141 Clouds 19 1012 82 10000 6.7 200 14:57 15.05.2020
3142 Clouds 18 1012 88 10000 6.7 200 14:38 15.05.2020
3143 Clouds 18 1012 88 10000 6.7 200 14:20 15.05.2020
3144 Clouds 19 1011 77 10000 5.7 200 13:42 15.05.2020
3145 Clouds 19 1011 77 10000 5.7 200 13:22 15.05.2020
3146 Clouds 19 1011 82 10000 6.2 200 12:56 15.05.2020
3147 Clouds 19 1011 77 10000 5.7 190 12:37 15.05.2020
3148 Clouds 19 1011 77 10000 5.7 190 12:18 15.05.2020
3149 Clouds 19 1011 77 10000 5.7 190 12:18 15.05.2020
3150 Rain 19 1011 77 10000 4.6 200 11:56 15.05.2020
3151 Rain 18 1010 82 10000 5.1 190 11:37 15.05.2020
3152 Clouds 18 1010 82 10000 5.1 190 11:18 15.05.2020
3153 Clouds 18 1010 82 10000 3.1 180 10:54 15.05.2020
3154 Clouds 18 1009 77 10000 2.6 190 10:36 15.05.2020
3155 Clouds 18 1009 77 10000 2.6 190 10:18 15.05.2020
3156 Clouds 18 1009 77 10000 1.5 0 09:40 15.05.2020
3157 Clouds 16 1009 77 10000 1.5 0 09:20 15.05.2020
3158 Clouds 17 1009 82 10000 1.5 0 08:58 15.05.2020
3159 Clouds 16 1008 87 10000 2.1 330 08:38 15.05.2020
3160 Clouds 16 1008 87 10000 2.1 330 08:19 15.05.2020
3161 Clouds 16 1008 87 10000 1.5 350 07:44 15.05.2020
3162 Clouds 15 1007 93 10000 2.6 340 07:25 15.05.2020
3163 Clouds 14 1007 93 10000 3.1 320 06:56 15.05.2020
3164 Clouds 14 1006 93 10000 2.1 320 05:53 15.05.2020
3165 Rain 15 1005 87 10000 1.5 330 04:33 15.05.2020
3166 Rain 15 1005 87 10000 3.6 360 03:48 15.05.2020
3167 Rain 15 1005 88 10000 3.1 40 02:40 15.05.2020
3168 Rain 16 1005 93 8000 6.2 210 01:31 15.05.2020
3169 Thunderstorm 17 1004 88 7000 5.7 210 00:57 15.05.2020
3170 Thunderstorm 17 1004 93 10000 6.7 210 00:38 15.05.2020
3171 Rain 17 1004 93 10000 6.7 210 00:20 15.05.2020
3172 Rain 17 1003 88 10000 6.2 150 23:40 14.05.2020
3173 Rain 17 1004 88 10000 4.1 200 23:40 14.05.2020
3174 Rain 17 1003 88 10000 6.2 150 23:18 14.05.2020
3175 Rain 17 1004 82 10000 2.6 70 22:41 14.05.2020
3176 Rain 17 1004 82 10000 2.1 330 22:21 14.05.2020
3177 Rain 17 1004 88 10000 3.1 270 21:58 14.05.2020
3178 Rain 17 1004 77 10000 4.1 240 21:40 14.05.2020
3179 Rain 18 1004 77 10000 4.1 240 21:19 14.05.2020
3180 Rain 19 1003 68 10000 3.1 250 20:56 14.05.2020
3181 Clouds 19 1004 68 10000 4.1 220 20:38 14.05.2020
3182 Clouds 20 1004 68 10000 4.1 220 20:19 14.05.2020
3183 Rain 20 1003 64 10000 2.1 200 19:55 14.05.2020
3184 Clouds 20 1003 60 10000 2.53 134 19:37 14.05.2020
3185 Clouds 20 1003 60 10000 1.89 127 19:19 14.05.2020
3186 Rain 21 1003 56 10000 0.5 0 18:54 14.05.2020
3187 Rain 21 1004 60 10000 2.1 200 18:36 14.05.2020
3188 Clouds 20 1004 60 10000 2.1 200 18:18 14.05.2020
3189 Clouds 21 1003 60 10000 1 0 17:55 14.05.2020
3190 Clouds 21 1004 64 10000 1.5 190 17:36 14.05.2020
3191 Clouds 21 1004 64 10000 1.5 190 17:18 14.05.2020
3192 Clouds 21 1004 60 10000 0.5 0 16:39 14.05.2020
3193 Clouds 21 1004 60 10000 0.5 0 16:20 14.05.2020
3194 Clouds 21 1004 64 10000 3.51 105 15:57 14.05.2020
3195 Clouds 21 1005 68 10000 1 0 15:39 14.05.2020
3196 Clouds 21 1005 68 10000 1 0 15:19 14.05.2020
3197 Clouds 21 1005 68 10000 1.5 0 14:56 14.05.2020
3198 Clear 21 1005 72 10000 1 0 14:38 14.05.2020
3199 Clouds 21 1005 72 10000 1 0 14:19 14.05.2020
3200 Clouds 21 1005 72 10000 1 0 14:19 14.05.2020
3201 Clouds 21 1006 77 10000 1.5 0 13:55 14.05.2020
3202 Clouds 20 1006 82 10000 2.1 110 13:37 14.05.2020
3203 Clouds 20 1006 82 10000 2.1 110 13:18 14.05.2020
3204 Clouds 19 1006 82 10000 4.1 120 12:57 14.05.2020
3205 Clouds 19 1006 82 10000 3.6 100 12:37 14.05.2020
3206 Clouds 19 1006 82 10000 3.6 100 12:18 14.05.2020
3207 Clouds 18 1007 82 10000 4.6 100 11:55 14.05.2020
3208 Clouds 19 1007 82 10000 3.6 80 11:37 14.05.2020
3209 Clouds 19 1007 82 10000 3.6 80 11:19 14.05.2020
3210 Clouds 18 1007 82 10000 5.1 90 10:42 14.05.2020
3211 Clouds 18 1007 82 10000 5.1 90 10:23 14.05.2020
3212 Clouds 18 1007 82 10000 6.2 80 09:56 14.05.2020
3213 Clouds 18 1007 82 10000 6.2 80 09:56 14.05.2020
3214 Clouds 17 1007 88 10000 5.1 80 09:36 14.05.2020
3215 Clouds 17 1007 88 10000 5.1 80 09:18 14.05.2020
3216 Clouds 17 1007 88 10000 1.5 0 08:37 14.05.2020
3217 Clouds 16 1007 88 10000 1.5 0 08:19 14.05.2020
3218 Clouds 16 1007 88 10000 2.1 330 07:45 14.05.2020
3219 Clouds 15 1007 93 10000 1 0 07:22 14.05.2020
3220 Clouds 15 1007 93 10000 2.1 20 06:44 14.05.2020
3221 Clouds 15 1007 93 10000 4.1 60 06:25 14.05.2020
3222 Clouds 15 1007 93 10000 5.7 80 05:42 14.05.2020
3223 Clouds 15 1007 93 10000 1.5 0 04:46 14.05.2020
3224 Clouds 16 1008 93 10000 1.5 330 03:43 14.05.2020
3225 Clouds 16 1008 93 10000 1.5 330 03:20 14.05.2020
3226 Clouds 16 1009 93 10000 4.6 50 02:35 14.05.2020
3227 Clouds 16 1009 93 10000 2.6 70 01:52 14.05.2020
3228 Clouds 17 1009 88 8000 1.5 80 00:53 14.05.2020
3229 Clouds 17 1008 88 10000 2.6 50 00:28 14.05.2020
3230 Clouds 17 1008 93 8000 2.1 90 23:45 13.05.2020
3231 Clouds 17 1008 93 7000 1 90 23:25 13.05.2020
3232 Rain 17 1008 93 10000 0.5 0 23:00 13.05.2020
3233 Rain 17 1008 93 10000 0.5 0 22:41 13.05.2020
3234 Rain 17 1008 93 9000 1.5 140 22:22 13.05.2020
3235 Rain 17 1007 88 6000 2.6 100 21:59 13.05.2020
3236 Rain 17 1007 88 6000 2.6 100 21:39 13.05.2020
3237 Rain 17 1007 88 9000 4.1 90 21:19 13.05.2020
3238 Clouds 17 1007 88 10000 5.7 80 20:56 13.05.2020
3239 Rain 17 1007 88 10000 5.7 80 20:38 13.05.2020
3240 Rain 17 1007 88 10000 5.7 80 20:19 13.05.2020
3241 Clouds 18 1006 77 10000 6.7 100 19:42 13.05.2020
3242 Clouds 18 1006 77 10000 6.7 100 19:23 13.05.2020
3243 Clouds 18 1006 77 10000 7.2 90 18:45 13.05.2020
3244 Clouds 18 1006 77 10000 7.2 90 18:22 13.05.2020
3245 Clouds 18 1006 77 10000 7.2 90 18:22 13.05.2020
3246 Clouds 18 1006 77 10000 7.2 90 18:21 13.05.2020
3247 Clouds 19 1006 72 10000 9.8 90 17:39 13.05.2020
3248 Clouds 19 1006 72 10000 9.8 90 17:20 13.05.2020
3249 Clouds 19 1005 68 10000 10.8 80 16:56 13.05.2020
3250 Clouds 19 1006 68 10000 11.8 90 16:38 13.05.2020
3251 Clouds 19 1006 68 10000 11.8 90 16:19 13.05.2020
3252 Clouds 19 1005 68 10000 13.4 90 15:42 13.05.2020
3253 Clouds 19 1005 64 10000 12.3 100 15:20 13.05.2020
3254 Clouds 19 1005 68 10000 12.3 90 14:58 13.05.2020
3255 Clouds 19 1005 68 10000 12.3 90 14:40 13.05.2020
3256 Clouds 20 1005 68 10000 13.4 90 14:22 13.05.2020
3257 Clouds 20 1005 64 10000 12.3 100 13:57 13.05.2020
3258 Clouds 20 1006 64 10000 13.9 90 13:39 13.05.2020
3259 Clouds 20 1006 64 10000 13.9 90 13:20 13.05.2020
3260 Clouds 20 1006 64 10000 14.4 90 12:56 13.05.2020
3261 Rain 20 1005 68 10000 15.4 80 12:37 13.05.2020
3262 Clouds 19 1005 68 10000 14.4 90 12:18 13.05.2020
3263 Clouds 19 1005 68 10000 14.4 90 11:54 13.05.2020
3264 Clouds 19 1005 64 10000 16.5 80 11:36 13.05.2020
3265 Rain 19 1005 64 10000 16.5 80 11:18 13.05.2020
3266 Clouds 19 1004 64 10000 15.9 80 10:55 13.05.2020
3267 Rain 19 1005 68 10000 16.5 80 10:37 13.05.2020
3268 Rain 18 1005 68 10000 16.5 80 10:18 13.05.2020
3269 Rain 18 1005 72 10000 14.4 80 09:41 13.05.2020
3270 Rain 18 1005 72 10000 11.8 80 09:22 13.05.2020
3271 Clouds 18 1005 72 10000 6.7 60 08:54 13.05.2020
3272 Clouds 19 1006 77 10000 6.7 70 08:36 13.05.2020
3273 Clouds 17 1006 77 10000 6.7 70 08:18 13.05.2020
3274 Rain 16 1007 77 10000 1.5 0 07:42 13.05.2020
3275 Clouds 17 1007 72 10000 2.6 20 07:24 13.05.2020
3276 Clouds 16 1008 72 10000 4.6 40 06:47 13.05.2020
3277 Clouds 16 1009 82 10000 4.1 30 05:59 13.05.2020
3278 Clouds 15 1010 87 10000 3.1 320 04:49 13.05.2020
3279 Clouds 15 1010 82 10000 3.1 20 03:26 13.05.2020
3280 Clouds 15 1011 88 10000 6.2 60 02:32 13.05.2020
3281 Clouds 16 1012 88 10000 7.7 80 01:36 13.05.2020
3282 Clouds 16 1012 88 10000 7.7 70 00:47 13.05.2020
3283 Clouds 16 1012 82 10000 4.6 80 00:20 13.05.2020
3284 Clouds 16 1012 82 10000 4.1 80 23:40 12.05.2020
3285 Clouds 16 1012 82 10000 4.1 80 23:40 12.05.2020
3286 Clouds 16 1012 82 10000 4.1 80 23:40 12.05.2020
3287 Clear 15 1012 82 10000 2.1 100 23:21 12.05.2020
3288 Clouds 16 1012 82 10000 1.5 70 22:58 12.05.2020
3289 Clear 16 1011 82 10000 2.1 100 22:39 12.05.2020
3290 Clouds 16 1011 82 10000 2.1 100 22:21 12.05.2020
3291 Clouds 16 1011 82 10000 2.6 70 21:55 12.05.2020
3292 Clouds 16 1011 82 10000 2.6 100 21:37 12.05.2020
3293 Clear 16 1011 82 10000 2.6 100 21:18 12.05.2020
3294 Clear 16 1011 77 10000 3.1 100 20:57 12.05.2020
3295 Clear 17 1011 77 10000 3.1 90 20:38 12.05.2020
3296 Clouds 17 1011 77 10000 3.1 90 20:20 12.05.2020
3297 Clouds 17 1011 77 10000 3.1 90 20:20 12.05.2020
3298 Clouds 17 1011 77 10000 3.6 100 19:56 12.05.2020
3299 Clouds 17 1011 77 10000 3.6 130 19:37 12.05.2020
3300 Clouds 17 1011 77 10000 3.6 130 19:19 12.05.2020
3301 Clouds 18 1011 72 10000 3.6 130 18:43 12.05.2020
3302 Clouds 18 1011 77 10000 3.1 170 18:24 12.05.2020
3303 Clouds 18 1011 77 10000 5.1 160 17:59 12.05.2020
3304 Clouds 17 1011 77 10000 5.1 160 17:41 12.05.2020
3305 Clouds 18 1010 77 10000 5.1 140 17:22 12.05.2020
3306 Clouds 19 1010 77 10000 4.6 130 16:47 12.05.2020
3307 Clouds 19 1010 77 10000 5.7 130 16:24 12.05.2020
3308 Clouds 19 1009 72 10000 4.1 100 15:56 12.05.2020
3309 Clouds 19 1010 72 10000 3.6 120 15:37 12.05.2020
3310 Clouds 19 1010 72 10000 3.6 120 15:19 12.05.2020
3311 Clouds 19 1010 77 10000 3.1 100 14:55 12.05.2020
3312 Clouds 19 1010 72 10000 2.6 90 14:36 12.05.2020
3313 Clouds 19 1010 72 10000 2.6 90 14:18 12.05.2020
3314 Clouds 19 1010 72 10000 2.6 160 13:57 12.05.2020
3315 Clear 19 1010 72 10000 2.6 130 13:39 12.05.2020
3316 Clear 19 1010 72 10000 2.6 130 13:19 12.05.2020
3317 Clear 19 1010 72 10000 2.6 130 13:19 12.05.2020
3318 Clear 19 1009 72 10000 2.1 160 12:57 12.05.2020
3319 Clear 19 1009 72 10000 3.1 160 12:39 12.05.2020
3320 Clear 19 1009 72 10000 3.1 160 12:21 12.05.2020
3321 Clear 19 1009 77 10000 1.5 170 11:57 12.05.2020
3322 Clear 19 1008 77 10000 1.5 170 11:38 12.05.2020
3323 Clear 19 1008 77 10000 1.5 170 11:20 12.05.2020
3324 Clear 18 1008 77 10000 3.1 190 10:56 12.05.2020
3325 Clear 18 1008 72 10000 2.1 140 10:38 12.05.2020
3326 Clear 18 1008 72 10000 2.1 140 10:19 12.05.2020
3327 Clear 18 1008 68 10000 1.5 100 09:57 12.05.2020
3328 Clear 17 1008 72 10000 1 0 09:38 12.05.2020
3329 Clear 16 1008 72 10000 1 0 09:20 12.05.2020
3330 Clear 16 1007 82 10000 2.1 340 08:42 12.05.2020
3331 Clouds 16 1007 82 10000 2.1 340 08:22 12.05.2020
3332 Clouds 15 1007 82 10000 2.6 330 07:58 12.05.2020
3333 Clouds 14 1006 87 10000 2.6 320 07:40 12.05.2020
3334 Clouds 14 1006 87 10000 2.6 320 07:21 12.05.2020
3335 Clouds 13 1006 93 10000 3.1 350 06:39 12.05.2020
3336 Clouds 13 1006 93 10000 3.1 350 06:21 12.05.2020
3337 Clouds 12 1006 93 10000 3.1 320 05:49 12.05.2020
3338 Clear 13 1005 93 10000 1.5 0 04:41 12.05.2020
3339 Clear 14 1005 93 10000 3.1 310 03:26 12.05.2020
3340 Clouds 14 1005 93 10000 2.6 310 02:28 12.05.2020
3341 Clouds 14 1005 93 10000 2.1 280 01:56 12.05.2020
3342 Clouds 14 1005 87 10000 3.1 270 01:20 12.05.2020
3343 Clouds 14 1005 87 10000 1.5 290 00:25 12.05.2020
3344 Clouds 14 1005 87 10000 1.5 250 23:58 11.05.2020
3345 Clouds 14 1005 87 10000 1.5 250 23:40 11.05.2020
3346 Clouds 14 1005 87 10000 1.5 270 23:20 11.05.2020
3347 Clouds 15 1005 87 10000 1.5 260 22:58 11.05.2020
3348 Clouds 15 1005 87 10000 1.5 260 22:40 11.05.2020
3349 Clouds 15 1005 87 10000 2.1 280 22:20 11.05.2020
3350 Clouds 15 1004 87 10000 2.6 230 21:57 11.05.2020
3351 Clouds 15 1004 87 10000 1.5 250 21:39 11.05.2020
3352 Clouds 15 1004 87 10000 1.5 250 21:19 11.05.2020
3353 Drizzle 15 1004 87 10000 2.1 250 20:57 11.05.2020
3354 Rain 16 1004 82 10000 2.1 260 20:38 11.05.2020
3355 Rain 16 1004 82 10000 2.1 260 20:19 11.05.2020
3356 Clouds 16 1004 82 10000 3.1 250 19:55 11.05.2020
3357 Rain 16 1004 82 10000 4.6 240 19:36 11.05.2020
3358 Rain 16 1004 82 10000 4.6 240 19:18 11.05.2020
3359 Clouds 16 1004 88 10000 5.1 210 18:55 11.05.2020
3360 Clouds 16 1004 88 10000 6.2 210 18:36 11.05.2020
3361 Clouds 16 1004 88 10000 6.2 210 18:18 11.05.2020
3362 Clouds 16 1004 88 10000 6.2 210 18:18 11.05.2020
3363 Rain 17 1004 82 10000 6.2 200 17:41 11.05.2020
3364 Rain 17 1003 77 10000 5.7 220 17:22 11.05.2020
3365 Rain 17 1003 77 10000 6.7 220 16:59 11.05.2020
3366 Rain 17 1003 77 10000 6.7 220 16:40 11.05.2020
3367 Rain 16 1004 82 10000 5.7 210 16:21 11.05.2020
3368 Rain 16 1003 88 10000 6.2 190 15:57 11.05.2020
3369 Rain 16 1003 88 10000 6.2 190 15:39 11.05.2020
3370 Rain 17 1003 88 10000 6.2 190 15:18 11.05.2020
3371 Clouds 17 1003 82 10000 3.6 190 14:54 11.05.2020
3372 Clouds 17 1003 77 10000 2.6 190 14:36 11.05.2020
3373 Clouds 17 1003 82 10000 2.6 200 14:18 11.05.2020
3374 Rain 18 1003 82 10000 2.6 200 13:41 11.05.2020
3375 Rain 17 1003 77 10000 2.1 200 13:19 11.05.2020
3376 Rain 17 1003 77 10000 2.1 120 12:58 11.05.2020
3377 Rain 17 1003 77 10000 2.1 30 12:40 11.05.2020
3378 Rain 17 1003 77 10000 2.1 30 12:21 11.05.2020
3379 Rain 15 1003 82 10000 3.1 340 11:56 11.05.2020
3380 Rain 15 1003 87 10000 3.6 350 11:38 11.05.2020
3381 Rain 14 1003 87 10000 3.6 350 11:19 11.05.2020
3382 Rain 14 1003 87 10000 3.1 350 10:55 11.05.2020
3383 Rain 14 1003 87 10000 3.1 350 10:55 11.05.2020
3384 Rain 14 1003 87 8000 2.6 10 10:37 11.05.2020
3385 Rain 15 1003 87 8000 2.6 10 10:18 11.05.2020
3386 Rain 14 1003 87 8000 2.6 10 10:18 11.05.2020
3387 Rain 14 1002 87 10000 3.6 10 09:55 11.05.2020
3388 Rain 14 1002 87 10000 3.1 340 09:37 11.05.2020
3389 Rain 14 1002 87 10000 3.1 340 09:18 11.05.2020
3390 Rain 13 1002 87 10000 3.1 340 08:40 11.05.2020
3391 Rain 13 1002 87 10000 3.1 340 08:21 11.05.2020
3392 Rain 12 1002 93 10000 5.1 330 07:54 11.05.2020
3393 Rain 13 1002 87 3700 6.7 0 07:36 11.05.2020
3394 Rain 14 1002 87 3700 6.7 0 07:18 11.05.2020
3395 Rain 15 1002 93 9000 8.7 160 06:32 11.05.2020
3396 Rain 16 1002 93 8000 9.8 160 05:49 11.05.2020
3397 Rain 16 1002 88 10000 10.3 170 05:20 11.05.2020
3398 Rain 14 1003 93 10000 3.1 120 03:51 11.05.2020
3399 Rain 14 1004 87 10000 2.6 350 02:36 11.05.2020
3400 Rain 15 1005 87 10000 5.7 80 01:55 11.05.2020
3401 Mist 15 1005 93 4900 8.2 130 00:56 11.05.2020
3402 Rain 15 1005 88 5000 8.7 80 00:38 11.05.2020
3403 Rain 16 1005 88 5000 8.7 80 00:18 11.05.2020
3404 Rain 16 1005 88 5000 5.7 100 23:39 10.05.2020
3405 Rain 16 1005 88 5000 5.7 100 23:19 10.05.2020
3406 Rain 16 1005 88 6000 3.1 0 22:54 10.05.2020
3407 Rain 17 1005 88 10000 2.1 0 22:36 10.05.2020
3408 Rain 16 1005 88 10000 2.1 0 22:18 10.05.2020
3409 Rain 16 1006 88 10000 2.1 330 21:42 10.05.2020
3410 Rain 16 1006 88 10000 2.1 330 21:18 10.05.2020
3411 Rain 16 1006 88 8000 2.6 30 20:43 10.05.2020
3412 Rain 16 1006 88 8000 1 0 20:24 10.05.2020
3413 Rain 16 1006 82 9000 6.2 70 19:57 10.05.2020
3414 Rain 16 1007 82 7000 6.2 110 19:38 10.05.2020
3415 Rain 16 1007 82 7000 6.2 110 19:20 10.05.2020
3416 Clouds 16 1006 88 10000 5.1 80 18:56 10.05.2020
3417 Clouds 17 1007 77 10000 3.6 40 18:36 10.05.2020
3418 Rain 17 1007 77 10000 3.6 40 18:18 10.05.2020
3419 Rain 17 1007 77 10000 3.6 40 18:18 10.05.2020
3420 Rain 17 1008 82 10000 7.7 60 17:58 10.05.2020
3421 Rain 16 1008 88 10000 9.3 60 17:39 10.05.2020
3422 Rain 16 1008 88 10000 9.3 60 17:20 10.05.2020
3423 Rain 16 1010 93 8000 6.7 70 16:44 10.05.2020
3424 Rain 17 1011 88 5000 6.7 80 16:21 10.05.2020
3425 Rain 17 1010 72 10000 9.8 80 15:58 10.05.2020
3426 Rain 18 1010 72 10000 9.8 80 15:40 10.05.2020
3427 Clouds 18 1009 72 10000 8.2 70 15:22 10.05.2020
3428 Clouds 17 1010 72 10000 8.7 70 14:56 10.05.2020
3429 Clouds 18 1010 72 10000 8.2 60 14:38 10.05.2020
3430 Clouds 17 1010 72 10000 8.2 60 14:19 10.05.2020
3431 Clouds 18 1010 72 10000 6.7 70 13:58 10.05.2020
3432 Clouds 18 1011 72 10000 7.7 70 13:37 10.05.2020
3433 Clouds 18 1011 72 10000 7.7 70 13:19 10.05.2020
3434 Clouds 17 1011 77 10000 8.7 70 12:56 10.05.2020
3435 Clouds 18 1011 77 10000 10.3 80 12:37 10.05.2020
3436 Clouds 18 1011 77 10000 10.3 80 12:19 10.05.2020
3437 Rain 17 1011 77 10000 10.3 90 11:54 10.05.2020
3438 Clouds 18 1011 68 10000 9.3 80 11:36 10.05.2020
3439 Clouds 18 1011 68 10000 9.3 80 11:18 10.05.2020
3440 Clouds 19 1011 68 10000 8.2 80 10:42 10.05.2020
3441 Clouds 18 1011 72 10000 8.2 60 10:24 10.05.2020
3442 Clouds 18 1011 72 10000 7.2 70 09:56 10.05.2020
3443 Clouds 17 1011 77 10000 6.2 70 09:38 10.05.2020
3444 Clouds 17 1011 77 10000 6.2 70 09:20 10.05.2020
3445 Clouds 17 1011 77 10000 6.7 70 08:47 10.05.2020
3446 Clouds 17 1011 77 10000 7.7 80 08:23 10.05.2020
3447 Clouds 17 1011 77 10000 7.7 80 07:44 10.05.2020
3448 Clouds 16 1010 77 10000 7.7 70 07:20 10.05.2020
3449 Clouds 15 1010 77 10000 2.1 0 06:52 10.05.2020
3450 Clouds 16 1010 77 10000 2.1 0 06:30 10.05.2020
3451 Clouds 16 1010 77 10000 1 0 05:48 10.05.2020
3452 Clouds 17 1010 72 10000 3.6 40 04:50 10.05.2020
3453 Clouds 17 1011 77 10000 2.6 110 04:31 10.05.2020
3454 Clouds 17 1011 77 10000 3.6 50 03:54 10.05.2020
3455 Clouds 17 1011 72 10000 1.5 340 03:36 10.05.2020
3456 Clouds 16 1011 77 10000 5.1 330 02:41 10.05.2020
3457 Clouds 16 1012 77 10000 3.6 20 02:19 10.05.2020
3458 Clouds 17 1012 82 10000 5.7 70 01:42 10.05.2020
3459 Clouds 17 1012 82 10000 5.7 70 01:19 10.05.2020
3460 Clouds 17 1012 82 10000 7.7 90 00:54 10.05.2020
3461 Clouds 17 1012 82 10000 6.7 130 00:24 10.05.2020
3462 Rain 17 1011 68 10000 6.2 50 23:59 09.05.2020
3463 Rain 17 1012 77 10000 4.1 60 23:39 09.05.2020
3464 Rain 17 1012 77 10000 4.1 60 23:20 09.05.2020
3465 Rain 16 1014 88 10000 1.5 290 22:43 09.05.2020
3466 Rain 16 1014 88 10000 1.5 290 22:24 09.05.2020
3467 Rain 17 1014 82 10000 0.5 0 21:59 09.05.2020
3468 Rain 17 1014 77 10000 3.6 50 21:41 09.05.2020
3469 Rain 17 1014 77 10000 3.6 50 21:21 09.05.2020
3470 Clouds 17 1014 82 10000 4.6 100 20:58 09.05.2020
3471 Clouds 17 1013 82 10000 5.7 80 20:38 09.05.2020
3472 Clouds 17 1013 82 10000 5.7 80 20:20 09.05.2020
3473 Clouds 18 1013 77 10000 5.7 80 19:58 09.05.2020
3474 Clouds 17 1013 77 10000 4.6 90 19:38 09.05.2020
3475 Clouds 17 1013 77 10000 4.6 90 19:19 09.05.2020
3476 Clouds 18 1013 77 10000 6.7 80 18:45 09.05.2020
3477 Clouds 18 1013 77 10000 8.2 80 18:26 09.05.2020
3478 Clouds 18 1014 72 10000 7.7 90 17:58 09.05.2020
3479 Clouds 18 1014 77 10000 8.7 80 17:40 09.05.2020
3480 Clouds 18 1014 77 10000 8.7 80 17:21 09.05.2020
3481 Clouds 18 1013 72 10000 10.8 80 16:41 09.05.2020
3482 Clear 18 1013 72 10000 10.8 80 16:20 09.05.2020
3483 Clear 18 1014 77 10000 8.2 80 15:45 09.05.2020
3484 Clear 18 1015 72 10000 7.2 80 15:27 09.05.2020
3485 Clear 18 1015 72 10000 9.8 80 14:59 09.05.2020
3486 Clear 18 1015 72 10000 9.8 90 14:40 09.05.2020
3487 Clouds 19 1015 72 10000 9.8 90 14:19 09.05.2020
3488 Clouds 18 1015 72 10000 9.8 90 13:58 09.05.2020
3489 Clouds 19 1015 72 10000 9.3 80 13:40 09.05.2020
3490 Clouds 19 1015 72 10000 9.3 80 13:20 09.05.2020
3491 Clouds 19 1015 72 10000 9.8 80 12:42 09.05.2020
3492 Clouds 18 1016 68 10000 7.7 80 12:22 09.05.2020
3493 Clouds 19 1016 68 10000 6.2 90 11:56 09.05.2020
3494 Clouds 19 1016 64 10000 5.1 90 11:37 09.05.2020
3495 Clouds 19 1016 64 10000 5.1 90 11:18 09.05.2020
3496 Clouds 19 1016 64 10000 5.1 90 11:18 09.05.2020
3497 Clouds 19 1016 59 10000 2.6 100 10:43 09.05.2020
3498 Clouds 19 1016 59 10000 2.6 100 10:43 09.05.2020
3499 Clouds 19 1017 59 10000 1 0 10:25 09.05.2020
3500 Clouds 19 1017 59 10000 1 0 09:58 09.05.2020
3501 Clouds 19 1017 59 10000 3.3 90 09:38 09.05.2020
3502 Clouds 17 1017 59 10000 2.3 100 09:19 09.05.2020
3503 Clouds 18 1016 48 10000 2.6 320 08:51 09.05.2020
3504 Clouds 17 1016 51 10000 2.6 330 08:32 09.05.2020
3505 Clouds 16 1016 51 10000 2.6 330 07:50 09.05.2020
3506 Clouds 15 1016 54 10000 2.1 320 07:32 09.05.2020
3507 Clouds 15 1016 54 10000 2.6 320 06:54 09.05.2020
3508 Clouds 13 1016 58 10000 2.6 340 06:25 09.05.2020
3509 Clouds 13 1016 58 10000 2.1 320 05:46 09.05.2020
3510 Clouds 14 1017 58 10000 3.6 330 03:59 09.05.2020
3511 Clouds 15 1017 62 10000 3.1 320 03:38 09.05.2020
3512 Clouds 15 1017 62 10000 3.1 320 02:42 09.05.2020
3513 Clouds 15 1017 67 10000 3.6 320 01:54 09.05.2020
3514 Clouds 15 1018 67 10000 4.1 320 01:24 09.05.2020
3515 Clouds 16 1018 67 10000 2.6 320 00:55 09.05.2020
3516 Clouds 16 1018 72 10000 2.6 310 00:37 09.05.2020
3517 Clouds 16 1018 67 10000 2.1 320 23:54 08.05.2020
3518 Clouds 16 1018 72 10000 0.54 138 23:36 08.05.2020
3519 Clouds 16 1018 72 10000 0.54 138 23:36 08.05.2020
3520 Clouds 16 1018 72 10000 1 132 23:18 08.05.2020
3521 Clouds 17 1018 72 10000 1 90 22:54 08.05.2020
3522 Clouds 17 1018 77 10000 2.6 80 22:36 08.05.2020
3523 Clouds 17 1018 77 10000 2.6 80 22:18 08.05.2020
3524 Clouds 18 1018 68 10000 3.6 80 21:42 08.05.2020
3525 Clouds 18 1018 68 10000 3.1 90 21:19 08.05.2020
3526 Clouds 18 1018 68 10000 3.1 90 21:19 08.05.2020
3527 Clouds 18 1018 68 10000 2.1 90 20:59 08.05.2020
3528 Clouds 18 1018 68 10000 1.5 100 20:41 08.05.2020
3529 Clear 19 1018 68 10000 1.5 100 20:23 08.05.2020
3530 Clear 18 1018 68 10000 1.5 100 19:55 08.05.2020
3531 Clear 19 1018 64 10000 2.6 110 19:37 08.05.2020
3532 Clear 19 1018 64 10000 2.6 110 19:19 08.05.2020
3533 Clear 19 1018 68 10000 3.1 100 18:43 08.05.2020
3534 Clear 19 1018 64 10000 2.6 100 18:25 08.05.2020
3535 Clear 19 1019 68 10000 3.1 100 17:42 08.05.2020
3536 Clear 19 1019 72 10000 3.6 100 17:20 08.05.2020
3537 Clear 20 1019 64 10000 4.1 90 16:55 08.05.2020
3538 Clear 20 1019 60 10000 4.6 110 16:37 08.05.2020
3539 Clear 20 1019 60 10000 4.6 110 16:18 08.05.2020
3540 Clear 21 1019 56 10000 3.6 100 15:42 08.05.2020
3541 Clear 21 1019 56 10000 3.6 100 15:20 08.05.2020
3542 Clear 21 1020 52 10000 2.6 110 14:56 08.05.2020
3543 Clouds 21 1020 46 10000 2.6 120 14:38 08.05.2020
3544 Clouds 21 1020 46 10000 2.6 120 14:18 08.05.2020
3545 Clouds 22 1020 46 10000 2.1 150 13:55 08.05.2020
3546 Clouds 22 1020 46 10000 2.1 130 13:36 08.05.2020
3547 Clouds 22 1020 46 10000 2.1 130 13:18 08.05.2020
3548 Clouds 21 1020 43 10000 2.1 130 12:42 08.05.2020
3549 Clouds 22 1020 46 10000 1.5 0 12:23 08.05.2020
3550 Clouds 21 1020 49 10000 1 0 11:44 08.05.2020
3551 Clouds 21 1021 52 10000 1.5 150 11:23 08.05.2020
3552 Clouds 21 1021 52 10000 1.5 150 11:23 08.05.2020
3553 Clouds 21 1020 46 10000 1 0 10:59 08.05.2020
3554 Clouds 20 1020 46 10000 1 0 10:41 08.05.2020
3555 Clouds 19 1021 56 10000 2.33 110 10:19 08.05.2020
3556 Clouds 19 1020 52 10000 1 0 09:57 08.05.2020
3557 Clouds 19 1021 56 10000 1.5 360 09:38 08.05.2020
3558 Clouds 20 1021 56 10000 1.5 360 09:18 08.05.2020
3559 Clouds 20 1021 56 10000 1.5 360 09:18 08.05.2020
3560 Clouds 18 1021 59 10000 2.6 330 08:45 08.05.2020
3561 Clouds 17 1020 63 10000 2.6 340 08:22 08.05.2020
3562 Clouds 17 1021 63 10000 3.1 320 07:43 08.05.2020
3563 Clouds 16 1021 63 10000 2.6 320 07:25 08.05.2020
3564 Clouds 15 1020 63 10000 2.1 320 06:51 08.05.2020
3565 Clouds 15 1020 63 10000 1.5 0 06:24 08.05.2020
3566 Clouds 16 1020 63 10000 1.5 340 05:52 08.05.2020
3567 Clouds 17 1021 59 10000 2.1 350 04:41 08.05.2020
3568 Clouds 17 1021 55 10000 3.1 330 02:35 08.05.2020
3569 Clouds 17 1021 55 10000 3.6 330 01:56 08.05.2020
3570 Clouds 17 1021 55 10000 3.6 330 01:28 08.05.2020
3571 Clouds 18 1021 55 10000 4.1 340 00:58 08.05.2020
3572 Clouds 18 1021 55 10000 4.1 330 00:39 08.05.2020
3573 Clouds 18 1021 55 10000 4.1 330 00:20 08.05.2020
3574 Clouds 18 1021 63 10000 3.1 320 23:42 07.05.2020
3575 Clouds 18 1021 59 10000 3.1 330 23:23 07.05.2020
3576 Clouds 18 1021 55 10000 2.6 340 22:57 07.05.2020
3577 Clouds 18 1021 55 10000 1 0 22:39 07.05.2020
3578 Clouds 18 1021 55 10000 1 0 22:19 07.05.2020
3579 Clouds 18 1021 59 10000 1.5 270 21:56 07.05.2020
3580 Clouds 18 1020 52 10000 1 270 21:37 07.05.2020
3581 Clouds 19 1020 59 10000 0.44 329 21:19 07.05.2020
3582 Clouds 19 1020 59 10000 0.44 329 20:43 07.05.2020
3583 Clouds 19 1020 63 10000 1 160 20:23 07.05.2020
3584 Clouds 20 1020 45 10000 1 180 19:58 07.05.2020
3585 Clouds 21 1020 56 10000 1 0 19:40 07.05.2020
3586 Clear 21 1020 56 10000 1 0 19:21 07.05.2020
3587 Clear 22 1021 52 10000 1.5 130 18:45 07.05.2020
3588 Clear 21 1021 52 10000 1.5 130 18:27 07.05.2020
3589 Clear 21 1021 52 10000 1.5 110 17:57 07.05.2020
3590 Clear 20 1021 52 10000 1.5 120 17:37 07.05.2020
3591 Clear 20 1021 52 10000 1.5 120 17:18 07.05.2020
3592 Clear 20 1021 52 10000 1.5 120 16:40 07.05.2020
3593 Clear 20 1021 52 10000 2.6 100 16:18 07.05.2020
3594 Clear 21 1021 46 10000 2.1 110 15:56 07.05.2020
3595 Clear 21 1022 56 10000 2.1 90 15:37 07.05.2020
3596 Clear 20 1022 56 10000 2.1 90 15:18 07.05.2020
3597 Clear 20 1022 56 10000 2.1 90 15:18 07.05.2020
3598 Clear 20 1022 52 10000 2.6 110 14:45 07.05.2020
3599 Clear 20 1022 49 10000 3.1 100 14:22 07.05.2020
3600 Clear 20 1022 49 10000 3.1 100 14:22 07.05.2020
3601 Clouds 20 1022 49 10000 3.6 100 13:54 07.05.2020
3602 Clouds 20 1022 52 10000 4.1 90 13:36 07.05.2020
3603 Clouds 20 1022 52 10000 4.1 90 13:18 07.05.2020
3604 Clouds 20 1022 52 10000 5.1 90 12:39 07.05.2020
3605 Clouds 19 1022 56 10000 4.1 90 12:19 07.05.2020
3606 Clouds 19 1022 60 10000 4.6 80 11:39 07.05.2020
3607 Clear 19 1021 56 10000 5.1 80 11:21 07.05.2020
3608 Clear 19 1021 60 10000 4.6 80 10:55 07.05.2020
3609 Clear 19 1021 64 10000 5.1 80 10:37 07.05.2020
3610 Clear 19 1021 64 10000 5.1 80 10:18 07.05.2020
3611 Clear 19 1020 72 10000 3.6 100 09:39 07.05.2020
3612 Clear 19 1020 72 10000 3.6 100 09:19 07.05.2020
3613 Clear 19 1020 68 10000 1.5 350 08:46 07.05.2020
3614 Clear 18 1020 68 10000 3.1 330 08:24 07.05.2020
3615 Clear 17 1020 72 10000 3.1 340 07:59 07.05.2020
3616 Clear 16 1019 77 10000 3.1 340 07:41 07.05.2020
3617 Clear 16 1019 77 10000 3.1 340 07:20 07.05.2020
3618 Clear 15 1019 82 10000 4.1 330 06:38 07.05.2020
3619 Clear 15 1019 82 10000 4.1 330 06:19 07.05.2020
3620 Clear 16 1018 82 10000 2.1 30 04:41 07.05.2020
3621 Clear 16 1018 82 10000 3.1 50 03:47 07.05.2020
3622 Clouds 16 1018 88 10000 1.5 10 03:20 07.05.2020
3623 Clouds 18 1017 88 10000 1.5 70 02:36 07.05.2020
3624 Clouds 18 1016 82 10000 1.5 0 01:40 07.05.2020
3625 Rain 18 1016 82 10000 1.5 0 01:22 07.05.2020
3626 Clouds 18 1016 82 10000 1 0 00:44 07.05.2020
3627 Clouds 18 1016 88 10000 3.1 280 00:25 07.05.2020
3628 Clouds 18 1016 88 10000 1 0 23:45 06.05.2020
3629 Rain 18 1016 88 10000 1.5 90 23:24 06.05.2020
3630 Rain 18 1016 88 10000 2.43 14 22:57 06.05.2020
3631 Clouds 18 1015 88 10000 0.5 230 22:38 06.05.2020
3632 Clouds 18 1015 88 10000 0.5 230 22:38 06.05.2020
3633 Clouds 18 1015 88 10000 0.5 230 22:19 06.05.2020
3634 Clouds 18 1015 88 10000 1.5 230 21:56 06.05.2020
3635 Clouds 18 1014 88 10000 1 200 21:37 06.05.2020
3636 Clouds 18 1014 88 10000 1 200 21:18 06.05.2020
3637 Clouds 18 1014 88 10000 0.5 170 20:42 06.05.2020
3638 Clear 18 1014 88 10000 1.5 160 20:22 06.05.2020
3639 Clear 18 1014 88 10000 1.5 160 20:22 06.05.2020
3640 Clear 19 1013 82 10000 1.5 0 19:57 06.05.2020
3641 Clear 19 1013 82 10000 1.5 0 19:38 06.05.2020
3642 Clear 19 1013 82 10000 1.5 0 19:19 06.05.2020
3643 Clear 19 1013 82 10000 1 0 18:58 06.05.2020
3644 Clear 19 1014 82 10000 1.5 100 18:39 06.05.2020
3645 Clear 18 1014 82 10000 1.5 100 18:21 06.05.2020
3646 Clear 19 1013 77 10000 2.6 120 17:58 06.05.2020
3647 Clear 19 1013 77 10000 2.6 120 17:39 06.05.2020
3648 Clear 19 1013 77 10000 2.6 120 17:21 06.05.2020
3649 Clear 19 1013 77 10000 3.6 110 16:58 06.05.2020
3650 Clear 19 1014 77 10000 3.6 100 16:40 06.05.2020
3651 Clear 19 1014 77 10000 3.6 100 16:21 06.05.2020
3652 Clear 19 1014 77 10000 3.6 110 15:58 06.05.2020
3653 Clear 19 1014 77 10000 4.1 110 15:40 06.05.2020
3654 Clear 19 1014 77 10000 4.1 110 15:20 06.05.2020
3655 Clear 18 1014 72 10000 4.1 120 14:42 06.05.2020
3656 Clear 18 1014 72 10000 4.1 120 14:42 06.05.2020
3657 Clear 18 1014 72 10000 4.1 120 14:19 06.05.2020
3658 Clear 18 1014 77 10000 4.1 110 13:59 06.05.2020
3659 Clear 18 1013 77 10000 4.1 120 13:40 06.05.2020
3660 Clear 19 1013 77 10000 4.1 120 13:22 06.05.2020
3661 Clouds 18 1014 82 10000 4.1 130 12:54 06.05.2020
3662 Clouds 18 1014 82 10000 2.6 150 12:36 06.05.2020
3663 Clouds 19 1014 82 10000 2.6 150 12:18 06.05.2020
3664 Clouds 19 1013 77 10000 3.1 130 11:40 06.05.2020
3665 Clouds 19 1013 77 10000 3.1 130 11:21 06.05.2020
3666 Clear 18 1013 82 10000 3.1 130 10:57 06.05.2020
3667 Clouds 18 1013 82 10000 3.1 130 10:37 06.05.2020
3668 Clouds 18 1013 82 10000 3.1 130 10:18 06.05.2020
3669 Clouds 18 1013 88 10000 1 90 09:43 06.05.2020
3670 Clouds 18 1013 88 10000 1 90 09:22 06.05.2020
3671 Clouds 17 1013 88 10000 1.5 90 08:48 06.05.2020
3672 Clouds 16 1013 88 10000 1.5 100 08:23 06.05.2020
3673 Clouds 16 1013 88 10000 1.5 100 08:23 06.05.2020
3674 Clouds 17 1013 88 10000 2.1 110 07:59 06.05.2020
3675 Clouds 16 1013 88 10000 2.1 110 07:39 06.05.2020
3676 Clouds 16 1012 88 10000 2.6 90 07:20 06.05.2020
3677 Clouds 16 1012 93 10000 2.6 70 06:51 06.05.2020
3678 Clouds 16 1012 93 10000 3.6 80 06:22 06.05.2020
3679 Clouds 16 1012 93 10000 3.1 80 05:54 06.05.2020
3680 Clouds 16 1013 88 10000 3.6 80 05:36 06.05.2020
3681 Clouds 16 1013 82 10000 3.1 70 04:38 06.05.2020
3682 Clouds 16 1013 82 10000 4.1 80 03:40 06.05.2020
3683 Clouds 16 1013 88 10000 5.1 80 03:20 06.05.2020
3684 Clouds 17 1013 88 10000 4.1 70 02:30 06.05.2020
3685 Clouds 17 1013 88 10000 4.6 80 01:54 06.05.2020
3686 Clouds 17 1013 88 10000 4.6 80 01:31 06.05.2020
3687 Clouds 17 1014 88 10000 4.1 80 00:53 06.05.2020
3688 Clouds 17 1013 88 10000 4.1 80 00:26 06.05.2020
3689 Clouds 17 1013 88 10000 4.1 70 23:56 05.05.2020
3690 Clouds 17 1013 88 10000 3.1 80 23:37 05.05.2020
3691 Clouds 17 1013 88 10000 3.1 80 23:18 05.05.2020
3692 Clouds 17 1013 88 10000 2.6 60 22:41 05.05.2020
3693 Clouds 17 1013 88 10000 2.6 60 22:20 05.05.2020
3694 Clouds 17 1013 88 10000 2.6 50 21:57 05.05.2020
3695 Clouds 17 1013 88 10000 1.5 70 21:39 05.05.2020
3696 Clouds 16 1013 88 10000 1.5 70 21:20 05.05.2020
3697 Clouds 17 1013 88 10000 1.5 100 20:58 05.05.2020
3698 Clouds 17 1013 88 10000 1.5 90 20:39 05.05.2020
3699 Clouds 17 1013 88 10000 1.5 90 20:18 05.05.2020
3700 Clouds 17 1013 88 10000 2.1 80 19:54 05.05.2020
3701 Clouds 17 1013 88 10000 1.5 140 19:36 05.05.2020
3702 Clouds 17 1013 88 10000 1.5 140 19:18 05.05.2020
3703 Clouds 17 1013 88 10000 2.6 170 18:54 05.05.2020
3704 Clouds 17 1014 88 10000 3.6 180 18:36 05.05.2020
3705 Clouds 17 1014 88 10000 3.6 180 18:18 05.05.2020
3706 Clouds 18 1014 88 10000 4.6 190 17:41 05.05.2020
3707 Clouds 18 1014 88 10000 4.6 190 17:23 05.05.2020
3708 Clouds 19 1014 82 10000 3.6 180 16:57 05.05.2020
3709 Clouds 19 1014 82 10000 3.6 180 16:57 05.05.2020
3710 Clouds 19 1014 82 10000 2.6 170 16:36 05.05.2020
3711 Clouds 19 1014 82 10000 2.6 170 16:18 05.05.2020
3712 Clouds 19 1014 77 10000 3.6 180 15:54 05.05.2020
3713 Clouds 19 1014 77 10000 4.1 180 15:36 05.05.2020
3714 Clouds 19 1014 77 10000 4.1 180 15:36 05.05.2020
3715 Clouds 19 1014 77 10000 4.1 180 15:18 05.05.2020
3716 Clouds 19 1015 82 10000 4.1 180 14:42 05.05.2020
3717 Clouds 20 1015 77 10000 5.1 180 14:24 05.05.2020
3718 Clouds 19 1015 77 10000 3.1 160 13:58 05.05.2020
3719 Clouds 19 1015 77 10000 4.1 180 13:40 05.05.2020
3720 Clouds 18 1015 77 10000 4.1 180 13:21 05.05.2020
3721 Clouds 18 1016 77 10000 3.1 190 12:59 05.05.2020
3722 Clouds 18 1016 72 10000 2.1 170 12:39 05.05.2020
3723 Clouds 18 1016 72 10000 2.1 170 12:20 05.05.2020
3724 Clouds 18 1016 72 10000 2.1 160 11:57 05.05.2020
3725 Clouds 18 1016 72 10000 1.5 0 11:39 05.05.2020
3726 Clouds 18 1016 72 10000 1.5 0 11:18 05.05.2020
3727 Clouds 18 1016 68 10000 1 0 10:39 05.05.2020
3728 Clouds 18 1016 68 10000 1 0 10:20 05.05.2020
3729 Clouds 17 1016 68 10000 1 0 09:59 05.05.2020
3730 Clouds 17 1016 68 10000 1 0 09:59 05.05.2020
3731 Clouds 17 1016 63 10000 2.35 145 09:41 05.05.2020
3732 Clouds 17 1016 63 10000 1 137 09:22 05.05.2020
3733 Clouds 15 1016 67 10000 2.6 330 08:42 05.05.2020
3734 Clouds 15 1016 67 10000 2.6 330 08:21 05.05.2020
3735 Clouds 15 1016 67 10000 2.6 340 07:58 05.05.2020
3736 Clouds 14 1016 67 10000 3.6 320 07:39 05.05.2020
3737 Clouds 13 1016 67 10000 3.6 320 07:19 05.05.2020
3738 Clouds 13 1015 67 10000 2.1 350 06:50 05.05.2020
3739 Clouds 13 1015 67 10000 3.1 320 06:29 05.05.2020
3740 Clouds 13 1015 67 10000 3.1 320 06:28 05.05.2020
3741 Clouds 13 1015 67 10000 3.1 320 06:28 05.05.2020
3742 Clouds 13 1015 67 10000 3.1 320 06:28 05.05.2020
3743 Clouds 13 1015 71 10000 2.6 310 05:43 05.05.2020
3744 Clouds 13 1016 67 10000 3.6 320 03:39 05.05.2020
3745 Clouds 13 1016 67 10000 2.1 320 02:28 05.05.2020
3746 Clear 14 1017 62 10000 2.6 320 00:54 05.05.2020
3747 Clear 14 1017 67 10000 2.6 310 00:23 05.05.2020
3748 Clear 15 1016 67 10000 2.6 320 23:48 04.05.2020
3749 Clear 15 1016 67 10000 2.6 320 23:48 04.05.2020
3750 Clear 15 1016 72 10000 2.1 50 23:25 04.05.2020
3751 Clear 15 1017 77 10000 1 50 22:58 04.05.2020
3752 Clear 15 1017 77 10000 1 100 22:39 04.05.2020
3753 Clear 15 1017 77 10000 1 100 22:21 04.05.2020
3754 Clear 16 1017 77 10000 1.5 80 21:57 04.05.2020
3755 Clear 16 1016 72 10000 1.5 80 21:36 04.05.2020
3756 Clear 16 1016 72 10000 1.5 80 21:18 04.05.2020
3757 Clear 17 1016 72 10000 1.5 90 20:40 04.05.2020
3758 Clear 17 1016 72 10000 1.5 90 20:40 04.05.2020
3759 Clear 17 1016 72 10000 1.5 90 20:40 04.05.2020
3760 Clear 17 1016 72 10000 1.5 90 20:40 04.05.2020
3761 Clear 17 1016 72 10000 1.5 90 20:40 04.05.2020
3762 Clear 17 1017 68 10000 1.5 100 20:19 04.05.2020
3763 Clear 17 1016 63 10000 2.1 110 19:43 04.05.2020
3764 Clear 18 1017 63 10000 2.6 110 19:24 04.05.2020
3765 Clear 18 1017 63 10000 2.1 110 18:59 04.05.2020
3766 Clear 19 1017 63 10000 2.1 110 18:38 04.05.2020
3767 Clear 19 1017 63 10000 2.1 110 18:20 04.05.2020
3768 Clear 19 1017 63 10000 2.1 100 17:56 04.05.2020
3769 Clear 19 1017 59 10000 2.6 110 17:37 04.05.2020
3770 Clear 19 1017 59 10000 2.6 110 17:19 04.05.2020
3771 Clear 19 1018 60 10000 3.6 110 16:44 04.05.2020
3772 Clear 19 1018 60 10000 3.6 110 16:44 04.05.2020
3773 Clear 19 1018 60 10000 3.6 110 16:23 04.05.2020
3774 Clear 19 1018 56 10000 3.6 100 15:58 04.05.2020
3775 Clear 19 1018 56 10000 3.1 100 15:40 04.05.2020
3776 Clear 19 1018 56 10000 3.1 100 15:21 04.05.2020
3777 Clear 19 1018 56 10000 2.1 150 14:49 04.05.2020
3778 Clear 20 1018 60 10000 1.5 150 14:22 04.05.2020
3779 Clear 20 1018 60 10000 1.5 150 14:22 04.05.2020
3780 Clear 20 1018 60 10000 1.5 150 14:22 04.05.2020
3781 Clear 20 1018 60 10000 1.5 150 14:22 04.05.2020
3782 Clear 20 1019 64 10000 2.1 140 13:21 04.05.2020
3783 Clear 20 1019 64 10000 2.1 140 13:21 04.05.2020
3784 Clear 20 1019 64 10000 2.1 130 12:44 04.05.2020
3785 Clear 20 1019 64 10000 2.1 130 12:44 04.05.2020
3786 Clear 20 1019 64 10000 2.1 130 12:44 04.05.2020
3787 Clear 20 1019 64 10000 2.1 130 12:44 04.05.2020
3788 Clear 20 1018 52 10000 2.1 100 11:27 04.05.2020
3789 Clear 20 1018 52 10000 2.1 100 11:27 04.05.2020
3790 Clear 20 1018 52 10000 2.1 100 11:27 04.05.2020
3791 Clear 20 1018 52 10000 2.1 100 11:27 04.05.2020
3792 Clear 20 1018 52 10000 2.1 100 11:27 04.05.2020
3793 Clear 19 1018 56 10000 1 0 09:28 04.05.2020
3794 Clear 19 1018 56 10000 1 0 09:28 04.05.2020
3795 Clouds 17 1017 63 10000 4.1 320 07:54 04.05.2020
3796 Clouds 16 1017 67 10000 3.1 340 07:34 04.05.2020
3797 Clouds 15 1017 67 10000 3.1 330 05:52 04.05.2020
3798 Clouds 15 1016 72 10000 2.6 320 04:52 04.05.2020
3799 Clouds 15 1016 72 10000 2.6 320 04:52 04.05.2020
3800 Clouds 16 1016 88 10000 3.1 80 02:54 04.05.2020
3801 Clouds 18 1015 82 10000 5.7 60 01:39 04.05.2020
3802 Clouds 19 1015 48 10000 3.6 330 00:18 04.05.2020
3803 Clouds 19 1015 48 10000 4.1 330 23:44 03.05.2020
3804 Clouds 19 1015 48 10000 4.1 330 23:23 03.05.2020
3805 Clouds 18 1015 52 10000 3.1 330 22:44 03.05.2020
3806 Clouds 19 1014 49 10000 3.1 330 22:25 03.05.2020
3807 Clouds 19 1014 52 10000 1.5 0 21:56 03.05.2020
3808 Clouds 18 1014 63 10000 1.5 260 21:38 03.05.2020
3809 Clouds 18 1014 63 10000 1.5 260 21:19 03.05.2020
3810 Clouds 18 1014 63 10000 1.5 260 21:19 03.05.2020
3811 Clouds 18 1014 63 10000 1.5 260 21:19 03.05.2020
3812 Clouds 18 1014 63 10000 1.5 260 21:19 03.05.2020
3813 Clouds 19 1013 52 10000 1.5 240 20:42 03.05.2020
3814 Clouds 19 1013 56 10000 1 230 20:42 03.05.2020
3815 Clouds 19 1013 56 10000 1 230 20:42 03.05.2020
3816 Clouds 20 1013 56 10000 1 230 20:20 03.05.2020
3817 Clouds 20 1013 64 10000 0.5 0 19:49 03.05.2020
3818 Clouds 20 1013 68 10000 1.46 211 19:30 03.05.2020
3819 Clouds 21 1013 68 10000 1 120 18:58 03.05.2020
3820 Clouds 22 1013 68 10000 1 0 18:38 03.05.2020
3821 Clouds 22 1013 68 10000 1 0 18:38 03.05.2020
3822 Clouds 22 1013 68 10000 1 0 18:38 03.05.2020
3823 Clouds 22 1013 68 10000 1 0 18:38 03.05.2020
3824 Clouds 22 1013 68 10000 1 0 18:38 03.05.2020
3825 Clouds 21 1013 68 10000 1 0 18:19 03.05.2020
3826 Clouds 21 1013 68 10000 1 0 18:19 03.05.2020
3827 Clouds 21 1013 68 10000 1 0 18:19 03.05.2020
3828 Clouds 21 1013 68 10000 1 0 18:19 03.05.2020
3829 Clouds 20 1013 82 10000 1.5 180 17:41 03.05.2020
3830 Clouds 21 1013 82 10000 1.5 180 17:21 03.05.2020
3831 Clouds 21 1013 82 10000 1.5 150 16:45 03.05.2020
3832 Clouds 20 1013 77 10000 2.1 130 16:21 03.05.2020
3833 Clouds 20 1013 77 10000 2.1 140 15:59 03.05.2020
3834 Clouds 20 1013 77 10000 2.1 120 15:40 03.05.2020
3835 Clouds 20 1013 77 10000 2.1 120 15:20 03.05.2020
3836 Clouds 20 1013 77 10000 2.6 110 14:58 03.05.2020
3837 Clouds 20 1013 82 10000 3.1 110 14:40 03.05.2020
3838 Clouds 20 1013 82 10000 3.1 110 14:21 03.05.2020
3839 Clouds 20 1013 77 10000 2.1 90 13:54 03.05.2020
3840 Clouds 20 1013 77 10000 2.1 90 13:54 03.05.2020
3841 Clouds 20 1013 77 10000 2.6 120 13:21 03.05.2020
3842 Clouds 20 1013 77 10000 2.6 120 13:21 03.05.2020
3843 Clouds 20 1013 77 10000 2.6 120 13:21 03.05.2020
3844 Clouds 20 1013 77 10000 2.6 120 13:21 03.05.2020
3845 Clouds 20 1013 77 10000 2.6 120 13:21 03.05.2020
3846 Clouds 20 1013 72 10000 2.6 130 12:44 03.05.2020
3847 Clouds 19 1013 68 10000 2.1 110 12:18 03.05.2020
3848 Clouds 20 1013 72 10000 2.1 100 11:56 03.05.2020
3849 Clouds 19 1012 77 10000 2.6 80 11:37 03.05.2020
3850 Clouds 19 1012 77 10000 2.6 80 11:19 03.05.2020
3851 Clouds 19 1012 77 10000 2.6 80 11:19 03.05.2020
3852 Clouds 19 1012 77 10000 2.6 190 10:46 03.05.2020
3853 Clouds 19 1012 77 10000 2.6 190 10:46 03.05.2020
3854 Clouds 19 1012 77 10000 2.6 190 10:46 03.05.2020
3855 Clouds 19 1012 77 10000 2.6 190 10:46 03.05.2020
3856 Clouds 19 1012 63 10000 1 0 09:58 03.05.2020
3857 Clouds 20 1011 59 10000 2.1 0 09:37 03.05.2020
3858 Clouds 20 1011 59 10000 2.1 0 09:37 03.05.2020
3859 Clouds 18 1011 67 10000 2.1 340 08:56 03.05.2020
3860 Clouds 18 1011 67 10000 2.1 340 08:56 03.05.2020
3861 Clouds 17 1011 67 10000 2.6 330 08:26 03.05.2020
3862 Clouds 16 1011 67 10000 2.6 330 07:40 03.05.2020
3863 Clouds 14 1010 82 10000 2.6 350 06:21 03.05.2020
3864 Clouds 14 1010 82 10000 2.1 320 05:49 03.05.2020
3865 Clouds 14 1010 82 10000 2.1 320 05:49 03.05.2020
3866 Clouds 15 1010 77 10000 2.6 310 05:28 03.05.2020
3867 Clouds 15 1010 77 10000 2.6 310 05:28 03.05.2020
3868 Clouds 15 1010 77 10000 2.6 310 05:28 03.05.2020
3869 Clouds 15 1010 93 10000 1.5 0 04:27 03.05.2020
3870 Clear 15 1009 87 10000 2.6 70 03:25 03.05.2020
3871 Clear 15 1009 87 10000 2.6 70 03:25 03.05.2020
3872 Clouds 16 1009 82 10000 3.1 50 02:25 03.05.2020
3873 Clouds 16 1009 87 10000 5.7 80 01:46 03.05.2020
3874 Clouds 17 1009 82 10000 6.2 80 01:27 03.05.2020
3875 Clouds 17 1008 82 10000 7.7 90 00:56 03.05.2020
3876 Clouds 17 1008 72 10000 2.6 0 00:38 03.05.2020
3877 Clouds 18 1008 72 10000 2.6 0 00:19 03.05.2020
3878 Clouds 19 1008 56 10000 8.2 240 23:44 02.05.2020
3879 Clouds 20 1008 52 10000 6.7 250 23:25 02.05.2020
3880 Clouds 20 1008 49 10000 7.2 260 22:44 02.05.2020
3881 Clouds 20 1008 46 10000 9.3 250 22:24 02.05.2020
3882 Clouds 20 1008 49 10000 8.7 240 21:58 02.05.2020
3883 Clouds 20 1008 40 10000 8.7 250 21:40 02.05.2020
3884 Clouds 21 1008 40 10000 8.7 250 21:19 02.05.2020
3885 Clouds 22 1008 38 10000 8.7 260 20:57 02.05.2020
3886 Clouds 21 1008 38 10000 7.2 260 20:37 02.05.2020
3887 Clouds 20 1008 38 10000 7.2 260 20:19 02.05.2020
3888 Clouds 20 1007 56 10000 4.6 0 19:57 02.05.2020
3889 Clouds 19 1007 72 10000 4.1 90 19:39 02.05.2020
3890 Clouds 19 1007 72 10000 4.1 90 19:19 02.05.2020
3891 Clouds 21 1007 77 10000 3.1 100 18:56 02.05.2020
3892 Clouds 20 1007 77 10000 2.1 0 18:37 02.05.2020
3893 Clouds 21 1007 77 10000 2.1 0 18:19 02.05.2020
3894 Clouds 21 1008 77 10000 3.1 100 17:55 02.05.2020
3895 Clouds 20 1008 77 10000 4.6 80 17:37 02.05.2020
3896 Clouds 22 1008 77 10000 4.6 80 17:19 02.05.2020
3897 Clouds 22 1008 82 10000 5.7 90 16:43 02.05.2020
3898 Clouds 22 1007 77 10000 5.7 100 16:43 02.05.2020
3899 Clouds 19 1008 82 10000 5.7 90 16:25 02.05.2020
3900 Clouds 22 1008 82 10000 6.2 90 15:55 02.05.2020
3901 Clouds 22 1008 82 10000 5.7 90 15:36 02.05.2020
3902 Clouds 19 1008 82 10000 5.7 90 15:18 02.05.2020
3903 Clouds 20 1009 82 10000 7.2 90 14:41 02.05.2020
3904 Clouds 22 1009 82 10000 7.7 100 14:23 02.05.2020
3905 Clouds 21 1009 82 10000 6.7 90 13:57 02.05.2020
3906 Clouds 22 1008 82 10000 7.2 90 13:37 02.05.2020
3907 Clouds 20 1008 82 10000 7.2 90 13:18 02.05.2020
3908 Clouds 19 1009 82 10000 7.2 100 12:40 02.05.2020
3909 Clouds 18 1009 82 10000 7.2 100 12:20 02.05.2020
3910 Clouds 18 1009 82 10000 6.2 90 11:57 02.05.2020
3911 Clouds 19 1009 82 10000 6.7 80 11:38 02.05.2020
3912 Clouds 18 1009 82 10000 6.7 80 11:20 02.05.2020
3913 Clouds 19 1008 49 10000 5.1 260 10:40 02.05.2020
3914 Clouds 19 1008 49 10000 5.1 260 10:40 02.05.2020
3915 Clouds 19 1008 49 10000 5.1 260 10:22 02.05.2020
3916 Clouds 19 1008 52 10000 7.2 250 09:59 02.05.2020
3917 Clouds 20 1008 52 10000 7.2 250 09:40 02.05.2020
3918 Clouds 19 1008 55 10000 6.7 240 09:21 02.05.2020
3919 Clouds 19 1007 55 10000 6.2 250 08:55 02.05.2020
3920 Clouds 19 1008 43 10000 5.7 300 08:37 02.05.2020
3921 Clouds 19 1008 43 10000 5.7 300 08:37 02.05.2020
3922 Clouds 19 1008 43 10000 5.7 300 08:19 02.05.2020
3923 Clouds 18 1007 55 10000 6.2 260 07:42 02.05.2020
3924 Clouds 17 1007 63 10000 10.3 240 07:23 02.05.2020
3925 Clouds 17 1007 63 10000 8.2 240 06:43 02.05.2020
3926 Clouds 17 1006 59 10000 8.2 230 05:28 02.05.2020
3927 Clouds 17 1006 59 10000 9.8 230 04:30 02.05.2020
3928 Clouds 17 1006 63 10000 10.8 230 03:50 02.05.2020
3929 Clouds 17 1007 68 10000 7.2 230 02:42 02.05.2020
3930 Clouds 17 1007 68 10000 6.7 230 01:58 02.05.2020
3931 Clouds 17 1007 68 10000 6.7 220 01:27 02.05.2020
3932 Clouds 17 1007 63 10000 6.7 220 00:43 02.05.2020
3933 Clouds 17 1007 63 10000 6.7 220 00:22 02.05.2020
3934 Clouds 17 1007 72 10000 7.7 230 23:55 01.05.2020
3935 Clouds 18 1007 68 10000 7.7 220 23:37 01.05.2020
3936 Clouds 18 1007 68 10000 7.7 220 23:18 01.05.2020
3937 Clouds 19 1006 60 10000 9.3 240 22:39 01.05.2020
3938 Clouds 19 1006 60 10000 9.3 240 22:21 01.05.2020
3939 Clouds 19 1006 68 10000 7.7 230 21:58 01.05.2020
3940 Clouds 19 1006 68 10000 7.2 230 21:39 01.05.2020
3941 Clouds 18 1006 68 10000 7.2 230 21:20 01.05.2020
3942 Clouds 19 1006 60 10000 9.3 230 20:58 01.05.2020
3943 Clouds 19 1006 60 10000 9.3 230 20:58 01.05.2020
3944 Clouds 19 1006 60 10000 9.3 230 20:40 01.05.2020
3945 Clouds 19 1006 60 10000 8.7 240 20:20 01.05.2020
3946 Clouds 19 1006 60 10000 8.7 240 20:20 01.05.2020
3947 Clouds 20 1006 60 10000 8.7 240 19:58 01.05.2020
3948 Clouds 20 1006 60 10000 8.7 240 19:40 01.05.2020
3949 Clouds 20 1006 60 10000 8.2 240 19:20 01.05.2020
3950 Clouds 20 1006 56 10000 9.3 240 18:56 01.05.2020
3951 Clouds 20 1006 52 10000 9.3 230 18:37 01.05.2020
3952 Clouds 20 1006 52 10000 9.3 230 18:19 01.05.2020
3953 Clouds 21 1007 52 10000 12.9 260 17:41 01.05.2020
3954 Clouds 21 1007 52 10000 12.9 260 17:22 01.05.2020
3955 Clouds 22 1006 46 10000 12.3 260 16:58 01.05.2020
3956 Clouds 22 1006 46 10000 12.3 260 16:40 01.05.2020
3957 Clouds 22 1006 46 10000 10.3 250 16:20 01.05.2020
3958 Clouds 22 1006 46 10000 10.3 250 16:20 01.05.2020
3959 Clouds 23 1006 40 10000 10.3 250 15:57 01.05.2020
3960 Clouds 23 1006 46 10000 9.8 250 15:39 01.05.2020
3961 Clouds 23 1006 46 10000 9.8 250 15:19 01.05.2020
3962 Clouds 23 1006 46 10000 8.2 230 14:44 01.05.2020
3963 Clouds 24 1007 41 10000 7.2 260 14:25 01.05.2020
3964 Clouds 22 1007 46 10000 5.1 240 13:57 01.05.2020
3965 Clouds 22 1008 46 10000 5.7 240 13:38 01.05.2020
3966 Clouds 22 1008 46 10000 5.7 240 13:38 01.05.2020
3967 Clouds 22 1008 46 10000 5.7 240 13:20 01.05.2020
3968 Clouds 21 1008 49 10000 10.3 260 12:55 01.05.2020
3969 Clouds 21 1008 46 10000 9.3 240 12:37 01.05.2020
3970 Clouds 21 1008 46 10000 9.3 240 12:18 01.05.2020
3971 Clouds 21 1008 46 10000 9.3 240 12:18 01.05.2020
3972 Clouds 20 1008 59 10000 7.7 210 11:42 01.05.2020
3973 Clouds 19 1008 59 10000 7.7 210 11:23 01.05.2020
3974 Clouds 18 1009 63 10000 6.7 210 10:58 01.05.2020
3975 Clouds 19 1009 52 10000 6.7 240 10:39 01.05.2020
3976 Clouds 18 1009 52 10000 6.7 240 10:20 01.05.2020
3977 Clouds 18 1009 55 10000 7.2 220 09:44 01.05.2020
3978 Clouds 18 1009 55 10000 7.2 220 09:44 01.05.2020
3979 Clouds 17 1009 59 10000 4.1 240 09:20 01.05.2020
3980 Clouds 17 1010 59 10000 3.6 0 08:59 01.05.2020
3981 Clouds 17 1009 55 10000 2.6 200 08:41 01.05.2020
3982 Clouds 16 1009 55 10000 2.6 200 08:22 01.05.2020
3983 Clouds 15 1009 67 10000 2.6 280 07:46 01.05.2020
3984 Clouds 15 1008 63 10000 3.1 280 07:23 01.05.2020
3985 Clouds 15 1008 62 10000 2.6 270 06:51 01.05.2020
3986 Clouds 14 1008 62 10000 4.1 310 05:36 01.05.2020
3987 Clouds 15 1008 63 10000 2.6 280 04:49 01.05.2020
3988 Clouds 14 1008 71 10000 4.1 320 03:31 01.05.2020
3989 Clouds 14 1008 71 10000 5.1 330 02:45 01.05.2020
3990 Clear 14 1008 71 10000 5.1 330 02:25 01.05.2020
3991 Clear 13 1008 87 10000 4.6 320 01:36 01.05.2020
3992 Clear 12 1008 87 10000 4.6 320 01:18 01.05.2020
3993 Clear 14 1008 82 10000 3.6 330 00:38 01.05.2020
3994 Clear 14 1008 82 10000 3.6 330 00:20 01.05.2020
3995 Clear 13 1008 87 10000 3.1 330 23:56 30.04.2020
3996 Clear 14 1008 82 10000 3.1 320 23:38 30.04.2020
3997 Clear 14 1008 82 10000 3.1 320 23:19 30.04.2020
3998 Clear 15 1007 82 10000 2.1 340 22:41 30.04.2020
3999 Clear 15 1007 82 10000 2.1 340 22:21 30.04.2020
4000 Clear 15 1007 77 10000 6.7 250 21:58 30.04.2020
4001 Clear 15 1007 88 10000 5.1 220 21:39 30.04.2020
4002 Clear 16 1007 88 10000 5.1 220 21:20 30.04.2020
4003 Clear 16 1007 88 10000 4.6 210 20:55 30.04.2020
4004 Clear 16 1007 88 10000 2.6 230 20:37 30.04.2020
4005 Clouds 16 1007 88 10000 2.6 230 20:18 30.04.2020
4006 Clouds 16 1008 88 10000 3.6 230 19:45 30.04.2020
4007 Clouds 16 1008 93 10000 1.5 0 19:25 30.04.2020
4008 Rain 16 1008 88 10000 1.5 180 18:57 30.04.2020
4009 Rain 16 1008 88 10000 3.1 140 18:39 30.04.2020
4010 Rain 16 1008 88 10000 3.1 140 18:20 30.04.2020
4011 Rain 16 1008 82 10000 2.1 120 17:57 30.04.2020
4012 Clouds 17 1008 88 10000 3.6 130 17:39 30.04.2020
4013 Clouds 17 1008 88 10000 3.6 130 17:20 30.04.2020
4014 Clouds 17 1009 82 10000 3.1 110 16:56 30.04.2020
4015 Clouds 17 1009 77 10000 3.1 130 16:38 30.04.2020
4016 Clouds 17 1009 77 10000 3.1 130 16:18 30.04.2020
4017 Clouds 17 1010 77 10000 2.6 130 15:44 30.04.2020
4018 Clouds 17 1010 77 10000 1.5 120 15:23 30.04.2020
4019 Clouds 17 1010 77 10000 2.1 100 14:54 30.04.2020
4020 Clouds 17 1010 68 10000 1 0 14:36 30.04.2020
4021 Clouds 17 1010 68 10000 1 0 14:18 30.04.2020
4022 Clouds 17 1011 82 10000 2.6 200 13:54 30.04.2020
4023 Clouds 16 1011 77 10000 3.6 140 13:36 30.04.2020
4024 Clouds 16 1011 77 10000 3.6 140 13:18 30.04.2020
4025 Clouds 16 1011 77 10000 2.6 90 12:41 30.04.2020
4026 Clouds 16 1011 77 10000 2.6 90 12:19 30.04.2020
4027 Clouds 16 1011 77 10000 2.6 150 11:54 30.04.2020
4028 Clouds 16 1011 82 10000 2.1 140 11:36 30.04.2020
4029 Clouds 16 1011 82 10000 2.1 140 11:18 30.04.2020
4030 Clouds 16 1011 77 10000 3.1 120 10:40 30.04.2020
4031 Clouds 16 1011 77 10000 3.1 120 10:21 30.04.2020
4032 Clouds 16 1011 77 10000 2.1 120 09:57 30.04.2020
4033 Clouds 17 1011 68 10000 1 0 09:39 30.04.2020
4034 Clouds 17 1011 68 10000 1 0 09:20 30.04.2020
4035 Clouds 16 1010 72 10000 2.6 340 08:46 30.04.2020
4036 Clouds 15 1010 77 10000 1.5 320 08:26 30.04.2020
4037 Clouds 15 1010 82 10000 1.5 330 07:45 30.04.2020
4038 Clouds 13 1010 87 10000 2.1 330 07:26 30.04.2020
4039 Clouds 13 1010 87 10000 2.1 320 06:55 30.04.2020
4040 Clouds 13 1010 87 10000 2.1 330 06:32 30.04.2020
4041 Clouds 14 1010 82 10000 1.5 340 05:47 30.04.2020
4042 Clouds 14 1011 87 10000 2.6 300 04:43 30.04.2020
4043 Clouds 14 1010 87 10000 2.1 310 04:23 30.04.2020
4044 Clouds 14 1011 87 10000 1.5 290 02:50 30.04.2020
4045 Clouds 14 1011 87 10000 2.1 290 02:28 30.04.2020
4046 Clouds 14 1011 87 10000 1 0 01:37 30.04.2020
4047 Clouds 14 1011 82 10000 2.1 70 00:53 30.04.2020
4048 Clouds 14 1011 82 10000 2.1 70 00:53 30.04.2020
4049 Clouds 14 1010 93 10000 3.6 70 00:24 30.04.2020
4050 Clouds 15 1010 87 10000 4.6 80 23:59 29.04.2020
4051 Clouds 15 1010 87 10000 3.6 70 23:41 29.04.2020
4052 Clouds 15 1010 87 10000 3.6 70 23:22 29.04.2020
4053 Clouds 15 1010 87 10000 5.7 70 22:58 29.04.2020
4054 Clouds 15 1010 87 10000 4.6 80 22:39 29.04.2020
4055 Clouds 15 1010 87 10000 4.6 80 22:19 29.04.2020
4056 Clouds 16 1009 82 10000 6.2 80 21:38 29.04.2020
4057 Clouds 16 1009 82 10000 6.2 80 21:20 29.04.2020
4058 Clouds 16 1008 82 10000 7.2 90 20:58 29.04.2020
4059 Clouds 16 1008 82 10000 6.7 100 20:39 29.04.2020
4060 Clouds 17 1008 82 10000 6.7 100 20:19 29.04.2020
4061 Clouds 18 1007 88 10000 7.2 90 19:54 29.04.2020
4062 Clouds 18 1007 77 10000 6.2 90 19:36 29.04.2020
4063 Clouds 18 1007 77 10000 6.2 90 19:18 29.04.2020
4064 Clouds 18 1007 77 10000 7.2 90 18:41 29.04.2020
4065 Clouds 18 1007 77 10000 6.7 100 18:20 29.04.2020
4066 Clouds 18 1007 82 10000 6.2 80 17:55 29.04.2020
4067 Clouds 18 1007 82 10000 7.2 80 17:37 29.04.2020
4068 Clouds 19 1007 82 10000 7.2 80 17:18 29.04.2020
4069 Clouds 19 1007 82 10000 7.2 80 17:18 29.04.2020
4070 Clouds 18 1007 77 10000 7.2 90 16:37 29.04.2020
4071 Clouds 18 1007 77 10000 7.2 90 16:19 29.04.2020
4072 Clouds 18 1007 77 10000 6.7 90 15:57 29.04.2020
4073 Clouds 19 1008 72 10000 4.6 90 15:38 29.04.2020
4074 Clouds 19 1008 72 10000 4.6 90 15:20 29.04.2020
4075 Clouds 18 1008 72 10000 4.6 80 14:46 29.04.2020
4076 Clouds 18 1008 72 10000 5.7 90 14:27 29.04.2020
4077 Clouds 17 1008 77 10000 5.1 70 13:59 29.04.2020
4078 Clouds 17 1008 77 10000 5.1 70 13:59 29.04.2020
4079 Clouds 17 1008 77 10000 6.2 80 13:40 29.04.2020
4080 Clouds 17 1008 77 10000 6.2 80 13:20 29.04.2020
4081 Clouds 17 1008 77 10000 6.7 90 12:57 29.04.2020
4082 Clouds 17 1008 77 10000 6.2 100 12:38 29.04.2020
4083 Clear 17 1008 77 10000 6.2 100 12:18 29.04.2020
4084 Clear 17 1008 77 10000 6.2 100 12:18 29.04.2020
4085 Clear 17 1008 82 10000 5.7 90 11:40 29.04.2020
4086 Clear 16 1008 82 10000 5.7 90 11:20 29.04.2020
4087 Clear 17 1008 77 10000 5.7 90 10:57 29.04.2020
4088 Clear 17 1007 67 10000 5.1 90 10:37 29.04.2020
4089 Clear 17 1007 67 10000 5.1 90 10:19 29.04.2020
4090 Clear 16 1007 63 10000 2.6 270 09:42 29.04.2020
4091 Clear 16 1007 63 10000 2.6 270 09:23 29.04.2020
4092 Clear 16 1007 62 10000 3.1 300 08:56 29.04.2020
4093 Clear 16 1007 62 10000 3.1 300 08:56 29.04.2020
4094 Clear 15 1007 62 10000 4.1 280 08:37 29.04.2020
4095 Clear 15 1007 62 10000 4.1 280 08:19 29.04.2020
4096 Clear 13 1007 76 10000 3.6 310 07:41 29.04.2020
4097 Clear 13 1007 76 10000 3.6 310 07:23 29.04.2020
4098 Clear 13 1007 87 10000 4.1 310 06:50 29.04.2020
4099 Clear 13 1007 82 10000 2.6 300 06:30 29.04.2020
4100 Clear 13 1007 82 10000 2.6 300 06:30 29.04.2020
4101 Clear 12 1007 82 10000 3.1 320 05:21 29.04.2020
4102 Rain 13 1007 87 10000 3.1 300 04:39 29.04.2020
4103 Rain 13 1007 87 10000 3.1 300 04:18 29.04.2020
4104 Clear 14 1008 87 10000 3.1 320 02:42 29.04.2020
4105 Clear 14 1008 77 10000 3.1 360 01:44 29.04.2020
4106 Clear 14 1008 87 10000 3.1 330 01:23 29.04.2020
4107 Clear 14 1008 87 10000 3.1 330 00:41 29.04.2020
4108 Clear 14 1008 87 10000 1 0 00:19 29.04.2020
4109 Clouds 14 1008 93 10000 1 0 23:51 28.04.2020
4110 Clear 14 1008 87 10000 2.6 260 23:24 28.04.2020
4111 Clouds 15 1008 93 10000 2.1 310 22:58 28.04.2020
4112 Clouds 15 1008 87 10000 1 0 22:37 28.04.2020
4113 Clouds 15 1008 87 10000 1 0 22:37 28.04.2020
4114 Clouds 15 1008 87 10000 1 0 22:18 28.04.2020
4115 Clouds 15 1008 87 10000 2.1 40 21:57 28.04.2020
4116 Clear 15 1008 93 10000 2.1 60 21:38 28.04.2020
4117 Clouds 15 1008 93 10000 2.1 60 21:20 28.04.2020
4118 Rain 15 1008 88 10000 2.1 20 20:55 28.04.2020
4119 Rain 15 1008 88 10000 2.1 170 20:37 28.04.2020
4120 Rain 15 1008 88 10000 2.1 170 20:19 28.04.2020
4121 Clouds 16 1008 88 10000 2.6 180 19:43 28.04.2020
4122 Clouds 16 1008 82 10000 2.6 180 19:22 28.04.2020
4123 Clouds 16 1008 82 10000 2.1 160 18:59 28.04.2020
4124 Clouds 16 1008 82 10000 1.5 150 18:41 28.04.2020
4125 Clouds 16 1008 82 10000 1.5 150 18:20 28.04.2020
4126 Clouds 16 1008 82 10000 1.5 130 17:58 28.04.2020
4127 Clouds 16 1008 82 10000 2.1 140 17:37 28.04.2020
4128 Clouds 16 1008 82 10000 2.1 140 17:18 28.04.2020
4129 Clouds 17 1008 88 10000 3.6 120 16:45 28.04.2020
4130 Clouds 16 1008 88 10000 3.6 100 16:24 28.04.2020
4131 -273 0 0 0 0 0 15:59 28.04.2020
4132 Clouds 16 1008 82 10000 1.5 110 15:40 28.04.2020
4133 Clouds 17 1008 82 10000 1.5 110 15:21 28.04.2020
4134 Clouds 17 1008 82 10000 1.5 110 15:21 28.04.2020
4135 Clouds 16 1008 82 10000 1.5 0 14:59 28.04.2020
4136 Clouds 16 1009 87 10000 2.1 170 14:41 28.04.2020
4137 Clouds 17 1009 87 10000 2.1 170 14:21 28.04.2020
4138 Clouds 17 1009 87 10000 1.5 0 13:58 28.04.2020
4139 Rain 16 1009 87 10000 2.6 20 13:39 28.04.2020
4140 Rain 16 1009 87 10000 2.6 20 13:21 28.04.2020
4141 Rain 15 1009 87 10000 4.1 80 12:57 28.04.2020
4142 Rain 15 1009 93 3800 1 0 12:37 28.04.2020
4143 Rain 14 1009 93 3800 1 0 12:19 28.04.2020
4144 Rain 14 1009 93 4100 5.1 340 11:40 28.04.2020
4145 Mist 14 1009 93 4100 5.1 340 11:20 28.04.2020
4146 Rain 14 1009 93 8000 2.1 30 10:55 28.04.2020
4147 Rain 14 1009 93 3800 4.6 20 10:37 28.04.2020
4148 Rain 14 1009 93 3800 4.6 20 10:18 28.04.2020
4149 Thunderstorm 14 1009 93 10000 4.1 30 09:42 28.04.2020
4150 Rain 14 1009 93 10000 3.1 10 09:24 28.04.2020
4151 Rain 14 1010 93 10000 3.1 320 08:49 28.04.2020
4152 Rain 14 1010 93 3700 3.1 360 08:30 28.04.2020
4153 Rain 14 1010 93 6000 3.6 70 07:58 28.04.2020
4154 Rain 14 1010 87 8000 2.6 50 07:39 28.04.2020
4155 Rain 15 1010 87 8000 2.6 50 07:18 28.04.2020
4156 Rain 15 1010 93 10000 4.1 50 06:31 28.04.2020
4157 Rain 14 1010 93 5000 2.1 90 05:47 28.04.2020
4158 Rain 14 1010 87 6000 1 0 05:29 28.04.2020
4159 Clouds 14 1011 82 10000 2.1 340 04:33 28.04.2020
4160 Clouds 15 1012 82 10000 2.6 320 02:38 28.04.2020
4161 Clouds 15 1012 87 10000 1.5 160 01:27 28.04.2020
4162 Clouds 15 1012 87 10000 1 140 00:59 28.04.2020
4163 Clouds 15 1012 87 10000 0.38 102 00:29 28.04.2020
4164 Clouds 15 1013 87 10000 1 170 23:56 27.04.2020
4165 Clouds 15 1013 87 10000 2.1 180 23:38 27.04.2020
4166 Clouds 15 1013 87 10000 2.1 180 23:19 27.04.2020
4167 Clouds 15 1013 77 10000 0.5 0 22:42 27.04.2020
4168 Clouds 15 1013 77 10000 0.5 0 22:23 27.04.2020
4169 Clouds 15 1013 82 10000 1 210 21:57 27.04.2020
4170 Clouds 15 1013 87 10000 1.5 200 21:39 27.04.2020
4171 Clouds 16 1012 87 10000 1 180 21:19 27.04.2020
4172 Clouds 16 1012 87 10000 1 180 20:56 27.04.2020
4173 Clouds 16 1012 82 10000 0.5 180 20:38 27.04.2020
4174 Clouds 16 1012 82 10000 0.5 180 20:19 27.04.2020
4175 Clouds 16 1012 82 10000 1.5 160 19:55 27.04.2020
4176 Clouds 16 1012 82 10000 2.1 170 19:36 27.04.2020
4177 Clouds 16 1012 82 10000 2.1 170 19:18 27.04.2020
4178 Clouds 17 1012 77 10000 2.6 160 18:40 27.04.2020
4179 Clouds 17 1012 77 10000 2.6 160 18:20 27.04.2020
4180 Clouds 17 1012 77 10000 3.1 170 17:59 27.04.2020
4181 Clouds 17 1012 77 10000 2.6 150 17:40 27.04.2020
4182 Clouds 17 1012 77 10000 2.6 150 17:19 27.04.2020
4183 Clouds 17 1013 77 10000 3.1 160 16:41 27.04.2020
4184 Clouds 17 1013 77 10000 3.1 160 16:22 27.04.2020
4185 Clouds 18 1013 72 10000 3.6 170 15:58 27.04.2020
4186 Clouds 18 1013 72 10000 3.6 170 15:40 27.04.2020
4187 Clouds 17 1013 77 10000 3.6 170 15:20 27.04.2020
4188 Clouds 17 1013 77 10000 3.1 170 14:58 27.04.2020
4189 Clouds 18 1013 77 10000 3.1 170 14:40 27.04.2020
4190 Clouds 18 1013 77 10000 3.1 160 14:19 27.04.2020
4191 Rain 18 1013 77 10000 3.1 160 13:57 27.04.2020
4192 Clouds 16 1013 72 10000 3.1 160 13:37 27.04.2020
4193 Clouds 16 1013 72 10000 3.1 160 13:18 27.04.2020
4194 Clouds 17 1013 72 10000 2.6 150 12:43 27.04.2020
4195 Clouds 17 1013 72 10000 2.6 140 12:22 27.04.2020
4196 Clouds 16 1013 72 10000 3.1 160 11:55 27.04.2020
4197 Clouds 16 1013 77 10000 2.6 180 11:37 27.04.2020
4198 Clouds 16 1013 77 10000 2.6 180 11:18 27.04.2020
4199 Clouds 15 1013 77 10000 1.5 170 10:42 27.04.2020
4200 Clouds 15 1013 77 10000 1.5 180 10:24 27.04.2020
4201 Clouds 15 1013 77 10000 1.5 180 10:24 27.04.2020
4202 Clouds 15 1013 72 10000 0.5 0 09:58 27.04.2020
4203 Clouds 16 1012 67 10000 1 0 09:39 27.04.2020
4204 Clouds 16 1012 67 10000 1 0 09:18 27.04.2020
4205 Clouds 15 1012 77 10000 1.5 310 08:48 27.04.2020
4206 Clouds 13 1012 82 10000 1.5 320 08:30 27.04.2020
4207 Clouds 13 1012 87 10000 2.1 330 07:45 27.04.2020
4208 Clouds 12 1012 93 10000 2.1 310 07:25 27.04.2020
4209 Clouds 12 1012 87 10000 1.5 320 06:58 27.04.2020
4210 Clouds 12 1012 93 10000 1 320 06:30 27.04.2020
4211 Clouds 12 1012 87 10000 2.1 280 05:57 27.04.2020
4212 Clouds 12 1012 87 10000 0.5 310 05:19 27.04.2020
4213 Clouds 13 1012 87 10000 1 330 04:39 27.04.2020
4214 Clouds 13 1012 87 10000 1 330 04:39 27.04.2020
4215 Clouds 13 1012 87 10000 2.1 320 03:47 27.04.2020
4216 Clouds 13 1012 87 10000 1.5 340 02:32 27.04.2020
4217 Clouds 14 1013 87 10000 0.5 340 01:20 27.04.2020
4218 Clouds 14 1013 87 10000 1.5 300 00:40 27.04.2020
4219 Clouds 14 1012 87 10000 1.5 270 00:19 27.04.2020
4220 Clouds 14 1012 87 10000 1.5 270 23:55 26.04.2020
4221 Clouds 15 1012 82 10000 2.1 230 23:37 26.04.2020
4222 Clouds 15 1012 82 10000 2.1 230 23:18 26.04.2020
4223 Clouds 15 1012 87 10000 2.1 220 22:54 26.04.2020
4224 Clouds 15 1012 82 10000 1.5 230 22:36 26.04.2020
4225 Clouds 15 1012 82 10000 1.5 230 22:18 26.04.2020
4226 Clouds 15 1011 82 10000 2.6 220 21:54 26.04.2020
4227 Clouds 15 1011 82 10000 1.5 190 21:36 26.04.2020
4228 Clouds 15 1011 82 10000 1.5 190 21:18 26.04.2020
4229 Clouds 15 1011 82 10000 1.8 188 20:39 26.04.2020
4230 Clouds 15 1011 82 10000 1.8 188 20:20 26.04.2020
4231 Clouds 15 1011 82 10000 0.5 0 19:58 26.04.2020
4232 Clouds 15 1011 82 10000 0.5 0 19:58 26.04.2020
4233 Clouds 15 1011 77 10000 1 0 19:38 26.04.2020
4234 Clouds 15 1011 77 10000 1 0 19:19 26.04.2020
4235 Clouds 16 1011 77 10000 1.5 140 18:44 26.04.2020
4236 Clouds 16 1010 77 10000 1.5 140 18:25 26.04.2020
4237 Clouds 16 1010 77 10000 1.5 140 18:25 26.04.2020
4238 Clouds 16 1010 77 10000 2.1 140 17:56 26.04.2020
4239 Clouds 16 1010 77 10000 2.1 130 17:38 26.04.2020
4240 Clouds 16 1010 77 10000 2.1 140 17:18 26.04.2020
4241 Clouds 16 1010 77 10000 2.1 140 16:40 26.04.2020
4242 Clouds 16 1010 77 10000 3.1 160 16:22 26.04.2020
4243 Clouds 16 1011 72 10000 3.1 170 15:59 26.04.2020
4244 Clouds 17 1011 72 10000 3.1 170 15:40 26.04.2020
4245 Clouds 17 1011 72 10000 3.6 150 15:21 26.04.2020
4246 Clouds 17 1011 72 10000 3.1 120 14:57 26.04.2020
4247 Clouds 17 1011 72 10000 3.6 110 14:38 26.04.2020
4248 Clouds 16 1011 72 10000 3.6 110 14:18 26.04.2020
4249 Clouds 17 1011 72 10000 3.6 110 13:55 26.04.2020
4250 Clouds 16 1011 72 10000 3.6 120 13:37 26.04.2020
4251 Clouds 16 1011 72 10000 3.6 120 13:18 26.04.2020
4252 Clouds 16 1011 77 10000 3.6 130 12:40 26.04.2020
4253 Clouds 16 1011 77 10000 3.6 130 12:21 26.04.2020
4254 Clouds 16 1011 72 10000 3.1 110 11:59 26.04.2020
4255 Clouds 17 1011 72 10000 3.1 110 11:40 26.04.2020
4256 Clouds 16 1011 77 10000 2.1 100 11:21 26.04.2020
4257 Clouds 16 1011 77 10000 2.1 100 11:21 26.04.2020
4258 Clouds 16 1011 77 10000 2.1 110 10:56 26.04.2020
4259 Clouds 16 1011 77 10000 2.1 110 10:56 26.04.2020
4260 Clouds 16 1010 77 10000 2.1 90 10:38 26.04.2020
4261 Clouds 16 1010 77 10000 2.1 90 10:20 26.04.2020
4262 Clouds 15 1010 77 10000 2.1 90 09:40 26.04.2020
4263 Clouds 14 1010 82 10000 1.5 60 09:22 26.04.2020
4264 Clouds 14 1010 82 10000 1 70 08:59 26.04.2020
4265 Clouds 14 1010 82 10000 1.5 50 08:40 26.04.2020
4266 Clouds 14 1010 82 10000 1.5 50 08:20 26.04.2020
4267 Clouds 13 1009 82 10000 1.5 20 07:47 26.04.2020
4268 Clouds 13 1009 87 10000 2.1 20 07:21 26.04.2020
4269 Clouds 13 1009 87 10000 2.1 20 06:45 26.04.2020
4270 Clouds 13 1009 93 10000 2.1 60 06:18 26.04.2020
4271 Clouds 13 1009 87 10000 1.5 100 05:45 26.04.2020
4272 Clear 14 1009 87 10000 1.5 90 05:25 26.04.2020
4273 Clouds 14 1010 93 10000 2.6 110 04:24 26.04.2020
4274 Clouds 14 1010 93 10000 3.6 110 03:33 26.04.2020
4275 Clear 14 1010 87 10000 3.1 100 02:33 26.04.2020
4276 Clear 14 1010 87 10000 2.6 90 01:54 26.04.2020
4277 Clear 14 1010 87 10000 2.1 100 01:35 26.04.2020
4278 Clouds 14 1010 87 10000 2.6 80 00:41 26.04.2020
4279 Clouds 14 1010 87 10000 2.1 100 00:20 26.04.2020
4280 Clouds 14 1010 82 10000 1 0 23:55 25.04.2020
4281 Clouds 14 1010 82 10000 1 0 23:36 25.04.2020
4282 Clouds 14 1010 82 10000 1 0 23:18 25.04.2020
4283 Clouds 15 1010 87 10000 2.1 200 22:41 25.04.2020
4284 Clouds 15 1010 87 10000 2.1 200 22:20 25.04.2020
4285 Clouds 15 1010 87 10000 2.6 180 21:58 25.04.2020
4286 Clouds 15 1009 87 10000 2.1 180 21:38 25.04.2020
4287 Clouds 15 1009 87 10000 2.1 180 21:18 25.04.2020
4288 Clouds 15 1009 87 10000 1.5 170 20:43 25.04.2020
4289 Clouds 15 1009 87 10000 1.5 180 20:23 25.04.2020
4290 Clouds 16 1009 87 10000 1.5 170 19:59 25.04.2020
4291 Clouds 16 1009 82 10000 1.5 130 19:39 25.04.2020
4292 Clouds 16 1009 82 10000 1.5 130 19:20 25.04.2020
4293 Rain 16 1009 82 10000 2.6 150 18:56 25.04.2020
4294 Clouds 17 1010 82 10000 2.6 170 18:37 25.04.2020
4295 Clouds 17 1010 82 10000 2.6 170 18:18 25.04.2020
4296 Clouds 17 1010 82 10000 4.1 170 17:55 25.04.2020
4297 Clouds 17 1010 82 10000 4.1 190 17:36 25.04.2020
4298 Clouds 17 1010 82 10000 4.1 190 17:18 25.04.2020
4299 Clouds 17 1010 82 10000 3.1 180 16:43 25.04.2020
4300 Rain 18 1010 77 10000 3.6 190 16:25 25.04.2020
4301 Clouds 18 1011 77 10000 3.6 180 15:58 25.04.2020
4302 Clouds 18 1011 77 10000 3.6 180 15:38 25.04.2020
4303 Clouds 18 1011 77 10000 3.6 180 15:19 25.04.2020
4304 Clouds 18 1011 77 10000 3.6 180 15:19 25.04.2020
4305 Clouds 18 1011 72 10000 3.1 180 14:56 25.04.2020
4306 Clouds 18 1011 77 10000 2.6 180 14:37 25.04.2020
4307 Clouds 17 1011 77 10000 2.6 180 14:18 25.04.2020
4308 Clouds 17 1011 72 10000 2.1 120 13:42 25.04.2020
4309 Clouds 17 1012 68 10000 3.1 120 13:19 25.04.2020
4310 Clouds 17 1012 72 10000 4.1 110 12:57 25.04.2020
4311 Clouds 17 1012 68 10000 4.6 100 12:38 25.04.2020
4312 Clouds 17 1012 68 10000 4.6 100 12:19 25.04.2020
4313 Clouds 16 1012 72 10000 5.1 90 11:54 25.04.2020
4314 Clouds 16 1012 77 10000 5.7 90 11:36 25.04.2020
4315 Clouds 16 1012 77 10000 5.7 90 11:18 25.04.2020
4316 Clear 16 1011 77 10000 6.2 90 10:41 25.04.2020
4317 Clear 16 1011 77 10000 5.1 70 10:22 25.04.2020
4318 Clear 16 1011 77 10000 3.1 70 09:46 25.04.2020
4319 Clear 14 1011 82 10000 1 0 09:27 25.04.2020
4320 Clear 15 1011 82 10000 2.1 320 08:57 25.04.2020
4321 Clear 15 1011 87 10000 2.1 320 08:38 25.04.2020
4322 Clear 14 1011 87 10000 2.1 320 08:20 25.04.2020
4323 Clear 13 1011 87 10000 3.1 320 07:46 25.04.2020
4324 Clear 12 1011 87 10000 2.6 310 07:24 25.04.2020
4325 Clear 12 1011 87 10000 2.6 310 06:44 25.04.2020
4326 Clear 13 1011 82 10000 2.6 40 06:18 25.04.2020
4327 Clear 13 1011 87 10000 6.2 80 05:31 25.04.2020
4328 Clear 13 1011 93 10000 5.7 80 04:47 25.04.2020
4329 Clear 13 1011 87 10000 1 330 02:59 25.04.2020
4330 Clear 14 1011 87 10000 1 300 02:20 25.04.2020
4331 Clear 14 1012 87 10000 1 250 01:52 25.04.2020
4332 Clear 14 1012 82 10000 1 290 01:27 25.04.2020
4333 Clear 14 1012 82 10000 1.5 270 00:52 25.04.2020
4334 Clouds 14 1012 82 10000 1.5 260 00:31 25.04.2020
4335 Clouds 15 1012 77 10000 1 260 23:44 24.04.2020
4336 Clouds 15 1012 77 10000 1 230 23:24 24.04.2020
4337 Clouds 15 1012 77 10000 3.25 240 22:58 24.04.2020
4338 Clouds 15 1012 77 10000 2.1 40 22:38 24.04.2020
4339 Clouds 15 1012 77 10000 2.1 40 22:19 24.04.2020
4340 Clouds 15 1012 77 10000 2.1 40 22:19 24.04.2020
4341 Clouds 15 1012 77 10000 3.1 60 21:55 24.04.2020
4342 Clouds 15 1012 72 10000 4.1 80 21:37 24.04.2020
4343 Clouds 15 1012 72 10000 4.1 80 21:19 24.04.2020
4344 Clouds 16 1012 72 10000 4.1 80 20:55 24.04.2020
4345 Clouds 16 1012 77 10000 4.1 90 20:37 24.04.2020
4346 Clouds 16 1012 77 10000 4.1 90 20:18 24.04.2020
4347 Clouds 17 1012 72 10000 2.6 120 19:40 24.04.2020
4348 Clouds 17 1012 72 10000 2.6 120 19:21 24.04.2020
4349 Clouds 17 1013 72 10000 2.1 130 18:45 24.04.2020
4350 Clear 18 1013 72 10000 2.6 110 18:27 24.04.2020
4351 Clear 17 1013 77 10000 2.6 100 17:58 24.04.2020
4352 Clear 17 1013 77 10000 2.6 110 17:39 24.04.2020
4353 Clear 18 1013 77 10000 2.6 110 17:20 24.04.2020
4354 Clear 17 1014 77 10000 3.1 110 16:58 24.04.2020
4355 Clear 18 1014 72 10000 3.1 120 16:40 24.04.2020
4356 Clear 18 1014 72 10000 3.1 120 16:21 24.04.2020
4357 Clear 18 1014 68 10000 2.6 130 15:42 24.04.2020
4358 Clear 18 1014 63 10000 2.1 120 15:21 24.04.2020
4359 Clear 18 1015 63 10000 2.6 140 14:59 24.04.2020
4360 Clear 18 1015 63 10000 2.6 140 14:39 24.04.2020
4361 Clear 18 1015 63 10000 2.6 140 14:20 24.04.2020
4362 Clear 18 1015 68 10000 2.6 140 13:42 24.04.2020
4363 Clear 18 1015 68 10000 2.6 140 13:22 24.04.2020
4364 Clear 18 1015 68 10000 3.6 160 12:59 24.04.2020
4365 Clear 18 1015 68 10000 3.6 160 12:41 24.04.2020
4366 Clear 18 1016 63 10000 4.1 180 12:20 24.04.2020
4367 Clear 18 1016 67 10000 4.1 190 11:57 24.04.2020
4368 Clear 19 1016 59 10000 3.1 160 11:37 24.04.2020
4369 Clear 19 1016 59 10000 3.1 160 11:18 24.04.2020
4370 Clear 18 1016 48 10000 1.5 0 10:38 24.04.2020
4371 Clear 18 1016 48 10000 1.5 0 10:20 24.04.2020
4372 Clear 18 1016 48 10000 1.5 80 09:58 24.04.2020
4373 Clear 18 1016 45 10000 1.5 30 09:39 24.04.2020
4374 Clear 17 1016 45 10000 1.5 30 09:21 24.04.2020
4375 Clear 16 1016 48 10000 4.6 340 08:54 24.04.2020
4376 Clear 16 1016 54 10000 5.7 340 08:36 24.04.2020
4377 Clear 15 1016 54 10000 5.7 340 08:18 24.04.2020
4378 Clear 14 1016 54 10000 4.1 340 07:43 24.04.2020
4379 Clear 14 1016 54 10000 3.6 340 07:24 24.04.2020
4380 Clear 13 1016 58 10000 4.1 340 06:49 24.04.2020
4381 Clear 14 1016 54 10000 4.6 340 06:30 24.04.2020
4382 Clear 14 1016 54 10000 5.1 330 05:42 24.04.2020
4383 Clear 14 1017 54 10000 4.1 350 03:57 24.04.2020
4384 Clear 14 1017 54 10000 5.1 330 02:58 24.04.2020
4385 Clear 14 1017 54 10000 6.2 330 02:37 24.04.2020
4386 Clear 15 1017 51 10000 4.6 330 01:57 24.04.2020
4387 Clear 14 1017 51 10000 5.1 330 00:58 24.04.2020
4388 Clear 14 1017 51 10000 3.6 330 00:21 24.04.2020
4389 Clear 14 1017 51 10000 3.6 330 00:21 24.04.2020
4390 Clear 14 1017 51 10000 5.1 330 23:55 23.04.2020
4391 Clear 15 1017 51 10000 5.1 320 23:37 23.04.2020
4392 Clear 15 1017 51 10000 5.1 320 23:18 23.04.2020
4393 Clear 14 1017 54 10000 3.6 320 22:54 23.04.2020
4394 Clear 15 1017 51 10000 2.1 330 22:36 23.04.2020
4395 Clear 15 1017 51 10000 2.1 330 22:18 23.04.2020
4396 Clear 15 1017 63 10000 2.1 290 21:55 23.04.2020
4397 Clear 15 1017 63 10000 2.1 290 21:55 23.04.2020
4398 Clear 15 1017 55 10000 2.6 230 21:37 23.04.2020
4399 Clear 16 1017 55 10000 2.6 230 21:18 23.04.2020
4400 Clear 16 1017 63 10000 3.1 210 20:41 23.04.2020
4401 Clear 17 1017 67 10000 3.1 200 20:22 23.04.2020
4402 Clear 17 1017 67 10000 3.1 200 20:22 23.04.2020
4403 Clear 17 1017 63 10000 2.1 180 19:58 23.04.2020
4404 Clear 18 1017 68 10000 1.5 200 19:39 23.04.2020
4405 Clear 18 1017 68 10000 1.5 200 19:21 23.04.2020
4406 Clear 19 1017 59 10000 1.5 190 18:56 23.04.2020
4407 Clear 19 1017 52 10000 1 160 18:36 23.04.2020
4408 Clear 20 1017 52 10000 1 160 18:18 23.04.2020
4409 Clear 20 1017 52 10000 1 0 17:55 23.04.2020
4410 Clear 20 1017 52 10000 1.5 180 17:36 23.04.2020
4411 Clear 20 1017 52 10000 1.5 180 17:18 23.04.2020
4412 Clear 20 1017 52 10000 1.5 150 16:43 23.04.2020
4413 Clear 19 1017 63 10000 2.1 160 16:19 23.04.2020
4414 Clear 19 1017 55 10000 2.1 140 15:43 23.04.2020
4415 Clear 19 1018 55 10000 1.5 150 15:23 23.04.2020
4416 Clear 19 1018 55 10000 1.5 150 15:23 23.04.2020
4417 Clear 19 1018 52 10000 2.1 150 14:59 23.04.2020
4418 Clear 20 1018 45 10000 2.6 170 14:39 23.04.2020
4419 Clear 20 1018 45 10000 2.6 170 14:39 23.04.2020
4420 Clear 20 1018 45 10000 2.6 170 14:21 23.04.2020
4421 Clear 20 1018 42 10000 2.1 180 13:57 23.04.2020
4422 Clear 20 1018 42 10000 1.5 180 13:38 23.04.2020
4423 Clear 20 1018 42 10000 1.5 180 13:19 23.04.2020
4424 Clear 20 1018 42 10000 1.5 180 12:55 23.04.2020
4425 Clear 20 1018 40 10000 2.1 190 12:37 23.04.2020
4426 Clear 20 1018 40 10000 2.1 190 12:19 23.04.2020
4427 Clear 20 1018 45 10000 1.5 160 11:44 23.04.2020
4428 Clear 20 1018 28 10000 1.5 0 11:26 23.04.2020
4429 Clear 19 1018 37 10000 2.6 330 10:56 23.04.2020
4430 Clear 19 1018 39 10000 4.1 320 10:38 23.04.2020
4431 Clear 19 1018 39 10000 4.1 320 10:19 23.04.2020
4432 Clear 16 1018 47 10000 6.2 330 09:38 23.04.2020
4433 Clear 16 1018 47 10000 6.2 330 09:18 23.04.2020
4434 Clear 15 1018 50 10000 6.7 330 08:47 23.04.2020
4435 Clear 15 1018 54 10000 6.2 330 08:29 23.04.2020
4436 Clear 13 1017 54 10000 5.1 330 07:45 23.04.2020
4437 Clear 13 1017 58 10000 5.1 330 07:24 23.04.2020
4438 Clear 13 1017 58 10000 5.7 330 06:57 23.04.2020
4439 Clear 13 1016 54 10000 6.2 330 06:39 23.04.2020
4440 Clear 13 1016 58 10000 6.2 330 05:32 23.04.2020
4441 Clear 13 1016 58 10000 5.7 330 04:54 23.04.2020
4442 Clouds 14 1016 62 10000 5.1 330 02:41 23.04.2020
4443 Clouds 14 1016 62 10000 4.1 330 02:22 23.04.2020
4444 Clouds 15 1016 63 10000 3.1 330 01:38 23.04.2020
4445 Clouds 15 1016 63 10000 3.1 320 00:50 23.04.2020
4446 Clouds 15 1016 63 10000 3.1 320 00:25 23.04.2020
4447 Clouds 15 1016 63 10000 2.6 320 23:53 22.04.2020
4448 Clouds 15 1016 67 10000 2.1 320 23:26 22.04.2020
4449 Clouds 15 1015 72 10000 2.1 280 22:59 22.04.2020
4450 Clouds 15 1015 72 10000 2.1 210 22:39 22.04.2020
4451 Clouds 15 1015 72 10000 2.1 210 22:39 22.04.2020
4452 Clouds 15 1015 72 10000 2.1 210 22:19 22.04.2020
4453 Clouds 16 1015 67 10000 1.5 190 21:57 22.04.2020
4454 Clouds 15 1014 72 10000 1.5 180 21:39 22.04.2020
4455 Clouds 16 1014 72 10000 1.5 180 21:20 22.04.2020
4456 Clouds 16 1014 67 10000 1.5 240 20:55 22.04.2020
4457 Clouds 17 1014 63 10000 2.6 260 20:37 22.04.2020
4458 Clouds 17 1014 63 10000 2.6 260 20:18 22.04.2020
4459 Clouds 17 1014 63 10000 2.6 260 20:18 22.04.2020
4460 Clouds 17 1013 59 10000 3.1 250 19:55 22.04.2020
4461 Clouds 18 1013 52 10000 0.5 0 19:36 22.04.2020
4462 Clouds 18 1013 52 10000 0.5 0 19:18 22.04.2020
4463 Clouds 18 1013 55 10000 2.1 60 18:55 22.04.2020
4464 Clouds 18 1013 55 10000 2.1 60 18:55 22.04.2020
4465 Clouds 18 1013 59 10000 2.6 80 18:37 22.04.2020
4466 Clouds 18 1013 59 10000 2.6 80 18:19 22.04.2020
4467 Clouds 18 1013 55 10000 6.2 80 17:42 22.04.2020
4468 Clouds 18 1013 55 10000 6.2 80 17:24 22.04.2020
4469 Clouds 18 1013 55 10000 5.1 80 16:56 22.04.2020
4470 Clouds 18 1013 55 10000 7.2 80 16:36 22.04.2020
4471 Clouds 18 1013 55 10000 7.2 80 16:18 22.04.2020
4472 Clouds 18 1013 55 10000 7.2 80 16:18 22.04.2020
4473 Clouds 18 1013 55 10000 5.7 80 15:40 22.04.2020
4474 Clouds 17 1013 55 10000 5.7 80 15:21 22.04.2020
4475 Clouds 18 1013 55 10000 5.1 80 14:57 22.04.2020
4476 Clouds 18 1013 45 10000 5.1 70 14:37 22.04.2020
4477 Clouds 18 1013 45 10000 5.1 70 14:19 22.04.2020
4478 Clouds 18 1013 39 10000 2.1 100 13:44 22.04.2020
4479 Clouds 18 1013 42 10000 1.5 0 13:20 22.04.2020
4480 Clouds 18 1013 48 10000 1 0 12:57 22.04.2020
4481 Clouds 18 1013 45 10000 1.5 0 12:39 22.04.2020
4482 Clouds 17 1013 45 10000 1.5 0 12:20 22.04.2020
4483 Clouds 17 1013 52 10000 4.6 80 11:40 22.04.2020
4484 Clouds 17 1012 59 10000 7.7 80 11:20 22.04.2020
4485 Clouds 16 1012 59 10000 7.7 80 10:58 22.04.2020
4486 Clouds 17 1012 45 10000 2.6 60 10:38 22.04.2020
4487 Clouds 17 1012 45 10000 2.6 60 10:18 22.04.2020
4488 Clouds 16 1011 42 10000 4.6 60 09:39 22.04.2020
4489 Clouds 16 1011 42 10000 4.6 60 09:20 22.04.2020
4490 Clouds 15 1011 55 10000 3.1 30 08:56 22.04.2020
4491 Clouds 16 1011 48 10000 4.6 10 08:37 22.04.2020
4492 Clouds 16 1011 48 10000 4.6 10 08:19 22.04.2020
4493 Clouds 16 1011 39 10000 4.6 20 07:52 22.04.2020
4494 Clouds 16 1011 39 10000 5.7 20 07:24 22.04.2020
4495 Clouds 16 1010 42 10000 5.1 50 06:52 22.04.2020
4496 Clouds 16 1010 39 10000 7.2 30 05:47 22.04.2020
4497 Clouds 16 1010 42 10000 5.1 30 05:27 22.04.2020
4498 Clouds 16 1010 42 10000 5.1 30 05:27 22.04.2020
4499 Clouds 15 1010 42 10000 5.7 20 04:20 22.04.2020
4500 Clouds 16 1010 45 10000 6.7 40 02:40 22.04.2020
4501 Clouds 15 1010 48 10000 4.6 30 01:44 22.04.2020
4502 Clouds 15 1010 48 10000 5.1 20 01:24 22.04.2020
4503 Clouds 15 1010 51 10000 4.1 30 00:47 22.04.2020
4504 Clouds 14 1010 71 10000 3.6 30 00:22 22.04.2020
4505 Clouds 14 1010 87 10000 1.5 330 23:59 21.04.2020
4506 Clouds 14 1010 87 10000 2.1 20 23:40 21.04.2020
4507 Clouds 14 1010 87 10000 2.1 20 23:18 21.04.2020
4508 Clouds 14 1010 87 10000 1.5 320 22:40 21.04.2020
4509 Clouds 14 1010 87 10000 1.5 320 22:21 21.04.2020
4510 Clouds 14 1009 82 10000 3.1 40 21:59 21.04.2020
4511 Clouds 14 1009 67 10000 6.7 70 21:40 21.04.2020
4512 Clouds 14 1009 82 10000 3.1 40 21:40 21.04.2020
4513 Clouds 14 1009 67 10000 6.7 70 21:22 21.04.2020
4514 Clouds 14 1009 67 10000 7.2 70 20:55 21.04.2020
4515 Clouds 14 1008 72 10000 7.7 70 20:36 21.04.2020
4516 Clouds 14 1008 72 10000 7.7 70 20:18 21.04.2020
4517 Rain 14 1008 77 10000 8.2 70 19:40 21.04.2020
4518 Rain 14 1008 82 10000 8.2 80 19:19 21.04.2020
4519 Rain 14 1008 82 10000 9.3 80 18:57 21.04.2020
4520 Rain 15 1008 72 10000 8.7 80 18:38 21.04.2020
4521 Rain 15 1008 72 10000 8.7 80 18:19 21.04.2020
4522 Rain 15 1008 72 10000 8.7 80 18:19 21.04.2020
4523 Clouds 15 1007 77 10000 9.3 90 17:55 21.04.2020
4524 Clouds 15 1007 77 10000 9.3 80 17:37 21.04.2020
4525 Clouds 16 1007 77 10000 9.3 80 17:18 21.04.2020
4526 Rain 16 1007 72 10000 7.2 70 16:39 21.04.2020
4527 Rain 16 1007 72 10000 7.2 70 16:19 21.04.2020
4528 Clouds 17 1007 72 10000 8.2 70 15:57 21.04.2020
4529 Clouds 16 1007 72 10000 6.2 80 15:39 21.04.2020
4530 Clouds 17 1007 72 10000 6.2 80 15:21 21.04.2020
4531 Clouds 17 1007 72 10000 5.7 100 14:57 21.04.2020
4532 Clouds 17 1007 72 10000 5.7 100 14:57 21.04.2020
4533 Clouds 17 1007 72 10000 1 0 14:39 21.04.2020
4534 Clouds 18 1007 63 10000 2.6 40 14:20 21.04.2020
4535 Clouds 17 1007 63 10000 2.6 40 13:41 21.04.2020
4536 Clouds 17 1007 67 10000 2.6 50 13:22 21.04.2020
4537 Clouds 17 1007 72 10000 5.7 80 12:55 21.04.2020
4538 Clouds 16 1006 72 10000 7.7 90 12:37 21.04.2020
4539 Clouds 16 1006 72 10000 7.7 90 12:18 21.04.2020
4540 Clouds 16 1006 72 10000 8.2 80 11:55 21.04.2020
4541 Clouds 16 1006 72 10000 8.7 80 11:36 21.04.2020
4542 Clouds 16 1006 72 10000 8.7 80 11:18 21.04.2020
4543 Clouds 16 1006 72 10000 8.7 80 11:18 21.04.2020
4544 Clouds 15 1006 77 10000 8.2 80 10:56 21.04.2020
4545 Clouds 15 1005 77 10000 7.7 80 10:38 21.04.2020
4546 Clouds 15 1005 77 10000 7.7 80 10:19 21.04.2020
4547 Clouds 15 1005 72 10000 5.7 60 09:37 21.04.2020
4548 Clouds 15 1005 72 10000 5.7 60 09:19 21.04.2020
4549 Clouds 14 1005 72 10000 5.1 60 08:57 21.04.2020
4550 Clouds 14 1005 72 10000 5.1 60 08:39 21.04.2020
4551 Clouds 14 1005 72 10000 5.1 60 08:19 21.04.2020
4552 Rain 14 1005 82 10000 4.6 60 07:44 21.04.2020
4553 Clouds 13 1005 93 10000 1 0 07:22 21.04.2020
4554 Clouds 14 1004 87 10000 2.1 320 06:49 21.04.2020
4555 Clouds 14 1004 72 10000 5.7 60 06:20 21.04.2020
4556 Clouds 14 1005 77 10000 7.7 80 05:48 21.04.2020
4557 Clouds 14 1005 82 10000 8.7 70 04:20 21.04.2020
4558 Clouds 14 1005 82 10000 8.7 70 03:42 21.04.2020
4559 Clouds 14 1007 87 10000 4.1 80 01:46 21.04.2020
4560 Clouds 14 1007 87 10000 3.1 40 01:25 21.04.2020
4561 Clouds 14 1007 87 10000 8.2 70 00:37 21.04.2020
4562 Clouds 15 1007 87 10000 10.3 70 23:45 20.04.2020
4563 Clouds 15 1007 87 10000 10.3 80 23:25 20.04.2020
4564 Clouds 15 1007 82 10000 10.3 80 22:58 20.04.2020
4565 Clouds 15 1007 82 10000 11.3 80 22:39 20.04.2020
4566 Clouds 14 1007 82 10000 11.3 80 22:20 20.04.2020
4567 Clouds 15 1007 87 10000 11.3 80 21:58 20.04.2020
4568 Clouds 15 1006 87 10000 11.3 80 21:39 20.04.2020
4569 Clouds 15 1006 87 10000 11.3 80 21:19 20.04.2020
4570 Clouds 15 1006 87 10000 9.8 80 20:58 20.04.2020
4571 Clouds 15 1006 87 10000 9.8 80 20:39 20.04.2020
4572 Clouds 15 1006 82 10000 8.7 70 20:19 20.04.2020
4573 Clouds 15 1006 77 10000 7.7 60 19:58 20.04.2020
4574 Clouds 15 1005 82 10000 6.2 60 19:39 20.04.2020
4575 Clouds 15 1005 82 10000 6.2 60 19:19 20.04.2020
4576 Clouds 15 1006 82 10000 2.6 70 18:54 20.04.2020
4577 Clouds 15 1006 82 10000 2.6 70 18:54 20.04.2020
4578 Clouds 15 1005 93 10000 3.6 70 18:36 20.04.2020
4579 Clouds 15 1005 93 10000 3.6 70 18:36 20.04.2020
4580 Clouds 15 1005 93 10000 3.6 70 18:18 20.04.2020
4581 Drizzle 15 1006 87 10000 6.7 70 17:40 20.04.2020
4582 Drizzle 15 1006 87 10000 6.7 70 17:22 20.04.2020
4583 Drizzle 15 1006 93 10000 7.7 70 16:59 20.04.2020
4584 Drizzle 15 1006 93 10000 8.2 70 16:40 20.04.2020
4585 Drizzle 15 1006 93 10000 8.2 70 16:19 20.04.2020
4586 Clouds 15 1007 93 10000 10.3 80 15:55 20.04.2020
4587 Clouds 15 1007 93 10000 10.8 90 15:36 20.04.2020
4588 Clouds 15 1007 93 10000 10.8 90 15:18 20.04.2020
4589 Drizzle 15 1007 93 8000 9.8 80 14:40 20.04.2020
4590 Drizzle 15 1007 93 8000 9.8 80 14:19 20.04.2020
4591 Drizzle 15 1007 93 9000 11.3 80 13:56 20.04.2020
4592 Drizzle 15 1007 87 10000 9.3 80 13:38 20.04.2020
4593 Drizzle 15 1007 87 10000 9.3 80 13:20 20.04.2020
4594 Rain 15 1007 87 10000 9.3 80 12:43 20.04.2020
4595 Drizzle 15 1007 87 10000 9.3 70 12:22 20.04.2020
4596 Drizzle 15 1008 87 10000 7.7 70 11:54 20.04.2020
4597 Drizzle 15 1008 93 10000 7.2 70 11:36 20.04.2020
4598 Drizzle 14 1008 93 10000 7.2 70 11:18 20.04.2020
4599 Drizzle 14 1008 93 10000 8.2 80 10:54 20.04.2020
4600 Drizzle 14 1007 93 10000 8.7 70 10:36 20.04.2020
4601 Drizzle 14 1007 93 10000 8.7 70 10:18 20.04.2020
4602 Drizzle 15 1007 93 10000 7.7 70 09:41 20.04.2020
4603 Drizzle 15 1007 93 10000 7.7 70 09:23 20.04.2020
4604 Rain 15 1007 93 10000 8.2 70 08:56 20.04.2020
4605 Rain 14 1007 93 8000 8.2 70 08:38 20.04.2020
4606 Rain 14 1007 93 8000 8.2 70 08:18 20.04.2020
4607 Rain 15 1007 93 8000 8.7 70 07:42 20.04.2020
4608 Drizzle 15 1007 93 10000 8.7 70 07:20 20.04.2020
4609 Drizzle 14 1007 93 10000 6.7 60 06:38 20.04.2020
4610 Drizzle 14 1007 93 10000 10.3 80 05:58 20.04.2020
4611 Rain 15 1008 93 10000 1 40 04:51 20.04.2020
4612 Drizzle 15 1009 93 10000 2.6 320 02:52 20.04.2020
4613 Drizzle 14 1009 93 10000 2.6 330 02:33 20.04.2020
4614 Rain 14 1010 93 10000 1.5 340 01:30 20.04.2020
4615 Rain 14 1010 87 10000 3.1 70 00:47 20.04.2020
4616 Rain 14 1010 87 10000 3.1 70 00:22 20.04.2020
4617 Clouds 14 1010 93 10000 1.5 70 23:40 19.04.2020
4618 Clouds 14 1010 93 10000 1.5 70 23:22 19.04.2020
4619 Drizzle 14 1010 93 7000 2.6 70 22:59 19.04.2020
4620 Rain 14 1011 93 7000 4.6 80 22:38 19.04.2020
4621 Rain 14 1011 93 7000 4.6 80 22:19 19.04.2020
4622 Rain 14 1011 93 5000 7.2 90 21:43 19.04.2020
4623 Rain 14 1011 93 5000 7.2 90 21:25 19.04.2020
4624 Rain 14 1011 93 6000 7.2 90 20:59 19.04.2020
4625 Rain 14 1011 93 10000 7.7 90 20:41 19.04.2020
4626 Clouds 14 1011 93 10000 7.7 90 20:20 19.04.2020
4627 Rain 14 1010 93 10000 6.7 80 19:57 19.04.2020
4628 Rain 14 1010 93 10000 8.2 70 19:39 19.04.2020
4629 Rain 14 1010 93 10000 8.2 70 19:21 19.04.2020
4630 Rain 14 1011 93 5000 7.7 80 18:58 19.04.2020
4631 Rain 14 1011 93 7000 6.7 80 18:39 19.04.2020
4632 Rain 14 1011 93 7000 6.7 80 18:19 19.04.2020
4633 Rain 14 1011 93 4900 7.2 90 17:56 19.04.2020
4634 Rain 14 1011 93 4900 7.2 90 17:56 19.04.2020
4635 Rain 14 1012 93 7000 7.7 90 17:38 19.04.2020
4636 Rain 14 1012 93 7000 7.7 90 17:20 19.04.2020
4637 Rain 15 1012 87 10000 7.2 100 16:56 19.04.2020
4638 Rain 15 1012 87 10000 7.2 90 16:36 19.04.2020
4639 Rain 15 1012 87 10000 7.2 90 16:18 19.04.2020
4640 Rain 15 1012 93 9000 6.7 80 15:42 19.04.2020
4641 Rain 15 1013 93 8000 8.2 80 15:21 19.04.2020
4642 Rain 15 1013 93 9000 7.2 80 14:54 19.04.2020
4643 Rain 15 1013 87 10000 8.2 80 14:36 19.04.2020
4644 Rain 14 1013 87 10000 8.2 80 14:18 19.04.2020
4645 Rain 15 1014 87 10000 6.2 60 13:39 19.04.2020
4646 Rain 15 1014 87 10000 6.2 60 13:19 19.04.2020
4647 Rain 15 1014 87 10000 5.7 60 12:49 19.04.2020
4648 Rain 15 1015 82 10000 3.6 90 12:25 19.04.2020
4649 Rain 15 1015 82 10000 3.6 90 12:25 19.04.2020
4650 Rain 14 1015 87 10000 3.1 90 11:56 19.04.2020
4651 Rain 14 1014 87 4400 5.1 60 11:37 19.04.2020
4652 Rain 15 1014 87 4400 5.1 60 11:19 19.04.2020
4653 Rain 15 1015 82 10000 3.6 150 10:55 19.04.2020
4654 Rain 15 1014 82 10000 3.1 100 10:37 19.04.2020
4655 Rain 15 1014 82 10000 3.1 100 10:18 19.04.2020
4656 Rain 15 1014 82 10000 3.6 80 09:45 19.04.2020
4657 Clouds 15 1014 77 10000 2.1 20 09:27 19.04.2020
4658 Clouds 15 1015 77 10000 2.1 360 08:41 19.04.2020
4659 Clouds 14 1015 82 10000 2.6 320 08:22 19.04.2020
4660 Clouds 15 1015 87 10000 3.1 320 07:59 19.04.2020
4661 Clouds 15 1015 87 10000 3.1 320 07:41 19.04.2020
4662 Clouds 15 1015 87 10000 2.6 300 07:22 19.04.2020
4663 Clouds 15 1015 87 10000 2.6 69 06:29 19.04.2020
4664 Clouds 14 1015 87 10000 1 0 05:55 19.04.2020
4665 Clouds 14 1015 87 10000 3.1 110 04:43 19.04.2020
4666 Clouds 14 1015 93 10000 3.1 80 02:59 19.04.2020
4667 Clouds 14 1016 93 10000 3.6 90 02:21 19.04.2020
4668 Clouds 14 1016 93 10000 2.6 90 01:39 19.04.2020
4669 Clouds 14 1016 93 10000 2.1 100 00:49 19.04.2020
4670 Clouds 14 1016 93 10000 2.6 80 00:25 19.04.2020
4671 Clouds 14 1017 93 10000 2.6 90 23:56 18.04.2020
4672 Clouds 14 1017 93 10000 3.6 90 23:36 18.04.2020
4673 Clouds 14 1017 93 10000 3.6 90 23:18 18.04.2020
4674 Clouds 15 1017 87 10000 4.1 80 22:42 18.04.2020
4675 Clouds 15 1017 87 10000 4.1 80 22:21 18.04.2020
4676 Clouds 15 1017 87 10000 3.6 90 21:57 18.04.2020
4677 Clouds 15 1017 87 10000 4.1 90 21:38 18.04.2020
4678 Clouds 15 1017 87 10000 4.1 90 21:20 18.04.2020
4679 Clouds 15 1016 87 10000 4.6 90 20:42 18.04.2020
4680 Clouds 15 1016 87 10000 4.6 90 20:22 18.04.2020
4681 Clouds 15 1017 87 10000 4.1 90 19:59 18.04.2020
4682 Clouds 15 1017 82 10000 4.1 100 19:39 18.04.2020
4683 Clouds 15 1017 82 10000 4.1 100 19:21 18.04.2020
4684 Clouds 16 1017 82 10000 4.1 100 18:39 18.04.2020
4685 Clouds 16 1017 82 10000 4.1 100 18:20 18.04.2020
4686 Clouds 16 1017 82 10000 4.1 100 17:56 18.04.2020
4687 Clouds 16 1017 82 10000 3.6 100 17:38 18.04.2020
4688 Clouds 16 1017 82 10000 3.6 100 17:18 18.04.2020
4689 Clouds 17 1018 77 10000 4.6 100 16:42 18.04.2020
4690 Clouds 17 1018 77 10000 4.6 100 16:22 18.04.2020
4691 Clouds 17 1018 77 10000 4.6 100 15:55 18.04.2020
4692 Clouds 16 1018 77 10000 3.6 100 15:37 18.04.2020
4693 Clouds 16 1018 77 10000 3.6 100 15:19 18.04.2020
4694 Clouds 16 1018 72 10000 2.6 80 14:42 18.04.2020
4695 Clouds 16 1019 72 10000 1.5 110 14:19 18.04.2020
4696 Clouds 17 1019 72 10000 1.5 140 13:43 18.04.2020
4697 Clouds 17 1019 72 10000 1.5 140 13:43 18.04.2020
4698 Clouds 17 1019 68 10000 1.5 160 13:21 18.04.2020
4699 Clouds 17 1019 68 10000 1.5 0 12:43 18.04.2020
4700 Clouds 17 1019 68 10000 1.5 120 12:25 18.04.2020
4701 Clouds 17 1019 68 10000 2.1 100 11:59 18.04.2020
4702 Clouds 16 1019 67 10000 1 0 11:40 18.04.2020
4703 Clouds 17 1019 67 10000 1 0 11:21 18.04.2020
4704 Clouds 16 1019 72 10000 0.5 0 10:56 18.04.2020
4705 Clouds 17 1019 72 10000 0.5 0 10:36 18.04.2020
4706 Clouds 16 1019 72 10000 0.5 0 10:18 18.04.2020
4707 Clouds 15 1018 72 10000 1.5 310 09:41 18.04.2020
4708 Clouds 14 1018 76 10000 3.1 320 09:21 18.04.2020
4709 Clouds 13 1018 76 10000 3.1 320 08:43 18.04.2020
4710 Clouds 13 1018 76 10000 3.1 320 08:43 18.04.2020
4711 Clouds 13 1018 76 10000 3.1 330 08:23 18.04.2020
4712 Clouds 12 1018 81 10000 2.6 330 07:51 18.04.2020
4713 Clouds 12 1018 87 10000 2.6 330 07:32 18.04.2020
4714 Clouds 12 1018 82 10000 2.1 340 06:50 18.04.2020
4715 Clouds 13 1018 82 10000 2.1 320 05:50 18.04.2020
4716 Clouds 13 1018 87 10000 3.1 310 05:22 18.04.2020
4717 Clouds 13 1018 76 10000 3.6 320 04:45 18.04.2020
4718 Clouds 14 1018 76 10000 3.6 330 04:24 18.04.2020
4719 Clouds 14 1019 87 10000 1.5 280 02:45 18.04.2020
4720 Clouds 15 1019 82 10000 1.5 310 02:21 18.04.2020
4721 Clouds 15 1019 82 10000 1.5 310 02:21 18.04.2020
4722 Clouds 15 1018 87 10000 2.1 70 01:51 18.04.2020
4723 Clouds 15 1018 87 10000 2.6 60 01:31 18.04.2020
4724 Clouds 14 1018 87 10000 4.1 70 00:40 18.04.2020
4725 Clouds 14 1018 87 10000 4.1 60 00:20 18.04.2020
4726 Clouds 14 1018 87 10000 3.1 80 23:55 17.04.2020
4727 Clouds 14 1019 87 10000 2.6 100 23:36 17.04.2020
4728 Clouds 14 1019 87 10000 2.6 100 23:18 17.04.2020
4729 Clouds 13 1018 87 10000 3.6 100 22:54 17.04.2020
4730 Clouds 13 1018 87 10000 3.1 80 22:36 17.04.2020
4731 Clouds 13 1018 87 10000 3.1 80 22:18 17.04.2020
4732 Clouds 14 1018 87 10000 2.6 70 21:40 17.04.2020
4733 Clouds 14 1018 87 10000 2.6 70 21:20 17.04.2020
4734 Clouds 14 1018 87 10000 2.1 70 20:56 17.04.2020
4735 Clouds 14 1018 87 10000 2.6 80 20:37 17.04.2020
4736 Clouds 14 1018 87 10000 2.6 80 20:18 17.04.2020
4737 Clouds 14 1018 87 10000 3.1 100 19:56 17.04.2020
4738 Clouds 15 1018 82 10000 2.6 100 19:38 17.04.2020
4739 Clouds 15 1018 82 10000 2.6 100 19:19 17.04.2020
4740 Clouds 15 1019 82 10000 2.1 110 18:42 17.04.2020
4741 Clouds 15 1019 77 10000 3.6 110 18:22 17.04.2020
4742 Clouds 15 1018 77 10000 3.6 100 17:54 17.04.2020
4743 Clouds 15 1018 77 10000 4.6 100 17:36 17.04.2020
4744 Clouds 16 1018 77 10000 4.6 100 17:18 17.04.2020
4745 Clouds 16 1019 77 10000 5.1 100 16:41 17.04.2020
4746 Clouds 16 1019 77 10000 5.1 100 16:22 17.04.2020
4747 Clouds 16 1019 77 10000 5.1 90 15:41 17.04.2020
4748 Clouds 16 1019 77 10000 5.7 100 15:22 17.04.2020
4749 Clouds 16 1020 72 10000 6.2 100 14:55 17.04.2020
4750 Clouds 16 1019 72 10000 6.7 90 14:37 17.04.2020
4751 Clouds 15 1019 72 10000 6.7 90 14:19 17.04.2020
4752 Clouds 16 1019 77 10000 6.7 90 13:40 17.04.2020
4753 Clouds 16 1020 72 10000 6.2 90 13:20 17.04.2020
4754 Clouds 16 1020 72 10000 6.7 90 12:58 17.04.2020
4755 Clouds 16 1020 67 10000 6.2 90 12:40 17.04.2020
4756 Clouds 16 1020 67 10000 6.2 90 12:21 17.04.2020
4757 Clouds 16 1020 67 10000 5.1 90 11:40 17.04.2020
4758 Clouds 15 1020 63 10000 5.7 80 11:19 17.04.2020
4759 Clouds 15 1020 63 10000 4.6 80 10:44 17.04.2020
4760 Clouds 15 1020 63 10000 1.5 60 10:23 17.04.2020
4761 Clouds 15 1020 51 10000 3.1 330 09:59 17.04.2020
4762 Clouds 15 1020 51 10000 3.1 330 09:40 17.04.2020
4763 Clouds 13 1021 54 10000 3.1 320 09:20 17.04.2020
4764 Clouds 11 1020 62 10000 4.6 320 08:49 17.04.2020
4765 Clouds 10 1020 62 10000 4.6 320 08:28 17.04.2020
4766 Clouds 10 1020 66 10000 3.1 330 07:59 17.04.2020
4767 Clouds 10 1020 57 10000 3.6 330 07:41 17.04.2020
4768 Clouds 9 1020 57 10000 3.6 330 07:19 17.04.2020
4769 Clouds 9 1019 62 10000 3.6 320 06:45 17.04.2020
4770 Clouds 9 1019 57 10000 3.6 330 06:21 17.04.2020
4771 Clouds 9 1020 62 10000 3.1 320 03:37 17.04.2020
4772 Clouds 9 1020 62 10000 3.1 320 03:18 17.04.2020
4773 Clouds 10 1020 62 10000 3.1 320 01:58 17.04.2020
4774 Clouds 10 1020 62 10000 2.6 320 01:24 17.04.2020
4775 Clouds 10 1020 62 10000 3.1 340 00:30 17.04.2020
4776 Clouds 11 1020 66 10000 4.1 320 23:56 16.04.2020
4777 Clouds 11 1021 71 10000 3.1 320 23:38 16.04.2020
4778 Clouds 11 1021 71 10000 3.1 320 23:19 16.04.2020
4779 Clouds 11 1021 67 10000 1.5 50 22:56 16.04.2020
4780 Clouds 12 1020 67 10000 3.6 50 22:37 16.04.2020
4781 Clouds 12 1020 67 10000 3.6 50 22:19 16.04.2020
4782 Clouds 13 1020 72 10000 3.1 80 21:41 16.04.2020
4783 Clouds 13 1020 72 10000 3.1 80 21:20 16.04.2020
4784 Clouds 13 1020 72 10000 2.1 90 20:58 16.04.2020
4785 Clouds 13 1020 67 10000 2.6 100 20:39 16.04.2020
4786 Clouds 14 1020 67 10000 2.6 100 20:19 16.04.2020
4787 Clouds 14 1020 67 10000 2.1 110 19:54 16.04.2020
4788 Clouds 15 1020 67 10000 3.1 100 19:36 16.04.2020
4789 Clouds 15 1020 67 10000 3.1 100 19:18 16.04.2020
4790 Clouds 16 1020 67 10000 3.1 100 18:42 16.04.2020
4791 Clouds 16 1020 72 10000 3.6 100 18:23 16.04.2020
4792 Clouds 16 1020 72 10000 4.6 100 17:57 16.04.2020
4793 Clouds 16 1020 67 10000 4.6 90 17:39 16.04.2020
4794 Clouds 17 1020 67 10000 4.6 90 17:18 16.04.2020
4795 Clouds 17 1020 67 10000 5.1 90 16:42 16.04.2020
4796 Clouds 17 1021 67 10000 5.1 90 16:24 16.04.2020
4797 Clouds 17 1021 67 10000 4.6 90 15:46 16.04.2020
4798 Clouds 17 1021 68 10000 4.1 90 15:20 16.04.2020
4799 Clouds 17 1021 68 10000 4.1 90 15:20 16.04.2020
4800 Clouds 17 1022 67 10000 5.1 90 14:59 16.04.2020
4801 Clouds 17 1022 67 10000 5.1 90 14:40 16.04.2020
4802 Clouds 17 1022 63 10000 4.6 110 14:22 16.04.2020
4803 Clouds 17 1022 63 10000 6.2 90 13:58 16.04.2020
4804 Clouds 17 1022 63 10000 6.2 90 13:58 16.04.2020
4805 Clouds 17 1022 63 10000 5.1 90 13:40 16.04.2020
4806 Clouds 17 1022 63 10000 5.1 90 13:21 16.04.2020
4807 Clouds 17 1022 63 10000 5.1 90 13:21 16.04.2020
4808 Clouds 17 1022 59 10000 5.7 100 12:57 16.04.2020
4809 Clouds 17 1022 55 10000 4.1 100 12:38 16.04.2020
4810 Clouds 16 1022 55 10000 4.1 100 12:19 16.04.2020
4811 Clouds 16 1022 59 10000 1.5 90 11:56 16.04.2020
4812 Clouds 16 1022 51 10000 2.1 110 11:38 16.04.2020
4813 Clouds 16 1022 51 10000 2.1 110 11:19 16.04.2020
4814 Clouds 15 1022 51 10000 1 0 10:55 16.04.2020
4815 Clouds 15 1022 51 10000 1 0 10:36 16.04.2020
4816 Clouds 15 1022 51 10000 1 0 10:18 16.04.2020
4817 Clouds 14 1022 51 10000 3.1 350 09:39 16.04.2020
4818 Clouds 14 1022 51 10000 3.1 350 09:20 16.04.2020
4819 Clouds 14 1022 51 10000 3.1 350 09:20 16.04.2020
4820 Clouds 14 1022 51 10000 2.1 330 08:56 16.04.2020
4821 Clouds 12 1022 58 10000 3.6 330 08:36 16.04.2020
4822 Clouds 12 1022 58 10000 3.6 330 08:18 16.04.2020
4823 Clouds 10 1022 62 10000 3.6 340 07:42 16.04.2020
4824 Clouds 10 1022 62 10000 4.6 330 07:20 16.04.2020
4825 Clouds 10 1022 62 10000 4.1 340 06:41 16.04.2020
4826 Clouds 10 1022 62 10000 4.1 340 06:22 16.04.2020
4827 Clouds 9 1022 62 10000 3.1 320 04:53 16.04.2020
4828 Clear 10 1022 62 10000 2.1 360 03:28 16.04.2020
4829 Clear 9 1023 66 10000 3.1 330 02:59 16.04.2020
4830 Clear 10 1023 71 10000 2.1 320 02:38 16.04.2020
4831 Clear 10 1023 71 10000 2.6 330 01:40 16.04.2020
4832 Clear 11 1023 71 10000 1 0 00:57 16.04.2020
4833 Clear 11 1023 66 10000 2.6 330 00:26 16.04.2020
4834 Clear 11 1023 66 10000 3.1 330 23:56 15.04.2020
4835 Clear 12 1023 71 10000 2.1 340 23:38 15.04.2020
4836 Clear 11 1023 71 10000 2.1 340 23:19 15.04.2020
4837 Clear 11 1023 67 10000 3.38 38 22:39 15.04.2020
4838 Clear 12 1023 67 10000 3.38 38 22:21 15.04.2020
4839 Clear 12 1023 67 10000 0.5 30 21:57 15.04.2020
4840 Clear 12 1023 62 10000 1 0 21:39 15.04.2020
4841 Clear 12 1023 62 10000 1 0 21:21 15.04.2020
4842 Clear 14 1022 62 10000 1 140 20:56 15.04.2020
4843 Clear 13 1022 62 10000 0.5 0 20:38 15.04.2020
4844 Clear 14 1022 62 10000 0.5 0 20:20 15.04.2020
4845 Clear 14 1022 59 10000 1.29 94 19:41 15.04.2020
4846 Clear 15 1022 59 10000 1.29 94 19:20 15.04.2020
4847 Clear 15 1022 63 10000 1.5 0 18:54 15.04.2020
4848 Clear 15 1022 63 10000 1.5 130 18:36 15.04.2020
4849 Clear 15 1022 63 10000 1.5 130 18:18 15.04.2020
4850 Clear 15 1022 63 10000 3.1 150 17:40 15.04.2020
4851 Clear 16 1022 63 10000 3.1 150 17:40 15.04.2020
4852 Clear 16 1022 63 10000 3.1 150 17:20 15.04.2020
4853 Clear 16 1022 59 10000 4.6 110 16:57 15.04.2020
4854 Clear 16 1022 55 10000 5.7 100 16:38 15.04.2020
4855 Clear 16 1022 55 10000 5.7 100 16:19 15.04.2020
4856 Clear 16 1022 59 10000 6.7 100 15:58 15.04.2020
4857 Clear 16 1023 55 10000 7.2 100 15:39 15.04.2020
4858 Clear 16 1023 55 10000 7.2 100 15:19 15.04.2020
4859 Clear 16 1023 55 10000 7.2 90 14:58 15.04.2020
4860 Clear 16 1023 55 10000 7.2 90 14:58 15.04.2020
4861 Clear 15 1023 55 10000 8.7 90 14:39 15.04.2020
4862 Clear 16 1023 55 10000 8.7 90 14:21 15.04.2020
4863 Clear 16 1024 55 10000 6.7 110 13:58 15.04.2020
4864 Clear 16 1023 55 10000 7.2 110 13:39 15.04.2020
4865 Clear 16 1023 55 10000 7.2 110 13:20 15.04.2020
4866 Clear 16 1023 55 10000 7.7 100 12:56 15.04.2020
4867 Clear 15 1023 59 10000 8.2 90 12:38 15.04.2020
4868 Clear 15 1023 59 10000 8.2 90 12:19 15.04.2020
4869 Clear 15 1023 55 10000 9.8 90 11:42 15.04.2020
4870 Clear 15 1023 59 10000 9.3 80 11:24 15.04.2020
4871 Clear 15 1023 63 10000 8.7 90 10:58 15.04.2020
4872 Clear 15 1023 67 10000 6.2 90 10:36 15.04.2020
4873 Clear 15 1023 67 10000 6.2 90 10:18 15.04.2020
4874 Clear 15 1022 63 10000 6.2 80 09:55 15.04.2020
4875 Clouds 15 1022 67 10000 5.7 80 09:37 15.04.2020
4876 Clouds 13 1022 63 10000 5.1 70 09:18 15.04.2020
4877 Clouds 12 1022 72 10000 4.1 60 08:41 15.04.2020
4878 Clouds 12 1022 72 10000 4.1 60 08:20 15.04.2020
4879 Clouds 10 1021 81 10000 2.6 310 07:55 15.04.2020
4880 Clouds 12 1021 76 10000 2.6 330 07:34 15.04.2020
4881 Clouds 12 1021 72 10000 3.1 60 06:49 15.04.2020
4882 Clouds 13 1020 72 10000 6.2 70 06:20 15.04.2020
4883 Clouds 12 1020 67 10000 7.2 80 05:22 15.04.2020
4884 Clouds 13 1019 67 10000 8.2 80 04:45 15.04.2020
4885 Clouds 13 1019 82 10000 8.7 90 03:51 15.04.2020
4886 Clouds 13 1019 82 10000 8.2 80 03:20 15.04.2020
4887 Clouds 14 1018 82 10000 7.7 90 02:39 15.04.2020
4888 Clouds 14 1017 87 10000 7.2 90 01:50 15.04.2020
4889 Clouds 14 1017 87 10000 5.1 90 01:22 15.04.2020
4890 Clouds 14 1016 87 10000 3.6 100 00:39 15.04.2020
4891 Clouds 15 1016 87 10000 3.6 100 00:20 15.04.2020
4892 Clouds 15 1015 82 10000 2.6 110 23:55 14.04.2020
4893 Clouds 15 1015 67 10000 1.5 30 23:36 14.04.2020
4894 Clouds 15 1015 67 10000 1.5 30 23:36 14.04.2020
4895 Clouds 15 1015 67 10000 1.5 30 23:18 14.04.2020
4896 Clouds 15 1014 72 10000 1.5 290 22:56 14.04.2020
4897 Clouds 15 1013 82 10000 2.6 260 22:37 14.04.2020
4898 Clouds 15 1013 82 10000 2.6 260 22:19 14.04.2020
4899 Clouds 16 1013 77 10000 1.5 210 21:55 14.04.2020
4900 Clouds 15 1013 82 10000 2.6 220 21:37 14.04.2020
4901 Clouds 15 1013 82 10000 2.6 220 21:37 14.04.2020
4902 Clouds 15 1013 82 10000 2.6 220 21:18 14.04.2020
4903 Clouds 16 1012 77 10000 1 180 20:41 14.04.2020
4904 Clouds 16 1012 77 10000 1 180 20:23 14.04.2020
4905 Clouds 16 1012 77 10000 1 170 19:59 14.04.2020
4906 Clouds 17 1012 72 10000 1.5 160 19:40 14.04.2020
4907 Clouds 17 1012 72 10000 1.5 160 19:40 14.04.2020
4908 Clouds 16 1012 72 10000 1.5 160 19:21 14.04.2020
4909 Clear 17 1012 67 10000 2.1 180 18:57 14.04.2020
4910 Clear 17 1011 67 10000 2.1 190 18:39 14.04.2020
4911 Clear 17 1011 67 10000 2.1 190 18:20 14.04.2020
4912 Clear 18 1011 67 10000 2.1 170 17:57 14.04.2020
4913 Clear 18 1011 67 10000 2.6 180 17:37 14.04.2020
4914 Clear 17 1011 67 10000 2.6 180 17:19 14.04.2020
4915 Clear 18 1011 67 10000 2.6 180 16:54 14.04.2020
4916 Clear 18 1011 67 10000 2.6 180 16:36 14.04.2020
4917 Clear 17 1011 67 10000 2.6 180 16:18 14.04.2020
4918 -273 0 0 0 0 0 15:42 14.04.2020
4919 Clouds 17 1011 67 10000 2.6 150 15:23 14.04.2020
4920 Clouds 17 1011 63 10000 3.1 140 14:59 14.04.2020
4921 Clouds 17 1011 63 10000 3.1 140 14:41 14.04.2020
4922 Clouds 18 1011 63 10000 2.6 150 14:22 14.04.2020
4923 Clouds 17 1011 59 10000 2.6 150 13:57 14.04.2020
4924 Clouds 17 1012 59 10000 3.1 160 13:39 14.04.2020
4925 Clouds 17 1012 59 10000 3.1 160 13:21 14.04.2020
4926 Clouds 17 1012 59 10000 2.1 140 12:42 14.04.2020
4927 Clouds 16 1012 59 10000 2.1 140 12:22 14.04.2020
4928 Clouds 16 1012 59 10000 1.5 0 11:57 14.04.2020
4929 Clouds 16 1012 59 10000 1.5 160 11:39 14.04.2020
4930 Clouds 16 1012 59 10000 1.5 160 11:20 14.04.2020
4931 Clouds 16 1012 55 10000 1 0 10:47 14.04.2020
4932 Clouds 16 1012 59 10000 0.5 0 10:28 14.04.2020
4933 Clouds 15 1012 63 10000 1.5 0 09:59 14.04.2020
4934 Clouds 15 1012 63 10000 1.5 0 09:40 14.04.2020
4935 Clouds 14 1012 72 10000 2.1 320 09:22 14.04.2020
4936 Clouds 13 1012 71 10000 2.6 330 08:44 14.04.2020
4937 Clouds 13 1012 71 10000 2.6 330 08:25 14.04.2020
4938 Clouds 12 1012 76 10000 2.6 330 07:58 14.04.2020
4939 Clouds 12 1012 76 10000 2.6 320 07:40 14.04.2020
4940 Clouds 12 1012 76 10000 2.6 320 07:21 14.04.2020
4941 Clouds 12 1012 76 10000 1.5 0 06:35 14.04.2020
4942 Clouds 11 1012 67 10000 3.6 70 05:22 14.04.2020
4943 Clouds 12 1013 72 10000 4.6 90 03:25 14.04.2020
4944 Clouds 13 1013 77 10000 4.6 80 02:19 14.04.2020
4945 Clouds 13 1014 77 10000 4.6 60 01:26 14.04.2020
4946 Clouds 13 1014 77 10000 4.1 70 00:49 14.04.2020
4947 Clouds 13 1014 72 10000 4.1 80 00:24 14.04.2020
4948 Clouds 12 1014 76 10000 3.6 100 23:56 13.04.2020
4949 Clouds 13 1014 76 10000 3.6 100 23:37 13.04.2020
4950 Clouds 13 1014 76 10000 3.6 100 23:18 13.04.2020
4951 Clouds 13 1014 76 10000 3.1 100 22:42 13.04.2020
4952 Clouds 13 1014 76 10000 3.1 100 22:42 13.04.2020
4953 Clouds 13 1014 77 10000 4.6 150 22:22 13.04.2020
4954 Clouds 14 1013 77 10000 6.7 90 21:58 13.04.2020
4955 Clouds 14 1013 77 10000 5.7 70 21:39 13.04.2020
4956 Clouds 14 1013 77 10000 5.7 70 21:20 13.04.2020
4957 Clouds 15 1013 77 10000 6.2 80 20:56 13.04.2020
4958 Clouds 15 1013 77 10000 5.7 70 20:38 13.04.2020
4959 Clouds 15 1013 77 10000 5.7 70 20:19 13.04.2020
4960 Clouds 15 1013 77 10000 6.7 70 19:57 13.04.2020
4961 Clouds 15 1013 77 10000 7.2 80 19:36 13.04.2020
4962 Clouds 15 1013 77 10000 7.2 80 19:18 13.04.2020
4963 Clouds 15 1013 72 10000 8.7 90 18:55 13.04.2020
4964 Clouds 15 1013 77 10000 8.7 80 18:36 13.04.2020
4965 Clouds 15 1013 77 10000 8.7 80 18:18 13.04.2020
4966 Clouds 15 1013 77 10000 7.7 90 17:55 13.04.2020
4967 Clouds 15 1013 82 10000 6.2 90 17:36 13.04.2020
4968 Clouds 15 1013 82 10000 6.2 90 17:18 13.04.2020
4969 Clouds 15 1013 77 10000 6.2 70 16:55 13.04.2020
4970 Clouds 15 1014 77 10000 6.2 70 16:36 13.04.2020
4971 Clouds 15 1014 77 10000 6.2 70 16:18 13.04.2020
4972 Clouds 16 1014 72 10000 7.2 70 15:45 13.04.2020
4973 Clouds 16 1015 72 10000 7.2 80 15:27 13.04.2020
4974 Clouds 16 1015 67 10000 5.7 70 14:58 13.04.2020
4975 Clouds 16 1015 59 10000 6.7 80 14:40 13.04.2020
4976 Clouds 16 1015 59 10000 6.7 80 14:21 13.04.2020
4977 Clouds 17 1014 59 10000 6.7 90 13:56 13.04.2020
4978 Clouds 17 1014 59 10000 5.7 80 13:38 13.04.2020
4979 Clouds 17 1014 59 10000 5.7 80 13:19 13.04.2020
4980 Clouds 17 1015 67 10000 3.6 80 12:58 13.04.2020
4981 Clouds 17 1015 63 10000 5.1 80 12:39 13.04.2020
4982 Clouds 17 1015 63 10000 5.1 80 12:19 13.04.2020
4983 Clouds 17 1015 63 10000 5.1 80 12:19 13.04.2020
4984 Clouds 17 1015 51 10000 2.6 100 11:57 13.04.2020
4985 Clouds 18 1015 42 10000 1 0 11:39 13.04.2020
4986 Clouds 18 1015 42 10000 1 0 11:18 13.04.2020
4987 Clouds 18 1015 36 10000 1.5 60 10:55 13.04.2020
4988 Clouds 17 1015 48 10000 1.5 60 10:36 13.04.2020
4989 Clouds 16 1015 48 10000 1.5 60 10:18 13.04.2020
4990 Clouds 15 1015 38 10000 1.5 60 09:43 13.04.2020
4991 Clouds 14 1015 38 10000 1 0 09:25 13.04.2020
4992 Clouds 13 1015 38 10000 1.5 360 08:45 13.04.2020
4993 Clouds 12 1016 41 10000 1.5 360 08:27 13.04.2020
4994 Clouds 12 1015 44 10000 2.6 350 07:57 13.04.2020
4995 Clouds 12 1015 43 10000 2.6 350 07:38 13.04.2020
4996 Clouds 11 1015 43 10000 2.6 350 07:18 13.04.2020
4997 Clouds 11 1015 47 10000 2.6 10 06:44 13.04.2020
4998 Clouds 12 1016 44 10000 3.6 330 05:52 13.04.2020
4999 Clouds 12 1016 47 10000 2.6 340 05:20 13.04.2020
5000 Clouds 12 1016 50 10000 1.5 30 04:32 13.04.2020
5001 Clouds 12 1016 50 10000 3.6 320 03:56 13.04.2020
5002 Clouds 12 1016 54 10000 2.6 310 03:34 13.04.2020
5003 Clouds 12 1017 54 10000 2.1 340 02:41 13.04.2020
5004 Clouds 12 1018 58 10000 2.1 310 01:48 13.04.2020
5005 Clouds 12 1018 58 10000 2.6 330 01:28 13.04.2020
5006 Clouds 11 1018 58 10000 2.1 340 00:51 13.04.2020
5007 Clouds 11 1018 67 10000 1.5 320 00:25 13.04.2020
5008 Clouds 13 1018 58 10000 1 0 23:57 12.04.2020
5009 Clouds 13 1018 62 10000 0.5 0 23:39 12.04.2020
5010 Clouds 13 1018 62 10000 0.5 0 23:20 12.04.2020
5011 Clouds 14 1018 62 10000 1.5 330 22:55 12.04.2020
5012 Clouds 14 1018 72 10000 1 0 22:36 12.04.2020
5013 Clouds 14 1018 72 10000 1 0 22:18 12.04.2020
5014 Clouds 14 1018 72 10000 1 170 21:38 12.04.2020
5015 Clouds 15 1018 67 10000 1.5 140 21:20 12.04.2020
5016 Clouds 15 1018 67 10000 1.5 140 20:54 12.04.2020
5017 Clouds 15 1018 59 10000 1.5 100 20:36 12.04.2020
5018 Clouds 15 1018 59 10000 1.5 100 20:18 12.04.2020
5019 Clouds 16 1019 67 10000 1.5 60 19:41 12.04.2020
5020 Clouds 16 1019 67 10000 1.5 60 19:20 12.04.2020
5021 Clouds 16 1019 67 10000 1.5 60 19:20 12.04.2020
5022 Clouds 16 1019 67 10000 1.5 80 18:59 12.04.2020
5023 Clouds 16 1019 63 10000 1.5 110 18:40 12.04.2020
5024 Clouds 17 1019 63 10000 1.5 110 18:19 12.04.2020
5025 Clouds 17 1019 59 10000 2.1 120 17:55 12.04.2020
5026 Clouds 17 1019 59 10000 1.5 120 17:37 12.04.2020
5027 Clouds 17 1019 59 10000 1.5 120 17:37 12.04.2020
5028 Clouds 17 1019 59 10000 1.5 120 17:18 12.04.2020
5029 Clouds 17 1020 59 10000 2.6 150 16:54 12.04.2020
5030 Clouds 17 1020 67 10000 2.1 150 16:36 12.04.2020
5031 Clouds 17 1020 67 10000 2.1 150 16:18 12.04.2020
5032 Clouds 17 1020 67 10000 3.1 130 15:41 12.04.2020
5033 Clear 17 1020 67 10000 3.1 130 15:21 12.04.2020
5034 Clear 17 1021 63 10000 3.1 120 14:39 12.04.2020
5035 Clear 17 1021 63 10000 3.1 120 14:21 12.04.2020
5036 Clear 17 1021 63 10000 4.1 120 13:58 12.04.2020
5037 Clear 17 1021 63 10000 4.1 120 13:58 12.04.2020
5038 Clear 17 1022 67 10000 3.1 110 13:37 12.04.2020
5039 Clear 17 1022 67 10000 3.1 110 13:19 12.04.2020
5040 Clear 17 1022 72 10000 2.6 100 12:47 12.04.2020
5041 Clear 17 1022 72 10000 3.6 110 12:22 12.04.2020
5042 Clear 16 1022 72 10000 3.6 100 11:59 12.04.2020
5043 Clear 16 1022 72 10000 3.1 100 11:38 12.04.2020
5044 Clear 16 1022 72 10000 3.1 100 11:19 12.04.2020
5045 Clear 16 1022 72 10000 3.1 100 10:56 12.04.2020
5046 Clear 16 1022 63 10000 1.5 0 10:38 12.04.2020
5047 Clear 16 1022 63 10000 1.5 0 10:20 12.04.2020
5048 Clear 16 1022 51 10000 1.5 0 09:58 12.04.2020
5049 Clear 15 1022 44 10000 3.1 330 09:39 12.04.2020
5050 Clear 14 1022 44 10000 3.1 330 09:19 12.04.2020
5051 Clear 12 1022 47 10000 3.1 330 08:50 12.04.2020
5052 Clear 11 1022 46 10000 3.6 330 08:31 12.04.2020
5053 Clear 9 1022 50 10000 3.6 330 07:47 12.04.2020
5054 Clear 9 1022 50 10000 3.6 330 07:47 12.04.2020
5055 Clear 8 1022 50 10000 3.6 330 07:20 12.04.2020
5056 Clear 9 1022 50 10000 2.6 330 06:59 12.04.2020
5057 Clear 9 1022 50 10000 3.6 330 06:31 12.04.2020
5058 Clear 9 1022 50 10000 2.6 330 05:49 12.04.2020
5059 Clear 9 1022 46 10000 2.6 340 04:53 12.04.2020
5060 Clear 11 1022 46 10000 2.6 330 03:31 12.04.2020
5061 Clear 11 1022 50 10000 2.1 320 02:49 12.04.2020
5062 Clear 11 1022 58 10000 2.1 320 02:30 12.04.2020
5063 Clear 12 1022 50 10000 3.1 310 01:26 12.04.2020
5064 Clear 12 1022 54 10000 3.1 310 00:55 12.04.2020
5065 Clear 12 1022 54 10000 3.6 330 00:37 12.04.2020
5066 Clear 13 1022 54 10000 3.6 330 00:18 12.04.2020
5067 Clear 13 1022 54 10000 3.6 330 00:18 12.04.2020
5068 Clear 12 1022 50 10000 4.1 330 23:43 11.04.2020
5069 Clear 13 1022 47 10000 3.6 330 23:23 11.04.2020
5070 Clear 14 1022 54 10000 2.1 310 22:39 11.04.2020
5071 Clear 14 1022 54 10000 2.1 310 22:21 11.04.2020
5072 Clear 15 1022 63 10000 1.5 50 21:56 11.04.2020
5073 Clear 15 1022 59 10000 0.5 0 21:37 11.04.2020
5074 Clear 15 1022 59 10000 0.5 0 21:37 11.04.2020
5075 Clear 15 1022 59 10000 0.5 0 21:18 11.04.2020
5076 Clear 16 1022 59 10000 0.5 0 21:18 11.04.2020
5077 Clear 16 1022 59 10000 3.6 220 20:57 11.04.2020
5078 Clear 17 1022 63 10000 2.6 230 20:38 11.04.2020
5079 Clear 17 1022 63 10000 2.6 230 20:20 11.04.2020
5080 Clear 18 1021 59 10000 4.1 210 19:57 11.04.2020
5081 Clear 18 1021 59 10000 4.1 210 19:57 11.04.2020
5082 Clear 17 1022 59 10000 5.1 210 19:38 11.04.2020
5083 Clear 18 1022 59 10000 5.1 210 19:19 11.04.2020
5084 Clear 18 1022 55 10000 5.1 200 18:56 11.04.2020
5085 Clear 19 1022 48 10000 5.1 210 18:37 11.04.2020
5086 Clear 19 1022 48 10000 5.1 210 18:19 11.04.2020
5087 Clear 19 1022 55 10000 4.1 200 17:58 11.04.2020
5088 Clear 19 1022 55 10000 2.1 90 17:40 11.04.2020
5089 Clear 19 1022 55 10000 2.1 90 17:20 11.04.2020
5090 Clear 19 1022 55 10000 2.1 160 16:43 11.04.2020
5091 Clear 19 1023 59 10000 2.6 110 16:22 11.04.2020
5092 Clear 18 1023 59 10000 2.6 100 15:59 11.04.2020
5093 Clear 18 1023 59 10000 2.6 100 15:59 11.04.2020
5094 Clear 19 1023 63 10000 3.1 100 15:37 11.04.2020
5095 Clear 19 1023 63 10000 3.1 100 15:18 11.04.2020
5096 Clear 19 1023 72 10000 3.6 90 14:42 11.04.2020
5097 Clear 19 1023 72 10000 3.6 90 14:23 11.04.2020
5098 Clear 18 1023 67 10000 3.1 90 13:59 11.04.2020
5099 Clear 18 1024 59 10000 4.1 90 13:39 11.04.2020
5100 Clear 18 1024 59 10000 4.1 90 13:19 11.04.2020
5101 Clear 18 1024 67 10000 3.6 100 12:42 11.04.2020
5102 Clear 18 1024 67 10000 3.6 110 12:20 11.04.2020
5103 Clear 17 1024 63 10000 3.1 100 11:58 11.04.2020
5104 Clear 17 1023 63 10000 3.1 110 11:39 11.04.2020
5105 Clear 17 1023 63 10000 3.1 110 11:19 11.04.2020
5106 Clear 17 1023 59 10000 2.1 100 10:43 11.04.2020
5107 Clear 16 1023 27 10000 1.5 110 10:23 11.04.2020
5108 -273 0 0 0 0 0 10:00 11.04.2020
5109 Clear 14 1023 33 10000 4.6 330 09:40 11.04.2020
5110 Clear 14 1023 33 10000 4.6 330 09:21 11.04.2020
5111 Clear 13 1023 35 10000 5.1 340 08:51 11.04.2020
5112 Clear 12 1022 37 10000 5.7 330 08:29 11.04.2020
5113 Clear 11 1022 40 10000 6.7 320 07:55 11.04.2020
5114 Clear 11 1022 40 10000 6.7 320 07:37 11.04.2020
5115 Clear 11 1022 40 10000 6.7 320 07:18 11.04.2020
5116 Clear 11 1022 37 10000 5.1 340 06:35 11.04.2020
5117 Clear 11 1022 37 10000 4.6 330 05:56 11.04.2020
5118 Clear 12 1022 37 10000 3.1 310 03:48 11.04.2020
5119 Clear 12 1022 33 10000 3.6 340 02:50 11.04.2020
5120 Clear 12 1023 35 10000 5.1 320 01:26 11.04.2020
5121 Clear 12 1023 43 10000 5.1 320 00:55 11.04.2020
5122 Clear 12 1023 54 10000 3.1 320 00:37 11.04.2020
5123 Clear 12 1023 54 10000 3.1 320 00:18 11.04.2020
5124 Clear 12 1023 50 10000 4.6 320 23:41 10.04.2020
5125 Clear 12 1023 50 10000 4.6 320 23:19 10.04.2020
5126 Clear 12 1023 58 10000 4.1 320 22:58 10.04.2020
5127 Clear 12 1023 71 10000 2.6 320 22:37 10.04.2020
5128 Clear 13 1023 71 10000 2.6 320 22:19 10.04.2020
5129 Clear 13 1022 87 10000 1.5 230 21:42 10.04.2020
5130 Clear 13 1022 87 10000 1.5 230 21:21 10.04.2020
5131 Clear 15 1022 87 10000 1.5 200 20:58 10.04.2020
5132 Clear 15 1022 87 10000 1 170 20:40 10.04.2020
5133 Clear 16 1022 87 10000 1 170 20:20 10.04.2020
5134 Clear 16 1022 82 10000 1 180 19:56 10.04.2020
5135 Clear 17 1022 82 10000 2.6 190 19:38 10.04.2020
5136 Clear 18 1022 82 10000 2.6 190 19:19 10.04.2020
5137 Clear 18 1022 82 10000 2.1 190 18:56 10.04.2020
5138 Clear 18 1022 77 10000 2.6 180 18:38 10.04.2020
5139 Clear 18 1022 77 10000 2.6 180 18:20 10.04.2020
5140 Clear 18 1022 67 10000 2.6 180 17:57 10.04.2020
5141 Clear 18 1022 59 10000 2.6 160 17:39 10.04.2020
5142 Clear 18 1022 59 10000 2.6 160 17:19 10.04.2020
5143 Clear 19 1022 59 10000 1.5 130 16:46 10.04.2020
5144 Clear 19 1023 67 10000 1.5 170 16:24 10.04.2020
5145 Clear 19 1023 67 10000 1.5 170 16:24 10.04.2020
5146 Clear 19 1023 72 10000 1.5 0 15:59 10.04.2020
5147 Clear 19 1023 72 10000 1.5 0 15:40 10.04.2020
5148 Clear 18 1023 72 10000 1.5 0 15:21 10.04.2020
5149 Clear 18 1023 72 10000 1.5 180 14:59 10.04.2020
5150 Clear 18 1023 77 10000 2.1 170 14:41 10.04.2020
5151 Clear 18 1023 77 10000 2.1 170 14:23 10.04.2020
5152 Clear 18 1023 77 10000 2.1 170 13:56 10.04.2020
5153 Clear 18 1024 77 10000 1.5 170 13:38 10.04.2020
5154 Clear 18 1024 77 10000 1.5 170 13:20 10.04.2020
5155 Clear 18 1024 77 10000 2.1 170 12:42 10.04.2020
5156 Clear 18 1024 72 10000 2.6 160 12:21 10.04.2020
5157 Clear 17 1024 67 10000 3.1 150 11:55 10.04.2020
5158 Clear 17 1023 51 10000 2.6 140 11:36 10.04.2020
5159 Clear 17 1023 51 10000 2.6 140 11:18 10.04.2020
5160 Clear 17 1023 55 10000 1.5 110 10:42 10.04.2020
5161 Clear 17 1023 39 10000 1.5 80 10:22 10.04.2020
5162 Clear 17 1023 36 10000 3.1 340 09:56 10.04.2020
5163 Clear 15 1023 40 10000 2.6 340 09:38 10.04.2020
5164 Clear 15 1023 50 10000 2.6 340 09:18 10.04.2020
5165 Clear 12 1023 50 10000 3.6 330 08:42 10.04.2020
5166 Clear 11 1023 50 10000 3.6 330 08:21 10.04.2020
5167 Clear 11 1023 50 10000 3.6 330 07:45 10.04.2020
5168 Clear 10 1023 50 10000 3.1 340 07:24 10.04.2020
5169 Clear 10 1022 50 10000 3.6 340 06:49 10.04.2020
5170 Clear 10 1022 40 10000 4.1 330 06:28 10.04.2020
5171 Clear 11 1022 40 10000 4.1 330 05:40 10.04.2020
5172 Clear 10 1022 48 10000 4.6 330 04:58 10.04.2020
5173 Clear 11 1022 37 10000 2.1 350 03:50 10.04.2020
5174 Clear 11 1022 37 10000 2.6 330 03:31 10.04.2020
5175 Clear 12 1022 37 10000 1.5 0 02:49 10.04.2020
5176 Clear 12 1022 35 10000 2.1 320 02:30 10.04.2020
5177 Clear 12 1022 35 10000 3.1 330 01:30 10.04.2020
5178 Clear 12 1022 49 10000 3.6 330 00:50 10.04.2020
5179 Clear 13 1022 48 10000 4.1 330 00:24 10.04.2020
5180 Clear 13 1022 41 10000 4.1 330 23:56 09.04.2020
5181 Clear 13 1022 41 10000 3.1 320 23:38 09.04.2020
5182 Clear 13 1022 41 10000 3.1 320 23:19 09.04.2020
5183 Clear 13 1022 44 10000 2.1 330 22:41 09.04.2020
5184 Clear 13 1022 38 10000 2.6 320 22:41 09.04.2020
5185 Clear 14 1022 44 10000 2.1 330 22:23 09.04.2020
5186 Clear 14 1022 58 10000 3.1 260 21:55 09.04.2020
5187 Clear 15 1021 58 10000 1 0 21:37 09.04.2020
5188 Clear 15 1021 58 10000 1 0 21:18 09.04.2020
5189 Clear 16 1021 59 10000 1.5 260 20:41 09.04.2020
5190 Clear 16 1021 55 10000 1 240 20:21 09.04.2020
5191 Clear 17 1021 59 10000 0.59 299 19:58 09.04.2020
5192 Clear 18 1021 63 10000 0.59 299 19:37 09.04.2020
5193 Clear 19 1021 63 10000 0.59 299 19:18 09.04.2020
5194 Clear 18 1021 51 10000 0.59 299 18:41 09.04.2020
5195 Clouds 18 1021 72 10000 1 0 18:20 09.04.2020
5196 Clouds 19 1021 67 10000 1 0 17:41 09.04.2020
5197 Clouds 19 1022 67 10000 2.1 130 17:23 09.04.2020
5198 Clouds 18 1022 63 10000 2.1 130 16:56 09.04.2020
5199 Clouds 19 1022 67 10000 2.1 110 16:38 09.04.2020
5200 Clouds 19 1022 67 10000 2.1 110 16:38 09.04.2020
5201 Clouds 18 1022 67 10000 2.1 110 16:18 09.04.2020
5202 Clouds 19 1022 67 10000 1.5 140 15:55 09.04.2020
5203 Clouds 19 1022 59 10000 1.5 120 15:36 09.04.2020
5204 Clear 19 1022 59 10000 1.5 120 15:18 09.04.2020
5205 Clear 19 1023 59 10000 3.6 90 14:40 09.04.2020
5206 Clear 19 1023 59 10000 3.6 90 14:21 09.04.2020
5207 Clear 19 1023 55 10000 3.1 100 13:54 09.04.2020
5208 Clear 19 1023 45 10000 3.6 100 13:36 09.04.2020
5209 Clear 19 1023 45 10000 3.6 100 13:18 09.04.2020
5210 Clear 20 1023 39 10000 3.1 110 12:41 09.04.2020
5211 Clear 19 1023 32 10000 1.5 150 12:21 09.04.2020
5212 Clear 18 1023 34 10000 1 150 11:58 09.04.2020
5213 Clear 19 1023 30 10000 1 0 11:38 09.04.2020
5214 Clear 19 1023 30 10000 1 0 11:20 09.04.2020
5215 Clear 18 1023 40 10000 1 0 10:57 09.04.2020
5216 Clear 17 1023 40 10000 2.6 330 10:37 09.04.2020
5217 Clear 17 1023 40 10000 3.1 330 10:19 09.04.2020
5218 Clear 17 1023 40 10000 3.1 330 09:55 09.04.2020
5219 Clear 16 1023 27 10000 2.1 340 09:37 09.04.2020
5220 Clear 14 1023 27 10000 2.1 340 09:19 09.04.2020
5221 Clear 14 1022 33 10000 6.2 340 08:42 09.04.2020
5222 Clear 12 1022 35 10000 6.2 340 08:23 09.04.2020
5223 Clear 12 1022 37 10000 4.6 340 07:51 09.04.2020
5224 Clear 11 1022 37 10000 4.1 340 07:23 09.04.2020
5225 Clear 11 1022 37 10000 5.1 340 06:50 09.04.2020
5226 Clear 12 1021 35 10000 4.6 350 05:56 09.04.2020
5227 Clear 12 1021 35 10000 4.1 350 05:37 09.04.2020
5228 Clear 12 1022 35 10000 4.1 340 03:20 09.04.2020
5229 Clear 12 1023 33 10000 3.6 340 02:21 09.04.2020
5230 Clear 13 1023 30 10000 3.1 330 01:39 09.04.2020
5231 Clear 13 1023 30 10000 3.1 330 01:19 09.04.2020
5232 Clear 13 1023 35 10000 4.1 330 00:39 09.04.2020
5233 Clear 13 1023 35 10000 4.1 330 00:19 09.04.2020
5234 Clear 13 1023 35 10000 4.1 330 00:19 09.04.2020
5235 Clear 13 1023 35 10000 3.6 330 23:56 08.04.2020
5236 Clear 12 1023 35 10000 3.6 330 23:37 08.04.2020
5237 Clear 12 1023 35 10000 3.6 330 23:19 08.04.2020
5238 Clear 12 1023 44 10000 3.1 330 22:42 08.04.2020
5239 Clear 12 1023 44 10000 3.1 330 22:23 08.04.2020
5240 Clear 14 1023 38 10000 2.1 340 21:56 08.04.2020
5241 Clear 14 1023 62 10000 2.1 240 21:37 08.04.2020
5242 Clear 14 1023 62 10000 2.1 240 21:19 08.04.2020
5243 Clear 15 1023 48 10000 2.1 240 20:56 08.04.2020
5244 Clear 15 1023 48 10000 1.5 250 20:38 08.04.2020
5245 Clear 15 1023 48 10000 1.5 250 20:19 08.04.2020
5246 Clear 18 1023 42 10000 2.1 220 19:41 08.04.2020
5247 Clear 17 1023 42 10000 2.1 220 19:22 08.04.2020
5248 Clear 19 1023 48 10000 2.1 200 18:56 08.04.2020
5249 Clear 19 1023 45 10000 1.5 170 18:37 08.04.2020
5250 Clear 19 1023 45 10000 1.5 170 18:19 08.04.2020
5251 Clear 18 1024 45 10000 1.5 160 17:42 08.04.2020
5252 Clear 19 1024 42 10000 2.1 190 17:22 08.04.2020
5253 Clear 19 1024 29 10000 2.1 220 16:59 08.04.2020
5254 Clear 19 1025 37 10000 2.1 220 16:40 08.04.2020
5255 Clear 19 1025 37 10000 2.1 220 16:22 08.04.2020
5256 Clear 19 1025 42 10000 2.1 200 15:39 08.04.2020
5257 Clear 19 1025 42 10000 2.1 200 15:39 08.04.2020
5258 Clear 18 1025 42 10000 2.1 200 15:21 08.04.2020
5259 Clear 19 1025 39 10000 2.6 190 14:59 08.04.2020
5260 Clear 19 1025 48 10000 2.6 190 14:41 08.04.2020
5261 Clear 19 1025 48 10000 2.6 190 14:22 08.04.2020
5262 Clear 19 1025 48 10000 2.6 190 14:22 08.04.2020
5263 Clear 19 1025 45 10000 2.1 180 13:45 08.04.2020
5264 Clear 19 1026 52 10000 1.5 190 13:22 08.04.2020
5265 Clear 18 1026 51 10000 2.1 190 12:59 08.04.2020
5266 Clear 18 1026 51 10000 2.1 190 12:41 08.04.2020
5267 Clear 19 1026 48 10000 2.6 200 12:18 08.04.2020
5268 Clear 19 1026 48 10000 2.6 200 12:18 08.04.2020
5269 Clear 18 1026 55 10000 2.6 200 11:54 08.04.2020
5270 Clear 19 1026 36 10000 1.5 300 11:36 08.04.2020
5271 Clear 18 1026 36 10000 1.5 300 11:18 08.04.2020
5272 Clear 17 1026 31 10000 4.1 320 10:54 08.04.2020
5273 Clear 16 1026 33 10000 3.6 330 10:36 08.04.2020
5274 Clear 18 1026 33 10000 3.6 330 10:18 08.04.2020
5275 Clear 17 1026 36 10000 6.2 330 09:42 08.04.2020
5276 Clear 14 1026 50 10000 5.1 330 09:20 08.04.2020
5277 Clear 13 1026 50 10000 5.1 330 08:58 08.04.2020
5278 Clear 13 1026 50 10000 5.1 330 08:58 08.04.2020
5279 Clear 13 1026 50 10000 4.6 340 08:40 08.04.2020
5280 Clear 12 1026 50 10000 4.6 340 08:21 08.04.2020
5281 Clear 11 1026 50 10000 6.7 330 07:43 08.04.2020
5282 Clear 11 1026 50 10000 6.7 330 07:22 08.04.2020
5283 Clear 11 1026 50 10000 5.7 330 06:41 08.04.2020
5284 Clear 12 1026 50 10000 4.6 340 05:30 08.04.2020
5285 Clear 13 1026 50 10000 4.6 330 03:22 08.04.2020
5286 Clear 13 1026 50 10000 3.6 340 02:38 08.04.2020
5287 Clear 13 1026 51 10000 3.6 340 02:18 08.04.2020
5288 Clear 13 1026 51 10000 3.6 330 01:30 08.04.2020
5289 Clear 13 1026 51 10000 3.6 330 00:52 08.04.2020
5290 Clear 13 1027 51 10000 3.6 330 00:33 08.04.2020
5291 Clear 13 1027 50 10000 3.6 330 23:58 07.04.2020
5292 Clear 13 1027 50 10000 4.6 330 23:38 07.04.2020
5293 Clear 13 1027 50 10000 4.6 330 23:20 07.04.2020
5294 Clear 14 1027 38 10000 4.1 330 22:56 07.04.2020
5295 Clear 15 1027 36 10000 2.6 340 22:38 07.04.2020
5296 Clear 15 1027 36 10000 2.6 340 22:19 07.04.2020
5297 Clear 14 1027 41 10000 2.6 320 21:55 07.04.2020
5298 Clear 14 1026 58 10000 1 0 21:37 07.04.2020
5299 Clear 15 1026 58 10000 1 0 21:18 07.04.2020
5300 Clear 15 1026 48 10000 1.5 260 20:55 07.04.2020
5301 Clear 16 1026 55 10000 2.1 270 20:36 07.04.2020
5302 Clear 16 1026 55 10000 2.1 270 20:18 07.04.2020
5303 Clear 17 1026 48 10000 2.1 220 19:55 07.04.2020
5304 Clear 18 1026 45 10000 2.6 210 19:36 07.04.2020
5305 Clear 17 1026 45 10000 2.6 210 19:18 07.04.2020
5306 Clear 20 1026 30 10000 3.1 220 18:41 07.04.2020
5307 Clear 19 1026 30 10000 3.1 220 18:21 07.04.2020
5308 Clear 19 1026 37 10000 2.6 200 17:57 07.04.2020
5309 Clear 20 1027 30 10000 2.6 210 17:38 07.04.2020
5310 Clear 19 1027 30 10000 2.6 210 17:20 07.04.2020
5311 Clear 19 1027 26 10000 2.1 180 16:45 07.04.2020
5312 Clear 20 1027 26 10000 2.1 180 16:26 07.04.2020
5313 Clear 20 1027 34 10000 2.1 190 15:46 07.04.2020
5314 Clear 20 1027 34 10000 2.1 190 15:46 07.04.2020
5315 Clear 20 1027 37 10000 2.1 180 15:27 07.04.2020
5316 Clear 20 1027 34 10000 1.5 0 14:57 07.04.2020
5317 Clear 19 1028 45 10000 1.5 190 14:38 07.04.2020
5318 Clear 19 1028 45 10000 1.5 190 14:20 07.04.2020
5319 Clear 19 1028 48 10000 2.6 180 13:43 07.04.2020
5320 Clear 19 1028 48 10000 2.6 180 13:20 07.04.2020
5321 Clear 19 1028 59 10000 2.6 180 12:59 07.04.2020
5322 Clear 19 1028 59 10000 2.6 150 12:39 07.04.2020
5323 Clear 19 1028 59 10000 2.6 150 12:21 07.04.2020
5324 Clear 20 1028 32 10000 1 110 11:59 07.04.2020
5325 Clear 20 1028 39 10000 1.5 90 11:41 07.04.2020
5326 Clear 18 1028 39 10000 1.5 90 11:21 07.04.2020
5327 Clear 19 1028 32 10000 2.6 340 10:56 07.04.2020
5328 Clear 18 1028 36 10000 3.6 340 10:37 07.04.2020
5329 Clear 18 1028 36 10000 3.6 340 10:18 07.04.2020
5330 Clear 16 1027 41 10000 4.6 340 09:44 07.04.2020
5331 Clear 13 1027 41 10000 5.1 330 09:18 07.04.2020
5332 Clear 13 1027 41 10000 5.1 330 08:42 07.04.2020
5333 Clear 12 1027 43 10000 5.1 340 08:24 07.04.2020
5334 Clear 11 1027 46 10000 4.1 340 07:58 07.04.2020
5335 Clear 10 1026 46 10000 4.6 340 07:40 07.04.2020
5336 Clear 10 1026 46 10000 4.6 340 07:21 07.04.2020
5337 Clear 11 1026 43 10000 3.6 350 06:48 07.04.2020
5338 Clear 10 1026 43 10000 4.1 340 06:20 07.04.2020
5339 Clear 11 1026 43 10000 3.6 340 05:32 07.04.2020
5340 Clear 11 1026 43 10000 4.1 340 04:35 07.04.2020
5341 Clear 12 1026 41 10000 3.1 350 03:24 07.04.2020
5342 Clear 12 1026 41 10000 2.6 350 02:48 07.04.2020
5343 Clear 12 1027 44 10000 3.1 340 01:48 07.04.2020
5344 Clear 12 1026 38 10000 3.1 350 01:24 07.04.2020
5345 Clear 12 1026 41 10000 4.1 330 00:28 07.04.2020
5346 Clear 13 1026 41 10000 4.6 330 23:50 06.04.2020
5347 Clear 14 1026 41 10000 3.1 340 23:24 06.04.2020
5348 Clear 14 1026 44 10000 3.6 330 22:58 06.04.2020
5349 Clear 14 1026 44 10000 2.1 340 22:38 06.04.2020
5350 Clear 14 1026 44 10000 2.1 340 22:20 06.04.2020
5351 Clear 14 1026 41 10000 3.6 320 21:57 06.04.2020
5352 Clear 15 1026 36 10000 2.6 320 21:38 06.04.2020
5353 Clear 15 1026 36 10000 2.6 320 21:18 06.04.2020
5354 Clear 16 1025 31 10000 2.1 340 20:55 06.04.2020
5355 Clear 16 1025 31 10000 1.08 2 20:37 06.04.2020
5356 Clear 16 1025 31 10000 1.08 2 20:18 06.04.2020
5357 Clear 16 1025 39 10000 1.08 2 19:41 06.04.2020
5358 Clear 17 1025 34 10000 1.08 2 19:22 06.04.2020
5359 Clear 17 1024 34 10000 0.5 0 18:58 06.04.2020
5360 Clear 17 1024 37 10000 0.5 0 18:39 06.04.2020
5361 Clear 17 1024 37 10000 0.5 0 18:21 06.04.2020
5362 Clear 18 1024 42 10000 3.6 100 17:42 06.04.2020
5363 Clear 18 1024 42 10000 3.6 100 17:20 06.04.2020
5364 Clear 18 1024 48 10000 4.6 100 16:50 06.04.2020
5365 Clear 18 1025 45 10000 3.6 90 16:32 06.04.2020
5366 Clear 18 1025 45 10000 5.1 80 16:00 06.04.2020
5367 Clear 18 1025 45 10000 5.1 80 15:59 06.04.2020
5368 Clear 18 1025 39 10000 6.7 90 14:33 06.04.2020
5369 Clear 18 1025 45 10000 6.2 80 14:29 06.04.2020
5370 Clear 18 1025 45 10000 6.2 80 14:29 06.04.2020
5371 Clear 18 1025 45 10000 6.2 80 14:29 06.04.2020
5372 Clear 18 1025 45 10000 6.2 80 14:28 06.04.2020
5373 Clear 18 1025 42 10000 3.6 70 13:42 06.04.2020
5374 Clear 18 1025 45 10000 5.1 100 13:20 06.04.2020
5375 Clear 18 1025 45 10000 5.1 100 13:20 06.04.2020
5376 Clear 18 1025 29 10000 1.5 190 12:25 06.04.2020
5377 Clear 18 1025 29 10000 1.5 190 12:25 06.04.2020
5378 Clear 18 1025 29 10000 1.5 190 12:25 06.04.2020
5379 Clear 18 1025 29 10000 1.5 190 12:25 06.04.2020
5380 Clear 18 1025 29 10000 1 0 11:55 06.04.2020
5381 Clear 18 1025 29 10000 1 0 11:55 06.04.2020
5382 Clear 18 1025 25 10000 1 0 11:33 06.04.2020
5383 Clear 19 1025 29 10000 1 0 11:33 06.04.2020
5384 Clear 18 1025 25 10000 1 0 11:33 06.04.2020
5385 Clear 18 1025 25 10000 1 0 11:33 06.04.2020
5386 Clear 19 1025 29 10000 1 0 11:33 06.04.2020
5387 Clear 17 1024 34 10000 2.6 330 10:52 06.04.2020
5388 Clear 17 1024 34 10000 2.6 330 10:52 06.04.2020
5389 Clear 17 1024 34 10000 2.6 330 10:52 06.04.2020
5390 Clear 17 1024 34 10000 2.6 330 10:52 06.04.2020
5391 Clear 17 1024 34 10000 2.6 330 10:52 06.04.2020
5392 Clear 17 1024 38 10000 4.1 330 10:22 06.04.2020
5393 Clear 16 1024 41 10000 5.1 330 09:47 06.04.2020
5394 Clear 13 1024 47 10000 4.6 330 09:22 06.04.2020
5395 Clouds 12 1023 50 10000 5.1 330 08:55 06.04.2020
5396 Clouds 12 1023 50 10000 5.1 330 08:33 06.04.2020
5397 Clouds 11 1023 53 10000 5.1 340 07:51 06.04.2020
5398 Clouds 10 1022 53 10000 5.7 330 06:56 06.04.2020
5399 Clouds 10 1022 53 10000 6.2 330 06:25 06.04.2020
5400 Clouds 11 1023 57 10000 4.1 340 04:32 06.04.2020
5401 Clouds 11 1023 54 10000 5.1 330 03:27 06.04.2020
5402 Clear 12 1023 54 10000 4.6 330 02:44 06.04.2020
5403 Clear 12 1023 54 10000 4.1 330 01:48 06.04.2020
5404 Clear 12 1022 54 10000 3.6 330 00:46 06.04.2020
5405 Clear 11 1022 54 10000 3.6 340 00:25 06.04.2020
5406 Clear 11 1022 54 10000 3.6 330 23:47 05.04.2020
5407 Clear 11 1022 58 10000 3.1 340 23:28 05.04.2020
5408 Clear 11 1022 58 10000 3.1 340 23:28 05.04.2020
5409 Clear 11 1022 58 10000 3.1 340 23:28 05.04.2020
5410 Clear 11 1022 58 10000 3.1 340 23:28 05.04.2020
5411 Clear 11 1022 58 10000 3.1 340 23:28 05.04.2020
5412 Clear 12 1022 54 10000 2.1 330 22:56 05.04.2020
5413 Clear 12 1022 54 10000 2.1 330 22:38 05.04.2020
5414 Clear 12 1022 54 10000 2.6 320 22:19 05.04.2020
5415 Clear 12 1022 67 10000 0.5 0 21:57 05.04.2020
5416 Clear 13 1022 67 10000 0.5 0 21:39 05.04.2020
5417 Clear 13 1021 72 10000 3.41 33 21:20 05.04.2020
5418 Clear 13 1021 72 10000 3.41 33 21:20 05.04.2020
5419 Clear 13 1021 72 10000 3.41 33 21:20 05.04.2020
5420 Clear 13 1021 72 10000 3.41 33 21:20 05.04.2020
5421 Clear 14 1021 59 10000 2.1 190 20:20 05.04.2020
5422 Clear 14 1021 59 10000 2.1 190 20:20 05.04.2020
5423 Clear 14 1021 59 10000 2.1 190 20:20 05.04.2020
5424 Clear 15 1020 59 10000 1.5 190 19:40 05.04.2020
5425 Clear 15 1020 51 10000 2.1 200 19:22 05.04.2020
5426 Clear 15 1020 51 10000 2.1 200 19:22 05.04.2020
5427 Clear 17 1020 51 10000 2.6 190 18:45 05.04.2020
5428 Clear 17 1020 51 10000 2.6 190 18:45 05.04.2020
5429 Clear 16 1021 34 10000 3.1 250 17:58 05.04.2020
5430 Clear 16 1021 34 10000 3.1 250 17:58 05.04.2020
5431 Clear 16 1021 34 10000 3.1 250 17:58 05.04.2020
5432 Clear 16 1021 34 10000 3.1 250 17:39 05.04.2020
5433 Clear 16 1021 34 10000 3.1 250 17:39 05.04.2020
5434 Clear 17 1021 34 10000 3.1 250 17:39 05.04.2020
5435 Clear 17 1021 34 10000 2.6 220 17:20 05.04.2020
5436 Clear 17 1021 34 10000 1.5 190 16:41 05.04.2020
5437 Clear 17 1021 34 10000 1.5 190 16:41 05.04.2020
5438 Clear 17 1021 34 10000 1.5 190 16:41 05.04.2020
5439 Clear 17 1021 34 10000 1.5 190 16:39 05.04.2020
5440 Clear 17 1021 34 10000 1.5 190 16:38 05.04.2020
5441 Clear 17 1021 36 10000 1.5 0 16:18 05.04.2020
5442 Clear 17 1021 42 10000 2.1 220 15:43 05.04.2020
5443 Clear 17 1022 45 10000 3.1 200 15:24 05.04.2020
5444 Clear 17 1022 52 10000 2.6 190 14:47 05.04.2020
5445 Clear 17 1022 52 10000 2.6 190 14:47 05.04.2020
5446 Clear 17 1022 52 10000 2.6 190 14:47 05.04.2020
5447 Clear 17 1022 52 10000 2.6 190 14:47 05.04.2020
5448 Clear 17 1022 52 10000 2.6 190 14:47 05.04.2020
5449 Clear 17 1022 42 10000 2.1 190 13:44 05.04.2020
5450 Clear 16 1023 39 10000 1.5 180 12:55 05.04.2020
5451 Clear 16 1023 39 10000 1.5 180 12:55 05.04.2020
5452 Clear 16 1023 39 10000 1.5 180 12:55 05.04.2020
5453 Clear 16 1023 39 10000 1.5 180 12:55 05.04.2020
5454 Clear 16 1023 39 10000 1 0 11:57 05.04.2020
5455 Clear 16 1023 39 10000 1 0 11:57 05.04.2020
5456 Clear 16 1023 39 10000 1 0 11:57 05.04.2020
5457 Clear 16 1023 39 10000 1 0 11:37 05.04.2020
5458 Clear 16 1023 39 10000 1 0 11:18 05.04.2020
5459 Clear 15 1023 38 10000 3.1 320 10:42 05.04.2020
5460 Clear 16 1023 41 10000 3.1 330 10:19 05.04.2020
5461 Clear 16 1023 41 10000 3.1 330 10:19 05.04.2020
5462 Clear 14 1023 41 10000 4.6 330 09:44 05.04.2020
5463 Clear 12 1023 52 10000 5.7 330 09:24 05.04.2020
5464 Clear 12 1023 52 10000 5.7 330 09:24 05.04.2020
5465 Clear 12 1023 52 10000 5.7 330 09:24 05.04.2020
5466 Clear 12 1023 52 10000 5.7 330 09:24 05.04.2020
5467 Clear 12 1023 49 10000 5.7 330 09:24 05.04.2020
5468 Clear 10 1022 58 10000 3.1 330 07:44 05.04.2020
5469 Clear 10 1022 58 10000 3.1 330 07:44 05.04.2020
5470 Clear 10 1021 40 10000 4.1 340 04:52 05.04.2020
5471 Clear 10 1021 40 10000 4.1 340 04:52 05.04.2020
5472 Clear 11 1022 37 10000 4.1 340 03:34 05.04.2020
5473 Clear 11 1022 37 10000 4.1 350 02:52 05.04.2020
5474 Clear 13 1022 37 10000 2.6 350 01:48 05.04.2020
5475 Clear 11 1022 54 10000 4.6 340 01:30 05.04.2020
5476 Clear 11 1021 54 10000 4.1 350 00:47 05.04.2020
5477 Clear 11 1021 54 10000 4.1 350 00:22 05.04.2020
5478 Clear 11 1021 37 10000 5.7 330 23:56 04.04.2020
5479 Clear 11 1021 37 10000 5.7 330 23:38 04.04.2020
5480 Clear 12 1021 52 10000 4.6 330 23:19 04.04.2020
5481 Clear 12 1021 43 10000 4.1 330 22:55 04.04.2020
5482 Clear 12 1021 43 10000 4.1 330 22:37 04.04.2020
5483 Clear 12 1021 43 10000 4.1 320 22:19 04.04.2020
5484 Clear 12 1021 41 10000 2.1 330 21:54 04.04.2020
5485 Clear 12 1021 41 10000 2.1 330 21:36 04.04.2020
5486 Clouds 13 1020 38 10000 1.5 340 21:18 04.04.2020
5487 Clouds 14 1020 51 10000 1.5 290 20:42 04.04.2020
5488 Clouds 14 1020 51 10000 2.1 250 20:23 04.04.2020
5489 Clouds 15 1020 55 10000 2.1 220 19:58 04.04.2020
5490 Clouds 15 1020 55 10000 2.1 220 19:37 04.04.2020
5491 Clouds 16 1020 63 10000 2.1 200 19:19 04.04.2020
5492 Clouds 17 1019 59 10000 2.1 180 18:57 04.04.2020
5493 Clouds 17 1019 59 10000 2.1 180 18:38 04.04.2020
5494 Clouds 17 1020 63 10000 1.5 180 18:19 04.04.2020
5495 Clouds 17 1020 59 10000 1.5 180 17:56 04.04.2020
5496 Clouds 17 1020 59 10000 1.5 180 17:38 04.04.2020
5497 Clouds 17 1020 51 10000 1.5 180 17:18 04.04.2020
5498 Clouds 17 1020 48 10000 1.5 170 16:42 04.04.2020
5499 Clouds 17 1020 48 10000 1.5 170 16:23 04.04.2020
5500 Clouds 17 1020 45 10000 2.1 170 15:58 04.04.2020
5501 Clouds 17 1020 45 10000 2.1 170 15:38 04.04.2020
5502 Clear 18 1020 45 10000 2.1 170 15:19 04.04.2020
5503 Clear 18 1020 45 10000 2.1 170 15:19 04.04.2020
5504 Clear 17 1020 51 10000 2.1 180 14:46 04.04.2020
5505 Clear 18 1020 51 10000 1.5 180 14:25 04.04.2020
5506 Clear 18 1020 51 10000 2.1 180 13:58 04.04.2020
5507 Clear 17 1020 51 10000 2.1 180 13:40 04.04.2020
5508 Clear 17 1021 51 10000 2.1 170 13:20 04.04.2020
5509 Clear 17 1021 55 10000 3.1 160 12:57 04.04.2020
5510 Clear 17 1021 55 10000 3.1 160 12:39 04.04.2020
5511 Clear 16 1021 55 10000 2.6 160 12:19 04.04.2020
5512 Clear 16 1020 55 10000 2.6 150 11:41 04.04.2020
5513 Clear 16 1020 42 10000 2.1 120 11:23 04.04.2020
5514 Clear 15 1020 41 10000 2.6 330 10:59 04.04.2020
5515 Clear 14 1020 41 10000 2.6 330 10:40 04.04.2020
5516 Clear 14 1020 44 10000 3.6 330 10:22 04.04.2020
5517 Clear 13 1019 47 10000 4.1 330 09:56 04.04.2020
5518 Clear 12 1019 47 10000 4.1 330 09:38 04.04.2020
5519 Clear 12 1019 54 10000 5.1 330 09:20 04.04.2020
5520 Clear 10 1019 53 10000 4.6 330 08:43 04.04.2020
5521 Clear 9 1019 53 10000 4.1 340 08:23 04.04.2020
5522 Clear 9 1018 57 10000 4.6 340 07:59 04.04.2020
5523 Clear 8 1018 57 10000 4.6 340 07:39 04.04.2020
5524 Clear 9 1018 53 10000 5.1 340 07:21 04.04.2020
5525 Clear 9 1018 53 10000 4.1 340 06:40 04.04.2020
5526 Clear 9 1017 53 10000 3.1 330 05:52 04.04.2020
5527 Clear 8 1017 53 10000 3.1 330 05:33 04.04.2020
5528 Clear 9 1017 57 10000 4.1 350 04:34 04.04.2020
5529 Clear 9 1016 57 10000 4.6 350 03:57 04.04.2020
5530 Clear 9 1016 57 10000 4.6 350 03:37 04.04.2020
5531 Clear 9 1016 57 10000 4.1 350 02:48 04.04.2020
5532 Clear 9 1016 57 10000 4.1 340 02:29 04.04.2020
5533 Clear 9 1016 57 10000 5.7 330 01:48 04.04.2020
5534 Clear 9 1016 57 10000 5.1 330 01:21 04.04.2020
5535 Clear 9 1016 62 10000 4.6 330 00:45 04.04.2020
5536 Clear 9 1016 62 10000 4.1 330 00:26 04.04.2020
5537 Clear 10 1016 62 10000 5.1 330 23:38 03.04.2020
5538 Clear 10 1016 62 10000 4.1 330 23:19 03.04.2020
5539 Clear 10 1015 62 10000 4.1 330 22:55 03.04.2020
5540 Clear 11 1015 62 10000 4.1 330 22:36 03.04.2020
5541 Clear 11 1015 62 10000 4.1 320 22:18 03.04.2020
5542 Clouds 11 1015 62 10000 3.1 320 21:42 03.04.2020
5543 Clouds 11 1015 58 10000 1.5 340 21:22 03.04.2020
5544 Clouds 11 1014 62 10000 1.5 250 20:56 03.04.2020
5545 Clouds 11 1014 62 10000 1.5 250 20:36 03.04.2020
5546 Clouds 12 1014 62 10000 2.1 230 20:18 03.04.2020
5547 Clouds 12 1014 62 10000 2.1 230 20:18 03.04.2020
5548 Clouds 13 1014 58 10000 2.1 220 19:56 03.04.2020
5549 Clouds 13 1014 58 10000 2.1 220 19:37 03.04.2020
5550 Clouds 14 1014 58 10000 2.6 220 19:19 03.04.2020
5551 Clouds 14 1013 62 10000 2.6 190 18:58 03.04.2020
5552 Clouds 14 1013 62 10000 2.6 190 18:40 03.04.2020
5553 Clouds 14 1013 58 10000 2.1 190 18:22 03.04.2020
5554 Clouds 13 1013 58 10000 2.1 200 17:43 03.04.2020
5555 Clouds 13 1014 58 10000 2.6 190 17:21 03.04.2020
5556 Clouds 13 1014 58 10000 2.6 190 17:21 03.04.2020
5557 Clouds 13 1014 58 10000 2.1 180 16:58 03.04.2020
5558 Clouds 13 1014 58 10000 2.1 180 16:40 03.04.2020
5559 Clouds 14 1014 54 10000 2.1 180 16:21 03.04.2020
5560 Clouds 14 1014 54 10000 2.1 170 15:57 03.04.2020
5561 Clouds 14 1014 54 10000 2.1 170 15:38 03.04.2020
5562 Clouds 14 1014 54 10000 2.1 160 15:19 03.04.2020
5563 Clouds 14 1014 54 10000 2.1 160 15:19 03.04.2020
5564 Clear 13 1013 57 0 0.45 76 14:41 03.04.2020
5565 Clear 13 1013 57 0 0.45 76 14:41 03.04.2020
5566 Clouds 14 1014 50 10000 2.1 120 14:22 03.04.2020
5567 Clouds 13 1014 50 10000 2.1 120 13:59 03.04.2020
5568 Clouds 14 1014 50 10000 2.1 120 13:40 03.04.2020
5569 Clouds 13 1014 50 10000 2.1 120 13:22 03.04.2020
5570 Clear 13 1014 50 10000 2.1 120 12:43 03.04.2020
5571 Clear 13 1014 54 10000 2.6 120 12:20 03.04.2020
5572 Clear 12 1014 54 10000 2.6 120 11:57 03.04.2020
5573 Clear 13 1014 54 10000 2.6 120 11:38 03.04.2020
5574 Clear 13 1014 54 10000 2.6 120 11:38 03.04.2020
5575 Clear 13 1014 50 10000 1.5 100 11:20 03.04.2020
5576 Clear 13 1014 47 10000 1.5 0 10:59 03.04.2020
5577 Clear 12 1014 47 10000 1.5 0 10:38 03.04.2020
5578 Clear 12 1013 50 10000 2.1 330 10:20 03.04.2020
5579 Clear 11 1013 57 10000 3.6 330 09:59 03.04.2020
5580 Clear 11 1013 57 10000 3.6 330 09:40 03.04.2020
5581 Clear 8 1013 61 10000 3.6 330 09:21 03.04.2020
5582 Clear 7 1013 65 10000 3.6 340 08:55 03.04.2020
5583 Clear 6 1013 65 10000 3.6 340 08:37 03.04.2020
5584 Clear 6 1013 65 10000 3.6 340 08:37 03.04.2020
5585 Clear 6 1013 70 10000 3.6 330 08:18 03.04.2020
5586 Clear 5 1012 70 10000 3.6 330 07:46 03.04.2020
5587 Clear 4 1012 70 10000 3.6 330 07:27 03.04.2020
5588 Clear 4 1012 70 10000 4.1 330 06:40 03.04.2020
5589 Clear 4 1012 70 10000 3.1 330 06:22 03.04.2020
5590 Clear 4 1012 70 10000 2.6 330 05:39 03.04.2020
5591 Clear 5 1012 65 10000 4.1 330 03:42 03.04.2020
5592 Clear 5 1012 65 10000 3.6 330 02:55 03.04.2020
5593 Clear 5 1012 65 10000 4.1 320 02:18 03.04.2020
5594 Clear 6 1013 65 10000 5.1 320 01:20 03.04.2020
5595 Clear 6 1013 65 10000 4.6 320 00:34 03.04.2020
5596 Clear 7 1013 70 10000 4.6 330 23:58 02.04.2020
5597 Clear 6 1013 70 10000 4.6 330 23:39 02.04.2020
5598 Clear 6 1013 70 10000 4.6 330 23:39 02.04.2020
5599 Clear 6 1013 70 10000 4.6 330 23:39 02.04.2020
5600 Clear 6 1013 70 10000 4.1 320 23:21 02.04.2020
5601 Clear 6 1013 66 10000 3.1 320 22:57 02.04.2020
5602 Clear 6 1013 66 10000 3.1 320 22:37 02.04.2020
5603 Clear 6 1013 66 10000 2.6 320 22:18 02.04.2020
5604 Clear 6 1013 57 10000 0.5 240 21:38 02.04.2020
5605 Clouds 7 1013 53 10000 0.58 113 21:19 02.04.2020
5606 Clouds 7 1013 53 10000 0.95 103 21:19 02.04.2020
5607 Clouds 8 1013 53 10000 1 180 20:57 02.04.2020
5608 Clouds 8 1013 53 10000 1 180 20:39 02.04.2020
5609 Clouds 9 1012 53 10000 1 0 20:19 02.04.2020
5610 Clouds 9 1013 50 10000 1.5 0 19:43 02.04.2020
5611 Clouds 9 1013 46 10000 1.5 170 19:21 02.04.2020
5612 Clouds 9 1013 46 10000 1.5 170 19:21 02.04.2020
5613 Clouds 10 1013 50 10000 2.6 150 18:58 02.04.2020
5614 Clouds 10 1013 50 10000 2.6 150 18:39 02.04.2020
5615 Clouds 12 1013 50 10000 2.6 150 18:20 02.04.2020
5616 Clouds 11 1013 54 10000 3.1 150 17:56 02.04.2020
5617 Clouds 11 1013 54 10000 3.1 150 17:38 02.04.2020
5618 Clouds 11 1013 54 10000 3.6 120 17:18 02.04.2020
5619 Clouds 11 1013 54 10000 3.6 120 17:18 02.04.2020
5620 Clouds 12 1013 43 10000 3.6 120 16:55 02.04.2020
5621 Clouds 12 1013 43 10000 3.6 120 16:36 02.04.2020
5622 Clouds 11 1013 47 10000 3.6 110 16:18 02.04.2020
5623 Clouds 12 1014 43 10000 3.6 110 15:44 02.04.2020
5624 Clouds 12 1014 43 10000 3.6 110 15:44 02.04.2020
5625 Clouds 12 1014 43 10000 3.6 110 15:44 02.04.2020
5626 Clouds 11 1014 48 10000 4.1 110 15:21 02.04.2020
5627 Clouds 11 1014 47 10000 4.1 100 14:58 02.04.2020
5628 Clouds 11 1014 47 10000 4.1 100 14:39 02.04.2020
5629 Clouds 11 1014 48 10000 4.6 110 14:19 02.04.2020
5630 Clouds 11 1015 43 10000 4.6 110 13:56 02.04.2020
5631 Clouds 11 1015 43 10000 4.6 110 13:38 02.04.2020
5632 Clouds 11 1015 47 10000 4.6 100 13:19 02.04.2020
5633 Clouds 12 1015 47 10000 4.6 100 12:55 02.04.2020
5634 Clouds 12 1015 47 10000 4.6 100 12:36 02.04.2020
5635 Clouds 10 1015 48 10000 5.1 80 12:18 02.04.2020
5636 Clouds 10 1015 46 10000 5.1 90 11:55 02.04.2020
5637 Clouds 10 1015 46 10000 5.1 90 11:36 02.04.2020
5638 Clouds 10 1015 46 10000 5.7 100 11:18 02.04.2020
5639 Clouds 9 1015 48 10000 5.1 100 10:54 02.04.2020
5640 Clouds 9 1015 48 10000 5.1 100 10:36 02.04.2020
5641 Clouds 9 1015 50 10000 1.5 320 10:18 02.04.2020
5642 Clouds 8 1015 61 10000 2.6 330 09:42 02.04.2020
5643 Clouds 7 1015 65 10000 3.1 330 09:24 02.04.2020
5644 Clouds 6 1015 65 10000 4.1 330 08:58 02.04.2020
5645 Clouds 6 1015 65 10000 4.1 330 08:39 02.04.2020
5646 Clouds 6 1015 70 10000 4.1 330 08:19 02.04.2020
5647 Clouds 4 1015 70 10000 4.1 330 07:42 02.04.2020
5648 Clear 4 1015 70 10000 4.1 330 07:19 02.04.2020
5649 Clear 4 1015 70 10000 3.6 330 06:57 02.04.2020
5650 Clear 4 1015 70 10000 4.1 330 06:20 02.04.2020
5651 Clear 4 1015 70 10000 3.6 330 05:42 02.04.2020
5652 Clouds 5 1016 70 10000 2.6 330 03:24 02.04.2020
5653 Clouds 6 1017 65 10000 3.6 330 01:31 02.04.2020
5654 Clouds 6 1017 61 10000 3.1 330 00:46 02.04.2020
5655 Clouds 6 1017 61 10000 2.6 330 00:26 02.04.2020
5656 Clouds 7 1017 57 10000 2.1 330 23:41 01.04.2020
5657 Clouds 7 1017 53 10000 2.6 330 23:20 01.04.2020
5658 Clouds 7 1017 53 10000 2.1 320 22:59 01.04.2020
5659 Clouds 7 1017 53 10000 2.1 320 22:39 01.04.2020
5660 Clouds 7 1017 53 10000 2.1 330 22:21 01.04.2020
5661 Clouds 8 1017 52 10000 2.1 350 21:42 01.04.2020
5662 Clouds 7 1017 53 10000 2.1 350 21:22 01.04.2020
5663 Clouds 7 1017 53 10000 2.1 350 21:22 01.04.2020
5664 Clouds 7 1017 52 10000 2.1 350 21:22 01.04.2020
5665 Clouds 7 1017 53 10000 2.1 350 21:21 01.04.2020
5666 Clouds 7 1017 53 10000 2.1 350 21:20 01.04.2020
5667 Clouds 7 1017 43 10000 1.5 0 20:57 01.04.2020
5668 Clouds 8 1017 53 10000 1 0 20:39 01.04.2020
5669 Clouds 9 1017 53 10000 1 0 20:21 01.04.2020
5670 Clouds 8 1017 53 10000 0.5 0 19:59 01.04.2020
5671 Clouds 8 1017 53 10000 0.5 0 19:41 01.04.2020
5672 Clouds 8 1017 50 10000 2.6 120 19:20 01.04.2020
5673 Clouds 9 1017 53 10000 3.1 120 18:46 01.04.2020
5674 Clouds 9 1017 46 10000 4.1 110 18:26 01.04.2020
5675 Clouds 9 1017 50 10000 5.1 100 17:58 01.04.2020
5676 Clouds 9 1017 50 10000 5.1 100 17:38 01.04.2020
5677 Clouds 10 1018 50 10000 5.7 100 17:20 01.04.2020
5678 Clouds 10 1018 46 10000 5.1 100 16:59 01.04.2020
5679 Clouds 10 1018 46 10000 5.1 100 16:40 01.04.2020
5680 Clouds 11 1018 50 10000 5.1 100 16:22 01.04.2020
5681 Clouds 10 1018 40 10000 5.1 100 15:58 01.04.2020
5682 Clouds 10 1018 40 10000 5.1 100 15:38 01.04.2020
5683 Clouds 10 1018 40 10000 5.1 100 15:38 01.04.2020
5684 Clouds 10 1019 46 10000 5.7 90 15:20 01.04.2020
5685 Clouds 10 1019 50 10000 6.7 90 14:57 01.04.2020
5686 Clouds 10 1019 50 10000 6.7 90 14:38 01.04.2020
5687 Clouds 10 1019 40 10000 6.7 90 14:19 01.04.2020
5688 Clouds 10 1020 50 10000 7.7 90 13:58 01.04.2020
5689 Clouds 9 1020 50 10000 7.7 90 13:37 01.04.2020
5690 Clouds 8 1020 43 10000 7.2 90 13:19 01.04.2020
5691 Clouds 10 1020 50 10000 8.2 80 12:54 01.04.2020
5692 Clouds 10 1020 50 10000 8.2 80 12:36 01.04.2020
5693 Clouds 10 1020 43 10000 7.7 80 12:18 01.04.2020
5694 Clouds 10 1020 43 10000 7.7 80 12:18 01.04.2020
5695 Clouds 10 1020 50 10000 8.7 90 11:42 01.04.2020
5696 Clouds 10 1021 50 10000 10.3 80 11:23 01.04.2020
5697 Clouds 10 1020 50 10000 10.3 80 10:58 01.04.2020
5698 Clouds 9 1020 50 10000 10.3 80 10:38 01.04.2020
5699 Clouds 9 1020 43 10000 10.3 90 10:19 01.04.2020
5700 Clouds 10 1020 46 10000 10.8 80 09:57 01.04.2020
5701 Clouds 10 1020 46 10000 10.8 80 09:57 01.04.2020
5702 Clouds 10 1020 46 10000 10.8 80 09:38 01.04.2020
5703 Clouds 7 1020 46 10000 11.8 80 09:18 01.04.2020
5704 Clouds 7 1020 55 10000 11.3 80 08:40 01.04.2020
5705 Clouds 7 1020 53 10000 10.8 80 08:18 01.04.2020
5706 Clouds 7 1020 55 10000 11.8 90 07:44 01.04.2020
5707 Clouds 7 1019 53 10000 12.3 100 07:21 01.04.2020
5708 Clouds 7 1019 53 10000 11.8 80 06:48 01.04.2020
5709 Clouds 7 1019 50 10000 12.9 90 06:26 01.04.2020
5710 Clouds 7 1020 50 10000 12.3 90 05:56 01.04.2020
5711 Clouds 8 1020 50 10000 11.8 100 04:33 01.04.2020
5712 Clouds 9 1020 53 10000 11.8 80 03:32 01.04.2020
5713 Clouds 9 1020 50 10000 12.3 80 02:57 01.04.2020
5714 Clouds 9 1020 50 10000 12.9 90 01:59 01.04.2020
5715 Clouds 9 1020 50 10000 12.9 90 01:40 01.04.2020
5716 Clouds 9 1020 54 10000 12.3 90 01:20 01.04.2020
5717 Clouds 9 1020 46 10000 12.9 90 00:46 01.04.2020
5718 Clouds 9 1019 54 10000 11.8 90 00:21 01.04.2020
5719 Clouds 9 1020 58 10000 8.7 80 23:48 31.03.2020
5720 Clouds 9 1019 62 10000 6.2 90 23:28 31.03.2020
5721 Clouds 10 1019 62 10000 1 0 22:59 31.03.2020
5722 Clouds 9 1019 62 10000 1 0 22:37 31.03.2020
5723 Clouds 9 1019 66 10000 1 0 22:19 31.03.2020
5724 Clouds 9 1018 66 10000 1.5 320 21:57 31.03.2020
5725 Clouds 9 1018 66 10000 1.5 320 21:39 31.03.2020
5726 Clouds 9 1018 66 10000 1.5 20 21:20 31.03.2020
5727 Clouds 9 1018 66 10000 3.1 310 20:56 31.03.2020
5728 Clouds 9 1018 66 10000 3.1 310 20:37 31.03.2020
5729 Clouds 11 1017 66 10000 3.1 320 20:18 31.03.2020
5730 Clouds 11 1017 58 10000 6.28 76 19:55 31.03.2020
5731 Clouds 10 1017 58 10000 6.28 76 19:36 31.03.2020
5732 Clouds 10 1017 58 10000 1.5 0 19:18 31.03.2020
5733 Clouds 10 1017 62 10000 5.1 130 18:41 31.03.2020
5734 Clouds 10 1017 62 10000 5.7 110 18:20 31.03.2020
5735 Clouds 11 1017 62 10000 7.2 110 17:56 31.03.2020
5736 Clouds 11 1017 62 10000 7.2 110 17:56 31.03.2020
5737 Clouds 11 1017 62 10000 7.2 110 17:38 31.03.2020
5738 Clouds 10 1017 66 10000 6.2 110 17:20 31.03.2020
5739 Clouds 11 1017 66 10000 2.6 120 16:42 31.03.2020
5740 Clouds 11 1017 66 10000 2.1 310 16:20 31.03.2020
5741 Clouds 11 1017 62 10000 1.5 0 15:59 31.03.2020
5742 Clouds 11 1017 62 10000 1.5 0 15:41 31.03.2020
5743 Clouds 10 1018 66 10000 1.5 190 15:23 31.03.2020
5744 Clouds 11 1018 71 10000 5.1 130 14:59 31.03.2020
5745 Clouds 11 1018 71 10000 5.1 130 14:41 31.03.2020
5746 Clouds 11 1018 71 10000 5.7 130 14:22 31.03.2020
5747 Clouds 11 1018 71 10000 5.1 120 13:55 31.03.2020
5748 Clouds 11 1018 71 10000 5.1 120 13:37 31.03.2020
5749 Clouds 11 1018 71 10000 5.7 120 13:18 31.03.2020
5750 Clouds 10 1017 71 10000 6.7 120 12:44 31.03.2020
5751 Clouds 10 1017 76 10000 5.1 130 12:20 31.03.2020
5752 Clouds 10 1017 76 10000 5.1 130 12:20 31.03.2020
5753 Clouds 11 1017 81 10000 1.5 310 11:55 31.03.2020
5754 Clouds 11 1017 81 10000 1.5 310 11:36 31.03.2020
5755 Clouds 11 1017 81 10000 1.5 310 11:36 31.03.2020
5756 Rain 11 1017 81 10000 6.83 85 11:18 31.03.2020
5757 Rain 11 1017 81 10000 1 0 10:55 31.03.2020
5758 Rain 11 1017 87 7000 2.1 300 10:37 31.03.2020
5759 Rain 11 1017 87 7000 2.1 300 10:18 31.03.2020
5760 Clouds 11 1016 81 10000 1.5 300 09:43 31.03.2020
5761 Clouds 11 1016 81 10000 3.1 100 09:25 31.03.2020
5762 Clouds 10 1016 87 10000 5.7 100 08:58 31.03.2020
5763 Clouds 11 1016 87 10000 5.7 100 08:39 31.03.2020
5764 Clouds 11 1016 87 10000 5.1 100 08:20 31.03.2020
5765 Clouds 11 1016 87 10000 5.1 100 08:20 31.03.2020
5766 Clouds 10 1015 87 10000 5.7 90 07:57 31.03.2020
5767 Clouds 9 1015 87 10000 5.7 90 07:38 31.03.2020
5768 Rain 10 1015 82 10000 6.2 80 07:20 31.03.2020
5769 Clouds 9 1015 93 10000 6.2 90 06:51 31.03.2020
5770 Clouds 9 1015 93 10000 6.2 90 06:31 31.03.2020
5771 Clouds 9 1014 87 10000 3.1 320 05:41 31.03.2020
5772 Clouds 9 1014 87 10000 2.6 330 03:57 31.03.2020
5773 Clouds 9 1014 87 10000 3.1 330 02:26 31.03.2020
5774 Clouds 9 1014 87 10000 3.1 330 01:46 31.03.2020
5775 Clouds 9 1014 87 10000 2.1 320 00:52 31.03.2020
5776 Clouds 9 1014 87 10000 2.6 330 00:25 31.03.2020
5777 Clouds 10 1014 93 10000 2.6 330 23:59 30.03.2020
5778 Clouds 10 1014 93 10000 2.6 330 23:38 30.03.2020
5779 Clouds 10 1014 93 10000 2.6 320 23:19 30.03.2020
5780 Clouds 10 1014 87 10000 2.1 330 22:57 30.03.2020
5781 Clouds 11 1014 87 10000 2.1 330 22:38 30.03.2020
5782 Clouds 10 1013 87 10000 1.5 330 22:18 30.03.2020
5783 Clouds 11 1013 87 10000 1 330 21:57 30.03.2020
5784 Clouds 11 1013 87 10000 1 330 21:37 30.03.2020
5785 Clouds 11 1013 87 10000 1 0 21:19 30.03.2020
5786 Rain 12 1013 87 10000 1 0 20:56 30.03.2020
5787 Rain 12 1013 87 10000 1 0 20:37 30.03.2020
5788 Rain 12 1013 87 10000 1.5 210 20:19 30.03.2020
5789 Rain 12 1013 82 10000 1.5 200 19:41 30.03.2020
5790 Rain 12 1013 82 10000 1.5 200 19:41 30.03.2020
5791 Rain 13 1013 82 10000 2.1 190 19:22 30.03.2020
5792 Clouds 13 1013 82 10000 2.6 200 18:57 30.03.2020
5793 Clouds 13 1013 82 10000 2.6 200 18:39 30.03.2020
5794 Clouds 13 1013 82 10000 2.6 200 18:39 30.03.2020
5795 Clouds 13 1012 82 10000 3.1 190 18:21 30.03.2020
5796 Clouds 13 1012 77 10000 2.6 180 17:57 30.03.2020
5797 Clouds 12 1012 77 10000 2.6 180 17:39 30.03.2020
5798 Clouds 13 1012 77 10000 2.6 180 17:19 30.03.2020
5799 Clouds 13 1012 77 10000 2.6 160 16:57 30.03.2020
5800 Clouds 13 1012 77 10000 2.6 160 16:38 30.03.2020
5801 Clouds 13 1012 77 10000 2.6 150 16:20 30.03.2020
5802 Clouds 14 1013 77 10000 2.1 130 15:55 30.03.2020
5803 Clouds 13 1013 77 10000 2.1 130 15:37 30.03.2020
5804 Clouds 13 1013 77 10000 2.6 140 15:18 30.03.2020
5805 Clouds 14 1013 77 10000 3.1 130 14:55 30.03.2020
5806 Clouds 14 1013 77 10000 3.1 130 14:36 30.03.2020
5807 Clouds 14 1013 77 10000 2.6 130 14:18 30.03.2020
5808 Clouds 14 1013 77 10000 2.6 110 13:44 30.03.2020
5809 Clouds 14 1013 77 10000 3.1 100 13:21 30.03.2020
5810 Clouds 14 1013 72 10000 3.1 110 12:59 30.03.2020
5811 Clouds 14 1013 72 10000 3.1 110 12:41 30.03.2020
5812 Clouds 14 1013 77 10000 3.1 110 12:19 30.03.2020
5813 Clouds 14 1013 77 10000 2.6 100 11:57 30.03.2020
5814 Clouds 14 1013 77 10000 2.6 100 11:39 30.03.2020
5815 Clouds 14 1013 77 10000 3.6 80 11:21 30.03.2020
5816 Clouds 12 1013 82 10000 4.1 80 10:41 30.03.2020
5817 Clouds 12 1013 82 10000 3.6 80 10:22 30.03.2020
5818 Clouds 11 1012 82 10000 3.6 80 09:58 30.03.2020
5819 Clouds 11 1012 82 10000 3.6 80 09:40 30.03.2020
5820 Clouds 10 1012 87 10000 4.1 80 09:19 30.03.2020
5821 Clouds 10 1012 87 10000 2.6 60 08:44 30.03.2020
5822 Clouds 9 1012 87 10000 1.5 30 08:23 30.03.2020
5823 Clouds 9 1011 87 10000 1.5 350 07:55 30.03.2020
5824 Clouds 9 1011 87 10000 1.5 350 07:37 30.03.2020
5825 Clouds 9 1011 87 10000 2.1 40 07:18 30.03.2020
5826 Clouds 9 1011 87 10000 1 0 06:37 30.03.2020
5827 Clouds 9 1011 87 10000 1 20 06:18 30.03.2020
5828 Clouds 10 1011 87 10000 1 340 05:39 30.03.2020
5829 Clouds 11 1011 82 10000 1.5 40 04:28 30.03.2020
5830 Clouds 11 1011 87 10000 1.5 40 03:52 30.03.2020
5831 Clouds 11 1011 82 10000 0.5 330 02:44 30.03.2020
5832 Rain 11 1012 82 10000 0.5 60 01:54 30.03.2020
5833 Clouds 11 1012 87 10000 0.5 60 00:57 30.03.2020
5834 Clouds 12 1012 87 10000 0.69 137 00:26 30.03.2020
5835 Clouds 12 1012 87 10000 0.85 160 23:55 29.03.2020
5836 Clouds 12 1012 87 10000 0.85 160 23:36 29.03.2020
5837 Clouds 12 1012 87 10000 0.85 160 23:18 29.03.2020
5838 Clouds 12 1012 82 10000 1 150 22:40 29.03.2020
5839 Clouds 12 1012 82 10000 1 160 22:20 29.03.2020
5840 Clouds 12 1012 82 10000 1.5 190 21:59 29.03.2020
5841 Clouds 12 1012 82 10000 1.5 190 21:38 29.03.2020
5842 Clouds 12 1012 82 10000 2.1 180 21:20 29.03.2020
5843 Clouds 12 1011 82 10000 1.5 170 20:55 29.03.2020
5844 Clouds 12 1011 82 10000 1.5 170 20:55 29.03.2020
5845 Clouds 12 1011 82 10000 1.5 170 20:37 29.03.2020
5846 Clouds 13 1011 82 10000 1.5 190 20:18 29.03.2020
5847 Rain 13 1011 82 10000 1 180 19:56 29.03.2020
5848 Rain 13 1011 82 10000 1 180 19:38 29.03.2020
5849 Clouds 13 1011 82 10000 1 180 19:19 29.03.2020
5850 Clouds 13 1011 82 10000 1.5 170 18:56 29.03.2020
5851 Clouds 13 1011 82 10000 1.5 170 18:38 29.03.2020
5852 Clouds 14 1011 77 10000 1.5 170 18:18 29.03.2020
5853 Clouds 14 1011 77 10000 2.1 160 17:55 29.03.2020
5854 Clouds 14 1012 77 10000 2.6 160 17:37 29.03.2020
5855 Clouds 15 1012 77 10000 2.6 160 17:18 29.03.2020
5856 Clouds 15 1012 77 10000 2.6 150 16:55 29.03.2020
5857 Clouds 15 1012 77 10000 2.6 150 16:36 29.03.2020
5858 Clouds 15 1012 77 10000 2.6 130 16:18 29.03.2020
5859 Clouds 15 1012 77 10000 3.1 130 15:41 29.03.2020
5860 Clouds 16 1012 72 10000 3.1 120 15:23 29.03.2020
5861 Clouds 16 1012 72 10000 3.1 120 15:23 29.03.2020
5862 Clouds 15 1012 72 10000 4.1 110 14:57 29.03.2020
5863 Clouds 16 1012 72 10000 4.1 110 14:39 29.03.2020
5864 Clouds 15 1013 72 10000 5.1 110 14:20 29.03.2020
5865 Clouds 15 1013 77 10000 5.1 100 13:57 29.03.2020
5866 Clouds 15 1013 77 10000 5.1 100 13:39 29.03.2020
5867 Clouds 15 1013 77 10000 5.1 90 13:19 29.03.2020
5868 Clouds 15 1013 77 10000 5.7 90 12:55 29.03.2020
5869 Clouds 15 1013 77 10000 5.7 90 12:37 29.03.2020
5870 Clouds 15 1013 77 10000 5.1 90 12:18 29.03.2020
5871 Clouds 15 1013 77 10000 5.1 90 12:18 29.03.2020
5872 Clouds 15 1013 77 10000 5.7 80 11:55 29.03.2020
5873 Clouds 15 1013 77 10000 5.7 80 11:36 29.03.2020
5874 Clouds 14 1013 77 10000 5.7 90 11:18 29.03.2020
5875 Clouds 14 1013 76 10000 5.1 80 10:38 29.03.2020
5876 Clouds 14 1013 76 10000 3.1 60 10:19 29.03.2020
5877 Clouds 13 1013 71 10000 2.1 50 09:41 29.03.2020
5878 Clouds 11 1013 62 10000 2.6 330 09:22 29.03.2020
5879 Clouds 10 1013 66 10000 2.6 330 08:56 29.03.2020
5880 Clouds 10 1013 66 10000 2.6 330 08:38 29.03.2020
5881 Clouds 10 1013 66 10000 3.1 330 08:19 29.03.2020
5882 Clouds 8 1013 71 10000 2.6 330 07:42 29.03.2020
5883 Clouds 8 1013 71 10000 2.1 330 07:21 29.03.2020
5884 Clear 9 1013 66 10000 2.6 340 05:50 29.03.2020
5885 Clear 10 1013 66 10000 4.1 330 04:29 29.03.2020
5886 Clear 9 1014 66 10000 3.6 330 03:31 29.03.2020
5887 Clear 10 1014 71 10000 2.6 330 01:51 29.03.2020
5888 Clear 10 1014 71 10000 2.6 330 01:24 29.03.2020
5889 Clear 11 1014 66 10000 3.6 340 00:58 29.03.2020
5890 Clear 11 1014 66 10000 3.6 340 00:33 29.03.2020
5891 Clear 11 1014 66 10000 3.6 330 23:57 28.03.2020
5892 Clear 11 1014 66 10000 3.6 330 23:39 28.03.2020
5893 Clear 11 1014 66 10000 4.1 330 23:20 28.03.2020
5894 Clear 11 1014 71 10000 3.1 330 22:41 28.03.2020
5895 Clear 11 1014 71 10000 4.1 330 22:22 28.03.2020
5896 Clear 11 1014 76 10000 3.1 320 21:56 28.03.2020
5897 Clear 11 1014 76 10000 3.1 320 21:38 28.03.2020
5898 Clear 12 1014 76 10000 2.1 340 21:19 28.03.2020
5899 Clear 12 1014 82 10000 2.6 30 20:54 28.03.2020
5900 Clear 12 1014 82 10000 2.6 30 20:36 28.03.2020
5901 Clouds 12 1014 82 10000 2.1 40 20:18 28.03.2020
5902 Clouds 12 1014 82 10000 2.1 60 19:54 28.03.2020
5903 Clouds 13 1014 82 10000 2.1 60 19:36 28.03.2020
5904 Clouds 13 1014 82 10000 1.5 210 19:18 28.03.2020
5905 Clouds 14 1013 77 10000 3.6 200 18:39 28.03.2020
5906 Clouds 14 1013 77 10000 3.6 200 18:20 28.03.2020
5907 Clouds 15 1013 72 10000 3.6 200 17:41 28.03.2020
5908 Clouds 15 1014 72 10000 4.6 220 17:22 28.03.2020
5909 Clouds 15 1014 67 10000 4.1 220 16:59 28.03.2020
5910 Clouds 15 1014 67 10000 4.1 220 16:38 28.03.2020
5911 Clouds 15 1014 67 10000 5.1 210 16:18 28.03.2020
5912 Clouds 15 1014 67 10000 5.1 210 16:18 28.03.2020
5913 Clouds 15 1014 67 10000 5.7 210 15:40 28.03.2020
5914 Clouds 15 1014 67 10000 6.7 220 15:19 28.03.2020
5915 Clouds 16 1014 67 10000 5.7 210 14:58 28.03.2020
5916 Clouds 16 1014 67 10000 5.7 210 14:40 28.03.2020
5917 Clouds 16 1014 63 10000 4.6 200 14:21 28.03.2020
5918 Clouds 16 1015 63 10000 5.1 200 13:43 28.03.2020
5919 Clouds 15 1015 72 10000 6.2 200 13:23 28.03.2020
5920 Clouds 16 1015 63 10000 5.1 190 12:41 28.03.2020
5921 Clouds 15 1015 67 10000 5.1 200 12:22 28.03.2020
5922 Clouds 16 1015 63 10000 3.6 190 11:55 28.03.2020
5923 Clouds 16 1015 63 10000 3.6 190 11:37 28.03.2020
5924 Clouds 16 1015 67 10000 3.1 180 11:18 28.03.2020
5925 Clouds 15 1015 62 10000 4.1 200 10:39 28.03.2020
5926 Clouds 15 1015 62 10000 4.1 200 10:20 28.03.2020
5927 Clouds 15 1015 51 10000 2.1 310 09:43 28.03.2020
5928 Clouds 14 1015 47 10000 3.6 320 09:24 28.03.2020
5929 Clouds 13 1015 54 10000 4.6 330 08:59 28.03.2020
5930 Clouds 13 1015 54 10000 4.6 330 08:41 28.03.2020
5931 Clouds 12 1015 58 10000 4.1 330 08:22 28.03.2020
5932 Clouds 11 1015 62 10000 3.6 330 07:46 28.03.2020
5933 Clouds 10 1015 66 10000 5.1 310 07:28 28.03.2020
5934 Clouds 8 1015 66 10000 5.1 320 06:36 28.03.2020
5935 Clouds 8 1015 62 10000 4.6 320 06:18 28.03.2020
5936 Clouds 10 1015 66 10000 3.6 320 05:21 28.03.2020
5937 Clouds 10 1015 71 10000 3.1 320 04:42 28.03.2020
5938 Clouds 11 1015 71 10000 2.6 320 03:55 28.03.2020
5939 Clouds 10 1015 66 10000 0.5 320 02:33 28.03.2020
5940 Clouds 11 1015 66 10000 2.6 330 01:45 28.03.2020
5941 Clouds 12 1015 58 10000 1 0 01:20 28.03.2020
5942 Clouds 12 1015 58 10000 1 300 00:46 28.03.2020
5943 Clouds 11 1015 58 10000 3.6 300 00:20 28.03.2020
5944 Clouds 12 1015 62 10000 3.6 280 23:43 27.03.2020
5945 Clouds 12 1015 66 10000 2.6 280 23:23 27.03.2020
5946 Clouds 12 1015 66 10000 2.1 280 22:56 27.03.2020
5947 Clouds 12 1015 66 10000 2.1 280 22:38 27.03.2020
5948 Clouds 12 1015 66 10000 2.1 280 22:20 27.03.2020
5949 Clouds 12 1014 66 10000 2.6 250 21:56 27.03.2020
5950 Clouds 12 1014 66 10000 2.6 250 21:38 27.03.2020
5951 Clouds 12 1014 62 10000 3.1 270 21:20 27.03.2020
5952 Clouds 13 1014 62 10000 3.1 270 20:55 27.03.2020
5953 Clouds 13 1014 62 10000 3.1 270 20:37 27.03.2020
5954 Clouds 13 1014 67 10000 4.6 260 20:18 27.03.2020
5955 Clouds 13 1013 71 10000 4.6 240 19:42 27.03.2020
5956 Clouds 13 1013 67 10000 4.1 240 19:23 27.03.2020
5957 Clouds 14 1012 67 10000 3.1 230 18:56 27.03.2020
5958 Clouds 14 1012 67 10000 3.1 230 18:38 27.03.2020
5959 Clouds 14 1012 67 10000 3.1 230 18:38 27.03.2020
5960 Clouds 14 1012 62 10000 2.1 240 18:19 27.03.2020
5961 Clouds 15 1011 62 10000 3.1 160 17:40 27.03.2020
5962 Clouds 15 1011 67 10000 3.6 190 17:20 27.03.2020
5963 Clouds 15 1011 67 10000 4.1 170 16:55 27.03.2020
5964 Clouds 15 1011 67 10000 4.1 170 16:37 27.03.2020
5965 Clouds 15 1011 67 10000 2.6 190 16:19 27.03.2020
5966 Clouds 16 1011 62 10000 3.1 210 15:42 27.03.2020
5967 Clouds 16 1011 59 10000 3.6 210 15:24 27.03.2020
5968 Clouds 16 1011 44 10000 2.6 290 14:48 27.03.2020
5969 Clouds 16 1012 47 10000 2.6 270 14:27 27.03.2020
5970 Clouds 15 1012 54 10000 1.5 0 13:58 27.03.2020
5971 Clouds 14 1012 54 10000 1.5 0 13:40 27.03.2020
5972 Clouds 14 1012 44 10000 1 0 13:21 27.03.2020
5973 Clouds 14 1012 47 10000 1.5 0 12:58 27.03.2020
5974 Clouds 14 1012 47 10000 1.5 0 12:39 27.03.2020
5975 Clouds 13 1011 50 10000 3.1 290 12:19 27.03.2020
5976 Clouds 12 1011 43 10000 2.1 300 11:42 27.03.2020
5977 Clouds 13 1011 47 10000 0.5 0 11:24 27.03.2020
5978 Clouds 12 1011 50 10000 1.5 0 10:55 27.03.2020
5979 Clouds 12 1011 50 10000 1.5 0 10:37 27.03.2020
5980 Clouds 12 1011 50 10000 2.1 300 10:19 27.03.2020
5981 Clouds 11 1011 50 10000 3.1 320 09:57 27.03.2020
5982 Clouds 11 1011 50 10000 3.1 320 09:38 27.03.2020
5983 Clouds 10 1010 57 10000 2.6 300 09:19 27.03.2020
5984 Clouds 10 1010 57 10000 4.1 320 08:56 27.03.2020
5985 Clouds 10 1010 57 10000 4.1 320 08:38 27.03.2020
5986 Clouds 10 1010 61 10000 3.1 320 08:20 27.03.2020
5987 Clouds 10 1010 66 10000 1.5 330 07:52 27.03.2020
5988 Clouds 9 1010 70 10000 2.1 310 07:25 27.03.2020
5989 Clouds 9 1010 70 10000 1.5 0 06:55 27.03.2020
5990 Clouds 9 1010 70 10000 1.5 0 06:37 27.03.2020
5991 Clouds 9 1009 76 10000 1.5 290 05:28 27.03.2020
5992 Clouds 9 1010 75 10000 3.1 300 02:47 27.03.2020
5993 Clouds 8 1010 75 10000 2.6 280 01:36 27.03.2020
5994 Clouds 8 1010 70 10000 3.1 270 00:53 27.03.2020
5995 Clouds 8 1011 70 10000 3.6 260 00:32 27.03.2020
5996 Clouds 8 1011 75 10000 3.1 270 23:44 26.03.2020
5997 Clouds 7 1011 75 10000 2.6 260 23:24 26.03.2020
5998 Clouds 7 1011 75 10000 2.1 210 22:59 26.03.2020
5999 Rain 7 1011 70 10000 2.1 170 22:39 26.03.2020
6000 Rain 7 1011 70 10000 2.1 170 22:20 26.03.2020
6001 Rain 7 1012 61 10000 4.6 8 21:58 26.03.2020
6002 Rain 7 1012 61 10000 4.6 8 21:39 26.03.2020
6003 Rain 7 1012 61 10000 4.6 8 21:21 26.03.2020
6004 Rain 7 1011 66 10000 0.5 0 20:58 26.03.2020
6005 Rain 7 1011 66 10000 0.5 0 20:38 26.03.2020
6006 Rain 8 1011 61 10000 1.5 0 20:20 26.03.2020
6007 Rain 8 1011 57 10000 1 0 19:56 26.03.2020
6008 Rain 8 1011 57 10000 1 0 19:38 26.03.2020
6009 Rain 8 1010 61 10000 1.5 0 19:20 26.03.2020
6010 Clouds 7 1010 61 10000 3.1 30 18:56 26.03.2020
6011 Clouds 7 1010 61 10000 3.1 30 18:37 26.03.2020
6012 Clouds 9 1010 43 10000 3.6 80 18:19 26.03.2020
6013 Clouds 9 1010 40 10000 3.1 320 17:42 26.03.2020
6014 Clouds 10 1010 54 10000 4.1 70 17:19 26.03.2020
6015 Clouds 10 1010 54 10000 4.1 70 17:19 26.03.2020
6016 Clouds 10 1010 54 10000 4.1 70 17:19 26.03.2020
6017 Clouds 10 1010 43 10000 6.2 70 16:46 26.03.2020
6018 Clouds 10 1009 34 10000 3.6 90 16:28 26.03.2020
6019 Clouds 10 1009 29 10000 1.5 0 15:59 26.03.2020
6020 Clouds 10 1009 29 10000 1.5 0 15:41 26.03.2020
6021 Clouds 10 1009 27 10000 1.5 180 15:22 26.03.2020
6022 Clouds 11 1009 25 10000 1.5 0 14:58 26.03.2020
6023 Clouds 11 1009 25 10000 1.5 0 14:39 26.03.2020
6024 Clouds 10 1009 29 10000 1.5 210 14:19 26.03.2020
6025 Clouds 11 1010 27 10000 2.1 210 13:44 26.03.2020
6026 Clouds 10 1010 29 10000 1.5 160 13:24 26.03.2020
6027 Clouds 10 1010 27 10000 2.1 150 12:59 26.03.2020
6028 Clouds 11 1010 27 10000 2.1 150 12:38 26.03.2020
6029 Clouds 11 1010 29 10000 3.1 160 12:20 26.03.2020
6030 Clouds 11 1010 32 10000 3.6 140 11:46 26.03.2020
6031 Clouds 11 1010 32 10000 4.1 130 11:22 26.03.2020
6032 Clouds 10 1010 27 10000 3.1 120 10:56 26.03.2020
6033 Clouds 10 1010 27 10000 3.1 120 10:38 26.03.2020
6034 Clouds 10 1010 20 10000 2.6 70 10:19 26.03.2020
6035 Clouds 10 1010 25 10000 3.1 10 09:44 26.03.2020
6036 Clouds 9 1011 31 10000 2.1 340 09:21 26.03.2020
6037 Clouds 7 1011 38 10000 2.6 330 08:56 26.03.2020
6038 Clouds 7 1011 38 10000 2.6 330 08:37 26.03.2020
6039 Clear 6 1011 38 10000 2.6 330 08:19 26.03.2020
6040 Clear 5 1011 41 10000 3.1 330 07:44 26.03.2020
6041 Clear 4 1011 44 10000 4.1 330 07:22 26.03.2020
6042 Clear 4 1011 44 10000 3.1 340 06:57 26.03.2020
6043 Clear 4 1011 44 10000 3.1 330 06:27 26.03.2020
6044 Clear 3 1011 47 10000 4.1 330 05:29 26.03.2020
6045 Clear 4 1011 44 10000 3.1 330 03:45 26.03.2020
6046 Clear 4 1012 48 10000 4.1 320 02:56 26.03.2020
6047 Clear 5 1013 52 10000 2.6 330 01:51 26.03.2020
6048 Clouds 5 1013 41 10000 2.6 330 00:56 26.03.2020
6049 Clouds 6 1014 33 10000 1.5 10 00:23 26.03.2020
6050 Clouds 6 1014 36 10000 3.6 30 23:42 25.03.2020
6051 Clouds 6 1014 33 10000 6.7 40 23:22 25.03.2020
6052 Clear 7 1015 42 10000 4.1 50 22:42 25.03.2020
6053 Clear 7 1015 36 10000 4.1 40 22:22 25.03.2020
6054 Clear 8 1015 33 10000 4.6 20 21:59 25.03.2020
6055 Clear 8 1015 33 10000 4.6 20 21:40 25.03.2020
6056 Clear 8 1015 33 10000 5.1 360 21:22 25.03.2020
6057 Clouds 8 1015 33 10000 5.7 10 20:57 25.03.2020
6058 Clouds 8 1015 33 10000 5.7 10 20:37 25.03.2020
6059 Clouds 8 1015 36 10000 5.1 30 20:18 25.03.2020
6060 Clouds 8 1015 36 10000 7.7 40 19:43 25.03.2020
6061 Clouds 8 1015 34 10000 8.2 40 19:24 25.03.2020
6062 Clouds 9 1015 31 10000 7.2 40 18:59 25.03.2020
6063 Clouds 9 1015 31 10000 7.2 40 18:41 25.03.2020
6064 Clouds 9 1015 29 10000 7.7 50 18:23 25.03.2020
6065 Clouds 10 1015 23 10000 8.7 40 17:58 25.03.2020
6066 Clouds 10 1015 23 10000 8.7 40 17:58 25.03.2020
6067 Clouds 10 1015 23 10000 8.7 40 17:39 25.03.2020
6068 Clouds 9 1015 23 10000 6.7 50 17:21 25.03.2020
6069 Clouds 10 1015 23 10000 7.2 50 16:55 25.03.2020
6070 Clouds 10 1015 23 10000 7.2 50 16:37 25.03.2020
6071 Clouds 10 1015 32 10000 8.2 30 16:19 25.03.2020
6072 Clouds 10 1015 34 10000 10.3 60 15:41 25.03.2020
6073 Clouds 11 1015 25 10000 4.6 40 15:20 25.03.2020
6074 Clouds 10 1015 40 10000 9.3 120 14:56 25.03.2020
6075 Clouds 10 1015 40 10000 9.3 120 14:37 25.03.2020
6076 Clouds 9 1016 46 10000 11.8 100 14:19 25.03.2020
6077 Clouds 9 1016 46 10000 11.3 100 13:44 25.03.2020
6078 Clouds 9 1016 34 10000 7.7 90 13:22 25.03.2020
6079 Clouds 9 1016 37 10000 7.7 90 12:39 25.03.2020
6080 Clouds 9 1016 37 10000 7.7 90 12:39 25.03.2020
6081 Clouds 9 1017 43 10000 9.8 100 12:21 25.03.2020
6082 Clouds 9 1017 46 10000 10.3 90 11:57 25.03.2020
6083 Clouds 9 1017 46 10000 10.3 90 11:39 25.03.2020
6084 Clouds 8 1017 39 10000 10.3 90 11:21 25.03.2020
6085 Clouds 8 1017 39 10000 10.3 90 11:20 25.03.2020
6086 Clouds 8 1018 46 10000 9.8 80 10:58 25.03.2020
6087 Clouds 9 1018 46 10000 9.8 80 10:39 25.03.2020
6088 Clouds 8 1018 46 10000 9.8 80 10:39 25.03.2020
6089 Clouds 8 1018 46 10000 9.8 80 10:39 25.03.2020
6090 Clouds 9 1018 48 10000 9.8 80 10:18 25.03.2020
6091 Clouds 9 1018 49 10000 9.8 80 09:56 25.03.2020
6092 Clouds 9 1018 49 10000 9.8 80 09:38 25.03.2020
6093 Clouds 8 1019 45 10000 3.1 0 09:19 25.03.2020
6094 Clouds 6 1019 45 10000 5.7 330 08:41 25.03.2020
6095 Clouds 5 1019 48 10000 4.6 330 08:23 25.03.2020
6096 Clouds 5 1019 48 10000 5.7 330 07:56 25.03.2020
6097 Clouds 5 1019 48 10000 5.7 330 07:37 25.03.2020
6098 Clouds 5 1019 48 10000 5.7 320 07:18 25.03.2020
6099 Clouds 5 1019 48 10000 5.1 330 06:41 25.03.2020
6100 Clouds 5 1019 48 10000 5.1 330 06:23 25.03.2020
6101 Clouds 5 1019 48 10000 4.6 340 05:47 25.03.2020
6102 Clouds 5 1019 52 10000 5.7 330 04:42 25.03.2020
6103 Clouds 5 1019 56 10000 5.1 330 03:57 25.03.2020
6104 Clouds 6 1020 52 10000 5.1 330 03:32 25.03.2020
6105 Clear 6 1021 56 10000 5.1 330 01:40 25.03.2020
6106 Clouds 6 1021 56 10000 4.6 330 00:50 25.03.2020
6107 Clouds 6 1021 56 10000 5.1 330 00:27 25.03.2020
6108 Clouds 6 1021 56 10000 4.6 330 23:57 24.03.2020
6109 Clouds 6 1021 56 10000 4.6 330 23:37 24.03.2020
6110 Clouds 6 1021 60 10000 4.1 330 23:19 24.03.2020
6111 Clouds 6 1021 52 10000 4.1 330 22:54 24.03.2020
6112 Clouds 7 1021 52 10000 4.1 330 22:36 24.03.2020
6113 Clouds 7 1021 56 10000 3.1 330 22:18 24.03.2020
6114 Clouds 7 1021 56 10000 3.1 320 21:42 24.03.2020
6115 Clouds 7 1021 56 10000 2.6 330 21:19 24.03.2020
6116 Clouds 7 1021 52 10000 3.6 330 20:59 24.03.2020
6117 Clouds 7 1021 52 10000 3.6 330 20:41 24.03.2020
6118 Clouds 7 1021 52 10000 4.1 340 20:22 24.03.2020
6119 Clouds 8 1021 52 10000 3.6 330 19:48 24.03.2020
6120 Clouds 8 1021 49 10000 3.1 330 19:23 24.03.2020
6121 Clouds 9 1021 43 10000 2.6 350 18:59 24.03.2020
6122 Clouds 9 1021 43 10000 2.6 350 18:40 24.03.2020
6123 Clouds 9 1021 43 10000 2.6 350 18:40 24.03.2020
6124 Clouds 10 1021 37 10000 1.5 50 18:20 24.03.2020
6125 Clouds 10 1021 40 10000 2.1 20 17:59 24.03.2020
6126 Clouds 10 1021 40 10000 2.1 20 17:40 24.03.2020
6127 Clouds 10 1022 40 10000 2.1 20 17:22 24.03.2020
6128 Clouds 10 1022 37 10000 2.1 50 16:57 24.03.2020
6129 Clouds 10 1022 37 10000 2.1 50 16:38 24.03.2020
6130 Clouds 10 1022 37 10000 3.6 90 16:20 24.03.2020
6131 Clouds 10 1022 37 10000 5.1 80 15:44 24.03.2020
6132 Clouds 10 1023 40 10000 5.1 80 15:25 24.03.2020
6133 Clouds 9 1023 34 10000 6.2 90 14:59 24.03.2020
6134 Clouds 9 1023 34 10000 6.2 90 14:40 24.03.2020
6135 Clouds 9 1023 37 10000 5.7 90 14:18 24.03.2020
6136 Clouds 9 1024 39 10000 6.7 90 13:42 24.03.2020
6137 Clouds 9 1024 43 10000 6.7 90 13:23 24.03.2020
6138 Clouds 9 1024 43 10000 6.7 90 13:23 24.03.2020
6139 Clouds 9 1024 43 10000 7.2 90 12:54 24.03.2020
6140 Clouds 9 1024 43 10000 7.2 90 12:36 24.03.2020
6141 Clouds 8 1024 43 10000 7.7 90 12:18 24.03.2020
6142 Clouds 8 1024 46 10000 7.2 90 11:39 24.03.2020
6143 Clouds 8 1024 43 10000 7.2 90 11:19 24.03.2020
6144 Clouds 8 1024 45 10000 7.2 90 10:43 24.03.2020
6145 Clouds 8 1024 66 10000 7.2 80 10:20 24.03.2020
6146 Clouds 7 1024 49 10000 8.2 80 09:58 24.03.2020
6147 Clouds 8 1024 49 10000 8.2 80 09:39 24.03.2020
6148 Clouds 7 1024 49 10000 7.7 80 09:20 24.03.2020
6149 Clouds 7 1024 66 10000 7.2 70 08:38 24.03.2020
6150 Clouds 7 1024 49 10000 6.7 70 08:20 24.03.2020
6151 Clouds 7 1024 62 10000 8.7 90 07:47 24.03.2020
6152 Clouds 7 1024 62 10000 8.7 90 07:24 24.03.2020
6153 Clouds 8 1024 62 10000 10.3 90 06:53 24.03.2020
6154 Clouds 8 1024 49 10000 10.3 90 06:31 24.03.2020
6155 Clouds 7 1024 58 10000 9.8 80 05:22 24.03.2020
6156 Clouds 7 1024 58 10000 10.3 80 04:27 24.03.2020
6157 Clouds 8 1024 53 10000 10.3 80 03:18 24.03.2020
6158 Clouds 8 1025 53 10000 11.8 80 01:49 24.03.2020
6159 Clouds 9 1024 50 10000 11.8 90 00:49 24.03.2020
6160 Clouds 8 1024 50 10000 12.3 90 00:26 24.03.2020
6161 Clouds 8 1024 50 10000 11.8 90 23:46 23.03.2020
6162 Clouds 9 1024 50 10000 10.3 90 23:26 23.03.2020
6163 Clouds 8 1024 56 10000 9.8 90 22:58 23.03.2020
6164 Clouds 8 1024 56 10000 9.8 90 22:39 23.03.2020
6165 Clouds 8 1023 56 10000 9.3 90 22:21 23.03.2020
6166 Clouds 9 1023 50 10000 6.7 80 21:44 23.03.2020
6167 Clouds 9 1023 56 10000 1.5 360 21:21 23.03.2020
6168 Clouds 8 1023 56 10000 2.1 10 20:58 23.03.2020
6169 Clouds 9 1023 56 10000 2.1 10 20:40 23.03.2020
6170 Clouds 9 1023 50 10000 3.1 320 20:22 23.03.2020
6171 Clouds 9 1023 53 10000 3.6 330 19:55 23.03.2020
6172 Clouds 9 1023 53 10000 3.6 330 19:37 23.03.2020
6173 Clouds 9 1022 53 10000 2.1 40 19:18 23.03.2020
6174 Clouds 9 1022 53 10000 4.6 100 18:43 23.03.2020
6175 Clouds 9 1022 57 10000 6.7 100 18:24 23.03.2020
6176 Clouds 9 1022 50 10000 7.2 100 17:58 23.03.2020
6177 Clouds 9 1022 50 10000 8.2 100 17:39 23.03.2020
6178 Clouds 9 1022 50 10000 8.2 100 17:19 23.03.2020
6179 Clouds 10 1022 50 10000 8.7 100 16:43 23.03.2020
6180 Clouds 10 1022 53 10000 10.3 100 16:25 23.03.2020
6181 Clouds 10 1023 50 10000 12.3 90 15:44 23.03.2020
6182 Clouds 10 1023 54 10000 12.3 90 15:21 23.03.2020
6183 Clouds 9 1023 58 10000 12.9 90 14:57 23.03.2020
6184 Clouds 10 1023 58 10000 12.9 90 14:37 23.03.2020
6185 Clouds 10 1022 50 10000 13.9 100 14:18 23.03.2020
6186 Clouds 10 1022 54 10000 14.4 90 13:55 23.03.2020
6187 Clouds 10 1022 54 10000 14.4 90 13:37 23.03.2020
6188 Clouds 10 1022 54 10000 13.9 90 13:19 23.03.2020
6189 Clouds 11 1022 58 10000 14.9 90 12:42 23.03.2020
6190 Clouds 11 1022 62 10000 12.3 90 12:22 23.03.2020
6191 Clouds 11 1022 58 10000 10.8 100 11:56 23.03.2020
6192 Clouds 12 1022 58 10000 10.8 100 11:37 23.03.2020
6193 Clouds 13 1021 58 10000 8.7 100 11:19 23.03.2020
6194 Clouds 13 1021 58 10000 8.2 90 10:56 23.03.2020
6195 Clouds 12 1021 58 10000 8.2 90 10:36 23.03.2020
6196 Clouds 12 1021 58 10000 9.3 90 10:18 23.03.2020
6197 Clouds 12 1021 58 10000 10.3 90 09:42 23.03.2020
6198 Clouds 13 1021 58 10000 8.7 100 09:20 23.03.2020
6199 Clouds 12 1020 58 10000 9.8 110 08:38 23.03.2020
6200 Clouds 12 1020 58 10000 9.3 100 08:20 23.03.2020
6201 Clouds 11 1020 66 10000 8.7 100 07:52 23.03.2020
6202 Clouds 11 1020 71 10000 9.8 100 07:33 23.03.2020
6203 Clouds 10 1020 76 10000 6.7 0 06:58 23.03.2020
6204 Clouds 10 1020 76 10000 6.7 0 06:40 23.03.2020
6205 Clouds 9 1019 66 10000 4.1 320 05:44 23.03.2020
6206 Clouds 9 1019 66 10000 4.1 320 05:44 23.03.2020
6207 Clear 9 1019 71 10000 4.1 330 04:41 23.03.2020
6208 Clear 10 1018 66 10000 4.1 330 02:59 23.03.2020
6209 Clouds 10 1018 66 10000 3.1 340 01:50 23.03.2020
6210 Clouds 10 1018 66 10000 3.1 340 01:50 23.03.2020
6211 Clouds 11 1018 66 10000 3.6 340 00:50 23.03.2020
6212 Clouds 11 1018 66 10000 4.1 330 00:31 23.03.2020
6213 Clouds 11 1018 66 10000 4.1 330 23:45 22.03.2020
6214 Clouds 12 1018 66 10000 3.6 330 23:25 22.03.2020
6215 Clouds 12 1017 66 10000 3.6 330 22:44 22.03.2020
6216 Clouds 12 1017 71 10000 3.1 320 22:22 22.03.2020
6217 Clouds 12 1017 71 10000 1.5 0 21:55 22.03.2020
6218 Clouds 12 1017 71 10000 1.5 0 21:37 22.03.2020
6219 Clouds 12 1016 71 10000 2.1 330 21:18 22.03.2020
6220 Clouds 12 1016 67 10000 3.1 320 20:46 22.03.2020
6221 Clouds 12 1016 71 10000 2.6 320 20:25 22.03.2020
6222 Clouds 13 1016 67 10000 1.5 270 19:58 22.03.2020
6223 Clouds 13 1016 67 10000 1.5 270 19:40 22.03.2020
6224 Clouds 14 1016 67 10000 1.5 240 19:20 22.03.2020
6225 Clouds 14 1015 72 10000 2.1 240 18:59 22.03.2020
6226 Clouds 14 1015 72 10000 2.1 240 18:41 22.03.2020
6227 Clouds 15 1015 67 10000 2.1 250 18:22 22.03.2020
6228 Clouds 15 1015 63 10000 2.1 220 17:58 22.03.2020
6229 Clouds 15 1015 63 10000 2.1 220 17:38 22.03.2020
6230 Clouds 15 1015 63 10000 1.5 210 17:20 22.03.2020
6231 Clouds 16 1015 63 10000 1.5 0 16:57 22.03.2020
6232 Clouds 16 1015 63 10000 2.1 240 16:39 22.03.2020
6233 Clouds 16 1015 63 10000 1.5 0 16:39 22.03.2020
6234 Clouds 16 1015 63 10000 2.1 240 16:21 22.03.2020
6235 Clouds 16 1015 63 10000 1 0 15:56 22.03.2020
6236 Clouds 16 1015 63 10000 1 0 15:38 22.03.2020
6237 Clouds 16 1015 59 10000 2.1 180 14:46 22.03.2020
6238 Clouds 16 1015 63 10000 1.5 180 14:19 22.03.2020
6239 Clouds 15 1015 63 10000 1 0 13:56 22.03.2020
6240 Clouds 15 1015 63 10000 1.5 0 13:37 22.03.2020
6241 Clouds 15 1015 63 10000 1.5 0 13:19 22.03.2020
6242 Clouds 15 1015 63 10000 2.1 160 12:43 22.03.2020
6243 Clouds 16 1015 63 10000 1.5 160 12:20 22.03.2020
6244 Clouds 16 1015 59 10000 2.1 150 11:56 22.03.2020
6245 Clouds 16 1015 59 10000 2.1 150 11:38 22.03.2020
6246 Clouds 16 1015 55 10000 1.5 0 11:19 22.03.2020
6247 Clouds 16 1014 51 10000 1 140 10:43 22.03.2020
6248 Clouds 16 1014 55 10000 1 120 10:24 22.03.2020
6249 Clouds 16 1014 55 10000 1 120 10:24 22.03.2020
6250 Clouds 15 1014 54 10000 1.5 340 09:49 22.03.2020
6251 Clouds 14 1014 54 10000 2.6 330 09:30 22.03.2020
6252 Clouds 12 1014 58 10000 4.1 330 08:55 22.03.2020
6253 Clouds 11 1014 62 10000 3.6 330 08:36 22.03.2020
6254 Clouds 12 1014 58 10000 4.1 330 08:36 22.03.2020
6255 Clouds 11 1014 62 10000 3.6 330 08:18 22.03.2020
6256 Clouds 10 1014 66 10000 3.6 330 07:48 22.03.2020
6257 Clouds 8 1013 71 10000 4.1 330 07:18 22.03.2020
6258 Clouds 8 1013 71 10000 3.1 330 05:55 22.03.2020
6259 Clouds 8 1013 71 10000 4.1 330 04:58 22.03.2020
6260 Clouds 9 1013 71 10000 4.6 330 02:50 22.03.2020
6261 Clouds 8 1014 76 10000 3.6 330 01:21 22.03.2020
6262 Clouds 9 1014 71 10000 2.6 330 00:39 22.03.2020
6263 Clouds 9 1014 76 10000 1.5 330 00:21 22.03.2020
6264 Clouds 10 1014 71 10000 3.6 320 23:41 21.03.2020
6265 Clouds 10 1014 76 10000 2.6 320 23:19 21.03.2020
6266 Clouds 10 1014 76 10000 1.5 320 22:38 21.03.2020
6267 Clouds 10 1014 71 10000 2.6 320 22:20 21.03.2020
6268 Clouds 11 1014 76 10000 2.6 330 21:59 21.03.2020
6269 Clouds 11 1014 76 10000 1.5 320 21:40 21.03.2020
6270 Clouds 11 1014 76 10000 1.5 320 21:22 21.03.2020
6271 Clouds 11 1014 76 10000 1.5 30 20:56 21.03.2020
6272 Clouds 11 1014 76 10000 1.5 30 20:38 21.03.2020
6273 Clouds 12 1013 76 10000 3.94 75 20:18 21.03.2020
6274 Clouds 12 1013 71 10000 1.5 80 19:43 21.03.2020
6275 Clouds 13 1013 71 10000 1 50 19:23 21.03.2020
6276 Clouds 13 1013 76 10000 1 0 18:55 21.03.2020
6277 Clouds 13 1013 76 10000 1 0 18:37 21.03.2020
6278 Clouds 14 1013 76 10000 3.94 75 18:19 21.03.2020
6279 Clouds 14 1013 72 10000 0.5 0 17:55 21.03.2020
6280 Clouds 15 1013 72 10000 0.5 0 17:37 21.03.2020
6281 Clouds 15 1013 72 10000 1 0 17:18 21.03.2020
6282 Clouds 15 1013 72 10000 1 0 16:40 21.03.2020
6283 Clouds 15 1013 72 10000 1.5 90 16:19 21.03.2020
6284 Clouds 15 1014 72 10000 1.5 100 15:55 21.03.2020
6285 Clouds 15 1014 72 10000 1.5 100 15:37 21.03.2020
6286 Clouds 15 1014 72 10000 1.5 100 15:18 21.03.2020
6287 Clouds 15 1014 72 10000 1.5 100 14:54 21.03.2020
6288 Clouds 15 1014 72 10000 1.5 100 14:36 21.03.2020
6289 Clouds 15 1014 63 10000 1.5 110 14:18 21.03.2020
6290 Clouds 16 1015 67 10000 1.5 120 13:56 21.03.2020
6291 Clouds 15 1015 67 10000 1.5 120 13:38 21.03.2020
6292 Clouds 15 1015 67 10000 2.1 120 13:19 21.03.2020
6293 Clouds 15 1015 67 10000 2.1 100 12:39 21.03.2020
6294 Clouds 15 1015 67 10000 4.1 110 12:19 21.03.2020
6295 Clouds 15 1016 55 10000 3.6 120 11:58 21.03.2020
6296 Clouds 15 1016 55 10000 3.6 120 11:38 21.03.2020
6297 Clouds 14 1016 58 10000 3.1 120 11:19 21.03.2020
6298 Clouds 15 1016 62 10000 2.6 100 10:57 21.03.2020
6299 Clouds 15 1016 62 10000 2.6 100 10:57 21.03.2020
6300 Clouds 15 1016 62 10000 2.6 100 10:39 21.03.2020
6301 Clouds 15 1016 62 10000 1.5 90 10:20 21.03.2020
6302 Clouds 15 1016 62 10000 1.5 90 10:20 21.03.2020
6303 Clouds 14 1016 58 10000 1.5 0 09:58 21.03.2020
6304 Clouds 14 1016 58 10000 1.5 0 09:38 21.03.2020
6305 Clouds 14 1016 58 10000 3.1 330 09:20 21.03.2020
6306 Clouds 12 1016 66 10000 3.1 330 08:55 21.03.2020
6307 Clouds 11 1016 66 10000 3.1 330 08:37 21.03.2020
6308 Clouds 11 1016 62 10000 2.6 330 08:18 21.03.2020
6309 Clouds 9 1016 66 10000 2.1 330 07:32 21.03.2020
6310 Clouds 7 1016 71 10000 2.6 330 06:56 21.03.2020
6311 Clouds 7 1016 71 10000 2.6 330 06:36 21.03.2020
6312 Clouds 7 1016 71 10000 3.1 330 06:18 21.03.2020
6313 Clear 7 1017 71 10000 3.1 340 05:23 21.03.2020
6314 Clear 7 1017 71 10000 3.1 340 03:39 21.03.2020
6315 Clear 8 1018 71 10000 2.6 330 02:36 21.03.2020
6316 Clouds 8 1018 71 10000 2.6 340 01:43 21.03.2020
6317 Clouds 8 1019 71 10000 3.6 330 01:23 21.03.2020
6318 Clouds 9 1019 71 10000 2.6 330 00:39 21.03.2020
6319 Clouds 9 1019 76 10000 3.6 330 00:21 21.03.2020
6320 Clouds 10 1020 76 10000 3.1 330 23:42 20.03.2020
6321 Clouds 9 1020 76 10000 3.6 320 23:22 20.03.2020
6322 Clouds 10 1020 81 10000 3.1 320 22:44 20.03.2020
6323 Clouds 9 1020 76 10000 2.6 320 22:25 20.03.2020
6324 Clouds 10 1020 76 10000 1 0 21:58 20.03.2020
6325 Clouds 10 1020 76 10000 1 0 21:40 20.03.2020
6326 Clouds 11 1020 82 10000 2.1 30 21:20 20.03.2020
6327 Clouds 11 1020 82 10000 3.6 60 20:58 20.03.2020
6328 Clouds 11 1020 82 10000 3.6 60 20:40 20.03.2020
6329 Clouds 11 1020 76 10000 4.1 60 20:19 20.03.2020
6330 Clouds 12 1020 76 10000 3.6 70 19:47 20.03.2020
6331 Clouds 13 1020 82 10000 1.5 60 19:20 20.03.2020
6332 Clouds 14 1020 82 10000 3.6 60 18:58 20.03.2020
6333 Clouds 13 1020 82 10000 3.6 60 18:38 20.03.2020
6334 Clouds 14 1020 77 10000 2.6 80 18:20 20.03.2020
6335 Clouds 14 1020 77 10000 3.1 80 17:56 20.03.2020
6336 Clouds 14 1020 77 10000 3.1 80 17:37 20.03.2020
6337 Clouds 15 1020 82 10000 3.1 90 17:19 20.03.2020
6338 Clouds 15 1021 82 10000 2.6 90 16:41 20.03.2020
6339 Clouds 15 1021 77 10000 2.6 90 16:21 20.03.2020
6340 Clouds 15 1021 77 10000 3.1 90 15:55 20.03.2020
6341 Clouds 15 1021 77 10000 3.1 90 15:37 20.03.2020
6342 Clouds 15 1021 82 10000 2.6 100 15:18 20.03.2020
6343 Clouds 15 1022 77 10000 3.1 90 14:42 20.03.2020
6344 Clouds 16 1022 77 10000 3.1 90 14:21 20.03.2020
6345 Clouds 15 1022 77 10000 3.1 100 13:50 20.03.2020
6346 Clouds 15 1022 77 10000 3.1 100 13:50 20.03.2020
6347 Clouds 15 1022 82 10000 4.1 110 13:26 20.03.2020
6348 Clouds 16 1023 77 10000 4.1 100 12:59 20.03.2020
6349 Clouds 16 1023 77 10000 3.1 100 12:38 20.03.2020
6350 Clouds 16 1023 77 10000 3.1 100 12:20 20.03.2020
6351 Clouds 15 1023 77 10000 3.6 100 11:40 20.03.2020
6352 Clouds 15 1023 77 10000 4.6 100 11:21 20.03.2020
6353 Clouds 15 1023 82 10000 5.1 90 10:58 20.03.2020
6354 Clouds 15 1023 82 10000 5.1 90 10:40 20.03.2020
6355 Clouds 15 1023 82 10000 6.2 90 10:18 20.03.2020
6356 Clouds 14 1023 77 10000 6.7 80 09:46 20.03.2020
6357 Clouds 14 1023 82 10000 5.1 80 09:21 20.03.2020
6358 Clouds 13 1023 87 10000 6.2 90 08:59 20.03.2020
6359 Clouds 13 1023 87 10000 6.2 90 08:40 20.03.2020
6360 Clouds 11 1022 62 10000 5.1 80 08:19 20.03.2020
6361 Clouds 10 1022 62 10000 1.5 0 07:46 20.03.2020
6362 Clouds 10 1022 76 10000 6.7 90 07:26 20.03.2020
6363 Clouds 10 1021 82 10000 8.2 90 06:47 20.03.2020
6364 Clouds 10 1021 67 10000 7.2 80 06:29 20.03.2020
6365 Clear 10 1021 62 10000 7.7 60 04:49 20.03.2020
6366 Clear 10 1021 54 10000 3.1 320 03:19 20.03.2020
6367 Clouds 10 1022 54 10000 3.1 320 01:51 20.03.2020
6368 Clouds 12 1022 54 10000 3.1 330 00:46 20.03.2020
6369 Clouds 12 1022 54 10000 3.6 330 00:26 20.03.2020
6370 Clouds 12 1022 54 10000 4.1 330 23:45 19.03.2020
6371 Clouds 12 1022 54 10000 3.6 340 23:26 19.03.2020
6372 Clouds 12 1022 54 10000 3.6 340 23:26 19.03.2020
6373 Clouds 12 1022 58 10000 3.6 330 22:56 19.03.2020
6374 Clouds 12 1022 58 10000 3.6 330 22:38 19.03.2020
6375 Clouds 12 1022 58 10000 3.6 330 22:38 19.03.2020
6376 Clouds 12 1023 58 10000 4.1 320 22:18 19.03.2020
6377 Clouds 12 1023 58 10000 3.6 320 21:41 19.03.2020
6378 Clouds 12 1023 62 10000 1.5 320 21:20 19.03.2020
6379 Clouds 13 1023 67 10000 1.5 70 20:59 19.03.2020
6380 Clouds 13 1023 67 10000 1.5 70 20:41 19.03.2020
6381 Clouds 13 1023 72 10000 2.1 70 20:22 19.03.2020
6382 Clouds 14 1022 63 10000 1.5 70 19:55 19.03.2020
6383 Clouds 14 1022 63 10000 1.5 70 19:37 19.03.2020
6384 Clouds 14 1022 55 10000 1.5 30 19:19 19.03.2020
6385 Clouds 15 1022 51 10000 1 60 18:54 19.03.2020
6386 Clouds 15 1022 51 10000 1 60 18:36 19.03.2020
6387 Clouds 16 1022 51 10000 2.19 33 18:18 19.03.2020
6388 Clouds 16 1022 55 10000 1 140 17:41 19.03.2020
6389 Clear 16 1023 48 10000 1 0 17:19 19.03.2020
6390 Clouds 16 1023 45 10000 1 0 16:44 19.03.2020
6391 Clouds 17 1023 42 10000 1.5 0 16:24 19.03.2020
6392 Clouds 18 1023 39 10000 1.5 0 15:46 19.03.2020
6393 Clouds 18 1023 39 10000 1 0 15:27 19.03.2020
6394 Clouds 18 1024 39 10000 1 0 14:58 19.03.2020
6395 Clouds 18 1024 39 10000 1 0 14:40 19.03.2020
6396 Clouds 18 1024 37 10000 1 0 14:20 19.03.2020
6397 Clear 18 1025 39 10000 0.5 0 13:41 19.03.2020
6398 Clear 18 1025 39 10000 0.5 0 13:19 19.03.2020
6399 Clear 18 1025 42 10000 1 0 12:56 19.03.2020
6400 Clear 18 1025 42 10000 1 0 12:38 19.03.2020
6401 Clear 18 1025 39 10000 1 110 12:19 19.03.2020
6402 Clear 18 1025 37 10000 1.5 0 11:42 19.03.2020
6403 Clear 18 1025 36 10000 1.5 0 11:23 19.03.2020
6404 Clear 18 1025 37 10000 1.5 40 10:57 19.03.2020
6405 Clear 17 1025 37 10000 1.5 40 10:38 19.03.2020
6406 Clear 17 1025 42 10000 1.5 0 10:19 19.03.2020
6407 Clear 17 1025 48 10000 3.6 330 09:45 19.03.2020
6408 Clear 16 1025 47 10000 4.6 330 09:27 19.03.2020
6409 Clear 14 1025 50 10000 4.6 340 08:58 19.03.2020
6410 Clear 14 1025 50 10000 4.6 340 08:40 19.03.2020
6411 Clear 11 1024 54 10000 5.1 330 08:19 19.03.2020
6412 Clear 10 1024 58 10000 5.7 330 07:44 19.03.2020
6413 Clear 10 1024 58 10000 4.6 330 07:23 19.03.2020
6414 Clear 9 1024 58 10000 3.6 330 06:34 19.03.2020
6415 Clear 10 1024 54 10000 3.6 340 05:47 19.03.2020
6416 Clear 11 1024 54 10000 3.6 330 04:54 19.03.2020
6417 Clear 11 1024 54 10000 3.6 330 04:34 19.03.2020
6418 Clear 11 1024 54 10000 4.6 340 02:37 19.03.2020
6419 Clear 11 1025 58 10000 3.6 340 01:21 19.03.2020
6420 Clear 12 1025 54 10000 5.1 330 00:28 19.03.2020
6421 Clear 12 1025 54 10000 4.6 320 23:48 18.03.2020
6422 Clear 12 1025 58 10000 4.6 320 23:30 18.03.2020
6423 Clear 12 1025 58 10000 4.6 330 22:56 18.03.2020
6424 Clear 12 1025 58 10000 4.6 330 22:38 18.03.2020
6425 Clear 12 1026 58 10000 4.1 330 22:20 18.03.2020
6426 Clear 12 1025 54 10000 4.1 330 21:42 18.03.2020
6427 Clear 12 1025 54 10000 2.1 340 21:21 18.03.2020
6428 Clear 13 1025 54 10000 2.1 340 20:58 18.03.2020
6429 Clear 13 1025 54 10000 2.1 340 20:40 18.03.2020
6430 Clear 13 1025 54 10000 1.5 340 20:20 18.03.2020
6431 Clear 13 1025 67 10000 1.99 313 19:56 18.03.2020
6432 Clear 13 1025 67 10000 1.99 313 19:38 18.03.2020
6433 Clear 13 1025 62 10000 1 300 19:19 18.03.2020
6434 Clear 13 1025 62 10000 1 300 19:19 18.03.2020
6435 Clear 14 1025 67 10000 1 250 18:41 18.03.2020
6436 Clear 15 1025 72 10000 1.5 190 18:20 18.03.2020
6437 Clear 16 1025 63 10000 1.5 170 17:58 18.03.2020
6438 Clear 16 1025 63 10000 1.5 170 17:40 18.03.2020
6439 Clear 16 1025 59 10000 1.5 180 17:21 18.03.2020
6440 Clear 17 1025 63 10000 2.1 190 16:58 18.03.2020
6441 Clear 16 1026 59 10000 2.1 190 16:39 18.03.2020
6442 Clear 17 1026 59 10000 2.1 190 16:20 18.03.2020
6443 Clear 17 1026 59 10000 1.5 180 15:45 18.03.2020
6444 Clear 17 1026 59 10000 1.5 170 15:20 18.03.2020
6445 Clear 17 1026 67 10000 1.5 170 14:45 18.03.2020
6446 Clear 16 1027 67 10000 1.5 130 14:22 18.03.2020
6447 Clear 16 1027 67 10000 2.1 130 13:59 18.03.2020
6448 Clear 17 1027 63 10000 2.6 120 13:37 18.03.2020
6449 Clear 16 1027 63 10000 2.6 120 13:19 18.03.2020
6450 Clear 16 1028 63 10000 2.1 140 12:41 18.03.2020
6451 Clear 16 1028 59 10000 2.1 140 12:20 18.03.2020
6452 Clear 16 1028 62 10000 2.1 150 11:40 18.03.2020
6453 Clear 16 1028 62 10000 2.1 140 11:21 18.03.2020
6454 Clear 16 1028 62 10000 1.5 120 10:58 18.03.2020
6455 Clear 16 1028 62 10000 1.5 120 10:39 18.03.2020
6456 Clear 16 1028 55 10000 1.5 110 10:20 18.03.2020
6457 Clear 15 1028 58 10000 1 0 09:59 18.03.2020
6458 Clear 15 1028 58 10000 1 0 09:39 18.03.2020
6459 Clear 12 1028 54 10000 2.1 330 09:21 18.03.2020
6460 Clear 11 1028 58 10000 3.1 340 08:40 18.03.2020
6461 Clear 10 1028 62 10000 4.1 340 08:21 18.03.2020
6462 Clear 9 1028 66 10000 3.6 330 07:49 18.03.2020
6463 Clear 8 1028 71 10000 4.1 330 07:31 18.03.2020
6464 Clear 7 1028 71 10000 4.1 330 06:50 18.03.2020
6465 Clear 7 1028 71 10000 4.1 340 06:31 18.03.2020
6466 Clear 7 1028 71 10000 4.1 330 05:36 18.03.2020
6467 Clear 8 1028 71 10000 3.6 330 04:29 18.03.2020
6468 Clear 8 1028 71 10000 3.6 330 03:21 18.03.2020
6469 Clear 8 1028 71 10000 3.6 320 02:32 18.03.2020
6470 Clear 8 1029 76 10000 3.6 320 01:32 18.03.2020
6471 Clear 9 1029 76 10000 3.1 340 00:42 18.03.2020
6472 Clear 7 1029 76 10000 3.1 330 00:21 18.03.2020
6473 Clear 9 1029 76 10000 3.1 330 23:41 17.03.2020
6474 Clear 9 1030 71 10000 3.1 330 23:20 17.03.2020
6475 Clear 8 1030 71 10000 3.1 330 22:42 17.03.2020
6476 Clear 10 1030 76 10000 2.1 320 22:24 17.03.2020
6477 Clear 10 1030 71 10000 1.5 330 21:43 17.03.2020
6478 Clear 10 1029 71 10000 2.1 330 21:23 17.03.2020
6479 Clear 11 1029 71 10000 1 0 20:58 17.03.2020
6480 Clear 11 1029 71 10000 1 0 20:38 17.03.2020
6481 Clear 11 1029 71 10000 1 50 20:19 17.03.2020
6482 Clear 11 1029 66 10000 2.65 50 19:42 17.03.2020
6483 Clear 12 1029 67 10000 2.65 50 19:19 17.03.2020
6484 Clear 12 1029 67 10000 2.65 50 18:57 17.03.2020
6485 Clear 13 1029 67 10000 2.65 50 18:39 17.03.2020
6486 Clear 13 1029 76 10000 2.65 50 18:21 17.03.2020
6487 Clear 14 1029 72 10000 2.65 50 17:56 17.03.2020
6488 Clear 14 1029 77 10000 1 0 17:38 17.03.2020
6489 Clear 15 1029 77 10000 1 0 17:18 17.03.2020
6490 Clear 15 1029 77 10000 1.5 110 16:42 17.03.2020
6491 Clear 15 1029 77 10000 1.5 110 16:19 17.03.2020
6492 Clear 15 1029 77 10000 1.5 110 16:19 17.03.2020
6493 Clear 15 1029 77 10000 2.1 100 15:45 17.03.2020
6494 Clear 15 1029 77 10000 2.6 100 15:23 17.03.2020
6495 Clear 15 1029 77 10000 1.5 90 14:47 17.03.2020
6496 Clear 15 1030 77 10000 2.1 80 14:27 17.03.2020
6497 Clouds 15 1030 77 10000 3.1 70 13:58 17.03.2020
6498 Clouds 15 1030 77 10000 3.1 70 13:40 17.03.2020
6499 Clouds 15 1030 77 10000 3.6 70 13:22 17.03.2020
6500 Clouds 14 1030 77 10000 5.1 80 12:47 17.03.2020
6501 Clouds 13 1030 67 10000 6.2 80 12:25 17.03.2020
6502 Clear 15 1030 59 10000 5.7 80 11:56 17.03.2020
6503 Clear 15 1030 59 10000 5.7 80 11:38 17.03.2020
6504 Clouds 15 1030 67 10000 4.1 80 11:20 17.03.2020
6505 Clouds 14 1030 62 10000 1.5 90 10:54 17.03.2020
6506 Clouds 15 1030 62 10000 1.5 90 10:36 17.03.2020
6507 Clouds 15 1030 54 10000 0.5 0 10:18 17.03.2020
6508 Clouds 14 1030 54 10000 1 0 09:45 17.03.2020
6509 Clouds 11 1030 71 10000 1 0 09:20 17.03.2020
6510 Clouds 11 1029 54 10000 3.1 330 08:57 17.03.2020
6511 Clouds 11 1029 54 10000 3.1 330 08:39 17.03.2020
6512 Clouds 10 1029 76 10000 1.5 0 08:18 17.03.2020
6513 Clouds 10 1029 54 10000 3.6 330 07:47 17.03.2020
6514 Clouds 9 1029 57 10000 2.6 330 07:20 17.03.2020
6515 Clouds 9 1028 57 10000 3.6 330 06:45 17.03.2020
6516 Clouds 9 1028 54 10000 3.1 330 06:24 17.03.2020
6517 Clouds 9 1028 54 10000 4.1 340 05:18 17.03.2020
6518 Clouds 9 1027 58 10000 4.6 340 03:27 17.03.2020
6519 Clouds 9 1027 62 10000 4.6 330 01:50 17.03.2020
6520 Clouds 9 1027 62 10000 3.6 330 01:30 17.03.2020
6521 Clouds 10 1027 62 10000 4.1 340 00:52 17.03.2020
6522 Clouds 10 1027 66 10000 3.1 330 23:53 16.03.2020
6523 Clouds 10 1027 66 10000 3.1 330 23:34 16.03.2020
6524 Clouds 10 1027 66 10000 3.6 320 22:55 16.03.2020
6525 Clouds 10 1027 66 10000 2.1 340 22:37 16.03.2020
6526 Clouds 10 1027 66 10000 2.1 340 22:19 16.03.2020
6527 Clouds 10 1027 62 10000 2.6 330 21:44 16.03.2020
6528 Clouds 10 1026 50 10000 3.6 40 21:25 16.03.2020
6529 Clouds 11 1026 54 10000 7.2 60 20:58 16.03.2020
6530 Clouds 11 1026 54 10000 7.2 60 20:39 16.03.2020
6531 Clouds 11 1026 62 10000 7.2 70 20:20 16.03.2020
6532 Clouds 12 1025 62 10000 5.7 60 19:46 16.03.2020
6533 Clouds 12 1025 62 10000 5.1 60 19:23 16.03.2020
6534 Clouds 13 1025 54 10000 6.7 70 18:59 16.03.2020
6535 Clouds 13 1025 54 10000 6.7 70 18:39 16.03.2020
6536 Clouds 14 1024 62 10000 5.1 70 18:19 16.03.2020
6537 Clouds 14 1024 58 10000 7.2 80 17:46 16.03.2020
6538 Clouds 14 1024 63 10000 6.2 80 17:25 16.03.2020
6539 Clouds 14 1024 58 10000 6.2 70 16:56 16.03.2020
6540 Clouds 14 1024 58 10000 6.2 70 16:37 16.03.2020
6541 Clouds 14 1024 59 10000 5.7 70 16:19 16.03.2020
6542 Clouds 14 1024 55 10000 6.7 70 15:42 16.03.2020
6543 Clouds 15 1024 58 10000 8.7 80 15:23 16.03.2020
6544 Clouds 14 1024 58 10000 8.7 80 15:23 16.03.2020
6545 Clouds 14 1024 58 10000 7.7 90 14:45 16.03.2020
6546 Clear 15 1024 55 10000 8.2 80 14:20 16.03.2020
6547 Clear 14 1024 58 10000 7.7 80 13:48 16.03.2020
6548 Clear 15 1024 58 10000 10.3 90 13:28 16.03.2020
6549 Clear 14 1024 58 10000 10.8 90 12:58 16.03.2020
6550 Clear 14 1024 58 10000 10.8 90 12:39 16.03.2020
6551 Clear 14 1024 62 10000 9.3 80 12:20 16.03.2020
6552 Clear 14 1024 58 10000 8.7 80 11:43 16.03.2020
6553 Clear 14 1023 62 10000 7.7 80 11:25 16.03.2020
6554 Clear 14 1023 58 10000 6.2 80 10:45 16.03.2020
6555 Clear 14 1023 54 10000 5.1 80 10:24 16.03.2020
6556 Clear 13 1023 50 10000 1.5 0 09:56 16.03.2020
6557 Clear 13 1023 50 10000 1.5 0 09:37 16.03.2020
6558 Clear 13 1023 54 10000 2.1 0 09:19 16.03.2020
6559 Clear 9 1022 58 10000 2.1 20 08:43 16.03.2020
6560 Clear 8 1022 66 10000 3.1 320 08:23 16.03.2020
6561 Clear 7 1022 70 10000 2.1 350 07:43 16.03.2020
6562 Clear 5 1022 70 10000 2.6 330 07:21 16.03.2020
6563 Clear 5 1022 70 10000 2.6 330 07:21 16.03.2020
6564 Clear 6 1021 70 10000 3.1 330 06:46 16.03.2020
6565 Clear 6 1022 75 10000 3.1 330 06:22 16.03.2020
6566 Clear 7 1022 70 10000 4.1 330 04:26 16.03.2020
6567 Clear 8 1021 66 10000 4.6 330 01:47 16.03.2020
6568 Clear 8 1021 71 10000 3.6 330 00:48 16.03.2020
6569 Clear 10 1021 66 10000 3.6 330 00:28 16.03.2020
6570 Clear 10 1021 66 10000 3.1 330 23:41 15.03.2020
6571 Clear 10 1021 66 10000 3.6 330 23:19 15.03.2020
6572 Clear 10 1021 66 10000 3.1 330 22:42 15.03.2020
6573 Clear 10 1021 71 10000 3.6 330 22:22 15.03.2020
6574 Clear 10 1021 71 10000 2.6 340 21:40 15.03.2020
6575 Clear 10 1021 66 10000 3.1 320 21:22 15.03.2020
6576 Clear 10 1021 66 10000 2.6 320 20:58 15.03.2020
6577 Clear 10 1021 66 10000 2.6 320 20:58 15.03.2020
6578 Clear 11 1021 66 10000 2.6 320 20:40 15.03.2020
6579 Clear 11 1021 67 10000 1.5 40 20:20 15.03.2020
6580 Clouds 11 1021 62 10000 2.6 70 19:56 15.03.2020
6581 Clouds 11 1021 62 10000 2.6 70 19:38 15.03.2020
6582 Clouds 11 1021 62 10000 1 40 19:19 15.03.2020
6583 Clouds 12 1021 62 10000 1 0 18:55 15.03.2020
6584 Clouds 13 1021 62 10000 1 0 18:36 15.03.2020
6585 Clouds 13 1021 58 10000 0.5 0 18:18 15.03.2020
6586 Clouds 14 1021 58 10000 1.5 80 17:40 15.03.2020
6587 Clouds 14 1021 54 10000 2.1 100 17:20 15.03.2020
6588 Clouds 14 1021 54 10000 3.6 100 16:56 15.03.2020
6589 Clouds 14 1021 54 10000 3.6 100 16:38 15.03.2020
6590 Clouds 14 1021 58 10000 4.6 90 16:19 15.03.2020
6591 Clouds 14 1021 58 10000 5.1 90 15:43 15.03.2020
6592 Clouds 14 1021 58 10000 5.1 90 15:25 15.03.2020
6593 Clouds 15 1022 58 10000 5.7 90 14:55 15.03.2020
6594 Clouds 15 1022 58 10000 5.7 90 14:37 15.03.2020
6595 Clouds 15 1022 58 10000 6.7 90 14:18 15.03.2020
6596 Clouds 15 1022 58 10000 7.2 100 13:40 15.03.2020
6597 Clouds 14 1022 58 10000 8.2 100 13:21 15.03.2020
6598 Clouds 14 1022 58 10000 8.7 100 12:59 15.03.2020
6599 Clouds 14 1022 58 10000 8.7 100 12:39 15.03.2020
6600 Clouds 15 1022 58 10000 8.7 100 12:21 15.03.2020
6601 Clouds 15 1022 62 10000 7.2 100 11:43 15.03.2020
6602 Clouds 14 1022 62 10000 5.1 100 11:24 15.03.2020
6603 Clouds 14 1022 67 10000 3.6 120 10:57 15.03.2020
6604 Clouds 13 1022 77 10000 1.5 140 10:39 15.03.2020
6605 Clouds 14 1022 77 10000 1.5 140 10:20 15.03.2020
6606 Clouds 14 1021 72 10000 0.5 0 09:42 15.03.2020
6607 Clouds 13 1021 71 10000 1 0 09:23 15.03.2020
6608 Clouds 11 1021 76 10000 3.1 330 08:58 15.03.2020
6609 Clouds 11 1021 76 10000 3.1 330 08:40 15.03.2020
6610 Clouds 11 1021 81 10000 2.6 320 08:18 15.03.2020
6611 Clouds 10 1020 81 10000 2.6 320 07:44 15.03.2020
6612 Clouds 9 1020 87 10000 3.1 330 06:59 15.03.2020
6613 Clouds 9 1020 87 10000 3.1 330 06:36 15.03.2020
6614 Clouds 10 1019 81 10000 2.6 320 05:46 15.03.2020
6615 Clouds 10 1019 87 10000 2.6 320 04:50 15.03.2020
6616 Clouds 11 1019 81 10000 3.1 320 04:32 15.03.2020
6617 Clouds 11 1019 81 10000 4.1 330 03:59 15.03.2020
6618 Clouds 11 1019 81 10000 2.1 330 02:49 15.03.2020
6619 Clouds 11 1019 87 10000 2.6 330 02:18 15.03.2020
6620 Clouds 11 1019 82 10000 1.5 310 00:57 15.03.2020
6621 Clouds 11 1019 82 10000 1.5 310 00:39 15.03.2020
6622 Clouds 11 1019 87 10000 1 320 00:18 15.03.2020
6623 Clouds 11 1019 87 10000 0.5 360 23:38 14.03.2020
6624 Clouds 11 1018 87 10000 3.56 84 23:19 14.03.2020
6625 Clouds 10 1018 87 10000 0.5 20 22:55 14.03.2020
6626 Clouds 11 1018 87 10000 0.5 20 22:37 14.03.2020
6627 Clouds 11 1018 87 10000 1 30 22:19 14.03.2020
6628 Clouds 11 1018 87 10000 1.5 90 21:55 14.03.2020
6629 Clouds 11 1018 87 10000 1.5 90 21:36 14.03.2020
6630 Clouds 11 1017 87 10000 3.56 84 21:18 14.03.2020
6631 Clouds 11 1017 87 10000 0.5 100 20:55 14.03.2020
6632 Clouds 12 1017 87 10000 0.5 100 20:37 14.03.2020
6633 Clouds 12 1017 87 10000 0.5 90 20:18 14.03.2020
6634 Clouds 13 1016 87 10000 1.3 80 19:40 14.03.2020
6635 Clouds 13 1016 82 10000 1 170 19:20 14.03.2020
6636 Clouds 14 1016 82 10000 1.5 170 18:39 14.03.2020
6637 Clouds 14 1015 77 10000 2.1 180 18:20 14.03.2020
6638 Clouds 15 1015 82 10000 3.6 190 17:42 14.03.2020
6639 Clouds 15 1015 82 10000 3.6 190 17:23 14.03.2020
6640 Clouds 15 1015 82 10000 3.6 190 17:23 14.03.2020
6641 Clouds 15 1015 72 10000 4.1 200 16:59 14.03.2020
6642 Clouds 16 1015 77 10000 4.6 190 16:38 14.03.2020
6643 Clouds 16 1015 77 10000 4.6 190 16:19 14.03.2020
6644 Clouds 16 1015 77 10000 4.6 200 15:46 14.03.2020
6645 Clouds 16 1015 77 10000 5.1 200 15:22 14.03.2020
6646 Clouds 16 1015 77 10000 5.1 200 14:43 14.03.2020
6647 Clouds 16 1015 72 10000 5.1 200 14:21 14.03.2020
6648 Clouds 16 1015 72 10000 5.1 200 13:57 14.03.2020
6649 Clouds 16 1015 72 10000 5.1 200 13:39 14.03.2020
6650 Clouds 16 1016 72 10000 5.1 190 13:20 14.03.2020
6651 Clouds 16 1016 67 10000 4.1 170 12:44 14.03.2020
6652 Clouds 16 1016 72 10000 4.1 160 12:26 14.03.2020
6653 Clouds 16 1016 72 10000 4.1 180 11:48 14.03.2020
6654 Clouds 16 1016 77 10000 4.1 190 11:27 14.03.2020
6655 Clouds 14 1016 77 10000 3.6 200 10:59 14.03.2020
6656 Clouds 14 1016 77 10000 3.6 200 10:41 14.03.2020
6657 Clouds 13 1016 72 10000 3.1 210 10:23 14.03.2020
6658 Clouds 14 1016 71 10000 2.6 250 09:44 14.03.2020
6659 Clouds 14 1016 82 10000 3.1 250 09:24 14.03.2020
6660 Clouds 13 1015 87 10000 2.6 310 08:48 14.03.2020
6661 Clouds 13 1015 93 10000 2.6 320 08:29 14.03.2020
6662 Clouds 9 1015 87 10000 3.1 310 07:55 14.03.2020
6663 Clouds 9 1015 87 10000 3.1 310 07:37 14.03.2020
6664 Clouds 10 1015 93 10000 2.1 260 07:19 14.03.2020
6665 Clouds 10 1015 93 10000 2.6 310 06:40 14.03.2020
6666 Clouds 11 1015 87 10000 2.1 320 06:40 14.03.2020
6667 Clouds 11 1015 93 10000 2.1 330 05:43 14.03.2020
6668 Clouds 12 1015 93 10000 1 270 03:49 14.03.2020
6669 Clouds 12 1015 93 10000 1.5 280 03:24 14.03.2020
6670 Clouds 12 1016 87 10000 2.1 330 02:23 14.03.2020
6671 Clouds 12 1015 93 10000 1.5 70 00:49 14.03.2020
6672 Clouds 13 1015 87 10000 3.6 90 23:50 13.03.2020
6673 Clouds 12 1015 87 10000 3.6 90 23:30 13.03.2020
6674 Clouds 12 1015 87 10000 5.1 80 22:52 13.03.2020
6675 Clouds 12 1015 87 10000 5.1 80 22:52 13.03.2020
6676 Clouds 12 1015 87 10000 5.1 90 22:26 13.03.2020
6677 Clouds 13 1015 87 10000 5.1 90 21:44 13.03.2020
6678 Clouds 12